<?xml version="1.0" encoding="UTF-8" standalone="no" ?><gpx xmlns="http://www.topografix.com/GPX/1/1" xmlns:gpxx="http://www.garmin.com/xmlschemas/GpxExtensions/v3" xmlns:gpxtrkx="http://www.garmin.com/xmlschemas/TrackStatsExtension/v1" xmlns:wptx1="http://www.garmin.com/xmlschemas/WaypointExtension/v1" xmlns:gpxtpx="http://www.garmin.com/xmlschemas/TrackPointExtension/v1" creator="GPSMAP 65s" version="1.1" xmlns:xsi="http://www.w3.org/2001/XMLSchema-instance" xsi:schemaLocation="http://www.topografix.com/GPX/1/1 http://www.topografix.com/GPX/1/1/gpx.xsd http://www.garmin.com/xmlschemas/GpxExtensions/v3 http://www8.garmin.com/xmlschemas/GpxExtensionsv3.xsd http://www.garmin.com/xmlschemas/TrackStatsExtension/v1 http://www8.garmin.com/xmlschemas/TrackStatsExtension.xsd http://www.garmin.com/xmlschemas/WaypointExtension/v1 http://www8.garmin.com/xmlschemas/WaypointExtensionv1.xsd http://www.garmin.com/xmlschemas/TrackPointExtension/v1 http://www.garmin.com/xmlschemas/TrackPointExtensionv1.xsd"><metadata><link href="http://www.garmin.com"><text>Garmin International</text></link><time>2026-08-23T01:44:20Z</time></metadata><trk><name>2026-08-23ДУБР43:44</name><extensions><gpxx:TrackExtension><gpxx:DisplayColor>Red</gpxx:DisplayColor></gpxx:TrackExtension></extensions><trkseg><trkpt lat="58.9762774576" lon="29.9742040783"><ele>65.57</ele><time>2026-06-21T11:53:23Z</time></trkpt><trkpt lat="58.9762770385" lon="29.9742064252"><ele>65.57</ele><time>2026-06-21T11:53:24Z</time></trkpt><trkpt lat="58.9762780443" lon="29.9742107838"><ele>63.79</ele><time>2026-06-21T11:53:28Z</time></trkpt><trkpt lat="58.9762810618" lon="29.9742112868"><ele>63.79</ele><time>2026-06-21T11:53:31Z</time></trkpt></trkseg><trkseg><trkpt lat="59.4054132979" lon="34.7092832532"><ele>197.44</ele><time>2026-08-22T12:25:19Z</time></trkpt><trkpt lat="59.4054089393" lon="34.7092792299"><ele>193.77</ele><time>2026-08-22T12:25:24Z</time></trkpt><trkpt lat="59.4054039102" lon="34.7092745360"><ele>190.02</ele><time>2026-08-22T12:25:29Z</time></trkpt><trkpt lat="59.4054077659" lon="34.7092753742"><ele>186.90</ele><time>2026-08-22T12:25:34Z</time></trkpt><trkpt lat="59.4054118730" lon="34.7092668246"><ele>183.40</ele><time>2026-08-22T12:25:40Z</time></trkpt><trkpt lat="59.4054147229" lon="34.7092662379"><ele>182.57</ele><time>2026-08-22T12:25:42Z</time></trkpt><trkpt lat="59.4054186624" lon="34.7092691716"><ele>179.26</ele><time>2026-08-22T12:25:51Z</time></trkpt><trkpt lat="59.4054182433" lon="34.7092592809"><ele>175.99</ele><time>2026-08-22T12:26:03Z</time></trkpt><trkpt lat="59.4054252841" lon="34.7092544194"><ele>172.86</ele><time>2026-08-22T12:26:20Z</time></trkpt><trkpt lat="59.4054383598" lon="34.7092471272"><ele>170.46</ele><time>2026-08-22T12:26:56Z</time></trkpt><trkpt lat="59.4054418802" lon="34.7092612926"><ele>170.05</ele><time>2026-08-22T12:27:26Z</time></trkpt><trkpt lat="59.4054554589" lon="34.7092357278"><ele>170.26</ele><time>2026-08-22T12:27:47Z</time></trkpt><trkpt lat="59.4054365996" lon="34.7092327941"><ele>170.26</ele><time>2026-08-22T12:28:14Z</time></trkpt><trkpt lat="59.4054440595" lon="34.7092441935"><ele>170.07</ele><time>2026-08-22T12:28:40Z</time></trkpt><trkpt lat="59.4054532796" lon="34.7092459537"><ele>169.44</ele><time>2026-08-22T12:29:02Z</time></trkpt><trkpt lat="59.4054319896" lon="34.7092618793"><ele>169.59</ele><time>2026-08-22T12:29:22Z</time></trkpt><trkpt lat="59.4054129627" lon="34.7092522401"><ele>169.59</ele><time>2026-08-22T12:29:49Z</time></trkpt><trkpt lat="59.4054206740" lon="34.7092747875"><ele>169.06</ele><time>2026-08-22T12:30:32Z</time></trkpt><trkpt lat="59.4054284692" lon="34.7093071416"><ele>169.38</ele><time>2026-08-22T12:31:13Z</time></trkpt><trkpt lat="59.4054102805" lon="34.7092600353"><ele>169.16</ele><time>2026-08-22T12:32:15Z</time></trkpt><trkpt lat="59.4054317381" lon="34.7092489712"><ele>169.23</ele><time>2026-08-22T12:33:06Z</time></trkpt><trkpt lat="59.4054127950" lon="34.7092197184"><ele>169.08</ele><time>2026-08-22T12:33:44Z</time></trkpt><trkpt lat="59.4054021500" lon="34.7091879509"><ele>168.79</ele><time>2026-08-22T12:34:30Z</time></trkpt><trkpt lat="59.4054106995" lon="34.7091959976"><ele>168.74</ele><time>2026-08-22T12:35:03Z</time></trkpt><trkpt lat="59.4054345880" lon="34.7092470434"><ele>168.57</ele><time>2026-08-22T12:35:37Z</time></trkpt><trkpt lat="59.4054076821" lon="34.7092352249"><ele>168.66</ele><time>2026-08-22T12:36:10Z</time></trkpt><trkpt lat="59.4054243620" lon="34.7092368174"><ele>168.69</ele><time>2026-08-22T12:36:50Z</time></trkpt><trkpt lat="59.4054281339" lon="34.7092138510"><ele>168.52</ele><time>2026-08-22T12:37:13Z</time></trkpt><trkpt lat="59.4053848833" lon="34.7092349734"><ele>168.50</ele><time>2026-08-22T12:37:56Z</time></trkpt><trkpt lat="59.4054157287" lon="34.7092225682"><ele>168.29</ele><time>2026-08-22T12:38:43Z</time></trkpt><trkpt lat="59.4054166507" lon="34.7092076484"><ele>168.13</ele><time>2026-08-22T12:39:20Z</time></trkpt><trkpt lat="59.4054260384" lon="34.7092099953"><ele>168.09</ele><time>2026-08-22T12:40:04Z</time></trkpt><trkpt lat="59.4054172374" lon="34.7092178743"><ele>167.91</ele><time>2026-08-22T12:40:51Z</time></trkpt><trkpt lat="59.4054105319" lon="34.7092272621"><ele>167.81</ele><time>2026-08-22T12:41:18Z</time></trkpt><trkpt lat="59.4054269604" lon="34.7092361469"><ele>167.66</ele><time>2026-08-22T12:41:50Z</time></trkpt><trkpt lat="59.4054198358" lon="34.7092662379"><ele>167.80</ele><time>2026-08-22T12:42:05Z</time></trkpt><trkpt lat="59.4054299779" lon="34.7092429362"><ele>167.64</ele><time>2026-08-22T12:42:53Z</time></trkpt><trkpt lat="59.4054188300" lon="34.7092460375"><ele>167.67</ele><time>2026-08-22T12:43:48Z</time></trkpt><trkpt lat="59.4054161478" lon="34.7092315368"><ele>167.60</ele><time>2026-08-22T12:44:41Z</time></trkpt><trkpt lat="59.4054266252" lon="34.7092155274"><ele>167.42</ele><time>2026-08-22T12:45:54Z</time></trkpt><trkpt lat="59.4054172374" lon="34.7092308663"><ele>167.32</ele><time>2026-08-22T12:46:49Z</time></trkpt><trkpt lat="59.4054067601" lon="34.7092363983"><ele>167.23</ele><time>2026-08-22T12:47:48Z</time></trkpt><trkpt lat="59.4054152258" lon="34.7092364822"><ele>167.09</ele><time>2026-08-22T12:48:51Z</time></trkpt><trkpt lat="59.4054077659" lon="34.7092385776"><ele>167.14</ele><time>2026-08-22T12:49:45Z</time></trkpt><trkpt lat="59.4053585641" lon="34.7092144378"><ele>166.96</ele><time>2026-08-22T12:51:08Z</time></trkpt><trkpt lat="59.4053618331" lon="34.7092040442"><ele>166.45</ele><time>2026-08-22T12:52:04Z</time></trkpt><trkpt lat="59.4053598214" lon="34.7091912199"><ele>166.19</ele><time>2026-08-22T12:53:06Z</time></trkpt><trkpt lat="59.4053521939" lon="34.7091879509"><ele>165.98</ele><time>2026-08-22T12:54:04Z</time></trkpt><trkpt lat="59.4053577259" lon="34.7091964167"><ele>166.74</ele><time>2026-08-22T12:54:37Z</time></trkpt><trkpt lat="59.4054075982" lon="34.7092418466"><ele>164.86</ele><time>2026-08-22T12:54:46Z</time></trkpt><trkpt lat="59.4054439757" lon="34.7092138510"><ele>165.58</ele><time>2026-08-22T12:54:57Z</time></trkpt><trkpt lat="59.4054386951" lon="34.7092152759"><ele>162.21</ele><time>2026-08-22T12:55:09Z</time></trkpt><trkpt lat="59.4054392818" lon="34.7092120908"><ele>165.69</ele><time>2026-08-22T12:55:10Z</time></trkpt><trkpt lat="59.4054283854" lon="34.7091918904"><ele>164.91</ele><time>2026-08-22T12:55:27Z</time></trkpt><trkpt lat="59.4054349232" lon="34.7092063911"><ele>164.71</ele><time>2026-08-22T12:56:38Z</time></trkpt><trkpt lat="59.4054385275" lon="34.7092099953"><ele>165.11</ele><time>2026-08-22T12:57:35Z</time></trkpt><trkpt lat="59.4054291397" lon="34.7092088219"><ele>165.43</ele><time>2026-08-22T12:58:15Z</time></trkpt><trkpt lat="59.4054292236" lon="34.7091977578"><ele>165.20</ele><time>2026-08-22T12:59:06Z</time></trkpt><trkpt lat="59.4054314867" lon="34.7091905493"><ele>165.23</ele><time>2026-08-22T13:00:08Z</time></trkpt><trkpt lat="59.4054319896" lon="34.7092090733"><ele>165.44</ele><time>2026-08-22T13:01:01Z</time></trkpt><trkpt lat="59.4054380246" lon="34.7092109174"><ele>166.96</ele><time>2026-08-22T13:01:52Z</time></trkpt><trkpt lat="59.4054417964" lon="34.7092027869"><ele>165.39</ele><time>2026-08-22T13:02:34Z</time></trkpt><trkpt lat="59.4054366834" lon="34.7092060558"><ele>165.42</ele><time>2026-08-22T13:03:32Z</time></trkpt><trkpt lat="59.4054484181" lon="34.7091748752"><ele>164.38</ele><time>2026-08-22T13:04:23Z</time></trkpt><trkpt lat="59.4054477476" lon="34.7091759648"><ele>164.37</ele><time>2026-08-22T13:04:24Z</time></trkpt><trkpt lat="59.4054331630" lon="34.7091945726"><ele>164.70</ele><time>2026-08-22T13:05:14Z</time></trkpt><trkpt lat="59.4054320734" lon="34.7091956623"><ele>165.42</ele><time>2026-08-22T13:05:16Z</time></trkpt><trkpt lat="59.4054283854" lon="34.7091876995"><ele>164.81</ele><time>2026-08-22T13:06:09Z</time></trkpt><trkpt lat="59.4054263737" lon="34.7091833409"><ele>164.30</ele><time>2026-08-22T13:06:47Z</time></trkpt><trkpt lat="59.4054210931" lon="34.7091769706"><ele>167.66</ele><time>2026-08-22T13:06:58Z</time></trkpt><trkpt lat="59.4054207578" lon="34.7091772221"><ele>166.53</ele><time>2026-08-22T13:06:59Z</time></trkpt><trkpt lat="59.4054220989" lon="34.7091724444"><ele>164.14</ele><time>2026-08-22T13:07:03Z</time></trkpt><trkpt lat="59.4054241944" lon="34.7091818321"><ele>168.63</ele><time>2026-08-22T13:07:16Z</time></trkpt><trkpt lat="59.4054257870" lon="34.7091847658"><ele>165.54</ele><time>2026-08-22T13:07:17Z</time></trkpt><trkpt lat="59.4054302294" lon="34.7091907170"><ele>164.81</ele><time>2026-08-22T13:07:19Z</time></trkpt><trkpt lat="59.4054228533" lon="34.7091883700"><ele>163.55</ele><time>2026-08-22T13:07:33Z</time></trkpt><trkpt lat="59.4054177403" lon="34.7091923933"><ele>167.48</ele><time>2026-08-22T13:07:41Z</time></trkpt><trkpt lat="59.4054333307" lon="34.7092107497"><ele>166.20</ele><time>2026-08-22T13:08:05Z</time></trkpt><trkpt lat="59.4054439757" lon="34.7092086542"><ele>166.14</ele><time>2026-08-22T13:08:25Z</time></trkpt><trkpt lat="59.4054064248" lon="34.7092148568"><ele>166.30</ele><time>2026-08-22T13:08:41Z</time></trkpt><trkpt lat="59.4054229371" lon="34.7092226520"><ele>166.43</ele><time>2026-08-22T13:09:06Z</time></trkpt><trkpt lat="59.4054283854" lon="34.7092237417"><ele>167.08</ele><time>2026-08-22T13:09:45Z</time></trkpt><trkpt lat="59.4054452330" lon="34.7092420980"><ele>165.01</ele><time>2026-08-22T13:10:23Z</time></trkpt></trkseg><trkseg><trkpt lat="59.4054306485" lon="34.7092195507"><ele>156.68</ele><time>2026-08-22T13:10:47Z</time></trkpt><trkpt lat="59.4054303970" lon="34.7092196345"><ele>156.68</ele><time>2026-08-22T13:10:48Z</time></trkpt><trkpt lat="59.4054306485" lon="34.7092185449"><ele>160.60</ele><time>2026-08-22T13:10:51Z</time></trkpt><trkpt lat="59.4054304808" lon="34.7092163656"><ele>160.60</ele><time>2026-08-22T13:10:52Z</time></trkpt><trkpt lat="59.4054214284" lon="34.7091879509"><ele>160.92</ele><time>2026-08-22T13:11:43Z</time></trkpt><trkpt lat="59.4054215960" lon="34.7091346420"><ele>161.79</ele><time>2026-08-22T13:11:56Z</time></trkpt><trkpt lat="59.4054295588" lon="34.7090725321"><ele>161.34</ele><time>2026-08-22T13:12:00Z</time></trkpt><trkpt lat="59.4055669382" lon="34.7086063307"><ele>160.25</ele><time>2026-08-22T13:12:24Z</time></trkpt><trkpt lat="59.4055969454" lon="34.7084459849"><ele>160.38</ele><time>2026-08-22T13:12:31Z</time></trkpt><trkpt lat="59.4057115261" lon="34.7080164962"><ele>160.63</ele><time>2026-08-22T13:12:51Z</time></trkpt><trkpt lat="59.4059084170" lon="34.7076165956"><ele>159.63</ele><time>2026-08-22T13:13:17Z</time></trkpt><trkpt lat="59.4059115183" lon="34.7075927909"><ele>159.54</ele><time>2026-08-22T13:13:21Z</time></trkpt><trkpt lat="59.4059378374" lon="34.7075437568"><ele>159.11</ele><time>2026-08-22T13:13:25Z</time></trkpt><trkpt lat="59.4059878774" lon="34.7074790485"><ele>158.98</ele><time>2026-08-22T13:13:31Z</time></trkpt><trkpt lat="59.4060312957" lon="34.7074223869"><ele>158.89</ele><time>2026-08-22T13:13:38Z</time></trkpt><trkpt lat="59.4061292801" lon="34.7072116658"><ele>159.36</ele><time>2026-08-22T13:13:55Z</time></trkpt><trkpt lat="59.4062531646" lon="34.7069879528"><ele>159.96</ele><time>2026-08-22T13:14:10Z</time></trkpt><trkpt lat="59.4063880295" lon="34.7065907344"><ele>160.38</ele><time>2026-08-22T13:14:32Z</time></trkpt><trkpt lat="59.4064710941" lon="34.7061397880"><ele>160.53</ele><time>2026-08-22T13:14:57Z</time></trkpt><trkpt lat="59.4065335393" lon="34.7056558169"><ele>160.95</ele><time>2026-08-22T13:15:19Z</time></trkpt><trkpt lat="59.4065390714" lon="34.7051949799"><ele>160.63</ele><time>2026-08-22T13:15:40Z</time></trkpt><trkpt lat="59.4065659773" lon="34.7047604620"><ele>160.79</ele><time>2026-08-22T13:16:00Z</time></trkpt><trkpt lat="59.4065266661" lon="34.7043583822"><ele>160.81</ele><time>2026-08-22T13:16:18Z</time></trkpt><trkpt lat="59.4064717647" lon="34.7039790172"><ele>160.73</ele><time>2026-08-22T13:16:36Z</time></trkpt><trkpt lat="59.4064525701" lon="34.7038589884"><ele>160.88</ele><time>2026-08-22T13:16:41Z</time></trkpt><trkpt lat="59.4064091519" lon="34.7036915179"><ele>161.27</ele><time>2026-08-22T13:16:49Z</time></trkpt><trkpt lat="59.4063225668" lon="34.7036336828"><ele>161.96</ele><time>2026-08-22T13:17:11Z</time></trkpt><trkpt lat="59.4063139334" lon="34.7036201879"><ele>162.11</ele><time>2026-08-22T13:17:12Z</time></trkpt><trkpt lat="59.4062208943" lon="34.7035088763"><ele>162.04</ele><time>2026-08-22T13:17:22Z</time></trkpt><trkpt lat="59.4061713573" lon="34.7034654580"><ele>162.36</ele><time>2026-08-22T13:17:26Z</time></trkpt><trkpt lat="59.4061187189" lon="34.7033026814"><ele>162.07</ele><time>2026-08-22T13:17:39Z</time></trkpt><trkpt lat="59.4061750453" lon="34.7029382363"><ele>162.11</ele><time>2026-08-22T13:17:56Z</time></trkpt><trkpt lat="59.4062441960" lon="34.7025696840"><ele>162.95</ele><time>2026-08-22T13:18:16Z</time></trkpt><trkpt lat="59.4063526578" lon="34.7021129541"><ele>163.34</ele><time>2026-08-22T13:18:40Z</time></trkpt><trkpt lat="59.4064390752" lon="34.7017067671"><ele>162.58</ele><time>2026-08-22T13:19:00Z</time></trkpt><trkpt lat="59.4065228943" lon="34.7012961376"><ele>163.34</ele><time>2026-08-22T13:19:20Z</time></trkpt><trkpt lat="59.4066221360" lon="34.7008176986"><ele>163.31</ele><time>2026-08-22T13:19:44Z</time></trkpt><trkpt lat="59.4067223836" lon="34.7003612202"><ele>163.57</ele><time>2026-08-22T13:20:08Z</time></trkpt><trkpt lat="59.4068087172" lon="34.6999834478"><ele>163.10</ele><time>2026-08-22T13:20:29Z</time></trkpt><trkpt lat="59.4069111440" lon="34.6995529532"><ele>163.67</ele><time>2026-08-22T13:20:53Z</time></trkpt><trkpt lat="59.4070190191" lon="34.6991320979"><ele>163.95</ele><time>2026-08-22T13:21:15Z</time></trkpt><trkpt lat="59.4071333483" lon="34.6987325326"><ele>164.64</ele><time>2026-08-22T13:21:36Z</time></trkpt><trkpt lat="59.4072491862" lon="34.6984066442"><ele>164.70</ele><time>2026-08-22T13:21:54Z</time></trkpt><trkpt lat="59.4073835481" lon="34.6981192287"><ele>164.27</ele><time>2026-08-22T13:22:12Z</time></trkpt><trkpt lat="59.4075358473" lon="34.6977363434"><ele>163.25</ele><time>2026-08-22T13:22:33Z</time></trkpt><trkpt lat="59.4076760765" lon="34.6973526198"><ele>164.04</ele><time>2026-08-22T13:22:54Z</time></trkpt><trkpt lat="59.4078463968" lon="34.6971861552"><ele>163.76</ele><time>2026-08-22T13:23:10Z</time></trkpt><trkpt lat="59.4079163857" lon="34.6970292460"><ele>163.95</ele><time>2026-08-22T13:23:20Z</time></trkpt><trkpt lat="59.4079220854" lon="34.6969639510"><ele>164.06</ele><time>2026-08-22T13:23:23Z</time></trkpt><trkpt lat="59.4079865422" lon="34.6965375636"><ele>163.85</ele><time>2026-08-22T13:23:42Z</time></trkpt><trkpt lat="59.4080424495" lon="34.6961886249"><ele>163.96</ele><time>2026-08-22T13:23:58Z</time></trkpt><trkpt lat="59.4081110973" lon="34.6957875509"><ele>163.51</ele><time>2026-08-22T13:24:17Z</time></trkpt><trkpt lat="59.4081215747" lon="34.6957426239"><ele>159.58</ele><time>2026-08-22T13:24:19Z</time></trkpt><trkpt lat="59.4081260171" lon="34.6957198251"><ele>164.11</ele><time>2026-08-22T13:24:20Z</time></trkpt><trkpt lat="59.4081305433" lon="34.6955946833"><ele>160.32</ele><time>2026-08-22T13:24:26Z</time></trkpt><trkpt lat="59.4081298728" lon="34.6955564618"><ele>164.47</ele><time>2026-08-22T13:24:28Z</time></trkpt><trkpt lat="59.4081300404" lon="34.6955366805"><ele>162.66</ele><time>2026-08-22T13:24:29Z</time></trkpt><trkpt lat="59.4081327226" lon="34.6954948548"><ele>166.41</ele><time>2026-08-22T13:24:31Z</time></trkpt><trkpt lat="59.4081415236" lon="34.6954345889"><ele>160.90</ele><time>2026-08-22T13:24:34Z</time></trkpt><trkpt lat="59.4081455469" lon="34.6954150591"><ele>161.83</ele><time>2026-08-22T13:24:35Z</time></trkpt><trkpt lat="59.4081528392" lon="34.6953764185"><ele>164.18</ele><time>2026-08-22T13:24:37Z</time></trkpt><trkpt lat="59.4081671722" lon="34.6951501910"><ele>160.79</ele><time>2026-08-22T13:24:48Z</time></trkpt><trkpt lat="59.4081667531" lon="34.6951306611"><ele>164.95</ele><time>2026-08-22T13:24:49Z</time></trkpt><trkpt lat="59.4081682619" lon="34.6950501949"><ele>163.98</ele><time>2026-08-22T13:24:53Z</time></trkpt><trkpt lat="59.4081905577" lon="34.6948491968"><ele>163.83</ele><time>2026-08-22T13:25:03Z</time></trkpt><trkpt lat="59.4082504883" lon="34.6944200434"><ele>164.71</ele><time>2026-08-22T13:25:23Z</time></trkpt><trkpt lat="59.4083199743" lon="34.6939597931"><ele>165.01</ele><time>2026-08-22T13:25:44Z</time></trkpt><trkpt lat="59.4083832577" lon="34.6935557853"><ele>165.60</ele><time>2026-08-22T13:26:03Z</time></trkpt><trkpt lat="59.4084508996" lon="34.6931211837"><ele>166.26</ele><time>2026-08-22T13:26:23Z</time></trkpt><trkpt lat="59.4084651489" lon="34.6930121351"><ele>166.29</ele><time>2026-08-22T13:26:28Z</time></trkpt><trkpt lat="59.4085546676" lon="34.6925618593"><ele>165.98</ele><time>2026-08-22T13:26:51Z</time></trkpt><trkpt lat="59.4086641353" lon="34.6921826620"><ele>166.35</ele><time>2026-08-22T13:27:11Z</time></trkpt><trkpt lat="59.4087762851" lon="34.6918099187"><ele>167.23</ele><time>2026-08-22T13:27:32Z</time></trkpt><trkpt lat="59.4088907819" lon="34.6913988702"><ele>167.16</ele><time>2026-08-22T13:27:52Z</time></trkpt><trkpt lat="59.4089859165" lon="34.6908477601"><ele>165.39</ele><time>2026-08-22T13:28:16Z</time></trkpt><trkpt lat="59.4090884272" lon="34.6903375536"><ele>165.07</ele><time>2026-08-22T13:28:38Z</time></trkpt><trkpt lat="59.4092095457" lon="34.6899223980"><ele>165.15</ele><time>2026-08-22T13:28:58Z</time></trkpt><trkpt lat="59.4093652815" lon="34.6895125229"><ele>166.15</ele><time>2026-08-22T13:29:19Z</time></trkpt><trkpt lat="59.4095209334" lon="34.6891617402"><ele>168.29</ele><time>2026-08-22T13:29:40Z</time></trkpt><trkpt lat="59.4095886592" lon="34.6888101194"><ele>169.09</ele><time>2026-08-22T13:29:57Z</time></trkpt><trkpt lat="59.4095827918" lon="34.6884085424"><ele>169.23</ele><time>2026-08-22T13:30:14Z</time></trkpt><trkpt lat="59.4095411338" lon="34.6878919657"><ele>167.88</ele><time>2026-08-22T13:30:35Z</time></trkpt><trkpt lat="59.4095504377" lon="34.6873758920"><ele>167.66</ele><time>2026-08-22T13:30:56Z</time></trkpt><trkpt lat="59.4095654413" lon="34.6868094429"><ele>166.28</ele><time>2026-08-22T13:31:19Z</time></trkpt><trkpt lat="59.4095173292" lon="34.6863456722"><ele>165.80</ele><time>2026-08-22T13:31:39Z</time></trkpt><trkpt lat="59.4094143994" lon="34.6859999187"><ele>166.76</ele><time>2026-08-22T13:31:57Z</time></trkpt><trkpt lat="59.4093139842" lon="34.6857126709"><ele>166.88</ele><time>2026-08-22T13:32:12Z</time></trkpt><trkpt lat="59.4091946259" lon="34.6853239182"><ele>167.08</ele><time>2026-08-22T13:32:31Z</time></trkpt><trkpt lat="59.4091152493" lon="34.6850707848"><ele>167.18</ele><time>2026-08-22T13:32:44Z</time></trkpt><trkpt lat="59.4090955518" lon="34.6849775780"><ele>167.21</ele><time>2026-08-22T13:32:49Z</time></trkpt><trkpt lat="59.4090726692" lon="34.6849022247"><ele>167.20</ele><time>2026-08-22T13:32:54Z</time></trkpt><trkpt lat="59.4089757744" lon="34.6846150607"><ele>167.36</ele><time>2026-08-22T13:33:13Z</time></trkpt><trkpt lat="59.4089749362" lon="34.6845856402"><ele>167.40</ele><time>2026-08-22T13:33:35Z</time></trkpt><trkpt lat="59.4089488685" lon="34.6845111251"><ele>167.28</ele><time>2026-08-22T13:33:54Z</time></trkpt><trkpt lat="59.4089398999" lon="34.6845063474"><ele>167.09</ele><time>2026-08-22T13:34:07Z</time></trkpt><trkpt lat="59.4088916201" lon="34.6844075248"><ele>167.30</ele><time>2026-08-22T13:34:15Z</time></trkpt><trkpt lat="59.4087022729" lon="34.6839758568"><ele>167.16</ele><time>2026-08-22T13:34:40Z</time></trkpt><trkpt lat="59.4085963257" lon="34.6837757807"><ele>167.18</ele><time>2026-08-22T13:34:54Z</time></trkpt><trkpt lat="59.4085762929" lon="34.6836888604"><ele>166.91</ele><time>2026-08-22T13:34:59Z</time></trkpt><trkpt lat="59.4084439427" lon="34.6835249942"><ele>167.08</ele><time>2026-08-22T13:35:16Z</time></trkpt><trkpt lat="59.4083439466" lon="34.6833510697"><ele>167.71</ele><time>2026-08-22T13:35:27Z</time></trkpt><trkpt lat="59.4082967564" lon="34.6832783986"><ele>167.48</ele><time>2026-08-22T13:35:31Z</time></trkpt><trkpt lat="59.4082071539" lon="34.6831144486"><ele>167.36</ele><time>2026-08-22T13:35:41Z</time></trkpt><trkpt lat="59.4081291184" lon="34.6829675976"><ele>167.72</ele><time>2026-08-22T13:35:51Z</time></trkpt><trkpt lat="59.4079539366" lon="34.6826353390"><ele>168.54</ele><time>2026-08-22T13:36:13Z</time></trkpt><trkpt lat="59.4079471473" lon="34.6826226823"><ele>168.78</ele><time>2026-08-22T13:36:14Z</time></trkpt><trkpt lat="59.4079063274" lon="34.6825672779"><ele>168.37</ele><time>2026-08-22T13:36:19Z</time></trkpt><trkpt lat="59.4078827742" lon="34.6825339179"><ele>168.28</ele><time>2026-08-22T13:36:23Z</time></trkpt><trkpt lat="59.4078279566" lon="34.6824375261"><ele>168.61</ele><time>2026-08-22T13:36:31Z</time></trkpt><trkpt lat="59.4077978656" lon="34.6823877376"><ele>168.70</ele><time>2026-08-22T13:36:35Z</time></trkpt><trkpt lat="59.4076724723" lon="34.6822215244"><ele>168.94</ele><time>2026-08-22T13:36:49Z</time></trkpt><trkpt lat="59.4075354282" lon="34.6820326801"><ele>169.16</ele><time>2026-08-22T13:37:07Z</time></trkpt><trkpt lat="59.4074216858" lon="34.6818585880"><ele>169.77</ele><time>2026-08-22T13:37:19Z</time></trkpt><trkpt lat="59.4073449913" lon="34.6816447657"><ele>169.41</ele><time>2026-08-22T13:37:32Z</time></trkpt><trkpt lat="59.4072414748" lon="34.6814202983"><ele>168.95</ele><time>2026-08-22T13:37:46Z</time></trkpt><trkpt lat="59.4071502797" lon="34.6811691765"><ele>168.98</ele><time>2026-08-22T13:38:03Z</time></trkpt><trkpt lat="59.4071277324" lon="34.6811124310"><ele>169.48</ele><time>2026-08-22T13:38:07Z</time></trkpt><trkpt lat="59.4071196858" lon="34.6810531709"><ele>168.66</ele><time>2026-08-22T13:38:10Z</time></trkpt><trkpt lat="59.4071013294" lon="34.6808337327"><ele>168.29</ele><time>2026-08-22T13:38:24Z</time></trkpt><trkpt lat="59.4070838112" lon="34.6805436350"><ele>168.69</ele><time>2026-08-22T13:38:39Z</time></trkpt><trkpt lat="59.4070776924" lon="34.6804981213"><ele>168.13</ele><time>2026-08-22T13:38:41Z</time></trkpt><trkpt lat="59.4070455898" lon="34.6801927686"><ele>168.53</ele><time>2026-08-22T13:38:55Z</time></trkpt><trkpt lat="59.4070613477" lon="34.6801410522"><ele>168.36</ele><time>2026-08-22T13:39:12Z</time></trkpt><trkpt lat="59.4070249703" lon="34.6797571611"><ele>167.21</ele><time>2026-08-22T13:39:29Z</time></trkpt><trkpt lat="59.4070217852" lon="34.6797215380"><ele>167.08</ele><time>2026-08-22T13:39:31Z</time></trkpt><trkpt lat="59.4070065301" lon="34.6793918777"><ele>166.99</ele><time>2026-08-22T13:39:49Z</time></trkpt><trkpt lat="59.4070351962" lon="34.6791154426"><ele>166.67</ele><time>2026-08-22T13:40:07Z</time></trkpt><trkpt lat="59.4070390519" lon="34.6790615469"><ele>166.80</ele><time>2026-08-22T13:40:10Z</time></trkpt><trkpt lat="59.4070591684" lon="34.6789614670"><ele>166.78</ele><time>2026-08-22T13:40:15Z</time></trkpt><trkpt lat="59.4070354477" lon="34.6788570285"><ele>166.48</ele><time>2026-08-22T13:40:23Z</time></trkpt><trkpt lat="59.4071265589" lon="34.6786350757"><ele>166.88</ele><time>2026-08-22T13:40:40Z</time></trkpt><trkpt lat="59.4071437418" lon="34.6786163840"><ele>166.76</ele><time>2026-08-22T13:40:42Z</time></trkpt><trkpt lat="59.4072351884" lon="34.6784334909"><ele>166.54</ele><time>2026-08-22T13:40:53Z</time></trkpt><trkpt lat="59.4073359389" lon="34.6781643480"><ele>167.88</ele><time>2026-08-22T13:41:07Z</time></trkpt><trkpt lat="59.4073898345" lon="34.6778441593"><ele>166.31</ele><time>2026-08-22T13:41:22Z</time></trkpt><trkpt lat="59.4073697180" lon="34.6776595898"><ele>164.51</ele><time>2026-08-22T13:41:31Z</time></trkpt><trkpt lat="59.4073850568" lon="34.6775242221"><ele>166.37</ele><time>2026-08-22T13:41:38Z</time></trkpt><trkpt lat="59.4073892478" lon="34.6774347872"><ele>165.94</ele><time>2026-08-22T13:41:42Z</time></trkpt><trkpt lat="59.4073860627" lon="34.6772510558"><ele>165.94</ele><time>2026-08-22T13:41:51Z</time></trkpt><trkpt lat="59.4073841348" lon="34.6771977469"><ele>166.02</ele><time>2026-08-22T13:41:55Z</time></trkpt><trkpt lat="59.4073067699" lon="34.6768622193"><ele>166.20</ele><time>2026-08-22T13:42:13Z</time></trkpt><trkpt lat="59.4073151518" lon="34.6767871175"><ele>166.27</ele><time>2026-08-22T13:42:30Z</time></trkpt><trkpt lat="59.4072761759" lon="34.6766182221"><ele>166.96</ele><time>2026-08-22T13:42:48Z</time></trkpt><trkpt lat="59.4072756730" lon="34.6766661666"><ele>167.15</ele><time>2026-08-22T13:43:18Z</time></trkpt><trkpt lat="59.4072287343" lon="34.6765416954"><ele>167.55</ele><time>2026-08-22T13:43:53Z</time></trkpt><trkpt lat="59.4071734976" lon="34.6763918269"><ele>167.56</ele><time>2026-08-22T13:44:01Z</time></trkpt><trkpt lat="59.4071255531" lon="34.6763201617"><ele>167.38</ele><time>2026-08-22T13:44:06Z</time></trkpt><trkpt lat="59.4070507865" lon="34.6762015577"><ele>166.84</ele><time>2026-08-22T13:44:14Z</time></trkpt><trkpt lat="59.4070063625" lon="34.6761725564"><ele>166.69</ele><time>2026-08-22T13:44:18Z</time></trkpt><trkpt lat="59.4069024269" lon="34.6760620829"><ele>166.81</ele><time>2026-08-22T13:44:34Z</time></trkpt><trkpt lat="59.4068354554" lon="34.6760295611"><ele>166.88</ele><time>2026-08-22T13:44:41Z</time></trkpt><trkpt lat="59.4067858346" lon="34.6760054212"><ele>166.73</ele><time>2026-08-22T13:44:46Z</time></trkpt><trkpt lat="59.4067177735" lon="34.6759986319"><ele>166.94</ele><time>2026-08-22T13:44:54Z</time></trkpt><trkpt lat="59.4065425918" lon="34.6760186646"><ele>167.26</ele><time>2026-08-22T13:45:12Z</time></trkpt><trkpt lat="59.4063645601" lon="34.6761417948"><ele>166.89</ele><time>2026-08-22T13:45:29Z</time></trkpt><trkpt lat="59.4063122571" lon="34.6761683654"><ele>166.80</ele><time>2026-08-22T13:45:33Z</time></trkpt><trkpt lat="59.4061896298" lon="34.6762846224"><ele>166.82</ele><time>2026-08-22T13:45:45Z</time></trkpt><trkpt lat="59.4060316309" lon="34.6764149610"><ele>166.86</ele><time>2026-08-22T13:46:00Z</time></trkpt><trkpt lat="59.4058560301" lon="34.6765581239"><ele>166.63</ele><time>2026-08-22T13:46:13Z</time></trkpt><trkpt lat="59.4057982787" lon="34.6765738819"><ele>166.75</ele><time>2026-08-22T13:46:17Z</time></trkpt><trkpt lat="59.4055618253" lon="34.6764048189"><ele>166.80</ele><time>2026-08-22T13:46:38Z</time></trkpt><trkpt lat="59.4054676965" lon="34.6763750631"><ele>167.01</ele><time>2026-08-22T13:46:47Z</time></trkpt><trkpt lat="59.4054317381" lon="34.6763552818"><ele>167.15</ele><time>2026-08-22T13:46:50Z</time></trkpt><trkpt lat="59.4052474201" lon="34.6762417909"><ele>167.50</ele><time>2026-08-22T13:47:08Z</time></trkpt><trkpt lat="59.4051056821" lon="34.6761123743"><ele>167.73</ele><time>2026-08-22T13:47:25Z</time></trkpt><trkpt lat="59.4049597532" lon="34.6759343427"><ele>167.56</ele><time>2026-08-22T13:47:40Z</time></trkpt><trkpt lat="59.4048977271" lon="34.6758762561"><ele>167.59</ele><time>2026-08-22T13:47:46Z</time></trkpt><trkpt lat="59.4048511237" lon="34.6757701412"><ele>167.65</ele><time>2026-08-22T13:47:53Z</time></trkpt><trkpt lat="59.4048379641" lon="34.6757405531"><ele>167.71</ele><time>2026-08-22T13:47:55Z</time></trkpt><trkpt lat="59.4048272353" lon="34.6757048462"><ele>167.68</ele><time>2026-08-22T13:47:57Z</time></trkpt><trkpt lat="59.4047890976" lon="34.6754812170"><ele>167.63</ele><time>2026-08-22T13:48:07Z</time></trkpt><trkpt lat="59.4047802966" lon="34.6754443366"><ele>167.68</ele><time>2026-08-22T13:48:09Z</time></trkpt><trkpt lat="59.4047587551" lon="34.6753299236"><ele>167.68</ele><time>2026-08-22T13:48:14Z</time></trkpt><trkpt lat="59.4047303405" lon="34.6751658898"><ele>168.31</ele><time>2026-08-22T13:48:22Z</time></trkpt><trkpt lat="59.4047003333" lon="34.6747568529"><ele>166.37</ele><time>2026-08-22T13:48:41Z</time></trkpt><trkpt lat="59.4046296738" lon="34.6744747180"><ele>167.05</ele><time>2026-08-22T13:48:58Z</time></trkpt><trkpt lat="59.4046253990" lon="34.6744515840"><ele>167.12</ele><time>2026-08-22T13:48:59Z</time></trkpt><trkpt lat="59.4045905303" lon="34.6742657572"><ele>166.82</ele><time>2026-08-22T13:49:09Z</time></trkpt><trkpt lat="59.4045550749" lon="34.6740650944"><ele>167.00</ele><time>2026-08-22T13:49:24Z</time></trkpt><trkpt lat="59.4045273308" lon="34.6738984622"><ele>166.80</ele><time>2026-08-22T13:49:35Z</time></trkpt><trkpt lat="59.4044845831" lon="34.6736972965"><ele>167.14</ele><time>2026-08-22T13:49:49Z</time></trkpt><trkpt lat="59.4043615367" lon="34.6734581608"><ele>167.81</ele><time>2026-08-22T13:50:06Z</time></trkpt><trkpt lat="59.4043396600" lon="34.6734181792"><ele>167.76</ele><time>2026-08-22T13:50:09Z</time></trkpt><trkpt lat="59.4042307790" lon="34.6732704900"><ele>167.64</ele><time>2026-08-22T13:50:24Z</time></trkpt><trkpt lat="59.4042148534" lon="34.6732574981"><ele>167.47</ele><time>2026-08-22T13:50:26Z</time></trkpt><trkpt lat="59.4041547552" lon="34.6731830668"><ele>167.25</ele><time>2026-08-22T13:50:32Z</time></trkpt><trkpt lat="59.4041252509" lon="34.6731221303"><ele>167.44</ele><time>2026-08-22T13:50:36Z</time></trkpt><trkpt lat="59.4040542562" lon="34.6730578411"><ele>167.12</ele><time>2026-08-22T13:50:43Z</time></trkpt><trkpt lat="59.4039994385" lon="34.6729848348"><ele>166.93</ele><time>2026-08-22T13:50:49Z</time></trkpt><trkpt lat="59.4039327186" lon="34.6729475353"><ele>166.88</ele><time>2026-08-22T13:50:56Z</time></trkpt><trkpt lat="59.4037352409" lon="34.6727788914"><ele>167.50</ele><time>2026-08-22T13:51:17Z</time></trkpt><trkpt lat="59.4036440458" lon="34.6726414282"><ele>167.34</ele><time>2026-08-22T13:51:31Z</time></trkpt><trkpt lat="59.4034925848" lon="34.6724209841"><ele>167.44</ele><time>2026-08-22T13:51:49Z</time></trkpt><trkpt lat="59.4034570456" lon="34.6723659988"><ele>167.42</ele><time>2026-08-22T13:51:55Z</time></trkpt><trkpt lat="59.4034122862" lon="34.6722917352"><ele>167.48</ele><time>2026-08-22T13:52:01Z</time></trkpt><trkpt lat="59.4033518527" lon="34.6722285356"><ele>167.61</ele><time>2026-08-22T13:52:07Z</time></trkpt><trkpt lat="59.4033193309" lon="34.6721746400"><ele>167.91</ele><time>2026-08-22T13:52:11Z</time></trkpt><trkpt lat="59.4033045787" lon="34.6721414477"><ele>167.99</ele><time>2026-08-22T13:52:13Z</time></trkpt><trkpt lat="59.4032913353" lon="34.6721122786"><ele>168.07</ele><time>2026-08-22T13:52:15Z</time></trkpt><trkpt lat="59.4032400381" lon="34.6719268709"><ele>168.61</ele><time>2026-08-22T13:52:25Z</time></trkpt><trkpt lat="59.4032234419" lon="34.6718807705"><ele>168.76</ele><time>2026-08-22T13:52:28Z</time></trkpt><trkpt lat="59.4032061752" lon="34.6716655232"><ele>169.15</ele><time>2026-08-22T13:52:40Z</time></trkpt><trkpt lat="59.4031941891" lon="34.6715580672"><ele>169.12</ele><time>2026-08-22T13:52:45Z</time></trkpt><trkpt lat="59.4031627569" lon="34.6714118868"><ele>169.11</ele><time>2026-08-22T13:52:51Z</time></trkpt><trkpt lat="59.4031478371" lon="34.6712999884"><ele>169.06</ele><time>2026-08-22T13:52:56Z</time></trkpt><trkpt lat="59.4031438977" lon="34.6712289937"><ele>169.06</ele><time>2026-08-22T13:52:59Z</time></trkpt><trkpt lat="59.4031005632" lon="34.6708816476"><ele>168.87</ele><time>2026-08-22T13:53:14Z</time></trkpt><trkpt lat="59.4030989707" lon="34.6707302704"><ele>168.87</ele><time>2026-08-22T13:53:22Z</time></trkpt><trkpt lat="59.4030862302" lon="34.6706135944"><ele>168.48</ele><time>2026-08-22T13:53:31Z</time></trkpt><trkpt lat="59.4030743279" lon="34.6704986785"><ele>168.50</ele><time>2026-08-22T13:53:36Z</time></trkpt><trkpt lat="59.4030588213" lon="34.6704069804"><ele>168.70</ele><time>2026-08-22T13:53:41Z</time></trkpt><trkpt lat="59.4030446559" lon="34.6702454612"><ele>168.48</ele><time>2026-08-22T13:53:49Z</time></trkpt><trkpt lat="59.4030232821" lon="34.6701515839"><ele>168.61</ele><time>2026-08-22T13:53:54Z</time></trkpt><trkpt lat="59.4029839709" lon="34.6700491570"><ele>168.69</ele><time>2026-08-22T13:54:00Z</time></trkpt><trkpt lat="59.4029147364" lon="34.6698968578"><ele>169.52</ele><time>2026-08-22T13:54:12Z</time></trkpt><trkpt lat="59.4028030895" lon="34.6696670260"><ele>170.03</ele><time>2026-08-22T13:54:31Z</time></trkpt><trkpt lat="59.4026291650" lon="34.6695044171"><ele>170.22</ele><time>2026-08-22T13:54:48Z</time></trkpt><trkpt lat="59.4025744312" lon="34.6694567241"><ele>170.12</ele><time>2026-08-22T13:54:54Z</time></trkpt><trkpt lat="59.4025309291" lon="34.6694672853"><ele>170.15</ele><time>2026-08-22T13:54:58Z</time></trkpt><trkpt lat="59.4024880975" lon="34.6694237832"><ele>170.15</ele><time>2026-08-22T13:55:03Z</time></trkpt><trkpt lat="59.4024582580" lon="34.6693882439"><ele>170.10</ele><time>2026-08-22T13:55:06Z</time></trkpt><trkpt lat="59.4024349563" lon="34.6693696361"><ele>170.15</ele><time>2026-08-22T13:55:08Z</time></trkpt><trkpt lat="59.4023136701" lon="34.6692345198"><ele>170.69</ele><time>2026-08-22T13:55:22Z</time></trkpt><trkpt lat="59.4021922164" lon="34.6689886786"><ele>170.70</ele><time>2026-08-22T13:55:39Z</time></trkpt><trkpt lat="59.4020668231" lon="34.6687945537"><ele>170.67</ele><time>2026-08-22T13:55:56Z</time></trkpt><trkpt lat="59.4020480476" lon="34.6687944699"><ele>171.26</ele><time>2026-08-22T13:55:58Z</time></trkpt><trkpt lat="59.4019877817" lon="34.6687179431"><ele>170.82</ele><time>2026-08-22T13:56:10Z</time></trkpt><trkpt lat="59.4018707704" lon="34.6685812343"><ele>170.84</ele><time>2026-08-22T13:56:24Z</time></trkpt><trkpt lat="59.4017207343" lon="34.6684822440"><ele>172.50</ele><time>2026-08-22T13:56:38Z</time></trkpt><trkpt lat="59.4016992766" lon="34.6684625465"><ele>172.30</ele><time>2026-08-22T13:56:40Z</time></trkpt><trkpt lat="59.4016103446" lon="34.6682571899"><ele>173.15</ele><time>2026-08-22T13:56:55Z</time></trkpt><trkpt lat="59.4014577940" lon="34.6679980215"><ele>174.35</ele><time>2026-08-22T13:57:11Z</time></trkpt><trkpt lat="59.4013563730" lon="34.6676668525"><ele>173.70</ele><time>2026-08-22T13:57:30Z</time></trkpt><trkpt lat="59.4013191573" lon="34.6675588936"><ele>173.70</ele><time>2026-08-22T13:57:36Z</time></trkpt><trkpt lat="59.4012685306" lon="34.6673445683"><ele>173.76</ele><time>2026-08-22T13:57:46Z</time></trkpt><trkpt lat="59.4012177363" lon="34.6671293210"><ele>173.65</ele><time>2026-08-22T13:57:56Z</time></trkpt><trkpt lat="59.4011775870" lon="34.6670077834"><ele>173.44</ele><time>2026-08-22T13:58:04Z</time></trkpt><trkpt lat="59.4011642598" lon="34.6669115592"><ele>173.68</ele><time>2026-08-22T13:58:09Z</time></trkpt><trkpt lat="59.4011134654" lon="34.6666367166"><ele>174.15</ele><time>2026-08-22T13:58:25Z</time></trkpt><trkpt lat="59.4010877330" lon="34.6665004268"><ele>174.05</ele><time>2026-08-22T13:58:33Z</time></trkpt><trkpt lat="59.4010499306" lon="34.6663649753"><ele>174.30</ele><time>2026-08-22T13:58:41Z</time></trkpt><trkpt lat="59.4010386989" lon="34.6662914660"><ele>174.14</ele><time>2026-08-22T13:58:45Z</time></trkpt><trkpt lat="59.4010033272" lon="34.6661794838"><ele>174.30</ele><time>2026-08-22T13:58:51Z</time></trkpt><trkpt lat="59.4009682909" lon="34.6660633944"><ele>174.64</ele><time>2026-08-22T13:58:57Z</time></trkpt><trkpt lat="59.4009472523" lon="34.6659840178"><ele>174.80</ele><time>2026-08-22T13:59:01Z</time></trkpt><trkpt lat="59.4009397924" lon="34.6659494843"><ele>174.82</ele><time>2026-08-22T13:59:03Z</time></trkpt><trkpt lat="59.4009166583" lon="34.6658726223"><ele>174.65</ele><time>2026-08-22T13:59:07Z</time></trkpt><trkpt lat="59.4008973800" lon="34.6658226661"><ele>174.86</ele><time>2026-08-22T13:59:10Z</time></trkpt><trkpt lat="59.4008769281" lon="34.6657450497"><ele>175.09</ele><time>2026-08-22T13:59:14Z</time></trkpt><trkpt lat="59.4008146506" lon="34.6655234322"><ele>174.92</ele><time>2026-08-22T13:59:26Z</time></trkpt><trkpt lat="59.4007213600" lon="34.6653045807"><ele>175.06</ele><time>2026-08-22T13:59:40Z</time></trkpt><trkpt lat="59.4006286561" lon="34.6650828794"><ele>175.36</ele><time>2026-08-22T13:59:55Z</time></trkpt><trkpt lat="59.4005341921" lon="34.6647768561"><ele>175.15</ele><time>2026-08-22T14:00:13Z</time></trkpt><trkpt lat="59.4005075376" lon="34.6646668855"><ele>175.16</ele><time>2026-08-22T14:00:19Z</time></trkpt><trkpt lat="59.4004769437" lon="34.6644330304"><ele>175.60</ele><time>2026-08-22T14:00:30Z</time></trkpt><trkpt lat="59.4005368743" lon="34.6641689166"><ele>175.30</ele><time>2026-08-22T14:00:43Z</time></trkpt><trkpt lat="59.4005419035" lon="34.6641585231"><ele>175.42</ele><time>2026-08-22T14:00:44Z</time></trkpt><trkpt lat="59.4005893450" lon="34.6638582833"><ele>174.53</ele><time>2026-08-22T14:00:59Z</time></trkpt><trkpt lat="59.4005967211" lon="34.6638420224"><ele>174.52</ele><time>2026-08-22T14:01:00Z</time></trkpt><trkpt lat="59.4006343558" lon="34.6637776494"><ele>174.39</ele><time>2026-08-22T14:01:04Z</time></trkpt><trkpt lat="59.4006539695" lon="34.6637099236"><ele>174.37</ele><time>2026-08-22T14:01:07Z</time></trkpt><trkpt lat="59.4006943703" lon="34.6635974385"><ele>174.22</ele><time>2026-08-22T14:01:14Z</time></trkpt><trkpt lat="59.4007466733" lon="34.6633825265"><ele>173.82</ele><time>2026-08-22T14:01:25Z</time></trkpt><trkpt lat="59.4007436559" lon="34.6631439775"><ele>173.65</ele><time>2026-08-22T14:01:35Z</time></trkpt><trkpt lat="59.4007386267" lon="34.6631064266"><ele>173.67</ele><time>2026-08-22T14:01:37Z</time></trkpt><trkpt lat="59.4006854855" lon="34.6627849806"><ele>173.77</ele><time>2026-08-22T14:01:53Z</time></trkpt><trkpt lat="59.4006646983" lon="34.6626955457"><ele>173.83</ele><time>2026-08-22T14:01:58Z</time></trkpt><trkpt lat="59.4006341882" lon="34.6624993253"><ele>174.00</ele><time>2026-08-22T14:02:11Z</time></trkpt><trkpt lat="59.4005605951" lon="34.6623849962"><ele>174.18</ele><time>2026-08-22T14:02:20Z</time></trkpt><trkpt lat="59.4004732557" lon="34.6621554997"><ele>174.36</ele><time>2026-08-22T14:02:35Z</time></trkpt><trkpt lat="59.4003815576" lon="34.6619208064"><ele>174.46</ele><time>2026-08-22T14:02:52Z</time></trkpt><trkpt lat="59.4003226329" lon="34.6616880409"><ele>174.50</ele><time>2026-08-22T14:03:10Z</time></trkpt><trkpt lat="59.4002695754" lon="34.6614406072"><ele>174.69</ele><time>2026-08-22T14:03:25Z</time></trkpt><trkpt lat="59.4002043642" lon="34.6613337379"><ele>174.58</ele><time>2026-08-22T14:03:38Z</time></trkpt><trkpt lat="59.4001414999" lon="34.6611793432"><ele>174.79</ele><time>2026-08-22T14:03:52Z</time></trkpt><trkpt lat="59.4000890292" lon="34.6611093543"><ele>174.94</ele><time>2026-08-22T14:03:59Z</time></trkpt><trkpt lat="59.3999916315" lon="34.6609824523"><ele>175.18</ele><time>2026-08-22T14:04:16Z</time></trkpt><trkpt lat="59.3999876920" lon="34.6609810274"><ele>175.14</ele><time>2026-08-22T14:04:18Z</time></trkpt><trkpt lat="59.3998657353" lon="34.6608533710"><ele>175.27</ele><time>2026-08-22T14:04:32Z</time></trkpt><trkpt lat="59.3997059762" lon="34.6607147343"><ele>175.22</ele><time>2026-08-22T14:04:48Z</time></trkpt><trkpt lat="59.3996885419" lon="34.6606993955"><ele>175.14</ele><time>2026-08-22T14:04:50Z</time></trkpt><trkpt lat="59.3995722849" lon="34.6605611779"><ele>175.24</ele><time>2026-08-22T14:05:04Z</time></trkpt><trkpt lat="59.3994266912" lon="34.6604004968"><ele>175.35</ele><time>2026-08-22T14:05:21Z</time></trkpt><trkpt lat="59.3992856238" lon="34.6602992434"><ele>176.20</ele><time>2026-08-22T14:05:37Z</time></trkpt><trkpt lat="59.3991378509" lon="34.6601800527"><ele>174.97</ele><time>2026-08-22T14:05:53Z</time></trkpt><trkpt lat="59.3990278803" lon="34.6601357963"><ele>175.69</ele><time>2026-08-22T14:06:03Z</time></trkpt><trkpt lat="59.3990131281" lon="34.6601289231"><ele>175.32</ele><time>2026-08-22T14:06:04Z</time></trkpt><trkpt lat="59.3989848811" lon="34.6601152606"><ele>174.85</ele><time>2026-08-22T14:06:06Z</time></trkpt><trkpt lat="59.3989557959" lon="34.6600970719"><ele>174.59</ele><time>2026-08-22T14:06:09Z</time></trkpt><trkpt lat="59.3988532852" lon="34.6601419989"><ele>174.89</ele><time>2026-08-22T14:06:25Z</time></trkpt><trkpt lat="59.3988457415" lon="34.6601528954"><ele>174.10</ele><time>2026-08-22T14:07:00Z</time></trkpt><trkpt lat="59.3988447357" lon="34.6601543203"><ele>174.42</ele><time>2026-08-22T14:08:43Z</time></trkpt><trkpt lat="59.3988579791" lon="34.6601542365"><ele>174.39</ele><time>2026-08-22T14:10:01Z</time></trkpt><trkpt lat="59.3988577276" lon="34.6601376403"><ele>174.57</ele><time>2026-08-22T14:11:55Z</time></trkpt><trkpt lat="59.3988395389" lon="34.6601386461"><ele>176.12</ele><time>2026-08-22T14:13:51Z</time></trkpt><trkpt lat="59.3988464959" lon="34.6600607783"><ele>175.85</ele><time>2026-08-22T14:14:09Z</time></trkpt><trkpt lat="59.3988611642" lon="34.6599744447"><ele>175.82</ele><time>2026-08-22T14:14:13Z</time></trkpt><trkpt lat="59.3988657743" lon="34.6599547472"><ele>175.88</ele><time>2026-08-22T14:14:14Z</time></trkpt><trkpt lat="59.3988715578" lon="34.6599363908"><ele>175.86</ele><time>2026-08-22T14:14:15Z</time></trkpt><trkpt lat="59.3988919258" lon="34.6596876998"><ele>175.71</ele><time>2026-08-22T14:14:31Z</time></trkpt><trkpt lat="59.3988752458" lon="34.6596240811"><ele>175.91</ele><time>2026-08-22T14:14:35Z</time></trkpt><trkpt lat="59.3988372758" lon="34.6594406851"><ele>176.34</ele><time>2026-08-22T14:14:45Z</time></trkpt><trkpt lat="59.3988414668" lon="34.6592131164"><ele>176.04</ele><time>2026-08-22T14:14:58Z</time></trkpt><trkpt lat="59.3988422211" lon="34.6591011342"><ele>176.11</ele><time>2026-08-22T14:15:04Z</time></trkpt><trkpt lat="59.3988421373" lon="34.6587750781"><ele>175.78</ele><time>2026-08-22T14:15:22Z</time></trkpt><trkpt lat="59.3988368567" lon="34.6586667839"><ele>176.02</ele><time>2026-08-22T14:15:28Z</time></trkpt><trkpt lat="59.3987623416" lon="34.6584694739"><ele>176.13</ele><time>2026-08-22T14:15:39Z</time></trkpt><trkpt lat="59.3987391237" lon="34.6584403887"><ele>176.12</ele><time>2026-08-22T14:15:41Z</time></trkpt><trkpt lat="59.3987078592" lon="34.6583944559"><ele>176.04</ele><time>2026-08-22T14:15:44Z</time></trkpt><trkpt lat="59.3986862339" lon="34.6582934540"><ele>176.01</ele><time>2026-08-22T14:15:50Z</time></trkpt><trkpt lat="59.3985717371" lon="34.6581780352"><ele>175.99</ele><time>2026-08-22T14:16:01Z</time></trkpt><trkpt lat="59.3985451665" lon="34.6581106447"><ele>175.95</ele><time>2026-08-22T14:16:06Z</time></trkpt><trkpt lat="59.3985173386" lon="34.6580940485"><ele>176.03</ele><time>2026-08-22T14:16:10Z</time></trkpt><trkpt lat="59.3984774407" lon="34.6580804698"><ele>176.02</ele><time>2026-08-22T14:16:16Z</time></trkpt><trkpt lat="59.3983626924" lon="34.6580064576"><ele>175.90</ele><time>2026-08-22T14:16:27Z</time></trkpt><trkpt lat="59.3983124848" lon="34.6579677332"><ele>176.12</ele><time>2026-08-22T14:16:32Z</time></trkpt><trkpt lat="59.3981372193" lon="34.6578192897"><ele>175.81</ele><time>2026-08-22T14:16:49Z</time></trkpt><trkpt lat="59.3980977405" lon="34.6577647235"><ele>176.00</ele><time>2026-08-22T14:16:53Z</time></trkpt><trkpt lat="59.3979884405" lon="34.6576328762"><ele>176.00</ele><time>2026-08-22T14:17:03Z</time></trkpt><trkpt lat="59.3979643844" lon="34.6575890388"><ele>176.00</ele><time>2026-08-22T14:17:06Z</time></trkpt><trkpt lat="59.3979517277" lon="34.6575513203"><ele>175.90</ele><time>2026-08-22T14:17:08Z</time></trkpt><trkpt lat="59.3978600297" lon="34.6573869511"><ele>175.85</ele><time>2026-08-22T14:17:26Z</time></trkpt><trkpt lat="59.3978577666" lon="34.6573858615"><ele>175.74</ele><time>2026-08-22T14:18:07Z</time></trkpt><trkpt lat="59.3978634663" lon="34.6573651582"><ele>176.29</ele><time>2026-08-22T14:18:57Z</time></trkpt><trkpt lat="59.3978703395" lon="34.6573591232"><ele>176.67</ele><time>2026-08-22T14:20:10Z</time></trkpt><trkpt lat="59.3978595268" lon="34.6573540941"><ele>177.28</ele><time>2026-08-22T14:21:11Z</time></trkpt><trkpt lat="59.3978429306" lon="34.6573074907"><ele>177.07</ele><time>2026-08-22T14:21:26Z</time></trkpt><trkpt lat="59.3977918848" lon="34.6571458876"><ele>177.85</ele><time>2026-08-22T14:21:36Z</time></trkpt><trkpt lat="59.3977874424" lon="34.6570496634"><ele>177.84</ele><time>2026-08-22T14:21:41Z</time></trkpt><trkpt lat="59.3977779709" lon="34.6569963545"><ele>177.96</ele><time>2026-08-22T14:21:44Z</time></trkpt><trkpt lat="59.3977322895" lon="34.6568175685"><ele>177.98</ele><time>2026-08-22T14:21:54Z</time></trkpt><trkpt lat="59.3977256678" lon="34.6567783412"><ele>177.91</ele><time>2026-08-22T14:21:56Z</time></trkpt><trkpt lat="59.3976548407" lon="34.6564716473"><ele>177.90</ele><time>2026-08-22T14:22:11Z</time></trkpt><trkpt lat="59.3976203911" lon="34.6563443262"><ele>177.57</ele><time>2026-08-22T14:22:18Z</time></trkpt><trkpt lat="59.3975850195" lon="34.6561983973"><ele>177.61</ele><time>2026-08-22T14:22:39Z</time></trkpt><trkpt lat="59.3975716922" lon="34.6561016701"><ele>177.68</ele><time>2026-08-22T14:23:00Z</time></trkpt><trkpt lat="59.3975676689" lon="34.6560940426"><ele>177.59</ele><time>2026-08-22T14:23:05Z</time></trkpt><trkpt lat="59.3975285254" lon="34.6560175996"><ele>177.70</ele><time>2026-08-22T14:23:13Z</time></trkpt><trkpt lat="59.3975089956" lon="34.6559080482"><ele>177.69</ele><time>2026-08-22T14:23:19Z</time></trkpt><trkpt lat="59.3975047208" lon="34.6557909530"><ele>177.69</ele><time>2026-08-22T14:23:24Z</time></trkpt><trkpt lat="59.3974790722" lon="34.6556800604"><ele>177.82</ele><time>2026-08-22T14:23:29Z</time></trkpt><trkpt lat="59.3973618932" lon="34.6554621309"><ele>177.89</ele><time>2026-08-22T14:23:45Z</time></trkpt><trkpt lat="59.3972776551" lon="34.6554228198"><ele>177.99</ele><time>2026-08-22T14:23:53Z</time></trkpt><trkpt lat="59.3971381802" lon="34.6554008592"><ele>178.03</ele><time>2026-08-22T14:24:12Z</time></trkpt><trkpt lat="59.3971242663" lon="34.6553904656"><ele>178.16</ele><time>2026-08-22T14:24:14Z</time></trkpt><trkpt lat="59.3969839532" lon="34.6552641504"><ele>178.77</ele><time>2026-08-22T14:24:30Z</time></trkpt><trkpt lat="59.3968943506" lon="34.6551350690"><ele>179.52</ele><time>2026-08-22T14:24:39Z</time></trkpt><trkpt lat="59.3968555424" lon="34.6551051456"><ele>179.60</ele><time>2026-08-22T14:24:43Z</time></trkpt><trkpt lat="59.3967066798" lon="34.6548787504"><ele>179.97</ele><time>2026-08-22T14:25:00Z</time></trkpt><trkpt lat="59.3965754192" lon="34.6546975337"><ele>180.49</ele><time>2026-08-22T14:25:17Z</time></trkpt><trkpt lat="59.3965114653" lon="34.6545429714"><ele>180.49</ele><time>2026-08-22T14:25:28Z</time></trkpt><trkpt lat="59.3964848947" lon="34.6545163170"><ele>180.48</ele><time>2026-08-22T14:25:31Z</time></trkpt><trkpt lat="59.3963285722" lon="34.6542403847"><ele>179.61</ele><time>2026-08-22T14:25:49Z</time></trkpt><trkpt lat="59.3962093815" lon="34.6540113911"><ele>178.97</ele><time>2026-08-22T14:26:09Z</time></trkpt><trkpt lat="59.3961970601" lon="34.6539568249"><ele>179.01</ele><time>2026-08-22T14:26:12Z</time></trkpt><trkpt lat="59.3961806316" lon="34.6538378857"><ele>179.04</ele><time>2026-08-22T14:26:17Z</time></trkpt><trkpt lat="59.3961509597" lon="34.6537577547"><ele>178.99</ele><time>2026-08-22T14:26:21Z</time></trkpt><trkpt lat="59.3960819766" lon="34.6535392385"><ele>177.53</ele><time>2026-08-22T14:26:32Z</time></trkpt><trkpt lat="59.3960779533" lon="34.6535194572"><ele>180.64</ele><time>2026-08-22T14:26:33Z</time></trkpt><trkpt lat="59.3959614448" lon="34.6532047167"><ele>178.67</ele><time>2026-08-22T14:26:52Z</time></trkpt><trkpt lat="59.3959468603" lon="34.6531780623"><ele>178.91</ele><time>2026-08-22T14:26:57Z</time></trkpt><trkpt lat="59.3958462775" lon="34.6530261822"><ele>179.41</ele><time>2026-08-22T14:27:11Z</time></trkpt><trkpt lat="59.3958384823" lon="34.6529921517"><ele>179.68</ele><time>2026-08-22T14:27:14Z</time></trkpt><trkpt lat="59.3958139233" lon="34.6529273596"><ele>179.84</ele><time>2026-08-22T14:27:18Z</time></trkpt><trkpt lat="59.3957444374" lon="34.6527739707"><ele>180.52</ele><time>2026-08-22T14:27:28Z</time></trkpt><trkpt lat="59.3957306910" lon="34.6527469810"><ele>180.74</ele><time>2026-08-22T14:27:30Z</time></trkpt><trkpt lat="59.3956936430" lon="34.6526763216"><ele>180.80</ele><time>2026-08-22T14:27:34Z</time></trkpt><trkpt lat="59.3956144340" lon="34.6524365991"><ele>180.62</ele><time>2026-08-22T14:27:48Z</time></trkpt><trkpt lat="59.3955921382" lon="34.6524320729"><ele>180.58</ele><time>2026-08-22T14:27:51Z</time></trkpt><trkpt lat="59.3955266755" lon="34.6523036622"><ele>180.56</ele><time>2026-08-22T14:28:02Z</time></trkpt><trkpt lat="59.3954833411" lon="34.6521581523"><ele>180.24</ele><time>2026-08-22T14:28:09Z</time></trkpt><trkpt lat="59.3953430280" lon="34.6519337688"><ele>179.80</ele><time>2026-08-22T14:28:24Z</time></trkpt><trkpt lat="59.3951819278" lon="34.6517630294"><ele>179.87</ele><time>2026-08-22T14:28:40Z</time></trkpt><trkpt lat="59.3950358313" lon="34.6515008435"><ele>180.05</ele><time>2026-08-22T14:29:00Z</time></trkpt><trkpt lat="59.3948677741" lon="34.6512710955"><ele>180.79</ele><time>2026-08-22T14:29:19Z</time></trkpt><trkpt lat="59.3947124574" lon="34.6510260925"><ele>180.83</ele><time>2026-08-22T14:29:37Z</time></trkpt><trkpt lat="59.3945465796" lon="34.6507801674"><ele>180.59</ele><time>2026-08-22T14:29:54Z</time></trkpt><trkpt lat="59.3943965435" lon="34.6505445521"><ele>180.77</ele><time>2026-08-22T14:30:10Z</time></trkpt><trkpt lat="59.3943604175" lon="34.6504831966"><ele>180.62</ele><time>2026-08-22T14:30:14Z</time></trkpt><trkpt lat="59.3942261394" lon="34.6502199210"><ele>180.73</ele><time>2026-08-22T14:30:31Z</time></trkpt><trkpt lat="59.3940722477" lon="34.6499368642"><ele>180.66</ele><time>2026-08-22T14:30:48Z</time></trkpt><trkpt lat="59.3939229660" lon="34.6495932899"><ele>180.61</ele><time>2026-08-22T14:31:07Z</time></trkpt><trkpt lat="59.3938413262" lon="34.6494062897"><ele>180.71</ele><time>2026-08-22T14:31:17Z</time></trkpt><trkpt lat="59.3938295916" lon="34.6493652184"><ele>180.81</ele><time>2026-08-22T14:31:19Z</time></trkpt><trkpt lat="59.3937446829" lon="34.6491463669"><ele>180.91</ele><time>2026-08-22T14:31:33Z</time></trkpt><trkpt lat="59.3936470337" lon="34.6488199756"><ele>181.00</ele><time>2026-08-22T14:31:50Z</time></trkpt><trkpt lat="59.3935698364" lon="34.6486190613"><ele>181.47</ele><time>2026-08-22T14:32:01Z</time></trkpt><trkpt lat="59.3935557548" lon="34.6485646628"><ele>181.49</ele><time>2026-08-22T14:32:04Z</time></trkpt><trkpt lat="59.3935073912" lon="34.6483297180"><ele>181.63</ele><time>2026-08-22T14:32:16Z</time></trkpt><trkpt lat="59.3934924714" lon="34.6482996270"><ele>181.47</ele><time>2026-08-22T14:32:17Z</time></trkpt><trkpt lat="59.3934766296" lon="34.6481531952"><ele>181.68</ele><time>2026-08-22T14:32:24Z</time></trkpt><trkpt lat="59.3934780546" lon="34.6481290553"><ele>181.64</ele><time>2026-08-22T14:32:25Z</time></trkpt><trkpt lat="59.3934779707" lon="34.6481041610"><ele>181.75</ele><time>2026-08-22T14:32:26Z</time></trkpt><trkpt lat="59.3934814911" lon="34.6479596570"><ele>181.92</ele><time>2026-08-22T14:32:32Z</time></trkpt><trkpt lat="59.3934829999" lon="34.6478216909"><ele>182.20</ele><time>2026-08-22T14:32:38Z</time></trkpt><trkpt lat="59.3934680801" lon="34.6475900989"><ele>182.61</ele><time>2026-08-22T14:32:55Z</time></trkpt><trkpt lat="59.3934635539" lon="34.6473537292"><ele>182.58</ele><time>2026-08-22T14:33:11Z</time></trkpt><trkpt lat="59.3934454489" lon="34.6470920462"><ele>182.04</ele><time>2026-08-22T14:33:20Z</time></trkpt><trkpt lat="59.3934346363" lon="34.6469389088"><ele>182.04</ele><time>2026-08-22T14:33:29Z</time></trkpt><trkpt lat="59.3934698403" lon="34.6464187279"><ele>183.69</ele><time>2026-08-22T14:33:54Z</time></trkpt><trkpt lat="59.3934474606" lon="34.6462272853"><ele>183.69</ele><time>2026-08-22T14:33:55Z</time></trkpt><trkpt lat="59.3934652302" lon="34.6461464837"><ele>182.70</ele><time>2026-08-22T14:33:59Z</time></trkpt><trkpt lat="59.3935527373" lon="34.6459625848"><ele>181.67</ele><time>2026-08-22T14:34:12Z</time></trkpt><trkpt lat="59.3936335389" lon="34.6457539592"><ele>181.81</ele><time>2026-08-22T14:34:23Z</time></trkpt><trkpt lat="59.3936500512" lon="34.6456856467"><ele>181.65</ele><time>2026-08-22T14:34:27Z</time></trkpt><trkpt lat="59.3936547451" lon="34.6456583217"><ele>181.73</ele><time>2026-08-22T14:34:29Z</time></trkpt><trkpt lat="59.3936800584" lon="34.6453617699"><ele>181.51</ele><time>2026-08-22T14:34:41Z</time></trkpt><trkpt lat="59.3937227223" lon="34.6451663878"><ele>180.56</ele><time>2026-08-22T14:34:52Z</time></trkpt><trkpt lat="59.3938699923" lon="34.6448749490"><ele>182.20</ele><time>2026-08-22T14:35:06Z</time></trkpt><trkpt lat="59.3941367045" lon="34.6443978511"><ele>182.18</ele><time>2026-08-22T14:35:55Z</time></trkpt><trkpt lat="59.3942866568" lon="34.6439752355"><ele>182.07</ele><time>2026-08-22T14:36:10Z</time></trkpt><trkpt lat="59.3943766784" lon="34.6436680388"><ele>183.00</ele><time>2026-08-22T14:36:25Z</time></trkpt><trkpt lat="59.3943925202" lon="34.6436354332"><ele>183.00</ele><time>2026-08-22T14:36:27Z</time></trkpt><trkpt lat="59.3943827972" lon="34.6434395481"><ele>182.44</ele><time>2026-08-22T14:36:35Z</time></trkpt><trkpt lat="59.3943564780" lon="34.6432685573"><ele>182.23</ele><time>2026-08-22T14:36:40Z</time></trkpt><trkpt lat="59.3942556437" lon="34.6428862587"><ele>182.42</ele><time>2026-08-22T14:36:57Z</time></trkpt><trkpt lat="59.3942315876" lon="34.6428407449"><ele>182.67</ele><time>2026-08-22T14:36:59Z</time></trkpt><trkpt lat="59.3941203598" lon="34.6426205523"><ele>183.93</ele><time>2026-08-22T14:37:12Z</time></trkpt><trkpt lat="59.3941068649" lon="34.6425983403"><ele>183.20</ele><time>2026-08-22T14:37:14Z</time></trkpt><trkpt lat="59.3940183520" lon="34.6424338873"><ele>182.42</ele><time>2026-08-22T14:37:24Z</time></trkpt><trkpt lat="59.3939596787" lon="34.6424178779"><ele>182.31</ele><time>2026-08-22T14:37:28Z</time></trkpt><trkpt lat="59.3938825652" lon="34.6423554327"><ele>182.40</ele><time>2026-08-22T14:37:34Z</time></trkpt><trkpt lat="59.3937092274" lon="34.6421829332"><ele>182.82</ele><time>2026-08-22T14:37:51Z</time></trkpt><trkpt lat="59.3935625441" lon="34.6420914866"><ele>183.19</ele><time>2026-08-22T14:38:06Z</time></trkpt><trkpt lat="59.3934125919" lon="34.6419532690"><ele>183.49</ele><time>2026-08-22T14:38:21Z</time></trkpt><trkpt lat="59.3932500668" lon="34.6417954378"><ele>183.75</ele><time>2026-08-22T14:38:38Z</time></trkpt><trkpt lat="59.3930743821" lon="34.6416173223"><ele>184.87</ele><time>2026-08-22T14:38:54Z</time></trkpt><trkpt lat="59.3930413574" lon="34.6415380295"><ele>184.95</ele><time>2026-08-22T14:38:57Z</time></trkpt><trkpt lat="59.3930124398" lon="34.6414748300"><ele>184.84</ele><time>2026-08-22T14:39:00Z</time></trkpt><trkpt lat="59.3928737193" lon="34.6412533801"><ele>184.23</ele><time>2026-08-22T14:39:12Z</time></trkpt><trkpt lat="59.3928115256" lon="34.6411668789"><ele>184.05</ele><time>2026-08-22T14:39:18Z</time></trkpt><trkpt lat="59.3926280458" lon="34.6409555711"><ele>183.79</ele><time>2026-08-22T14:39:36Z</time></trkpt><trkpt lat="59.3924585637" lon="34.6407453530"><ele>183.52</ele><time>2026-08-22T14:39:54Z</time></trkpt><trkpt lat="59.3922889140" lon="34.6405455284"><ele>183.80</ele><time>2026-08-22T14:40:11Z</time></trkpt><trkpt lat="59.3921690527" lon="34.6403965820"><ele>183.53</ele><time>2026-08-22T14:40:23Z</time></trkpt><trkpt lat="59.3921211921" lon="34.6402846836"><ele>183.31</ele><time>2026-08-22T14:40:30Z</time></trkpt><trkpt lat="59.3920721579" lon="34.6401342284"><ele>183.90</ele><time>2026-08-22T14:40:37Z</time></trkpt><trkpt lat="59.3920636922" lon="34.6400963422"><ele>182.97</ele><time>2026-08-22T14:40:39Z</time></trkpt><trkpt lat="59.3920403905" lon="34.6400383394"><ele>182.97</ele><time>2026-08-22T14:40:43Z</time></trkpt><trkpt lat="59.3919838965" lon="34.6398970205"><ele>182.18</ele><time>2026-08-22T14:40:51Z</time></trkpt><trkpt lat="59.3918465171" lon="34.6397143789"><ele>179.53</ele><time>2026-08-22T14:41:11Z</time></trkpt><trkpt lat="59.3918417394" lon="34.6397090144"><ele>179.53</ele><time>2026-08-22T14:41:12Z</time></trkpt><trkpt lat="59.3918117322" lon="34.6396831982"><ele>181.42</ele><time>2026-08-22T14:41:18Z</time></trkpt><trkpt lat="59.3917172682" lon="34.6395837888"><ele>181.06</ele><time>2026-08-22T14:41:33Z</time></trkpt><trkpt lat="59.3916595168" lon="34.6395465732"><ele>181.28</ele><time>2026-08-22T14:41:42Z</time></trkpt><trkpt lat="59.3915304355" lon="34.6394237783"><ele>181.52</ele><time>2026-08-22T14:42:00Z</time></trkpt><trkpt lat="59.3914971594" lon="34.6393698826"><ele>181.51</ele><time>2026-08-22T14:42:03Z</time></trkpt><trkpt lat="59.3913679942" lon="34.6392693836"><ele>181.91</ele><time>2026-08-22T14:42:19Z</time></trkpt><trkpt lat="59.3912740331" lon="34.6391137317"><ele>186.00</ele><time>2026-08-22T14:42:34Z</time></trkpt><trkpt lat="59.3911903817" lon="34.6389679704"><ele>183.64</ele><time>2026-08-22T14:42:43Z</time></trkpt><trkpt lat="59.3911681697" lon="34.6389356162"><ele>183.45</ele><time>2026-08-22T14:42:45Z</time></trkpt><trkpt lat="59.3910724483" lon="34.6388324350"><ele>183.27</ele><time>2026-08-22T14:43:02Z</time></trkpt><trkpt lat="59.3910888769" lon="34.6388034336"><ele>183.06</ele><time>2026-08-22T14:43:50Z</time></trkpt><trkpt lat="59.3911084905" lon="34.6388298366"><ele>183.00</ele><time>2026-08-22T14:44:43Z</time></trkpt><trkpt lat="59.3911078200" lon="34.6388358716"><ele>183.14</ele><time>2026-08-22T14:45:48Z</time></trkpt><trkpt lat="59.3910942413" lon="34.6388526354"><ele>183.23</ele><time>2026-08-22T14:46:24Z</time></trkpt><trkpt lat="59.3910882901" lon="34.6388532221"><ele>178.23</ele><time>2026-08-22T14:46:41Z</time></trkpt><trkpt lat="59.3910888769" lon="34.6388526354"><ele>189.68</ele><time>2026-08-22T14:46:43Z</time></trkpt><trkpt lat="59.3910893798" lon="34.6388523839"><ele>185.11</ele><time>2026-08-22T14:46:44Z</time></trkpt><trkpt lat="59.3910919782" lon="34.6388503723"><ele>182.80</ele><time>2026-08-22T14:46:57Z</time></trkpt><trkpt lat="59.3910091650" lon="34.6388561558"><ele>182.44</ele><time>2026-08-22T14:47:19Z</time></trkpt><trkpt lat="59.3908908963" lon="34.6388685610"><ele>181.73</ele><time>2026-08-22T14:47:32Z</time></trkpt><trkpt lat="59.3907941692" lon="34.6387212910"><ele>181.84</ele><time>2026-08-22T14:47:48Z</time></trkpt><trkpt lat="59.3907163851" lon="34.6385016851"><ele>180.98</ele><time>2026-08-22T14:48:04Z</time></trkpt><trkpt lat="59.3907141220" lon="34.6384939738"><ele>180.96</ele><time>2026-08-22T14:48:06Z</time></trkpt><trkpt lat="59.3905841187" lon="34.6384010185"><ele>181.71</ele><time>2026-08-22T14:48:21Z</time></trkpt><trkpt lat="59.3904779200" lon="34.6383362263"><ele>181.78</ele><time>2026-08-22T14:48:34Z</time></trkpt><trkpt lat="59.3903861381" lon="34.6382713504"><ele>180.99</ele><time>2026-08-22T14:48:51Z</time></trkpt><trkpt lat="59.3902705517" lon="34.6381838433"><ele>180.81</ele><time>2026-08-22T14:49:05Z</time></trkpt><trkpt lat="59.3901073560" lon="34.6380547620"><ele>180.67</ele><time>2026-08-22T14:49:22Z</time></trkpt><trkpt lat="59.3899927754" lon="34.6379212383"><ele>179.78</ele><time>2026-08-22T14:49:37Z</time></trkpt><trkpt lat="59.3898929469" lon="34.6379248425"><ele>179.58</ele><time>2026-08-22T14:49:54Z</time></trkpt><trkpt lat="59.3899050169" lon="34.6379972622"><ele>172.79</ele><time>2026-08-22T14:50:10Z</time></trkpt><trkpt lat="59.3899041787" lon="34.6379956696"><ele>177.58</ele><time>2026-08-22T14:50:11Z</time></trkpt><trkpt lat="59.3899029214" lon="34.6379956696"><ele>185.11</ele><time>2026-08-22T14:50:12Z</time></trkpt><trkpt lat="59.3899016641" lon="34.6379962564"><ele>182.50</ele><time>2026-08-22T14:50:13Z</time></trkpt><trkpt lat="59.3898963835" lon="34.6380031295"><ele>180.05</ele><time>2026-08-22T14:50:16Z</time></trkpt><trkpt lat="59.3898893427" lon="34.6379967593"><ele>180.32</ele><time>2026-08-22T14:50:46Z</time></trkpt><trkpt lat="59.3898754288" lon="34.6380241681"><ele>179.79</ele><time>2026-08-22T14:50:48Z</time></trkpt><trkpt lat="59.3897957169" lon="34.6380138583"><ele>179.41</ele><time>2026-08-22T14:51:08Z</time></trkpt><trkpt lat="59.3897629436" lon="34.6380272694"><ele>178.93</ele><time>2026-08-22T14:51:33Z</time></trkpt><trkpt lat="59.3896951340" lon="34.6380669996"><ele>179.15</ele><time>2026-08-22T14:51:51Z</time></trkpt><trkpt lat="59.3896071240" lon="34.6380992699"><ele>178.99</ele><time>2026-08-22T14:52:01Z</time></trkpt><trkpt lat="59.3894080538" lon="34.6380281914"><ele>179.02</ele><time>2026-08-22T14:52:25Z</time></trkpt><trkpt lat="59.3893335387" lon="34.6379688475"><ele>178.80</ele><time>2026-08-22T14:52:47Z</time></trkpt><trkpt lat="59.3893314432" lon="34.6379647404"><ele>178.43</ele><time>2026-08-22T14:53:08Z</time></trkpt><trkpt lat="59.3893139251" lon="34.6379474737"><ele>178.23</ele><time>2026-08-22T14:53:10Z</time></trkpt><trkpt lat="59.3891245779" lon="34.6378254332"><ele>178.51</ele><time>2026-08-22T14:53:29Z</time></trkpt><trkpt lat="59.3889054749" lon="34.6376069169"><ele>177.40</ele><time>2026-08-22T14:53:53Z</time></trkpt><trkpt lat="59.3887349870" lon="34.6373674460"><ele>177.35</ele><time>2026-08-22T14:54:16Z</time></trkpt><trkpt lat="59.3886964303" lon="34.6373917535"><ele>177.47</ele><time>2026-08-22T14:54:32Z</time></trkpt><trkpt lat="59.3886936642" lon="34.6374283824"><ele>176.95</ele><time>2026-08-22T14:55:31Z</time></trkpt><trkpt lat="59.3886814266" lon="34.6374131273"><ele>176.10</ele><time>2026-08-22T14:56:01Z</time></trkpt><trkpt lat="59.3886007927" lon="34.6373086888"><ele>176.16</ele><time>2026-08-22T14:56:12Z</time></trkpt><trkpt lat="59.3883912452" lon="34.6370863169"><ele>175.85</ele><time>2026-08-22T14:56:35Z</time></trkpt><trkpt lat="59.3882212602" lon="34.6369127277"><ele>175.33</ele><time>2026-08-22T14:56:55Z</time></trkpt><trkpt lat="59.3880574778" lon="34.6367092989"><ele>175.33</ele><time>2026-08-22T14:57:17Z</time></trkpt><trkpt lat="59.3878754228" lon="34.6365525573"><ele>175.14</ele><time>2026-08-22T14:57:39Z</time></trkpt><trkpt lat="59.3877132330" lon="34.6363833267"><ele>175.29</ele><time>2026-08-22T14:58:02Z</time></trkpt><trkpt lat="59.3876366224" lon="34.6361907944"><ele>174.85</ele><time>2026-08-22T14:58:18Z</time></trkpt><trkpt lat="59.3874788750" lon="34.6360327955"><ele>175.13</ele><time>2026-08-22T14:58:40Z</time></trkpt><trkpt lat="59.3874213751" lon="34.6360117570"><ele>175.23</ele><time>2026-08-22T14:58:48Z</time></trkpt><trkpt lat="59.3873794656" lon="34.6359746251"><ele>172.05</ele><time>2026-08-22T14:58:53Z</time></trkpt><trkpt lat="59.3873707484" lon="34.6359672491"><ele>176.57</ele><time>2026-08-22T14:58:54Z</time></trkpt><trkpt lat="59.3872414995" lon="34.6358922310"><ele>175.26</ele><time>2026-08-22T14:59:09Z</time></trkpt><trkpt lat="59.3871174473" lon="34.6358627267"><ele>175.22</ele><time>2026-08-22T14:59:28Z</time></trkpt><trkpt lat="59.3871086463" lon="34.6358899679"><ele>175.61</ele><time>2026-08-22T14:59:53Z</time></trkpt><trkpt lat="59.3870974984" lon="34.6358498186"><ele>176.46</ele><time>2026-08-22T15:00:53Z</time></trkpt><trkpt lat="59.3870705925" lon="34.6358375810"><ele>176.21</ele><time>2026-08-22T15:00:56Z</time></trkpt><trkpt lat="59.3869260885" lon="34.6356879640"><ele>176.73</ele><time>2026-08-22T15:01:13Z</time></trkpt><trkpt lat="59.3868282717" lon="34.6356182266"><ele>176.61</ele><time>2026-08-22T15:01:25Z</time></trkpt><trkpt lat="59.3867645692" lon="34.6355758980"><ele>177.00</ele><time>2026-08-22T15:01:34Z</time></trkpt><trkpt lat="59.3865829334" lon="34.6354569588"><ele>176.31</ele><time>2026-08-22T15:01:55Z</time></trkpt><trkpt lat="59.3865343183" lon="34.6354089305"><ele>177.53</ele><time>2026-08-22T15:02:01Z</time></trkpt><trkpt lat="59.3864522595" lon="34.6352814417"><ele>177.42</ele><time>2026-08-22T15:02:12Z</time></trkpt><trkpt lat="59.3864136189" lon="34.6352075972"><ele>177.46</ele><time>2026-08-22T15:02:18Z</time></trkpt><trkpt lat="59.3862543628" lon="34.6349947806"><ele>177.50</ele><time>2026-08-22T15:02:39Z</time></trkpt><trkpt lat="59.3862220924" lon="34.6349668689"><ele>177.56</ele><time>2026-08-22T15:02:43Z</time></trkpt><trkpt lat="59.3861168157" lon="34.6347685531"><ele>176.81</ele><time>2026-08-22T15:03:04Z</time></trkpt><trkpt lat="59.3861163128" lon="34.6347600035"><ele>177.48</ele><time>2026-08-22T15:03:06Z</time></trkpt><trkpt lat="59.3860908318" lon="34.6346747596"><ele>177.39</ele><time>2026-08-22T15:03:44Z</time></trkpt><trkpt lat="59.3860768341" lon="34.6346688922"><ele>176.49</ele><time>2026-08-22T15:04:06Z</time></trkpt><trkpt lat="59.3860767502" lon="34.6346757654"><ele>175.10</ele><time>2026-08-22T15:05:41Z</time></trkpt><trkpt lat="59.3860818632" lon="34.6346838959"><ele>173.29</ele><time>2026-08-22T15:07:28Z</time></trkpt><trkpt lat="59.3860793486" lon="34.6346827224"><ele>174.08</ele><time>2026-08-22T15:08:47Z</time></trkpt><trkpt lat="59.3860746548" lon="34.6346800402"><ele>174.38</ele><time>2026-08-22T15:10:33Z</time></trkpt><trkpt lat="59.3860748224" lon="34.6346785314"><ele>174.72</ele><time>2026-08-22T15:12:38Z</time></trkpt><trkpt lat="59.3860768341" lon="34.6346853208"><ele>174.07</ele><time>2026-08-22T15:13:52Z</time></trkpt><trkpt lat="59.3860740680" lon="34.6346995700"><ele>173.79</ele><time>2026-08-22T15:15:10Z</time></trkpt><trkpt lat="59.3860691227" lon="34.6347036771"><ele>174.70</ele><time>2026-08-22T15:15:37Z</time></trkpt><trkpt lat="59.3860732298" lon="34.6346886735"><ele>174.27</ele><time>2026-08-22T15:16:33Z</time></trkpt><trkpt lat="59.3860601541" lon="34.6346783638"><ele>174.59</ele><time>2026-08-22T15:16:56Z</time></trkpt><trkpt lat="59.3860619981" lon="34.6346837282"><ele>174.75</ele><time>2026-08-22T15:17:34Z</time></trkpt><trkpt lat="59.3860512692" lon="34.6347169206"><ele>174.62</ele><time>2026-08-22T15:17:47Z</time></trkpt><trkpt lat="59.3860240281" lon="34.6348221973"><ele>174.57</ele><time>2026-08-22T15:17:53Z</time></trkpt><trkpt lat="59.3859931827" lon="34.6350269672"><ele>171.52</ele><time>2026-08-22T15:18:05Z</time></trkpt><trkpt lat="59.3859913386" lon="34.6350460779"><ele>176.69</ele><time>2026-08-22T15:18:06Z</time></trkpt><trkpt lat="59.3859898299" lon="34.6350623388"><ele>175.34</ele><time>2026-08-22T15:18:07Z</time></trkpt><trkpt lat="59.3859954458" lon="34.6351412963"><ele>174.48</ele><time>2026-08-22T15:18:12Z</time></trkpt><trkpt lat="59.3860443961" lon="34.6353589743"><ele>174.78</ele><time>2026-08-22T15:18:28Z</time></trkpt><trkpt lat="59.3861312326" lon="34.6355238464"><ele>174.82</ele><time>2026-08-22T15:18:45Z</time></trkpt><trkpt lat="59.3861532770" lon="34.6355784964"><ele>174.72</ele><time>2026-08-22T15:18:50Z</time></trkpt><trkpt lat="59.3861943483" lon="34.6357843559"><ele>174.68</ele><time>2026-08-22T15:19:02Z</time></trkpt><trkpt lat="59.3861661851" lon="34.6358146984"><ele>174.56</ele><time>2026-08-22T15:19:07Z</time></trkpt><trkpt lat="59.3861175701" lon="34.6360564325"><ele>174.50</ele><time>2026-08-22T15:19:22Z</time></trkpt><trkpt lat="59.3860288896" lon="34.6361849271"><ele>174.88</ele><time>2026-08-22T15:19:36Z</time></trkpt><trkpt lat="59.3859673664" lon="34.6362829953"><ele>175.75</ele><time>2026-08-22T15:19:48Z</time></trkpt><trkpt lat="59.3858800270" lon="34.6364065446"><ele>175.11</ele><time>2026-08-22T15:20:04Z</time></trkpt><trkpt lat="59.3858332559" lon="34.6364846639"><ele>175.43</ele><time>2026-08-22T15:20:11Z</time></trkpt><trkpt lat="59.3857683800" lon="34.6366853267"><ele>174.69</ele><time>2026-08-22T15:20:24Z</time></trkpt><trkpt lat="59.3857369479" lon="34.6368169226"><ele>170.79</ele><time>2026-08-22T15:20:31Z</time></trkpt><trkpt lat="59.3857309967" lon="34.6368302498"><ele>175.76</ele><time>2026-08-22T15:20:32Z</time></trkpt><trkpt lat="59.3857243750" lon="34.6368432418"><ele>175.65</ele><time>2026-08-22T15:20:33Z</time></trkpt><trkpt lat="59.3856502790" lon="34.6368661243"><ele>174.45</ele><time>2026-08-22T15:20:51Z</time></trkpt><trkpt lat="59.3855991494" lon="34.6368114743"><ele>175.48</ele><time>2026-08-22T15:21:09Z</time></trkpt><trkpt lat="59.3856003229" lon="34.6368135698"><ele>175.34</ele><time>2026-08-22T15:21:10Z</time></trkpt><trkpt lat="59.3856169190" lon="34.6369245462"><ele>174.74</ele><time>2026-08-22T15:21:26Z</time></trkpt><trkpt lat="59.3856085371" lon="34.6369462553"><ele>173.84</ele><time>2026-08-22T15:21:59Z</time></trkpt><trkpt lat="59.3855853193" lon="34.6369838901"><ele>173.95</ele><time>2026-08-22T15:22:06Z</time></trkpt><trkpt lat="59.3854932860" lon="34.6371351834"><ele>173.83</ele><time>2026-08-22T15:22:21Z</time></trkpt><trkpt lat="59.3854352832" lon="34.6373005584"><ele>173.88</ele><time>2026-08-22T15:22:34Z</time></trkpt><trkpt lat="59.3853928708" lon="34.6375286300"><ele>174.19</ele><time>2026-08-22T15:22:48Z</time></trkpt><trkpt lat="59.3853493687" lon="34.6377737168"><ele>175.13</ele><time>2026-08-22T15:23:01Z</time></trkpt><trkpt lat="59.3853289168" lon="34.6379863657"><ele>174.06</ele><time>2026-08-22T15:23:19Z</time></trkpt><trkpt lat="59.3853462674" lon="34.6380334720"><ele>173.99</ele><time>2026-08-22T15:23:22Z</time></trkpt><trkpt lat="59.3853304256" lon="34.6381491423"><ele>173.79</ele><time>2026-08-22T15:23:35Z</time></trkpt><trkpt lat="59.3852616940" lon="34.6383402497"><ele>173.89</ele><time>2026-08-22T15:23:55Z</time></trkpt><trkpt lat="59.3852184433" lon="34.6385537367"><ele>173.65</ele><time>2026-08-22T15:24:11Z</time></trkpt><trkpt lat="59.3851585966" lon="34.6387045272"><ele>174.09</ele><time>2026-08-22T15:24:22Z</time></trkpt><trkpt lat="59.3850135896" lon="34.6388382185"><ele>173.86</ele><time>2026-08-22T15:24:40Z</time></trkpt><trkpt lat="59.3849686626" lon="34.6388840675"><ele>173.77</ele><time>2026-08-22T15:24:47Z</time></trkpt><trkpt lat="59.3848661520" lon="34.6388945449"><ele>173.39</ele><time>2026-08-22T15:25:03Z</time></trkpt><trkpt lat="59.3848417606" lon="34.6389098000"><ele>173.32</ele><time>2026-08-22T15:25:06Z</time></trkpt><trkpt lat="59.3847845960" lon="34.6389042679"><ele>173.43</ele><time>2026-08-22T15:25:14Z</time></trkpt><trkpt lat="59.3846574426" lon="34.6387531422"><ele>174.14</ele><time>2026-08-22T15:25:35Z</time></trkpt><trkpt lat="59.3846502341" lon="34.6387772821"><ele>173.88</ele><time>2026-08-22T15:26:00Z</time></trkpt><trkpt lat="59.3846086599" lon="34.6386686526"><ele>173.25</ele><time>2026-08-22T15:26:31Z</time></trkpt><trkpt lat="59.3845979311" lon="34.6385253221"><ele>173.78</ele><time>2026-08-22T15:26:52Z</time></trkpt><trkpt lat="59.3845948298" lon="34.6385132521"><ele>173.73</ele><time>2026-08-22T15:26:53Z</time></trkpt><trkpt lat="59.3845749646" lon="34.6384776291"><ele>173.69</ele><time>2026-08-22T15:26:56Z</time></trkpt><trkpt lat="59.3845560215" lon="34.6383916307"><ele>173.67</ele><time>2026-08-22T15:27:01Z</time></trkpt><trkpt lat="59.3845075741" lon="34.6383609530"><ele>173.87</ele><time>2026-08-22T15:27:07Z</time></trkpt><trkpt lat="59.3844682630" lon="34.6383838356"><ele>173.81</ele><time>2026-08-22T15:27:11Z</time></trkpt><trkpt lat="59.3843183946" lon="34.6382763796"><ele>173.69</ele><time>2026-08-22T15:27:29Z</time></trkpt><trkpt lat="59.3842626549" lon="34.6382456180"><ele>173.63</ele><time>2026-08-22T15:27:41Z</time></trkpt><trkpt lat="59.3842462264" lon="34.6381021198"><ele>173.72</ele><time>2026-08-22T15:27:50Z</time></trkpt><trkpt lat="59.3841870502" lon="34.6379948314"><ele>173.70</ele><time>2026-08-22T15:28:02Z</time></trkpt><trkpt lat="59.3840898201" lon="34.6379696857"><ele>173.79</ele><time>2026-08-22T15:28:14Z</time></trkpt><trkpt lat="59.3839994632" lon="34.6377110202"><ele>173.65</ele><time>2026-08-22T15:28:32Z</time></trkpt><trkpt lat="59.3839783408" lon="34.6376051567"><ele>173.90</ele><time>2026-08-22T15:28:40Z</time></trkpt><trkpt lat="59.3839127943" lon="34.6374176536"><ele>174.01</ele><time>2026-08-22T15:28:54Z</time></trkpt><trkpt lat="59.3838805240" lon="34.6373486705"><ele>174.11</ele><time>2026-08-22T15:28:59Z</time></trkpt><trkpt lat="59.3838175759" lon="34.6371479239"><ele>174.01</ele><time>2026-08-22T15:29:12Z</time></trkpt><trkpt lat="59.3838155642" lon="34.6370878257"><ele>173.95</ele><time>2026-08-22T15:29:15Z</time></trkpt><trkpt lat="59.3838320766" lon="34.6368653700"><ele>173.98</ele><time>2026-08-22T15:29:29Z</time></trkpt><trkpt lat="59.3838307355" lon="34.6368131507"><ele>173.84</ele><time>2026-08-22T15:29:32Z</time></trkpt><trkpt lat="59.3838311546" lon="34.6365164313"><ele>174.06</ele><time>2026-08-22T15:29:51Z</time></trkpt><trkpt lat="59.3838567194" lon="34.6365056187"><ele>174.08</ele><time>2026-08-22T15:29:56Z</time></trkpt><trkpt lat="59.3838514388" lon="34.6363437641"><ele>173.99</ele><time>2026-08-22T15:30:12Z</time></trkpt><trkpt lat="59.3837987166" lon="34.6363042854"><ele>173.96</ele><time>2026-08-22T15:30:27Z</time></trkpt><trkpt lat="59.3837355170" lon="34.6363269165"><ele>173.84</ele><time>2026-08-22T15:30:43Z</time></trkpt><trkpt lat="59.3836715631" lon="34.6364187822"><ele>173.91</ele><time>2026-08-22T15:30:58Z</time></trkpt><trkpt lat="59.3836676236" lon="34.6364539862"><ele>164.32</ele><time>2026-08-22T15:31:12Z</time></trkpt><trkpt lat="59.3836681265" lon="34.6364547405"><ele>179.34</ele><time>2026-08-22T15:31:13Z</time></trkpt><trkpt lat="59.3836682942" lon="34.6364553273"><ele>176.46</ele><time>2026-08-22T15:31:14Z</time></trkpt><trkpt lat="59.3836655281" lon="34.6364382282"><ele>173.88</ele><time>2026-08-22T15:31:52Z</time></trkpt><trkpt lat="59.3836647738" lon="34.6364787966"><ele>174.09</ele><time>2026-08-22T15:32:34Z</time></trkpt><trkpt lat="59.3836658634" lon="34.6365113184"><ele>173.85</ele><time>2026-08-22T15:32:55Z</time></trkpt><trkpt lat="59.3836571462" lon="34.6365943830"><ele>173.94</ele><time>2026-08-22T15:32:59Z</time></trkpt><trkpt lat="59.3836554699" lon="34.6366803814"><ele>174.06</ele><time>2026-08-22T15:33:03Z</time></trkpt><trkpt lat="59.3836457469" lon="34.6367423236"><ele>174.00</ele><time>2026-08-22T15:33:06Z</time></trkpt><trkpt lat="59.3835910968" lon="34.6370379534"><ele>173.95</ele><time>2026-08-22T15:33:24Z</time></trkpt><trkpt lat="59.3835922703" lon="34.6370505262"><ele>173.99</ele><time>2026-08-22T15:33:25Z</time></trkpt><trkpt lat="59.3835943658" lon="34.6371960361"><ele>174.15</ele><time>2026-08-22T15:33:34Z</time></trkpt><trkpt lat="59.3835683819" lon="34.6375721321"><ele>173.66</ele><time>2026-08-22T15:33:57Z</time></trkpt><trkpt lat="59.3835837208" lon="34.6377935819"><ele>174.12</ele><time>2026-08-22T15:34:09Z</time></trkpt><trkpt lat="59.3835021649" lon="34.6379784867"><ele>173.84</ele><time>2026-08-22T15:34:27Z</time></trkpt><trkpt lat="59.3834494427" lon="34.6382312849"><ele>173.86</ele><time>2026-08-22T15:34:45Z</time></trkpt><trkpt lat="59.3834525440" lon="34.6382489707"><ele>173.85</ele><time>2026-08-22T15:34:48Z</time></trkpt><trkpt lat="59.3834779412" lon="34.6382944845"><ele>173.85</ele><time>2026-08-22T15:34:52Z</time></trkpt><trkpt lat="59.3836282287" lon="34.6383605339"><ele>174.03</ele><time>2026-08-22T15:35:13Z</time></trkpt><trkpt lat="59.3836404663" lon="34.6383494698"><ele>172.16</ele><time>2026-08-22T15:35:52Z</time></trkpt><trkpt lat="59.3836485967" lon="34.6383516490"><ele>175.34</ele><time>2026-08-22T15:35:53Z</time></trkpt><trkpt lat="59.3836576492" lon="34.6383520681"><ele>175.35</ele><time>2026-08-22T15:35:54Z</time></trkpt><trkpt lat="59.3836677913" lon="34.6383513976"><ele>174.32</ele><time>2026-08-22T15:35:55Z</time></trkpt><trkpt lat="59.3837506883" lon="34.6383801475"><ele>174.43</ele><time>2026-08-22T15:36:04Z</time></trkpt><trkpt lat="59.3837724812" lon="34.6384161897"><ele>174.43</ele><time>2026-08-22T15:36:07Z</time></trkpt><trkpt lat="59.3839124590" lon="34.6385785472"><ele>173.60</ele><time>2026-08-22T15:36:26Z</time></trkpt><trkpt lat="59.3838765845" lon="34.6387350373"><ele>173.95</ele><time>2026-08-22T15:36:36Z</time></trkpt><trkpt lat="59.3838969525" lon="34.6387995780"><ele>173.71</ele><time>2026-08-22T15:36:40Z</time></trkpt><trkpt lat="59.3839264568" lon="34.6390523762"><ele>173.74</ele><time>2026-08-22T15:36:55Z</time></trkpt><trkpt lat="59.3838774227" lon="34.6392896678"><ele>173.44</ele><time>2026-08-22T15:37:12Z</time></trkpt><trkpt lat="59.3838797696" lon="34.6393191721"><ele>173.27</ele><time>2026-08-22T15:37:17Z</time></trkpt><trkpt lat="59.3839267921" lon="34.6395672765"><ele>173.07</ele><time>2026-08-22T15:37:33Z</time></trkpt><trkpt lat="59.3838620000" lon="34.6397061646"><ele>172.69</ele><time>2026-08-22T15:37:48Z</time></trkpt><trkpt lat="59.3838637602" lon="34.6397087630"><ele>174.14</ele><time>2026-08-22T15:37:51Z</time></trkpt><trkpt lat="59.3838681187" lon="34.6397028957"><ele>173.64</ele><time>2026-08-22T15:38:07Z</time></trkpt><trkpt lat="59.3838680349" lon="34.6397176478"><ele>170.35</ele><time>2026-08-22T15:38:21Z</time></trkpt><trkpt lat="59.3838676997" lon="34.6397181507"><ele>176.36</ele><time>2026-08-22T15:38:22Z</time></trkpt><trkpt lat="59.3838673644" lon="34.6397189889"><ele>175.39</ele><time>2026-08-22T15:38:23Z</time></trkpt><trkpt lat="59.3838678673" lon="34.6397201624"><ele>173.35</ele><time>2026-08-22T15:38:25Z</time></trkpt><trkpt lat="59.3838659395" lon="34.6397251915"><ele>173.40</ele><time>2026-08-22T15:39:04Z</time></trkpt><trkpt lat="59.3838504329" lon="34.6397277899"><ele>173.57</ele><time>2026-08-22T15:39:48Z</time></trkpt><trkpt lat="59.3838226888" lon="34.6397360880"><ele>173.63</ele><time>2026-08-22T15:39:51Z</time></trkpt><trkpt lat="59.3837366905" lon="34.6397298854"><ele>173.85</ele><time>2026-08-22T15:40:00Z</time></trkpt><trkpt lat="59.3836646900" lon="34.6397744771"><ele>173.91</ele><time>2026-08-22T15:40:08Z</time></trkpt><trkpt lat="59.3835567310" lon="34.6399307996"><ele>173.89</ele><time>2026-08-22T15:40:23Z</time></trkpt><trkpt lat="59.3834883347" lon="34.6400790755"><ele>174.51</ele><time>2026-08-22T15:40:36Z</time></trkpt><trkpt lat="59.3834758457" lon="34.6401413530"><ele>174.48</ele><time>2026-08-22T15:40:39Z</time></trkpt><trkpt lat="59.3834481016" lon="34.6404242422"><ele>174.54</ele><time>2026-08-22T15:40:54Z</time></trkpt><trkpt lat="59.3833979778" lon="34.6405346319"><ele>174.41</ele><time>2026-08-22T15:41:02Z</time></trkpt><trkpt lat="59.3833703175" lon="34.6405732725"><ele>174.34</ele><time>2026-08-22T15:41:05Z</time></trkpt><trkpt lat="59.3832379673" lon="34.6405531559"><ele>174.04</ele><time>2026-08-22T15:41:23Z</time></trkpt><trkpt lat="59.3832428288" lon="34.6405123360"><ele>173.95</ele><time>2026-08-22T15:41:26Z</time></trkpt><trkpt lat="59.3832081277" lon="34.6402708534"><ele>174.30</ele><time>2026-08-22T15:41:39Z</time></trkpt><trkpt lat="59.3832160905" lon="34.6400199831"><ele>174.24</ele><time>2026-08-22T15:41:53Z</time></trkpt><trkpt lat="59.3832314294" lon="34.6397533547"><ele>174.52</ele><time>2026-08-22T15:42:10Z</time></trkpt><trkpt lat="59.3832238857" lon="34.6397201624"><ele>174.49</ele><time>2026-08-22T15:42:12Z</time></trkpt><trkpt lat="59.3832393922" lon="34.6395908296"><ele>174.44</ele><time>2026-08-22T15:42:20Z</time></trkpt><trkpt lat="59.3832082953" lon="34.6393527836"><ele>173.79</ele><time>2026-08-22T15:42:34Z</time></trkpt><trkpt lat="59.3831711635" lon="34.6391901746"><ele>173.89</ele><time>2026-08-22T15:42:54Z</time></trkpt><trkpt lat="59.3831643742" lon="34.6391748358"><ele>173.65</ele><time>2026-08-22T15:43:33Z</time></trkpt><trkpt lat="59.3831294216" lon="34.6392097883"><ele>173.57</ele><time>2026-08-22T15:43:54Z</time></trkpt><trkpt lat="59.3831040245" lon="34.6392415557"><ele>173.44</ele><time>2026-08-22T15:43:57Z</time></trkpt><trkpt lat="59.3830740172" lon="34.6392406337"><ele>173.43</ele><time>2026-08-22T15:44:00Z</time></trkpt><trkpt lat="59.3830087222" lon="34.6390835568"><ele>173.36</ele><time>2026-08-22T15:44:15Z</time></trkpt><trkpt lat="59.3829144258" lon="34.6391170844"><ele>173.26</ele><time>2026-08-22T15:44:29Z</time></trkpt><trkpt lat="59.3827855121" lon="34.6392089501"><ele>173.42</ele><time>2026-08-22T15:44:44Z</time></trkpt><trkpt lat="59.3827112485" lon="34.6393497661"><ele>173.35</ele><time>2026-08-22T15:44:57Z</time></trkpt><trkpt lat="59.3826446962" lon="34.6395079326"><ele>173.52</ele><time>2026-08-22T15:45:09Z</time></trkpt><trkpt lat="59.3825996853" lon="34.6396078449"><ele>173.78</ele><time>2026-08-22T15:45:17Z</time></trkpt><trkpt lat="59.3825329654" lon="34.6398803405"><ele>173.76</ele><time>2026-08-22T15:45:33Z</time></trkpt><trkpt lat="59.3824881222" lon="34.6400925703"><ele>173.36</ele><time>2026-08-22T15:45:45Z</time></trkpt><trkpt lat="59.3824408483" lon="34.6402791515"><ele>173.04</ele><time>2026-08-22T15:45:58Z</time></trkpt><trkpt lat="59.3824366573" lon="34.6403832547"><ele>173.34</ele><time>2026-08-22T15:46:03Z</time></trkpt><trkpt lat="59.3824209832" lon="34.6404162794"><ele>171.64</ele><time>2026-08-22T15:46:06Z</time></trkpt><trkpt lat="59.3823959213" lon="34.6404814906"><ele>173.12</ele><time>2026-08-22T15:46:11Z</time></trkpt><trkpt lat="59.3823575322" lon="34.6407264937"><ele>172.60</ele><time>2026-08-22T15:46:26Z</time></trkpt><trkpt lat="59.3822992779" lon="34.6409281623"><ele>172.67</ele><time>2026-08-22T15:46:40Z</time></trkpt><trkpt lat="59.3822951708" lon="34.6410376299"><ele>172.76</ele><time>2026-08-22T15:46:46Z</time></trkpt><trkpt lat="59.3822652474" lon="34.6412728261"><ele>172.47</ele><time>2026-08-22T15:46:59Z</time></trkpt><trkpt lat="59.3822704442" lon="34.6412795316"><ele>172.31</ele><time>2026-08-22T15:47:15Z</time></trkpt><trkpt lat="59.3822813407" lon="34.6413097903"><ele>166.77</ele><time>2026-08-22T15:47:34Z</time></trkpt><trkpt lat="59.3822808377" lon="34.6413093712"><ele>174.68</ele><time>2026-08-22T15:47:35Z</time></trkpt><trkpt lat="59.3822763953" lon="34.6413042583"><ele>171.44</ele><time>2026-08-22T15:47:41Z</time></trkpt><trkpt lat="59.3822407722" lon="34.6413621772"><ele>172.17</ele><time>2026-08-22T15:48:03Z</time></trkpt><trkpt lat="59.3821729627" lon="34.6415229421"><ele>171.94</ele><time>2026-08-22T15:48:19Z</time></trkpt><trkpt lat="59.3821555283" lon="34.6416018996"><ele>171.81</ele><time>2026-08-22T15:48:26Z</time></trkpt><trkpt lat="59.3821696937" lon="34.6417694539"><ele>171.37</ele><time>2026-08-22T15:48:40Z</time></trkpt><trkpt lat="59.3821850326" lon="34.6418341622"><ele>171.34</ele><time>2026-08-22T15:48:44Z</time></trkpt><trkpt lat="59.3821354955" lon="34.6419550292"><ele>172.07</ele><time>2026-08-22T15:48:53Z</time></trkpt><trkpt lat="59.3821157981" lon="34.6419845335"><ele>172.07</ele><time>2026-08-22T15:48:56Z</time></trkpt><trkpt lat="59.3819892313" lon="34.6420037281"><ele>171.18</ele><time>2026-08-22T15:49:09Z</time></trkpt><trkpt lat="59.3818310648" lon="34.6421354916"><ele>171.39</ele><time>2026-08-22T15:49:28Z</time></trkpt><trkpt lat="59.3817407079" lon="34.6422675066"><ele>171.27</ele><time>2026-08-22T15:49:43Z</time></trkpt><trkpt lat="59.3816493452" lon="34.6420750581"><ele>171.27</ele><time>2026-08-22T15:49:58Z</time></trkpt><trkpt lat="59.3815893307" lon="34.6419234294"><ele>171.58</ele><time>2026-08-22T15:50:14Z</time></trkpt><trkpt lat="59.3815874867" lon="34.6417249460"><ele>171.42</ele><time>2026-08-22T15:50:29Z</time></trkpt><trkpt lat="59.3816074356" lon="34.6415418852"><ele>171.58</ele><time>2026-08-22T15:50:41Z</time></trkpt><trkpt lat="59.3816169910" lon="34.6413107961"><ele>171.67</ele><time>2026-08-22T15:50:59Z</time></trkpt><trkpt lat="59.3816442322" lon="34.6410903521"><ele>171.99</ele><time>2026-08-22T15:51:15Z</time></trkpt><trkpt lat="59.3816755805" lon="34.6409382205"><ele>171.63</ele><time>2026-08-22T15:51:32Z</time></trkpt><trkpt lat="59.3816702999" lon="34.6409378853"><ele>166.22</ele><time>2026-08-22T15:51:53Z</time></trkpt><trkpt lat="59.3816703837" lon="34.6409374662"><ele>176.57</ele><time>2026-08-22T15:51:54Z</time></trkpt><trkpt lat="59.3816702999" lon="34.6409374662"><ele>174.04</ele><time>2026-08-22T15:51:55Z</time></trkpt><trkpt lat="59.3817161489" lon="34.6408535633"><ele>171.54</ele><time>2026-08-22T15:52:31Z</time></trkpt><trkpt lat="59.3817864731" lon="34.6406787168"><ele>171.87</ele><time>2026-08-22T15:52:49Z</time></trkpt><trkpt lat="59.3818276282" lon="34.6405360568"><ele>172.10</ele><time>2026-08-22T15:53:04Z</time></trkpt><trkpt lat="59.3818304781" lon="34.6403953247"><ele>172.46</ele><time>2026-08-22T15:53:18Z</time></trkpt><trkpt lat="59.3818193302" lon="34.6402137727"><ele>172.13</ele><time>2026-08-22T15:53:32Z</time></trkpt><trkpt lat="59.3818365969" lon="34.6400200669"><ele>172.76</ele><time>2026-08-22T15:53:48Z</time></trkpt><trkpt lat="59.3818298914" lon="34.6398047358"><ele>173.10</ele><time>2026-08-22T15:54:02Z</time></trkpt><trkpt lat="59.3817719724" lon="34.6396770794"><ele>172.96</ele><time>2026-08-22T15:54:16Z</time></trkpt><trkpt lat="59.3817177415" lon="34.6395098604"><ele>172.86</ele><time>2026-08-22T15:54:45Z</time></trkpt><trkpt lat="59.3816787656" lon="34.6392532904"><ele>172.74</ele><time>2026-08-22T15:55:02Z</time></trkpt><trkpt lat="59.3816924281" lon="34.6390892565"><ele>173.14</ele><time>2026-08-22T15:55:20Z</time></trkpt><trkpt lat="59.3817096949" lon="34.6389136557"><ele>173.27</ele><time>2026-08-22T15:55:35Z</time></trkpt><trkpt lat="59.3817400374" lon="34.6387521364"><ele>173.18</ele><time>2026-08-22T15:55:48Z</time></trkpt><trkpt lat="59.3817759957" lon="34.6385950595"><ele>173.32</ele><time>2026-08-22T15:56:05Z</time></trkpt><trkpt lat="59.3818221800" lon="34.6384633798"><ele>173.34</ele><time>2026-08-22T15:56:20Z</time></trkpt><trkpt lat="59.3817999680" lon="34.6383008547"><ele>173.45</ele><time>2026-08-22T15:56:36Z</time></trkpt><trkpt lat="59.3817888200" lon="34.6382629685"><ele>170.14</ele><time>2026-08-22T15:56:45Z</time></trkpt><trkpt lat="59.3817866407" lon="34.6382630523"><ele>175.55</ele><time>2026-08-22T15:56:46Z</time></trkpt><trkpt lat="59.3817834556" lon="34.6382676624"><ele>173.55</ele><time>2026-08-22T15:56:49Z</time></trkpt><trkpt lat="59.3818190787" lon="34.6382845938"><ele>174.28</ele><time>2026-08-22T15:57:29Z</time></trkpt><trkpt lat="59.3818770815" lon="34.6382831689"><ele>173.73</ele><time>2026-08-22T15:57:45Z</time></trkpt><trkpt lat="59.3819461484" lon="34.6382348891"><ele>170.32</ele><time>2026-08-22T15:58:01Z</time></trkpt><trkpt lat="59.3819639180" lon="34.6382283513"><ele>173.67</ele><time>2026-08-22T15:58:02Z</time></trkpt><trkpt lat="59.3819841184" lon="34.6382146887"><ele>174.63</ele><time>2026-08-22T15:58:04Z</time></trkpt><trkpt lat="59.3820772413" lon="34.6380284429"><ele>173.03</ele><time>2026-08-22T15:58:21Z</time></trkpt><trkpt lat="59.3820869643" lon="34.6379718650"><ele>173.04</ele><time>2026-08-22T15:58:25Z</time></trkpt><trkpt lat="59.3821095955" lon="34.6377335675"><ele>173.15</ele><time>2026-08-22T15:58:42Z</time></trkpt><trkpt lat="59.3821147922" lon="34.6376991179"><ele>173.36</ele><time>2026-08-22T15:58:46Z</time></trkpt><trkpt lat="59.3821447995" lon="34.6376259439"><ele>170.30</ele><time>2026-08-22T15:58:54Z</time></trkpt><trkpt lat="59.3821438774" lon="34.6376129519"><ele>174.37</ele><time>2026-08-22T15:58:55Z</time></trkpt><trkpt lat="59.3821269460" lon="34.6375508420"><ele>172.75</ele><time>2026-08-22T15:59:00Z</time></trkpt><trkpt lat="59.3820897304" lon="34.6374048293"><ele>173.54</ele><time>2026-08-22T15:59:14Z</time></trkpt><trkpt lat="59.3820412830" lon="34.6373573877"><ele>173.48</ele><time>2026-08-22T15:59:19Z</time></trkpt><trkpt lat="59.3819393590" lon="34.6372466628"><ele>173.42</ele><time>2026-08-22T15:59:35Z</time></trkpt><trkpt lat="59.3818361778" lon="34.6372090280"><ele>173.16</ele><time>2026-08-22T15:59:53Z</time></trkpt><trkpt lat="59.3817765824" lon="34.6371856425"><ele>173.27</ele><time>2026-08-22T16:00:01Z</time></trkpt><trkpt lat="59.3817572203" lon="34.6371673699"><ele>169.91</ele><time>2026-08-22T16:00:03Z</time></trkpt><trkpt lat="59.3817477487" lon="34.6371558867"><ele>174.75</ele><time>2026-08-22T16:00:04Z</time></trkpt><trkpt lat="59.3817211781" lon="34.6371322498"><ele>173.44</ele><time>2026-08-22T16:00:07Z</time></trkpt><trkpt lat="59.3815729860" lon="34.6370664518"><ele>173.04</ele><time>2026-08-22T16:00:26Z</time></trkpt><trkpt lat="59.3815499358" lon="34.6370305773"><ele>173.09</ele><time>2026-08-22T16:00:31Z</time></trkpt><trkpt lat="59.3814391270" lon="34.6370469220"><ele>173.07</ele><time>2026-08-22T16:00:47Z</time></trkpt><trkpt lat="59.3813455850" lon="34.6370751690"><ele>174.30</ele><time>2026-08-22T16:01:01Z</time></trkpt><trkpt lat="59.3813022505" lon="34.6370812878"><ele>173.01</ele><time>2026-08-22T16:01:13Z</time></trkpt><trkpt lat="59.3812621012" lon="34.6371035837"><ele>173.06</ele><time>2026-08-22T16:01:17Z</time></trkpt><trkpt lat="59.3811850715" lon="34.6370277274"><ele>172.90</ele><time>2026-08-22T16:01:28Z</time></trkpt><trkpt lat="59.3811046891" lon="34.6370160766"><ele>172.73</ele><time>2026-08-22T16:01:49Z</time></trkpt><trkpt lat="59.3810043577" lon="34.6369159967"><ele>173.19</ele><time>2026-08-22T16:02:04Z</time></trkpt><trkpt lat="59.3809934612" lon="34.6368926950"><ele>173.10</ele><time>2026-08-22T16:02:25Z</time></trkpt><trkpt lat="59.3809868395" lon="34.6368423197"><ele>173.25</ele><time>2026-08-22T16:03:11Z</time></trkpt><trkpt lat="59.3809866719" lon="34.6366064530"><ele>173.19</ele><time>2026-08-22T16:03:29Z</time></trkpt><trkpt lat="59.3809291720" lon="34.6365087200"><ele>173.62</ele><time>2026-08-22T16:03:47Z</time></trkpt><trkpt lat="59.3808256555" lon="34.6362947300"><ele>172.62</ele><time>2026-08-22T16:04:07Z</time></trkpt><trkpt lat="59.3808083888" lon="34.6361296903"><ele>173.37</ele><time>2026-08-22T16:04:24Z</time></trkpt><trkpt lat="59.3807641324" lon="34.6360057220"><ele>173.54</ele><time>2026-08-22T16:04:39Z</time></trkpt><trkpt lat="59.3807675689" lon="34.6358987689"><ele>170.48</ele><time>2026-08-22T16:04:49Z</time></trkpt><trkpt lat="59.3807652220" lon="34.6358875372"><ele>174.75</ele><time>2026-08-22T16:04:50Z</time></trkpt><trkpt lat="59.3807587679" lon="34.6358714439"><ele>173.31</ele><time>2026-08-22T16:04:54Z</time></trkpt><trkpt lat="59.3807467818" lon="34.6358397603"><ele>173.30</ele><time>2026-08-22T16:04:57Z</time></trkpt><trkpt lat="59.3806732725" lon="34.6356287878"><ele>173.52</ele><time>2026-08-22T16:05:16Z</time></trkpt><trkpt lat="59.3806285970" lon="34.6354868822"><ele>173.39</ele><time>2026-08-22T16:06:07Z</time></trkpt><trkpt lat="59.3805649783" lon="34.6352171525"><ele>173.31</ele><time>2026-08-22T16:06:27Z</time></trkpt><trkpt lat="59.3804999348" lon="34.6349228639"><ele>173.32</ele><time>2026-08-22T16:06:48Z</time></trkpt><trkpt lat="59.3804759625" lon="34.6346995700"><ele>174.76</ele><time>2026-08-22T16:07:07Z</time></trkpt><trkpt lat="59.3804741185" lon="34.6347472630"><ele>173.44</ele><time>2026-08-22T16:07:30Z</time></trkpt><trkpt lat="59.3804715201" lon="34.6347426530"><ele>172.15</ele><time>2026-08-22T16:08:03Z</time></trkpt><trkpt lat="59.3804620486" lon="34.6347456705"><ele>173.61</ele><time>2026-08-22T16:08:05Z</time></trkpt><trkpt lat="59.3804510683" lon="34.6347539686"><ele>174.56</ele><time>2026-08-22T16:08:09Z</time></trkpt><trkpt lat="59.3804342207" lon="34.6347632725"><ele>173.60</ele><time>2026-08-22T16:08:11Z</time></trkpt><trkpt lat="59.3803253397" lon="34.6346785314"><ele>173.01</ele><time>2026-08-22T16:08:29Z</time></trkpt><trkpt lat="59.3802638166" lon="34.6345332731"><ele>173.19</ele><time>2026-08-22T16:08:43Z</time></trkpt><trkpt lat="59.3801819254" lon="34.6344496217"><ele>173.33</ele><time>2026-08-22T16:08:56Z</time></trkpt><trkpt lat="59.3800690211" lon="34.6344458498"><ele>173.09</ele><time>2026-08-22T16:09:10Z</time></trkpt><trkpt lat="59.3799741380" lon="34.6345189400"><ele>173.15</ele><time>2026-08-22T16:09:22Z</time></trkpt><trkpt lat="59.3799507525" lon="34.6345406491"><ele>172.88</ele><time>2026-08-22T16:09:26Z</time></trkpt><trkpt lat="59.3798790872" lon="34.6345110610"><ele>172.83</ele><time>2026-08-22T16:09:38Z</time></trkpt><trkpt lat="59.3797552865" lon="34.6343833208"><ele>173.02</ele><time>2026-08-22T16:09:56Z</time></trkpt><trkpt lat="59.3796524405" lon="34.6342857555"><ele>173.09</ele><time>2026-08-22T16:10:08Z</time></trkpt><trkpt lat="59.3796171527" lon="34.6342721768"><ele>173.09</ele><time>2026-08-22T16:10:12Z</time></trkpt><trkpt lat="59.3795206770" lon="34.6342995856"><ele>172.92</ele><time>2026-08-22T16:10:26Z</time></trkpt><trkpt lat="59.3794591539" lon="34.6343012620"><ele>169.91</ele><time>2026-08-22T16:10:33Z</time></trkpt><trkpt lat="59.3794519454" lon="34.6342988312"><ele>174.25</ele><time>2026-08-22T16:10:34Z</time></trkpt><trkpt lat="59.3794327509" lon="34.6343096439"><ele>172.62</ele><time>2026-08-22T16:10:38Z</time></trkpt><trkpt lat="59.3794064317" lon="34.6343189478"><ele>173.12</ele><time>2026-08-22T16:10:41Z</time></trkpt><trkpt lat="59.3792962935" lon="34.6342659742"><ele>172.83</ele><time>2026-08-22T16:11:02Z</time></trkpt><trkpt lat="59.3792876601" lon="34.6342650522"><ele>172.87</ele><time>2026-08-22T16:11:36Z</time></trkpt><trkpt lat="59.3792821281" lon="34.6342204604"><ele>170.35</ele><time>2026-08-22T16:11:42Z</time></trkpt><trkpt lat="59.3792627659" lon="34.6341842506"><ele>174.73</ele><time>2026-08-22T16:11:45Z</time></trkpt><trkpt lat="59.3792527076" lon="34.6341549139"><ele>172.83</ele><time>2026-08-22T16:11:48Z</time></trkpt><trkpt lat="59.3792460859" lon="34.6341578476"><ele>172.30</ele><time>2026-08-22T16:12:23Z</time></trkpt><trkpt lat="59.3792497739" lon="34.6341447718"><ele>170.67</ele><time>2026-08-22T16:13:00Z</time></trkpt><trkpt lat="59.3792491872" lon="34.6341437660"><ele>172.26</ele><time>2026-08-22T16:13:10Z</time></trkpt><trkpt lat="59.3792168330" lon="34.6340451948"><ele>171.42</ele><time>2026-08-22T16:13:35Z</time></trkpt><trkpt lat="59.3791726604" lon="34.6336962562"><ele>171.43</ele><time>2026-08-22T16:13:56Z</time></trkpt><trkpt lat="59.3792635202" lon="34.6334609762"><ele>171.25</ele><time>2026-08-22T16:14:12Z</time></trkpt><trkpt lat="59.3792747520" lon="34.6334465593"><ele>171.33</ele><time>2026-08-22T16:14:37Z</time></trkpt><trkpt lat="59.3792890850" lon="34.6332329884"><ele>171.33</ele><time>2026-08-22T16:14:55Z</time></trkpt><trkpt lat="59.3792655319" lon="34.6330434736"><ele>171.19</ele><time>2026-08-22T16:15:09Z</time></trkpt><trkpt lat="59.3792495225" lon="34.6329782624"><ele>171.43</ele><time>2026-08-22T16:15:13Z</time></trkpt><trkpt lat="59.3792588264" lon="34.6329247858"><ele>171.48</ele><time>2026-08-22T16:15:16Z</time></trkpt><trkpt lat="59.3792665377" lon="34.6326783579"><ele>170.80</ele><time>2026-08-22T16:15:33Z</time></trkpt><trkpt lat="59.3792510312" lon="34.6326758433"><ele>171.11</ele><time>2026-08-22T16:15:53Z</time></trkpt><trkpt lat="59.3792442419" lon="34.6326671261"><ele>166.80</ele><time>2026-08-22T16:16:00Z</time></trkpt><trkpt lat="59.3792430684" lon="34.6326697245"><ele>171.79</ele><time>2026-08-22T16:16:01Z</time></trkpt><trkpt lat="59.3792150728" lon="34.6325851511"><ele>170.98</ele><time>2026-08-22T16:16:21Z</time></trkpt><trkpt lat="59.3790801242" lon="34.6323479433"><ele>170.90</ele><time>2026-08-22T16:16:43Z</time></trkpt><trkpt lat="59.3790692277" lon="34.6323564928"><ele>170.90</ele><time>2026-08-22T16:17:29Z</time></trkpt><trkpt lat="59.3790461775" lon="34.6324034315"><ele>170.82</ele><time>2026-08-22T16:18:06Z</time></trkpt><trkpt lat="59.3790464289" lon="34.6324072871"><ele>169.01</ele><time>2026-08-22T16:18:40Z</time></trkpt><trkpt lat="59.3790461775" lon="34.6324078739"><ele>172.53</ele><time>2026-08-22T16:18:41Z</time></trkpt><trkpt lat="59.3790460937" lon="34.6324102208"><ele>171.17</ele><time>2026-08-22T16:18:42Z</time></trkpt><trkpt lat="59.3790465966" lon="34.6324160881"><ele>170.35</ele><time>2026-08-22T16:18:44Z</time></trkpt><trkpt lat="59.3790485244" lon="34.6324172616"><ele>170.53</ele><time>2026-08-22T16:19:16Z</time></trkpt><trkpt lat="59.3789749313" lon="34.6324843168"><ele>170.42</ele><time>2026-08-22T16:19:29Z</time></trkpt><trkpt lat="59.3789173476" lon="34.6326409746"><ele>170.18</ele><time>2026-08-22T16:19:44Z</time></trkpt><trkpt lat="59.3788535614" lon="34.6328259632"><ele>170.46</ele><time>2026-08-22T16:19:59Z</time></trkpt><trkpt lat="59.3787056208" lon="34.6326340176"><ele>170.77</ele><time>2026-08-22T16:20:22Z</time></trkpt><trkpt lat="59.3786475342" lon="34.6325760987"><ele>171.63</ele><time>2026-08-22T16:20:30Z</time></trkpt><trkpt lat="59.3785587698" lon="34.6324640326"><ele>170.57</ele><time>2026-08-22T16:20:45Z</time></trkpt><trkpt lat="59.3785253260" lon="34.6321607754"><ele>170.35</ele><time>2026-08-22T16:21:01Z</time></trkpt><trkpt lat="59.3785298523" lon="34.6320925467"><ele>170.07</ele><time>2026-08-22T16:21:06Z</time></trkpt><trkpt lat="59.3785134237" lon="34.6319500543"><ele>170.38</ele><time>2026-08-22T16:21:21Z</time></trkpt><trkpt lat="59.3785171956" lon="34.6318461187"><ele>170.67</ele><time>2026-08-22T16:21:31Z</time></trkpt><trkpt lat="59.3785599433" lon="34.6317602042"><ele>170.78</ele><time>2026-08-22T16:21:38Z</time></trkpt><trkpt lat="59.3786062952" lon="34.6315897163"><ele>170.69</ele><time>2026-08-22T16:21:54Z</time></trkpt><trkpt lat="59.3786146771" lon="34.6313830186"><ele>170.45</ele><time>2026-08-22T16:22:07Z</time></trkpt><trkpt lat="59.3786205444" lon="34.6310970280"><ele>170.98</ele><time>2026-08-22T16:22:24Z</time></trkpt><trkpt lat="59.3785741925" lon="34.6309821960"><ele>171.35</ele><time>2026-08-22T16:22:34Z</time></trkpt><trkpt lat="59.3785653915" lon="34.6308072656"><ele>170.85</ele><time>2026-08-22T16:22:52Z</time></trkpt><trkpt lat="59.3785641342" lon="34.6307959501"><ele>170.95</ele><time>2026-08-22T16:23:00Z</time></trkpt><trkpt lat="59.3785328697" lon="34.6308098640"><ele>170.50</ele><time>2026-08-22T16:23:18Z</time></trkpt><trkpt lat="59.3785606977" lon="34.6307738218"><ele>170.90</ele><time>2026-08-22T16:23:44Z</time></trkpt><trkpt lat="59.3785392400" lon="34.6306847222"><ele>170.42</ele><time>2026-08-22T16:24:23Z</time></trkpt><trkpt lat="59.3784757890" lon="34.6305227838"><ele>170.36</ele><time>2026-08-22T16:24:34Z</time></trkpt><trkpt lat="59.3783966638" lon="34.6302843187"><ele>169.90</ele><time>2026-08-22T16:24:51Z</time></trkpt><trkpt lat="59.3783330452" lon="34.6302304231"><ele>169.90</ele><time>2026-08-22T16:25:07Z</time></trkpt><trkpt lat="59.3783095758" lon="34.6300502121"><ele>170.56</ele><time>2026-08-22T16:25:25Z</time></trkpt><trkpt lat="59.3782750424" lon="34.6298271697"><ele>170.83</ele><time>2026-08-22T16:25:42Z</time></trkpt><trkpt lat="59.3781574443" lon="34.6297149360"><ele>169.98</ele><time>2026-08-22T16:26:04Z</time></trkpt><trkpt lat="59.3780587893" lon="34.6296815760"><ele>169.92</ele><time>2026-08-22T16:26:22Z</time></trkpt><trkpt lat="59.3779685162" lon="34.6297699213"><ele>169.59</ele><time>2026-08-22T16:26:33Z</time></trkpt><trkpt lat="59.3778658379" lon="34.6298622899"><ele>169.83</ele><time>2026-08-22T16:26:48Z</time></trkpt><trkpt lat="59.3778329808" lon="34.6299580950"><ele>168.09</ele><time>2026-08-22T16:26:57Z</time></trkpt><trkpt lat="59.3778195698" lon="34.6300235577"><ele>170.00</ele><time>2026-08-22T16:27:14Z</time></trkpt><trkpt lat="59.3778161332" lon="34.6300411597"><ele>166.35</ele><time>2026-08-22T16:27:50Z</time></trkpt><trkpt lat="59.3778151274" lon="34.6300403215"><ele>172.38</ele><time>2026-08-22T16:27:51Z</time></trkpt><trkpt lat="59.3778114393" lon="34.6300366335"><ele>170.08</ele><time>2026-08-22T16:27:54Z</time></trkpt><trkpt lat="59.3777892273" lon="34.6300338674"><ele>169.85</ele><time>2026-08-22T16:28:47Z</time></trkpt><trkpt lat="59.3777988665" lon="34.6300150920"><ele>170.41</ele><time>2026-08-22T16:29:42Z</time></trkpt><trkpt lat="59.3777840305" lon="34.6301294211"><ele>169.74</ele><time>2026-08-22T16:30:10Z</time></trkpt><trkpt lat="59.3777632434" lon="34.6303595882"><ele>170.25</ele><time>2026-08-22T16:30:25Z</time></trkpt><trkpt lat="59.3777675182" lon="34.6306996420"><ele>171.19</ele><time>2026-08-22T16:30:43Z</time></trkpt><trkpt lat="59.3777656741" lon="34.6307468321"><ele>171.29</ele><time>2026-08-22T16:30:46Z</time></trkpt><trkpt lat="59.3776947632" lon="34.6308183298"><ele>170.27</ele><time>2026-08-22T16:31:02Z</time></trkpt><trkpt lat="59.3775343336" lon="34.6308384463"><ele>170.48</ele><time>2026-08-22T16:31:18Z</time></trkpt><trkpt lat="59.3774322420" lon="34.6307615843"><ele>170.59</ele><time>2026-08-22T16:31:37Z</time></trkpt><trkpt lat="59.3774311524" lon="34.6307756659"><ele>169.61</ele><time>2026-08-22T16:32:15Z</time></trkpt><trkpt lat="59.3774340861" lon="34.6309544519"><ele>170.45</ele><time>2026-08-22T16:32:25Z</time></trkpt><trkpt lat="59.3774089403" lon="34.6311431285"><ele>170.62</ele><time>2026-08-22T16:32:37Z</time></trkpt><trkpt lat="59.3773986306" lon="34.6311775781"><ele>170.75</ele><time>2026-08-22T16:32:39Z</time></trkpt><trkpt lat="59.3773517758" lon="34.6314493194"><ele>170.68</ele><time>2026-08-22T16:32:56Z</time></trkpt><trkpt lat="59.3773423880" lon="34.6315787360"><ele>170.61</ele><time>2026-08-22T16:33:13Z</time></trkpt><trkpt lat="59.3773064297" lon="34.6316727810"><ele>170.94</ele><time>2026-08-22T16:33:38Z</time></trkpt><trkpt lat="59.3772951979" lon="34.6318898723"><ele>171.28</ele><time>2026-08-22T16:33:51Z</time></trkpt><trkpt lat="59.3772466667" lon="34.6321866754"><ele>171.13</ele><time>2026-08-22T16:34:10Z</time></trkpt><trkpt lat="59.3772244547" lon="34.6323211212"><ele>171.06</ele><time>2026-08-22T16:34:27Z</time></trkpt><trkpt lat="59.3771984708" lon="34.6324445866"><ele>167.98</ele><time>2026-08-22T16:34:34Z</time></trkpt><trkpt lat="59.3771951180" lon="34.6324505378"><ele>174.32</ele><time>2026-08-22T16:34:35Z</time></trkpt><trkpt lat="59.3771916814" lon="34.6324741747"><ele>173.31</ele><time>2026-08-22T16:34:36Z</time></trkpt><trkpt lat="59.3771678768" lon="34.6325460915"><ele>172.49</ele><time>2026-08-22T16:34:42Z</time></trkpt><trkpt lat="59.3772001471" lon="34.6328157373"><ele>172.74</ele><time>2026-08-22T16:35:00Z</time></trkpt><trkpt lat="59.3772112951" lon="34.6330846287"><ele>172.23</ele><time>2026-08-22T16:35:14Z</time></trkpt><trkpt lat="59.3772358540" lon="34.6331093553"><ele>171.37</ele><time>2026-08-22T16:35:41Z</time></trkpt><trkpt lat="59.3772399612" lon="34.6331056673"><ele>170.82</ele><time>2026-08-22T16:36:39Z</time></trkpt><trkpt lat="59.3772338424" lon="34.6330990456"><ele>170.75</ele><time>2026-08-22T16:38:05Z</time></trkpt><trkpt lat="59.3772361893" lon="34.6330964472"><ele>170.31</ele><time>2026-08-22T16:39:54Z</time></trkpt><trkpt lat="59.3772315793" lon="34.6330726426"><ele>170.56</ele><time>2026-08-22T16:41:28Z</time></trkpt><trkpt lat="59.3772167433" lon="34.6330780908"><ele>170.66</ele><time>2026-08-22T16:42:43Z</time></trkpt><trkpt lat="59.3772254605" lon="34.6330699604"><ele>170.79</ele><time>2026-08-22T16:44:28Z</time></trkpt><trkpt lat="59.3772318307" lon="34.6330687869"><ele>170.67</ele><time>2026-08-22T16:45:38Z</time></trkpt><trkpt lat="59.3772424757" lon="34.6330625843"><ele>170.38</ele><time>2026-08-22T16:46:46Z</time></trkpt><trkpt lat="59.3772112951" lon="34.6330729779"><ele>171.70</ele><time>2026-08-22T16:47:52Z</time></trkpt><trkpt lat="59.3771999795" lon="34.6330645960"><ele>172.30</ele><time>2026-08-22T16:48:08Z</time></trkpt><trkpt lat="59.3771965429" lon="34.6330693737"><ele>169.76</ele><time>2026-08-22T16:48:25Z</time></trkpt><trkpt lat="59.3772359379" lon="34.6332584694"><ele>170.56</ele><time>2026-08-22T16:49:04Z</time></trkpt><trkpt lat="59.3772139773" lon="34.6334820986"><ele>169.79</ele><time>2026-08-22T16:49:19Z</time></trkpt><trkpt lat="59.3771038391" lon="34.6335583739"><ele>170.13</ele><time>2026-08-22T16:49:35Z</time></trkpt><trkpt lat="59.3770578224" lon="34.6335709468"><ele>170.11</ele><time>2026-08-22T16:49:40Z</time></trkpt><trkpt lat="59.3769121449" lon="34.6336579509"><ele>170.12</ele><time>2026-08-22T16:49:59Z</time></trkpt><trkpt lat="59.3768470176" lon="34.6336691827"><ele>166.07</ele><time>2026-08-22T16:50:10Z</time></trkpt><trkpt lat="59.3768465985" lon="34.6336779837"><ele>170.33</ele><time>2026-08-22T16:50:11Z</time></trkpt><trkpt lat="59.3768482748" lon="34.6337065659"><ele>171.49</ele><time>2026-08-22T16:50:13Z</time></trkpt><trkpt lat="59.3768719956" lon="34.6338466275"><ele>170.59</ele><time>2026-08-22T16:50:31Z</time></trkpt><trkpt lat="59.3768739235" lon="34.6339635551"><ele>170.40</ele><time>2026-08-22T16:50:43Z</time></trkpt><trkpt lat="59.3768444192" lon="34.6341051254"><ele>170.77</ele><time>2026-08-22T16:50:58Z</time></trkpt><trkpt lat="59.3768769410" lon="34.6343685687"><ele>173.47</ele><time>2026-08-22T16:51:16Z</time></trkpt><trkpt lat="59.3768782821" lon="34.6343765315"><ele>172.44</ele><time>2026-08-22T16:51:17Z</time></trkpt><trkpt lat="59.3768749293" lon="34.6344701573"><ele>171.24</ele><time>2026-08-22T16:51:23Z</time></trkpt><trkpt lat="59.3768569920" lon="34.6345220413"><ele>171.63</ele><time>2026-08-22T16:51:27Z</time></trkpt><trkpt lat="59.3768509571" lon="34.6347357798"><ele>171.99</ele><time>2026-08-22T16:51:42Z</time></trkpt><trkpt lat="59.3769074511" lon="34.6349371970"><ele>171.84</ele><time>2026-08-22T16:51:56Z</time></trkpt><trkpt lat="59.3769425713" lon="34.6351408772"><ele>172.85</ele><time>2026-08-22T16:52:13Z</time></trkpt><trkpt lat="59.3769354466" lon="34.6352803521"><ele>171.42</ele><time>2026-08-22T16:52:21Z</time></trkpt><trkpt lat="59.3769391347" lon="34.6353322361"><ele>172.67</ele><time>2026-08-22T16:52:45Z</time></trkpt><trkpt lat="59.3769470975" lon="34.6353907418"><ele>172.84</ele><time>2026-08-22T16:53:06Z</time></trkpt><trkpt lat="59.3770024180" lon="34.6355965175"><ele>171.11</ele><time>2026-08-22T16:53:22Z</time></trkpt><trkpt lat="59.3769746739" lon="34.6358364914"><ele>171.12</ele><time>2026-08-22T16:53:39Z</time></trkpt><trkpt lat="59.3769633584" lon="34.6360221505"><ele>171.84</ele><time>2026-08-22T16:53:52Z</time></trkpt><trkpt lat="59.3769541383" lon="34.6360647306"><ele>169.99</ele><time>2026-08-22T16:53:57Z</time></trkpt><trkpt lat="59.3769424874" lon="34.6360913850"><ele>171.25</ele><time>2026-08-22T16:54:14Z</time></trkpt><trkpt lat="59.3769360334" lon="34.6361023653"><ele>171.29</ele><time>2026-08-22T16:54:15Z</time></trkpt><trkpt lat="59.3768643681" lon="34.6361290198"><ele>172.36</ele><time>2026-08-22T16:54:30Z</time></trkpt><trkpt lat="59.3768097181" lon="34.6362351347"><ele>172.38</ele><time>2026-08-22T16:54:40Z</time></trkpt><trkpt lat="59.3768002465" lon="34.6362803970"><ele>171.95</ele><time>2026-08-22T16:54:43Z</time></trkpt><trkpt lat="59.3767482787" lon="34.6365929581"><ele>171.49</ele><time>2026-08-22T16:55:01Z</time></trkpt><trkpt lat="59.3767498713" lon="34.6366832312"><ele>171.60</ele><time>2026-08-22T16:55:21Z</time></trkpt><trkpt lat="59.3767416570" lon="34.6366622765"><ele>171.25</ele><time>2026-08-22T16:56:04Z</time></trkpt><trkpt lat="59.3767365441" lon="34.6366445906"><ele>171.30</ele><time>2026-08-22T16:56:43Z</time></trkpt><trkpt lat="59.3767273240" lon="34.6365731768"><ele>171.04</ele><time>2026-08-22T16:56:53Z</time></trkpt><trkpt lat="59.3767068721" lon="34.6364460234"><ele>171.15</ele><time>2026-08-22T16:57:00Z</time></trkpt><trkpt lat="59.3766995799" lon="34.6362051275"><ele>171.32</ele><time>2026-08-22T16:57:14Z</time></trkpt><trkpt lat="59.3767216243" lon="34.6360463742"><ele>171.17</ele><time>2026-08-22T16:57:25Z</time></trkpt><trkpt lat="59.3767344486" lon="34.6358117647"><ele>170.95</ele><time>2026-08-22T16:57:37Z</time></trkpt><trkpt lat="59.3767754361" lon="34.6354870498"><ele>170.97</ele><time>2026-08-22T16:57:56Z</time></trkpt><trkpt lat="59.3767552357" lon="34.6351202577"><ele>171.24</ele><time>2026-08-22T16:58:19Z</time></trkpt><trkpt lat="59.3766906951" lon="34.6348842233"><ele>170.94</ele><time>2026-08-22T16:58:37Z</time></trkpt><trkpt lat="59.3766891863" lon="34.6348545514"><ele>170.91</ele><time>2026-08-22T16:58:39Z</time></trkpt><trkpt lat="59.3766471930" lon="34.6347482689"><ele>170.69</ele><time>2026-08-22T16:58:54Z</time></trkpt><trkpt lat="59.3766484503" lon="34.6347554773"><ele>170.74</ele><time>2026-08-22T16:59:26Z</time></trkpt><trkpt lat="59.3766492885" lon="34.6347549744"><ele>165.80</ele><time>2026-08-22T16:59:31Z</time></trkpt><trkpt lat="59.3766495399" lon="34.6347530466"><ele>173.10</ele><time>2026-08-22T16:59:32Z</time></trkpt><trkpt lat="59.3766323570" lon="34.6346077882"><ele>170.90</ele><time>2026-08-22T16:59:51Z</time></trkpt><trkpt lat="59.3765952252" lon="34.6344916988"><ele>170.71</ele><time>2026-08-22T16:59:59Z</time></trkpt><trkpt lat="59.3765410781" lon="34.6341858432"><ele>170.82</ele><time>2026-08-22T17:00:17Z</time></trkpt><trkpt lat="59.3764956482" lon="34.6338876989"><ele>170.51</ele><time>2026-08-22T17:00:35Z</time></trkpt><trkpt lat="59.3764320295" lon="34.6337187197"><ele>170.51</ele><time>2026-08-22T17:00:50Z</time></trkpt><trkpt lat="59.3763630465" lon="34.6335888840"><ele>170.31</ele><time>2026-08-22T17:01:03Z</time></trkpt><trkpt lat="59.3762928899" lon="34.6334649995"><ele>170.51</ele><time>2026-08-22T17:01:20Z</time></trkpt><trkpt lat="59.3762706779" lon="34.6333068330"><ele>170.13</ele><time>2026-08-22T17:01:34Z</time></trkpt><trkpt lat="59.3762129266" lon="34.6330656856"><ele>170.13</ele><time>2026-08-22T17:01:51Z</time></trkpt><trkpt lat="59.3761796504" lon="34.6330747381"><ele>170.41</ele><time>2026-08-22T17:02:12Z</time></trkpt><trkpt lat="59.3761787284" lon="34.6330518555"><ele>164.93</ele><time>2026-08-22T17:02:26Z</time></trkpt><trkpt lat="59.3761791475" lon="34.6330499277"><ele>173.40</ele><time>2026-08-22T17:02:27Z</time></trkpt><trkpt lat="59.3761796504" lon="34.6330488380"><ele>173.40</ele><time>2026-08-22T17:02:28Z</time></trkpt><trkpt lat="59.3761757948" lon="34.6330496762"><ele>170.34</ele><time>2026-08-22T17:02:38Z</time></trkpt><trkpt lat="59.3762032874" lon="34.6329478361"><ele>170.07</ele><time>2026-08-22T17:02:54Z</time></trkpt><trkpt lat="59.3762002699" lon="34.6328752488"><ele>170.24</ele><time>2026-08-22T17:02:58Z</time></trkpt><trkpt lat="59.3761839252" lon="34.6327479277"><ele>170.27</ele><time>2026-08-22T17:03:06Z</time></trkpt><trkpt lat="59.3761490565" lon="34.6325582452"><ele>170.01</ele><time>2026-08-22T17:03:19Z</time></trkpt><trkpt lat="59.3761731964" lon="34.6323012561"><ele>170.24</ele><time>2026-08-22T17:03:35Z</time></trkpt><trkpt lat="59.3762865197" lon="34.6321725938"><ele>170.36</ele><time>2026-08-22T17:03:51Z</time></trkpt><trkpt lat="59.3764156848" lon="34.6320111584"><ele>170.10</ele><time>2026-08-22T17:04:09Z</time></trkpt><trkpt lat="59.3764230609" lon="34.6320002619"><ele>170.19</ele><time>2026-08-22T17:04:10Z</time></trkpt><trkpt lat="59.3765268289" lon="34.6319102403"><ele>170.27</ele><time>2026-08-22T17:04:32Z</time></trkpt><trkpt lat="59.3765506335" lon="34.6319458634"><ele>170.16</ele><time>2026-08-22T17:04:38Z</time></trkpt><trkpt lat="59.3766536471" lon="34.6319902875"><ele>170.79</ele><time>2026-08-22T17:04:55Z</time></trkpt><trkpt lat="59.3766568322" lon="34.6320091467"><ele>170.77</ele><time>2026-08-22T17:05:22Z</time></trkpt><trkpt lat="59.3766429182" lon="34.6319907904"><ele>171.31</ele><time>2026-08-22T17:05:24Z</time></trkpt><trkpt lat="59.3765358813" lon="34.6319630463"><ele>170.20</ele><time>2026-08-22T17:05:41Z</time></trkpt><trkpt lat="59.3764687423" lon="34.6317050513"><ele>170.23</ele><time>2026-08-22T17:05:58Z</time></trkpt><trkpt lat="59.3764639646" lon="34.6316660754"><ele>170.31</ele><time>2026-08-22T17:06:00Z</time></trkpt><trkpt lat="59.3764391541" lon="34.6313631535"><ele>170.09</ele><time>2026-08-22T17:06:16Z</time></trkpt><trkpt lat="59.3764413334" lon="34.6312594693"><ele>170.21</ele><time>2026-08-22T17:06:34Z</time></trkpt><trkpt lat="59.3764864281" lon="34.6311742254"><ele>170.00</ele><time>2026-08-22T17:07:09Z</time></trkpt><trkpt lat="59.3764861766" lon="34.6311509237"><ele>170.03</ele><time>2026-08-22T17:07:10Z</time></trkpt><trkpt lat="59.3764774594" lon="34.6309740655"><ele>170.18</ele><time>2026-08-22T17:07:20Z</time></trkpt><trkpt lat="59.3763721827" lon="34.6310077608"><ele>170.21</ele><time>2026-08-22T17:07:31Z</time></trkpt><trkpt lat="59.3762872741" lon="34.6308140550"><ele>170.22</ele><time>2026-08-22T17:07:45Z</time></trkpt><trkpt lat="59.3762553390" lon="34.6308175754"><ele>170.00</ele><time>2026-08-22T17:07:48Z</time></trkpt><trkpt lat="59.3761466257" lon="34.6307384502"><ele>169.95</ele><time>2026-08-22T17:07:59Z</time></trkpt><trkpt lat="59.3761290237" lon="34.6306644380"><ele>169.99</ele><time>2026-08-22T17:08:03Z</time></trkpt><trkpt lat="59.3760717753" lon="34.6305102948"><ele>170.27</ele><time>2026-08-22T17:08:13Z</time></trkpt><trkpt lat="59.3760507368" lon="34.6304068621"><ele>170.09</ele><time>2026-08-22T17:08:19Z</time></trkpt><trkpt lat="59.3760297820" lon="34.6301558241"><ele>169.99</ele><time>2026-08-22T17:08:34Z</time></trkpt><trkpt lat="59.3760000262" lon="34.6300423332"><ele>170.11</ele><time>2026-08-22T17:08:48Z</time></trkpt><trkpt lat="59.3759723660" lon="34.6298943926"><ele>168.83</ele><time>2026-08-22T17:08:56Z</time></trkpt><trkpt lat="59.3759592902" lon="34.6298434306"><ele>170.22</ele><time>2026-08-22T17:08:59Z</time></trkpt><trkpt lat="59.3759497348" lon="34.6297049616"><ele>170.22</ele><time>2026-08-22T17:09:07Z</time></trkpt><trkpt lat="59.3759949971" lon="34.6295902971"><ele>170.06</ele><time>2026-08-22T17:09:15Z</time></trkpt><trkpt lat="59.3760407623" lon="34.6294618864"><ele>170.17</ele><time>2026-08-22T17:09:24Z</time></trkpt><trkpt lat="59.3761331309" lon="34.6292377543"><ele>170.32</ele><time>2026-08-22T17:09:40Z</time></trkpt><trkpt lat="59.3761629704" lon="34.6291931625"><ele>170.19</ele><time>2026-08-22T17:09:44Z</time></trkpt><trkpt lat="59.3762714323" lon="34.6290266979"><ele>170.26</ele><time>2026-08-22T17:10:00Z</time></trkpt><trkpt lat="59.3762866873" lon="34.6290162206"><ele>169.99</ele><time>2026-08-22T17:10:02Z</time></trkpt><trkpt lat="59.3763367273" lon="34.6287489217"><ele>169.87</ele><time>2026-08-22T17:10:19Z</time></trkpt><trkpt lat="59.3763121683" lon="34.6286722273"><ele>170.29</ele><time>2026-08-22T17:10:50Z</time></trkpt><trkpt lat="59.3763446901" lon="34.6286844648"><ele>169.98</ele><time>2026-08-22T17:11:29Z</time></trkpt><trkpt lat="59.3764166906" lon="34.6286467463"><ele>170.16</ele><time>2026-08-22T17:11:38Z</time></trkpt><trkpt lat="59.3766136654" lon="34.6285470854"><ele>170.20</ele><time>2026-08-22T17:11:57Z</time></trkpt><trkpt lat="59.3767082971" lon="34.6285013203"><ele>170.10</ele><time>2026-08-22T17:12:11Z</time></trkpt><trkpt lat="59.3767827284" lon="34.6284900885"><ele>169.96</ele><time>2026-08-22T17:12:26Z</time></trkpt><trkpt lat="59.3767508771" lon="34.6284748334"><ele>169.41</ele><time>2026-08-22T17:13:10Z</time></trkpt><trkpt lat="59.3767360412" lon="34.6284947824"><ele>170.57</ele><time>2026-08-22T17:13:12Z</time></trkpt><trkpt lat="59.3766446784" lon="34.6286089439"><ele>169.69</ele><time>2026-08-22T17:13:21Z</time></trkpt><trkpt lat="59.3765602726" lon="34.6286546253"><ele>170.14</ele><time>2026-08-22T17:13:31Z</time></trkpt><trkpt lat="59.3764026929" lon="34.6287256200"><ele>169.89</ele><time>2026-08-22T17:13:50Z</time></trkpt><trkpt lat="59.3762190454" lon="34.6288166475"><ele>170.05</ele><time>2026-08-22T17:14:09Z</time></trkpt><trkpt lat="59.3761450332" lon="34.6288367640"><ele>170.21</ele><time>2026-08-22T17:14:25Z</time></trkpt><trkpt lat="59.3761289399" lon="34.6288195811"><ele>169.95</ele><time>2026-08-22T17:14:32Z</time></trkpt><trkpt lat="59.3761080690" lon="34.6287929267"><ele>169.79</ele><time>2026-08-22T17:14:35Z</time></trkpt><trkpt lat="59.3760958314" lon="34.6287793480"><ele>169.81</ele><time>2026-08-22T17:14:37Z</time></trkpt><trkpt lat="59.3759946618" lon="34.6287349239"><ele>170.73</ele><time>2026-08-22T17:14:52Z</time></trkpt><trkpt lat="59.3759798259" lon="34.6287794318"><ele>170.62</ele><time>2026-08-22T17:14:56Z</time></trkpt><trkpt lat="59.3758736271" lon="34.6289109439"><ele>171.48</ele><time>2026-08-22T17:15:08Z</time></trkpt><trkpt lat="59.3758322205" lon="34.6288753208"><ele>169.51</ele><time>2026-08-22T17:15:15Z</time></trkpt><trkpt lat="59.3757875450" lon="34.6287423000"><ele>170.23</ele><time>2026-08-22T17:15:23Z</time></trkpt><trkpt lat="59.3757527601" lon="34.6283874940"><ele>169.96</ele><time>2026-08-22T17:15:43Z</time></trkpt><trkpt lat="59.3757058214" lon="34.6282748412"><ele>169.58</ele><time>2026-08-22T17:15:54Z</time></trkpt><trkpt lat="59.3756814301" lon="34.6280964743"><ele>169.97</ele><time>2026-08-22T17:16:05Z</time></trkpt><trkpt lat="59.3756792508" lon="34.6280344483"><ele>169.67</ele><time>2026-08-22T17:16:08Z</time></trkpt><trkpt lat="59.3757455517" lon="34.6277836617"><ele>170.08</ele><time>2026-08-22T17:16:25Z</time></trkpt><trkpt lat="59.3758303765" lon="34.6275736950"><ele>169.97</ele><time>2026-08-22T17:16:42Z</time></trkpt><trkpt lat="59.3759340607" lon="34.6273876168"><ele>169.07</ele><time>2026-08-22T17:17:00Z</time></trkpt><trkpt lat="59.3759828433" lon="34.6273588669"><ele>170.73</ele><time>2026-08-22T17:17:06Z</time></trkpt><trkpt lat="59.3760372419" lon="34.6273496468"><ele>170.53</ele><time>2026-08-22T17:17:12Z</time></trkpt><trkpt lat="59.3761916365" lon="34.6273953281"><ele>171.66</ele><time>2026-08-22T17:17:27Z</time></trkpt><trkpt lat="59.3762879446" lon="34.6273949929"><ele>170.51</ele><time>2026-08-22T17:17:38Z</time></trkpt><trkpt lat="59.3763150182" lon="34.6273865271"><ele>170.49</ele><time>2026-08-22T17:17:41Z</time></trkpt><trkpt lat="59.3763732724" lon="34.6273259260"><ele>170.48</ele><time>2026-08-22T17:17:48Z</time></trkpt><trkpt lat="59.3764072191" lon="34.6272423584"><ele>170.22</ele><time>2026-08-22T17:17:54Z</time></trkpt><trkpt lat="59.3764790520" lon="34.6271401830"><ele>170.86</ele><time>2026-08-22T17:18:05Z</time></trkpt><trkpt lat="59.3764989171" lon="34.6269965172"><ele>171.35</ele><time>2026-08-22T17:18:22Z</time></trkpt><trkpt lat="59.3765010964" lon="34.6270060726"><ele>170.89</ele><time>2026-08-22T17:19:21Z</time></trkpt><trkpt lat="59.3765019346" lon="34.6269285399"><ele>171.60</ele><time>2026-08-22T17:19:42Z</time></trkpt><trkpt lat="59.3765057903" lon="34.6268869657"><ele>171.46</ele><time>2026-08-22T17:19:44Z</time></trkpt><trkpt lat="59.3765125796" lon="34.6266581398"><ele>171.87</ele><time>2026-08-22T17:19:55Z</time></trkpt><trkpt lat="59.3765233923" lon="34.6265619993"><ele>171.92</ele><time>2026-08-22T17:20:01Z</time></trkpt><trkpt lat="59.3765030243" lon="34.6265325788"><ele>171.89</ele><time>2026-08-22T17:20:04Z</time></trkpt><trkpt lat="59.3764671497" lon="34.6264190879"><ele>172.34</ele><time>2026-08-22T17:20:20Z</time></trkpt><trkpt lat="59.3764586840" lon="34.6263947804"><ele>172.30</ele><time>2026-08-22T17:20:34Z</time></trkpt><trkpt lat="59.3764859252" lon="34.6261807904"><ele>171.94</ele><time>2026-08-22T17:20:48Z</time></trkpt><trkpt lat="59.3764608633" lon="34.6260627732"><ele>172.10</ele><time>2026-08-22T17:20:54Z</time></trkpt><trkpt lat="59.3764348794" lon="34.6259915270"><ele>171.88</ele><time>2026-08-22T17:20:58Z</time></trkpt><trkpt lat="59.3763804808" lon="34.6257906966"><ele>172.40</ele><time>2026-08-22T17:21:12Z</time></trkpt><trkpt lat="59.3763354700" lon="34.6256363858"><ele>172.39</ele><time>2026-08-22T17:21:21Z</time></trkpt><trkpt lat="59.3762559257" lon="34.6253425162"><ele>172.87</ele><time>2026-08-22T17:21:38Z</time></trkpt><trkpt lat="59.3762563448" lon="34.6251149476"><ele>172.91</ele><time>2026-08-22T17:21:52Z</time></trkpt><trkpt lat="59.3762466218" lon="34.6248420328"><ele>173.28</ele><time>2026-08-22T17:22:09Z</time></trkpt><trkpt lat="59.3763018586" lon="34.6248708665"><ele>173.31</ele><time>2026-08-22T17:22:34Z</time></trkpt><trkpt lat="59.3762957398" lon="34.6248871274"><ele>173.31</ele><time>2026-08-22T17:22:51Z</time></trkpt><trkpt lat="59.3762353901" lon="34.6247217525"><ele>173.67</ele><time>2026-08-22T17:23:02Z</time></trkpt><trkpt lat="59.3763180356" lon="34.6245745663"><ele>169.23</ele><time>2026-08-22T17:23:14Z</time></trkpt><trkpt lat="59.3763245735" lon="34.6245619934"><ele>176.14</ele><time>2026-08-22T17:23:15Z</time></trkpt><trkpt lat="59.3763299379" lon="34.6245447267"><ele>174.89</ele><time>2026-08-22T17:23:16Z</time></trkpt><trkpt lat="59.3763949815" lon="34.6244536992"><ele>173.69</ele><time>2026-08-22T17:23:33Z</time></trkpt><trkpt lat="59.3764125835" lon="34.6244825330"><ele>173.71</ele><time>2026-08-22T17:23:43Z</time></trkpt><trkpt lat="59.3764563370" lon="34.6244664397"><ele>173.42</ele><time>2026-08-22T17:23:50Z</time></trkpt><trkpt lat="59.3765049521" lon="34.6242937725"><ele>173.20</ele><time>2026-08-22T17:24:04Z</time></trkpt><trkpt lat="59.3766034395" lon="34.6241561417"><ele>173.33</ele><time>2026-08-22T17:24:18Z</time></trkpt><trkpt lat="59.3766667228" lon="34.6239863243"><ele>173.29</ele><time>2026-08-22T17:24:33Z</time></trkpt><trkpt lat="59.3766728416" lon="34.6240361966"><ele>173.43</ele><time>2026-08-22T17:25:05Z</time></trkpt><trkpt lat="59.3767608516" lon="34.6240471769"><ele>172.74</ele><time>2026-08-22T17:25:37Z</time></trkpt><trkpt lat="59.3769100495" lon="34.6238866635"><ele>172.57</ele><time>2026-08-22T17:25:57Z</time></trkpt><trkpt lat="59.3769383803" lon="34.6238567401"><ele>172.60</ele><time>2026-08-22T17:26:26Z</time></trkpt><trkpt lat="59.3769361172" lon="34.6238578297"><ele>172.64</ele><time>2026-08-22T17:26:55Z</time></trkpt><trkpt lat="59.3769253884" lon="34.6238709893"><ele>171.26</ele><time>2026-08-22T17:27:32Z</time></trkpt><trkpt lat="59.3769212812" lon="34.6238465980"><ele>171.04</ele><time>2026-08-22T17:28:51Z</time></trkpt><trkpt lat="59.3769177608" lon="34.6238625236"><ele>172.29</ele><time>2026-08-22T17:29:46Z</time></trkpt><trkpt lat="59.3769489415" lon="34.6237468533"><ele>171.73</ele><time>2026-08-22T17:30:34Z</time></trkpt><trkpt lat="59.3770335987" lon="34.6235167701"><ele>171.47</ele><time>2026-08-22T17:30:47Z</time></trkpt><trkpt lat="59.3770545535" lon="34.6234476194"><ele>171.87</ele><time>2026-08-22T17:30:52Z</time></trkpt><trkpt lat="59.3770660367" lon="34.6233615372"><ele>172.02</ele><time>2026-08-22T17:30:57Z</time></trkpt><trkpt lat="59.3770633545" lon="34.6233253274"><ele>171.60</ele><time>2026-08-22T17:30:59Z</time></trkpt><trkpt lat="59.3770649470" lon="34.6231167857"><ele>171.28</ele><time>2026-08-22T17:31:10Z</time></trkpt><trkpt lat="59.3771036714" lon="34.6230095811"><ele>171.36</ele><time>2026-08-22T17:31:17Z</time></trkpt><trkpt lat="59.3771207705" lon="34.6228937432"><ele>171.16</ele><time>2026-08-22T17:31:24Z</time></trkpt><trkpt lat="59.3771229498" lon="34.6228372492"><ele>171.20</ele><time>2026-08-22T17:31:27Z</time></trkpt><trkpt lat="59.3770521227" lon="34.6226813458"><ele>171.50</ele><time>2026-08-22T17:31:44Z</time></trkpt><trkpt lat="59.3770511169" lon="34.6226781607"><ele>169.31</ele><time>2026-08-22T17:32:17Z</time></trkpt><trkpt lat="59.3770597503" lon="34.6226844471"><ele>171.31</ele><time>2026-08-22T17:32:28Z</time></trkpt><trkpt lat="59.3770597503" lon="34.6226449683"><ele>171.32</ele><time>2026-08-22T17:32:34Z</time></trkpt><trkpt lat="59.3770392984" lon="34.6225773264"><ele>171.36</ele><time>2026-08-22T17:32:38Z</time></trkpt><trkpt lat="59.3769713212" lon="34.6224228479"><ele>170.89</ele><time>2026-08-22T17:32:50Z</time></trkpt><trkpt lat="59.3769460917" lon="34.6224013902"><ele>171.04</ele><time>2026-08-22T17:32:53Z</time></trkpt><trkpt lat="59.3768461794" lon="34.6221727319"><ele>171.24</ele><time>2026-08-22T17:33:08Z</time></trkpt><trkpt lat="59.3767323531" lon="34.6219073609"><ele>171.10</ele><time>2026-08-22T17:33:27Z</time></trkpt><trkpt lat="59.3766803853" lon="34.6215380542"><ele>171.03</ele><time>2026-08-22T17:33:47Z</time></trkpt><trkpt lat="59.3766575865" lon="34.6214595996"><ele>171.14</ele><time>2026-08-22T17:33:53Z</time></trkpt><trkpt lat="59.3765148427" lon="34.6212215535"><ele>171.09</ele><time>2026-08-22T17:34:12Z</time></trkpt><trkpt lat="59.3764471170" lon="34.6208801586"><ele>171.12</ele><time>2026-08-22T17:34:31Z</time></trkpt><trkpt lat="59.3764461949" lon="34.6208440326"><ele>171.19</ele><time>2026-08-22T17:34:33Z</time></trkpt><trkpt lat="59.3764630426" lon="34.6206492372"><ele>171.12</ele><time>2026-08-22T17:34:48Z</time></trkpt><trkpt lat="59.3764275871" lon="34.6207220759"><ele>171.05</ele><time>2026-08-22T17:35:10Z</time></trkpt><trkpt lat="59.3763809837" lon="34.6208297834"><ele>170.64</ele><time>2026-08-22T17:35:17Z</time></trkpt><trkpt lat="59.3762725219" lon="34.6210660692"><ele>170.92</ele><time>2026-08-22T17:35:37Z</time></trkpt><trkpt lat="59.3761872780" lon="34.6210955735"><ele>170.51</ele><time>2026-08-22T17:35:48Z</time></trkpt><trkpt lat="59.3761399202" lon="34.6210641414"><ele>171.01</ele><time>2026-08-22T17:36:08Z</time></trkpt><trkpt lat="59.3761401717" lon="34.6210597828"><ele>172.55</ele><time>2026-08-22T17:36:36Z</time></trkpt><trkpt lat="59.3761400878" lon="34.6210581902"><ele>171.31</ele><time>2026-08-22T17:36:42Z</time></trkpt><trkpt lat="59.3761350587" lon="34.6210567653"><ele>170.70</ele><time>2026-08-22T17:37:39Z</time></trkpt><trkpt lat="59.3759557698" lon="34.6212317795"><ele>170.91</ele><time>2026-08-22T17:37:58Z</time></trkpt><trkpt lat="59.3758082483" lon="34.6213937178"><ele>166.78</ele><time>2026-08-22T17:38:15Z</time></trkpt><trkpt lat="59.3757996988" lon="34.6214018483"><ele>166.78</ele><time>2026-08-22T17:38:16Z</time></trkpt><trkpt lat="59.3757529277" lon="34.6214681491"><ele>171.54</ele><time>2026-08-22T17:38:22Z</time></trkpt><trkpt lat="59.3757444620" lon="34.6214784589"><ele>171.56</ele><time>2026-08-22T17:38:23Z</time></trkpt><trkpt lat="59.3755803443" lon="34.6216318477"><ele>171.60</ele><time>2026-08-22T17:38:42Z</time></trkpt><trkpt lat="59.3755698670" lon="34.6216323506"><ele>171.77</ele><time>2026-08-22T17:38:43Z</time></trkpt><trkpt lat="59.3754707929" lon="34.6215312649"><ele>172.12</ele><time>2026-08-22T17:38:54Z</time></trkpt><trkpt lat="59.3753197510" lon="34.6214040276"><ele>172.23</ele><time>2026-08-22T17:39:12Z</time></trkpt><trkpt lat="59.3753146380" lon="34.6213898621"><ele>172.84</ele><time>2026-08-22T17:39:41Z</time></trkpt><trkpt lat="59.3753633369" lon="34.6214839909"><ele>173.58</ele><time>2026-08-22T17:40:13Z</time></trkpt><trkpt lat="59.3753741495" lon="34.6215955541"><ele>173.92</ele><time>2026-08-22T17:40:37Z</time></trkpt><trkpt lat="59.3753737304" lon="34.6215938777"><ele>174.12</ele><time>2026-08-22T17:41:45Z</time></trkpt><trkpt lat="59.3753871415" lon="34.6215642896"><ele>174.53</ele><time>2026-08-22T17:42:18Z</time></trkpt><trkpt lat="59.3753913324" lon="34.6216670517"><ele>174.84</ele><time>2026-08-22T17:43:06Z</time></trkpt><trkpt lat="59.3753748201" lon="34.6217730828"><ele>174.40</ele><time>2026-08-22T17:43:12Z</time></trkpt><trkpt lat="59.3753619958" lon="34.6219259687"><ele>173.10</ele><time>2026-08-22T17:43:19Z</time></trkpt><trkpt lat="59.3753467407" lon="34.6220323350"><ele>174.37</ele><time>2026-08-22T17:43:23Z</time></trkpt><trkpt lat="59.3753155600" lon="34.6223437227"><ele>174.21</ele><time>2026-08-22T17:43:40Z</time></trkpt><trkpt lat="59.3752929289" lon="34.6226612292"><ele>173.25</ele><time>2026-08-22T17:43:58Z</time></trkpt><trkpt lat="59.3753266241" lon="34.6227931604"><ele>173.54</ele><time>2026-08-22T17:44:20Z</time></trkpt><trkpt lat="59.3753484171" lon="34.6228400990"><ele>173.58</ele><time>2026-08-22T17:44:23Z</time></trkpt><trkpt lat="59.3753603194" lon="34.6228720341"><ele>173.48</ele><time>2026-08-22T17:44:25Z</time></trkpt><trkpt lat="59.3753290549" lon="34.6231894568"><ele>173.56</ele><time>2026-08-22T17:44:41Z</time></trkpt><trkpt lat="59.3751894962" lon="34.6233464498"><ele>173.20</ele><time>2026-08-22T17:44:56Z</time></trkpt><trkpt lat="59.3751484249" lon="34.6234304365"><ele>173.34</ele><time>2026-08-22T17:45:02Z</time></trkpt><trkpt lat="59.3750195950" lon="34.6235191170"><ele>173.35</ele><time>2026-08-22T17:45:18Z</time></trkpt><trkpt lat="59.3749735784" lon="34.6236754395"><ele>175.25</ele><time>2026-08-22T17:45:28Z</time></trkpt><trkpt lat="59.3749759253" lon="34.6236917842"><ele>173.29</ele><time>2026-08-22T17:45:39Z</time></trkpt><trkpt lat="59.3749923538" lon="34.6236930415"><ele>172.80</ele><time>2026-08-22T17:46:12Z</time></trkpt><trkpt lat="59.3749712314" lon="34.6236964781"><ele>173.05</ele><time>2026-08-22T17:46:27Z</time></trkpt><trkpt lat="59.3749731593" lon="34.6236875933"><ele>172.34</ele><time>2026-08-22T17:47:01Z</time></trkpt><trkpt lat="59.3749579880" lon="34.6236742660"><ele>173.31</ele><time>2026-08-22T17:48:52Z</time></trkpt><trkpt lat="59.3749523722" lon="34.6236994956"><ele>174.99</ele><time>2026-08-22T17:50:00Z</time></trkpt><trkpt lat="59.3749696389" lon="34.6236831509"><ele>174.70</ele><time>2026-08-22T17:50:27Z</time></trkpt><trkpt lat="59.3749712314" lon="34.6236824803"><ele>175.06</ele><time>2026-08-22T17:51:33Z</time></trkpt><trkpt lat="59.3749576528" lon="34.6237047762"><ele>174.76</ele><time>2026-08-22T17:52:21Z</time></trkpt><trkpt lat="59.3749529589" lon="34.6237102244"><ele>174.16</ele><time>2026-08-22T17:54:08Z</time></trkpt><trkpt lat="59.3749574851" lon="34.6236945502"><ele>174.61</ele><time>2026-08-22T17:54:40Z</time></trkpt><trkpt lat="59.3749572337" lon="34.6237308439"><ele>174.46</ele><time>2026-08-22T17:54:57Z</time></trkpt><trkpt lat="59.3749478459" lon="34.6237885952"><ele>174.32</ele><time>2026-08-22T17:55:00Z</time></trkpt><trkpt lat="59.3749095406" lon="34.6240796987"><ele>170.14</ele><time>2026-08-22T17:55:15Z</time></trkpt><trkpt lat="59.3749069422" lon="34.6240980551"><ele>175.95</ele><time>2026-08-22T17:55:16Z</time></trkpt><trkpt lat="59.3749045953" lon="34.6241171658"><ele>176.01</ele><time>2026-08-22T17:55:17Z</time></trkpt><trkpt lat="59.3748993985" lon="34.6241566446"><ele>174.56</ele><time>2026-08-22T17:55:19Z</time></trkpt><trkpt lat="59.3748517893" lon="34.6243889909"><ele>173.57</ele><time>2026-08-22T17:55:33Z</time></trkpt><trkpt lat="59.3748163339" lon="34.6245197486"><ele>174.07</ele><time>2026-08-22T17:55:42Z</time></trkpt><trkpt lat="59.3747382984" lon="34.6248444635"><ele>174.19</ele><time>2026-08-22T17:56:01Z</time></trkpt><trkpt lat="59.3746302556" lon="34.6250914782"><ele>173.93</ele><time>2026-08-22T17:56:18Z</time></trkpt><trkpt lat="59.3745767791" lon="34.6251421887"><ele>173.76</ele><time>2026-08-22T17:56:24Z</time></trkpt><trkpt lat="59.3745187763" lon="34.6251356509"><ele>173.58</ele><time>2026-08-22T17:56:30Z</time></trkpt><trkpt lat="59.3744888529" lon="34.6251360700"><ele>174.08</ele><time>2026-08-22T17:56:33Z</time></trkpt><trkpt lat="59.3743064627" lon="34.6251066495"><ele>173.95</ele><time>2026-08-22T17:56:52Z</time></trkpt><trkpt lat="59.3741609529" lon="34.6250058990"><ele>174.42</ele><time>2026-08-22T17:57:08Z</time></trkpt><trkpt lat="59.3739617988" lon="34.6248850320"><ele>173.61</ele><time>2026-08-22T17:57:30Z</time></trkpt><trkpt lat="59.3738295324" lon="34.6245957725"><ele>173.79</ele><time>2026-08-22T17:57:51Z</time></trkpt><trkpt lat="59.3737656623" lon="34.6245581377"><ele>173.73</ele><time>2026-08-22T17:58:10Z</time></trkpt><trkpt lat="59.3737698533" lon="34.6245348360"><ele>173.87</ele><time>2026-08-22T17:58:54Z</time></trkpt><trkpt lat="59.3737683445" lon="34.6245269570"><ele>173.81</ele><time>2026-08-22T17:59:05Z</time></trkpt><trkpt lat="59.3737009540" lon="34.6243189182"><ele>173.54</ele><time>2026-08-22T17:59:18Z</time></trkpt><trkpt lat="59.3735716213" lon="34.6241675410"><ele>173.95</ele><time>2026-08-22T17:59:37Z</time></trkpt><trkpt lat="59.3735615630" lon="34.6241788566"><ele>173.91</ele><time>2026-08-22T17:59:40Z</time></trkpt><trkpt lat="59.3735419493" lon="34.6242667828"><ele>173.92</ele><time>2026-08-22T17:59:45Z</time></trkpt><trkpt lat="59.3735290412" lon="34.6243961994"><ele>174.09</ele><time>2026-08-22T17:59:52Z</time></trkpt><trkpt lat="59.3735615630" lon="34.6247506700"><ele>174.31</ele><time>2026-08-22T18:00:11Z</time></trkpt><trkpt lat="59.3735533487" lon="34.6250390913"><ele>174.35</ele><time>2026-08-22T18:00:29Z</time></trkpt><trkpt lat="59.3735060748" lon="34.6251931507"><ele>175.53</ele><time>2026-08-22T18:00:40Z</time></trkpt><trkpt lat="59.3735150434" lon="34.6251612995"><ele>174.39</ele><time>2026-08-22T18:01:15Z</time></trkpt><trkpt lat="59.3734319787" lon="34.6252855193"><ele>176.08</ele><time>2026-08-22T18:01:47Z</time></trkpt><trkpt lat="59.3733389396" lon="34.6253377385"><ele>176.36</ele><time>2026-08-22T18:02:12Z</time></trkpt><trkpt lat="59.3733102735" lon="34.6253336314"><ele>176.50</ele><time>2026-08-22T18:02:28Z</time></trkpt><trkpt lat="59.3731040787" lon="34.6253717691"><ele>176.86</ele><time>2026-08-22T18:02:50Z</time></trkpt><trkpt lat="59.3730075192" lon="34.6253204718"><ele>176.36</ele><time>2026-08-22T18:03:01Z</time></trkpt><trkpt lat="59.3728835508" lon="34.6250710264"><ele>176.60</ele><time>2026-08-22T18:03:23Z</time></trkpt><trkpt lat="59.3728842214" lon="34.6250654943"><ele>176.84</ele><time>2026-08-22T18:04:05Z</time></trkpt><trkpt lat="59.3727781903" lon="34.6249248460"><ele>173.79</ele><time>2026-08-22T18:04:20Z</time></trkpt><trkpt lat="59.3727728259" lon="34.6249105968"><ele>179.63</ele><time>2026-08-22T18:04:21Z</time></trkpt><trkpt lat="59.3727691378" lon="34.6248938330"><ele>178.16</ele><time>2026-08-22T18:04:22Z</time></trkpt><trkpt lat="59.3727374543" lon="34.6247096825"><ele>176.93</ele><time>2026-08-22T18:04:33Z</time></trkpt><trkpt lat="59.3727074470" lon="34.6245628316"><ele>177.77</ele><time>2026-08-22T18:04:42Z</time></trkpt><trkpt lat="59.3726997357" lon="34.6245331597"><ele>176.05</ele><time>2026-08-22T18:04:44Z</time></trkpt><trkpt lat="59.3726911861" lon="34.6245015599"><ele>177.47</ele><time>2026-08-22T18:04:46Z</time></trkpt><trkpt lat="59.3726454210" lon="34.6243774239"><ele>176.83</ele><time>2026-08-22T18:05:07Z</time></trkpt><trkpt lat="59.3726530485" lon="34.6243923437"><ele>176.65</ele><time>2026-08-22T18:05:34Z</time></trkpt><trkpt lat="59.3726551440" lon="34.6243873984"><ele>173.72</ele><time>2026-08-22T18:05:42Z</time></trkpt><trkpt lat="59.3726585805" lon="34.6243915893"><ele>176.35</ele><time>2026-08-22T18:06:01Z</time></trkpt><trkpt lat="59.3726611789" lon="34.6243907511"><ele>175.78</ele><time>2026-08-22T18:06:57Z</time></trkpt><trkpt lat="59.3726599216" lon="34.6243790165"><ele>174.04</ele><time>2026-08-22T18:07:09Z</time></trkpt><trkpt lat="59.3726570718" lon="34.6243769210"><ele>175.78</ele><time>2026-08-22T18:07:24Z</time></trkpt><trkpt lat="59.3726586644" lon="34.6243893262"><ele>176.44</ele><time>2026-08-22T18:08:42Z</time></trkpt><trkpt lat="59.3726501986" lon="34.6244349238"><ele>176.24</ele><time>2026-08-22T18:09:18Z</time></trkpt><trkpt lat="59.3726303335" lon="34.6244829521"><ele>176.46</ele><time>2026-08-22T18:09:21Z</time></trkpt><trkpt lat="59.3726207782" lon="34.6245248616"><ele>176.47</ele><time>2026-08-22T18:09:23Z</time></trkpt><trkpt lat="59.3725991528" lon="34.6246568765"><ele>176.58</ele><time>2026-08-22T18:09:29Z</time></trkpt><trkpt lat="59.3726026732" lon="34.6250288654"><ele>177.36</ele><time>2026-08-22T18:09:49Z</time></trkpt><trkpt lat="59.3726634420" lon="34.6251453739"><ele>176.50</ele><time>2026-08-22T18:09:58Z</time></trkpt><trkpt lat="59.3726714887" lon="34.6252081543"><ele>176.84</ele><time>2026-08-22T18:10:01Z</time></trkpt><trkpt lat="59.3726777751" lon="34.6252482198"><ele>176.84</ele><time>2026-08-22T18:10:03Z</time></trkpt><trkpt lat="59.3727697246" lon="34.6254339628"><ele>176.96</ele><time>2026-08-22T18:10:18Z</time></trkpt><trkpt lat="59.3728531245" lon="34.6255901176"><ele>177.04</ele><time>2026-08-22T18:10:30Z</time></trkpt><trkpt lat="59.3729328364" lon="34.6256030258"><ele>176.98</ele><time>2026-08-22T18:10:38Z</time></trkpt><trkpt lat="59.3730585650" lon="34.6258090530"><ele>176.99</ele><time>2026-08-22T18:10:55Z</time></trkpt><trkpt lat="59.3731046654" lon="34.6259056963"><ele>176.97</ele><time>2026-08-22T18:11:02Z</time></trkpt><trkpt lat="59.3730919249" lon="34.6260948759"><ele>177.42</ele><time>2026-08-22T18:11:17Z</time></trkpt><trkpt lat="59.3731054198" lon="34.6260810457"><ele>177.08</ele><time>2026-08-22T18:11:21Z</time></trkpt><trkpt lat="59.3732779194" lon="34.6261356957"><ele>176.81</ele><time>2026-08-22T18:11:37Z</time></trkpt><trkpt lat="59.3733682763" lon="34.6262284834"><ele>177.06</ele><time>2026-08-22T18:11:47Z</time></trkpt><trkpt lat="59.3734324817" lon="34.6263194270"><ele>176.78</ele><time>2026-08-22T18:11:56Z</time></trkpt><trkpt lat="59.3733814359" lon="34.6265241969"><ele>177.15</ele><time>2026-08-22T18:12:08Z</time></trkpt><trkpt lat="59.3733848725" lon="34.6266203374"><ele>176.34</ele><time>2026-08-22T18:12:36Z</time></trkpt><trkpt lat="59.3733763229" lon="34.6266437229"><ele>176.18</ele><time>2026-08-22T18:13:00Z</time></trkpt><trkpt lat="59.3733253609" lon="34.6267582197"><ele>176.19</ele><time>2026-08-22T18:13:07Z</time></trkpt><trkpt lat="59.3732842896" lon="34.6269587986"><ele>175.70</ele><time>2026-08-22T18:13:18Z</time></trkpt><trkpt lat="59.3731939327" lon="34.6272231638"><ele>175.63</ele><time>2026-08-22T18:13:35Z</time></trkpt><trkpt lat="59.3731852993" lon="34.6272300370"><ele>175.61</ele><time>2026-08-22T18:13:36Z</time></trkpt><trkpt lat="59.3730766699" lon="34.6274965815"><ele>176.00</ele><time>2026-08-22T18:13:54Z</time></trkpt><trkpt lat="59.3730658572" lon="34.6275243256"><ele>176.00</ele><time>2026-08-22T18:13:56Z</time></trkpt><trkpt lat="59.3730259594" lon="34.6275756229"><ele>175.65</ele><time>2026-08-22T18:14:01Z</time></trkpt><trkpt lat="59.3728991412" lon="34.6277176961"><ele>175.62</ele><time>2026-08-22T18:14:21Z</time></trkpt><trkpt lat="59.3727692217" lon="34.6277426742"><ele>175.82</ele><time>2026-08-22T18:14:39Z</time></trkpt><trkpt lat="59.3726897612" lon="34.6276649740"><ele>175.48</ele><time>2026-08-22T18:14:49Z</time></trkpt><trkpt lat="59.3726075348" lon="34.6274948213"><ele>175.75</ele><time>2026-08-22T18:15:02Z</time></trkpt><trkpt lat="59.3725067843" lon="34.6273176279"><ele>175.85</ele><time>2026-08-22T18:15:20Z</time></trkpt><trkpt lat="59.3724464346" lon="34.6271602996"><ele>175.91</ele><time>2026-08-22T18:15:32Z</time></trkpt><trkpt lat="59.3724293355" lon="34.6271196473"><ele>175.81</ele><time>2026-08-22T18:15:35Z</time></trkpt><trkpt lat="59.3723861687" lon="34.6268995386"><ele>176.09</ele><time>2026-08-22T18:15:49Z</time></trkpt><trkpt lat="59.3723451812" lon="34.6267261170"><ele>176.17</ele><time>2026-08-22T18:16:02Z</time></trkpt><trkpt lat="59.3722959794" lon="34.6265404578"><ele>176.17</ele><time>2026-08-22T18:16:20Z</time></trkpt><trkpt lat="59.3723487854" lon="34.6265706327"><ele>176.13</ele><time>2026-08-22T18:16:51Z</time></trkpt><trkpt lat="59.3723232206" lon="34.6265718900"><ele>176.36</ele><time>2026-08-22T18:17:09Z</time></trkpt><trkpt lat="59.3723245617" lon="34.6265492588"><ele>177.00</ele><time>2026-08-22T18:17:59Z</time></trkpt><trkpt lat="59.3723122403" lon="34.6265075170"><ele>177.02</ele><time>2026-08-22T18:18:02Z</time></trkpt><trkpt lat="59.3722082209" lon="34.6262633521"><ele>176.70</ele><time>2026-08-22T18:18:19Z</time></trkpt><trkpt lat="59.3721747771" lon="34.6261605900"><ele>177.06</ele><time>2026-08-22T18:18:26Z</time></trkpt><trkpt lat="59.3721562531" lon="34.6261209436"><ele>177.28</ele><time>2026-08-22T18:18:29Z</time></trkpt><trkpt lat="59.3721601926" lon="34.6260482725"><ele>177.10</ele><time>2026-08-22T18:18:38Z</time></trkpt><trkpt lat="59.3721607793" lon="34.6258976497"><ele>177.14</ele><time>2026-08-22T18:18:54Z</time></trkpt><trkpt lat="59.3721608631" lon="34.6259762719"><ele>177.22</ele><time>2026-08-22T18:19:18Z</time></trkpt><trkpt lat="59.3721547443" lon="34.6259805467"><ele>177.20</ele><time>2026-08-22T18:19:19Z</time></trkpt><trkpt lat="59.3721070513" lon="34.6258514654"><ele>177.18</ele><time>2026-08-22T18:19:29Z</time></trkpt><trkpt lat="59.3720249925" lon="34.6257329453"><ele>176.89</ele><time>2026-08-22T18:19:44Z</time></trkpt><trkpt lat="59.3719438557" lon="34.6257364657"><ele>176.92</ele><time>2026-08-22T18:20:04Z</time></trkpt><trkpt lat="59.3719037902" lon="34.6258110646"><ele>176.80</ele><time>2026-08-22T18:20:24Z</time></trkpt><trkpt lat="59.3718889542" lon="34.6258233860"><ele>176.48</ele><time>2026-08-22T18:21:42Z</time></trkpt><trkpt lat="59.3718777224" lon="34.6258363780"><ele>176.38</ele><time>2026-08-22T18:21:44Z</time></trkpt><trkpt lat="59.3718627188" lon="34.6258693188"><ele>176.28</ele><time>2026-08-22T18:21:47Z</time></trkpt><trkpt lat="59.3718461227" lon="34.6259794571"><ele>176.23</ele><time>2026-08-22T18:22:01Z</time></trkpt><trkpt lat="59.3718461227" lon="34.6259800438"><ele>176.04</ele><time>2026-08-22T18:22:29Z</time></trkpt><trkpt lat="59.3718383275" lon="34.6259804629"><ele>174.61</ele><time>2026-08-22T18:23:18Z</time></trkpt><trkpt lat="59.3718384951" lon="34.6259798761"><ele>178.24</ele><time>2026-08-22T18:23:19Z</time></trkpt><trkpt lat="59.3718383275" lon="34.6259801276"><ele>177.54</ele><time>2026-08-22T18:23:20Z</time></trkpt><trkpt lat="59.3718391657" lon="34.6259827260"><ele>176.52</ele><time>2026-08-22T18:24:02Z</time></trkpt><trkpt lat="59.3718560971" lon="34.6260331850"><ele>176.69</ele><time>2026-08-22T18:24:16Z</time></trkpt><trkpt lat="59.3717875332" lon="34.6261257213"><ele>176.05</ele><time>2026-08-22T18:24:26Z</time></trkpt><trkpt lat="59.3717691768" lon="34.6261353604"><ele>177.01</ele><time>2026-08-22T18:24:28Z</time></trkpt><trkpt lat="59.3716949970" lon="34.6261255536"><ele>175.71</ele><time>2026-08-22T18:24:37Z</time></trkpt><trkpt lat="59.3716520816" lon="34.6260967199"><ele>176.12</ele><time>2026-08-22T18:24:42Z</time></trkpt><trkpt lat="59.3715330586" lon="34.6258255653"><ele>177.02</ele><time>2026-08-22T18:25:02Z</time></trkpt><trkpt lat="59.3714307994" lon="34.6256594360"><ele>176.29</ele><time>2026-08-22T18:25:19Z</time></trkpt><trkpt lat="59.3713609781" lon="34.6254452784"><ele>176.45</ele><time>2026-08-22T18:25:34Z</time></trkpt><trkpt lat="59.3713062443" lon="34.6252651513"><ele>177.23</ele><time>2026-08-22T18:25:53Z</time></trkpt><trkpt lat="59.3712602276" lon="34.6251594555"><ele>176.56</ele><time>2026-08-22T18:26:18Z</time></trkpt><trkpt lat="59.3712348305" lon="34.6251274366"><ele>176.92</ele><time>2026-08-22T18:26:21Z</time></trkpt><trkpt lat="59.3711842876" lon="34.6250217408"><ele>176.81</ele><time>2026-08-22T18:26:29Z</time></trkpt><trkpt lat="59.3711579684" lon="34.6249976847"><ele>177.01</ele><time>2026-08-22T18:26:32Z</time></trkpt><trkpt lat="59.3710615765" lon="34.6248228382"><ele>177.08</ele><time>2026-08-22T18:26:46Z</time></trkpt><trkpt lat="59.3709216826" lon="34.6246313956"><ele>176.87</ele><time>2026-08-22T18:27:06Z</time></trkpt><trkpt lat="59.3709070981" lon="34.6246171463"><ele>177.33</ele><time>2026-08-22T18:27:47Z</time></trkpt><trkpt lat="59.3708950281" lon="34.6245679446"><ele>177.40</ele><time>2026-08-22T18:27:50Z</time></trkpt><trkpt lat="59.3708390370" lon="34.6243020706"><ele>177.19</ele><time>2026-08-22T18:28:04Z</time></trkpt><trkpt lat="59.3708251230" lon="34.6241717320"><ele>177.31</ele><time>2026-08-22T18:28:11Z</time></trkpt><trkpt lat="59.3707730714" lon="34.6238238830"><ele>177.32</ele><time>2026-08-22T18:28:31Z</time></trkpt><trkpt lat="59.3706953712" lon="34.6236865874"><ele>176.92</ele><time>2026-08-22T18:28:44Z</time></trkpt><trkpt lat="59.3705483526" lon="34.6234928817"><ele>177.46</ele><time>2026-08-22T18:29:05Z</time></trkpt><trkpt lat="59.3704895955" lon="34.6234025247"><ele>177.55</ele><time>2026-08-22T18:29:28Z</time></trkpt><trkpt lat="59.3704901822" lon="34.6233772952"><ele>177.24</ele><time>2026-08-22T18:29:50Z</time></trkpt><trkpt lat="59.3704914395" lon="34.6233972441"><ele>177.22</ele><time>2026-08-22T18:30:31Z</time></trkpt><trkpt lat="59.3704670481" lon="34.6233908739"><ele>176.23</ele><time>2026-08-22T18:30:37Z</time></trkpt><trkpt lat="59.3703701533" lon="34.6234316938"><ele>175.95</ele><time>2026-08-22T18:30:48Z</time></trkpt><trkpt lat="59.3702953868" lon="34.6235055383"><ele>176.11</ele><time>2026-08-22T18:30:57Z</time></trkpt><trkpt lat="59.3702150881" lon="34.6235798858"><ele>171.85</ele><time>2026-08-22T18:31:07Z</time></trkpt><trkpt lat="59.3702069577" lon="34.6235865913"><ele>178.05</ele><time>2026-08-22T18:31:08Z</time></trkpt><trkpt lat="59.3701985758" lon="34.6235921234"><ele>177.27</ele><time>2026-08-22T18:31:09Z</time></trkpt><trkpt lat="59.3701825663" lon="34.6235981584"><ele>176.26</ele><time>2026-08-22T18:31:11Z</time></trkpt><trkpt lat="59.3700701650" lon="34.6236598492"><ele>175.63</ele><time>2026-08-22T18:31:26Z</time></trkpt><trkpt lat="59.3700336199" lon="34.6237303410"><ele>175.69</ele><time>2026-08-22T18:31:37Z</time></trkpt><trkpt lat="59.3700404931" lon="34.6237816382"><ele>175.58</ele><time>2026-08-22T18:31:40Z</time></trkpt><trkpt lat="59.3700395711" lon="34.6238173451"><ele>175.50</ele><time>2026-08-22T18:31:42Z</time></trkpt><trkpt lat="59.3699891958" lon="34.6239146590"><ele>175.64</ele><time>2026-08-22T18:31:50Z</time></trkpt><trkpt lat="59.3699339591" lon="34.6240169182"><ele>175.47</ele><time>2026-08-22T18:31:58Z</time></trkpt><trkpt lat="59.3697681651" lon="34.6241694689"><ele>175.22</ele><time>2026-08-22T18:32:19Z</time></trkpt><trkpt lat="59.3697145209" lon="34.6241999790"><ele>175.35</ele><time>2026-08-22T18:32:26Z</time></trkpt><trkpt lat="59.3695647363" lon="34.6240629349"><ele>174.97</ele><time>2026-08-22T18:32:43Z</time></trkpt><trkpt lat="59.3694120180" lon="34.6240460873"><ele>174.88</ele><time>2026-08-22T18:33:01Z</time></trkpt><trkpt lat="59.3693660852" lon="34.6239708178"><ele>176.21</ele><time>2026-08-22T18:33:12Z</time></trkpt><trkpt lat="59.3693650793" lon="34.6239726618"><ele>175.27</ele><time>2026-08-22T18:33:14Z</time></trkpt><trkpt lat="59.3693770654" lon="34.6239446662"><ele>175.30</ele><time>2026-08-22T18:33:36Z</time></trkpt><trkpt lat="59.3693592958" lon="34.6239368711"><ele>174.93</ele><time>2026-08-22T18:33:58Z</time></trkpt><trkpt lat="59.3693041429" lon="34.6239247173"><ele>174.89</ele><time>2026-08-22T18:34:04Z</time></trkpt><trkpt lat="59.3692771532" lon="34.6239250526"><ele>174.93</ele><time>2026-08-22T18:34:07Z</time></trkpt><trkpt lat="59.3692251854" lon="34.6239284892"><ele>174.98</ele><time>2026-08-22T18:34:13Z</time></trkpt><trkpt lat="59.3690573797" lon="34.6241493523"><ele>173.79</ele><time>2026-08-22T18:34:34Z</time></trkpt><trkpt lat="59.3690471537" lon="34.6241830476"><ele>178.35</ele><time>2026-08-22T18:34:36Z</time></trkpt><trkpt lat="59.3690401968" lon="34.6242000628"><ele>176.10</ele><time>2026-08-22T18:34:37Z</time></trkpt><trkpt lat="59.3690254446" lon="34.6242307406"><ele>174.92</ele><time>2026-08-22T18:34:39Z</time></trkpt><trkpt lat="59.3689401168" lon="34.6243953612"><ele>174.70</ele><time>2026-08-22T18:34:53Z</time></trkpt><trkpt lat="59.3689330760" lon="34.6244515199"><ele>174.89</ele><time>2026-08-22T18:34:56Z</time></trkpt><trkpt lat="59.3689028174" lon="34.6246327367"><ele>176.01</ele><time>2026-08-22T18:35:15Z</time></trkpt><trkpt lat="59.3689006381" lon="34.6246096864"><ele>171.72</ele><time>2026-08-22T18:35:25Z</time></trkpt><trkpt lat="59.3689005543" lon="34.6246079262"><ele>175.60</ele><time>2026-08-22T18:35:26Z</time></trkpt><trkpt lat="59.3689004704" lon="34.6246157214"><ele>175.10</ele><time>2026-08-22T18:36:12Z</time></trkpt><trkpt lat="59.3688963633" lon="34.6246135421"><ele>175.76</ele><time>2026-08-22T18:37:07Z</time></trkpt><trkpt lat="59.3688817788" lon="34.6245788410"><ele>175.35</ele><time>2026-08-22T18:37:56Z</time></trkpt><trkpt lat="59.3688848801" lon="34.6245663520"><ele>177.62</ele><time>2026-08-22T18:38:28Z</time></trkpt><trkpt lat="59.3688857183" lon="34.6245963592"><ele>173.68</ele><time>2026-08-22T18:38:45Z</time></trkpt><trkpt lat="59.3688856345" lon="34.6245956887"><ele>178.96</ele><time>2026-08-22T18:38:46Z</time></trkpt><trkpt lat="59.3688866403" lon="34.6245980356"><ele>177.24</ele><time>2026-08-22T18:38:49Z</time></trkpt><trkpt lat="59.3688890710" lon="34.6246013884"><ele>177.79</ele><time>2026-08-22T18:38:53Z</time></trkpt><trkpt lat="59.3688900769" lon="34.6246044897"><ele>173.49</ele><time>2026-08-22T18:39:00Z</time></trkpt><trkpt lat="59.3688895740" lon="34.6246050764"><ele>180.05</ele><time>2026-08-22T18:39:01Z</time></trkpt><trkpt lat="59.3688892387" lon="34.6246052440"><ele>179.36</ele><time>2026-08-22T18:39:02Z</time></trkpt><trkpt lat="59.3688884843" lon="34.6246041544"><ele>178.55</ele><time>2026-08-22T18:39:04Z</time></trkpt><trkpt lat="59.3689085171" lon="34.6246313956"><ele>178.04</ele><time>2026-08-22T18:39:39Z</time></trkpt><trkpt lat="59.3689017277" lon="34.6245838702"><ele>177.88</ele><time>2026-08-22T18:40:16Z</time></trkpt><trkpt lat="59.3688799348" lon="34.6242531203"><ele>178.36</ele><time>2026-08-22T18:40:34Z</time></trkpt><trkpt lat="59.3688713852" lon="34.6241202671"><ele>178.20</ele><time>2026-08-22T18:40:41Z</time></trkpt><trkpt lat="59.3688725587" lon="34.6240268927"><ele>178.49</ele><time>2026-08-22T18:40:46Z</time></trkpt><trkpt lat="59.3688659370" lon="34.6237259824"><ele>178.28</ele><time>2026-08-22T18:41:02Z</time></trkpt><trkpt lat="59.3688817788" lon="34.6234707534"><ele>178.08</ele><time>2026-08-22T18:41:17Z</time></trkpt><trkpt lat="59.3689332437" lon="34.6232199669"><ele>178.84</ele><time>2026-08-22T18:41:32Z</time></trkpt><trkpt lat="59.3690269534" lon="34.6229636483"><ele>179.45</ele><time>2026-08-22T18:41:49Z</time></trkpt><trkpt lat="59.3691307213" lon="34.6227375884"><ele>182.32</ele><time>2026-08-22T18:42:07Z</time></trkpt><trkpt lat="59.3691834435" lon="34.6223909128"><ele>181.41</ele><time>2026-08-22T18:42:28Z</time></trkpt><trkpt lat="59.3691938370" lon="34.6223387774"><ele>181.16</ele><time>2026-08-22T18:42:30Z</time></trkpt><trkpt lat="59.3692103494" lon="34.6223126259"><ele>177.98</ele><time>2026-08-22T18:42:32Z</time></trkpt><trkpt lat="59.3692187313" lon="34.6223006397"><ele>183.11</ele><time>2026-08-22T18:42:33Z</time></trkpt><trkpt lat="59.3692266941" lon="34.6222813614"><ele>181.11</ele><time>2026-08-22T18:43:01Z</time></trkpt><trkpt lat="59.3692414463" lon="34.6222451515"><ele>181.61</ele><time>2026-08-22T18:43:32Z</time></trkpt><trkpt lat="59.3692323938" lon="34.6222565509"><ele>180.72</ele><time>2026-08-22T18:43:58Z</time></trkpt><trkpt lat="59.3692209944" lon="34.6222719736"><ele>181.11</ele><time>2026-08-22T18:44:36Z</time></trkpt><trkpt lat="59.3692306336" lon="34.6222685371"><ele>180.44</ele><time>2026-08-22T18:45:18Z</time></trkpt><trkpt lat="59.3692541867" lon="34.6222913358"><ele>180.30</ele><time>2026-08-22T18:46:08Z</time></trkpt><trkpt lat="59.3692549411" lon="34.6222924255"><ele>180.21</ele><time>2026-08-22T18:47:16Z</time></trkpt><trkpt lat="59.3692508340" lon="34.6222844627"><ele>179.60</ele><time>2026-08-22T18:48:07Z</time></trkpt><trkpt lat="59.3692490738" lon="34.6222778410"><ele>179.22</ele><time>2026-08-22T18:48:54Z</time></trkpt><trkpt lat="59.3692513369" lon="34.6222618315"><ele>178.92</ele><time>2026-08-22T18:49:52Z</time></trkpt><trkpt lat="59.3692415301" lon="34.6222599875"><ele>178.72</ele><time>2026-08-22T18:50:36Z</time></trkpt><trkpt lat="59.3692170549" lon="34.6222758293"><ele>179.10</ele><time>2026-08-22T18:51:29Z</time></trkpt><trkpt lat="59.3692234252" lon="34.6222983766"><ele>178.63</ele><time>2026-08-22T18:52:07Z</time></trkpt><trkpt lat="59.3692343216" lon="34.6222781762"><ele>178.94</ele><time>2026-08-22T18:52:52Z</time></trkpt><trkpt lat="59.3692287896" lon="34.6222780924"><ele>179.09</ele><time>2026-08-22T18:53:36Z</time></trkpt><trkpt lat="59.3692333996" lon="34.6222930960"><ele>179.55</ele><time>2026-08-22T18:54:09Z</time></trkpt><trkpt lat="59.3692276999" lon="34.6222831216"><ele>179.63</ele><time>2026-08-22T18:54:59Z</time></trkpt><trkpt lat="59.3692313880" lon="34.6222921740"><ele>179.77</ele><time>2026-08-22T18:55:47Z</time></trkpt><trkpt lat="59.3692291249" lon="34.6223027352"><ele>179.90</ele><time>2026-08-22T18:56:51Z</time></trkpt><trkpt lat="59.3692454696" lon="34.6223111171"><ele>180.40</ele><time>2026-08-22T18:57:25Z</time></trkpt><trkpt lat="59.3692577910" lon="34.6222827863"><ele>181.02</ele><time>2026-08-22T18:58:31Z</time></trkpt><trkpt lat="59.3692647479" lon="34.6222731471"><ele>181.14</ele><time>2026-08-22T18:59:26Z</time></trkpt><trkpt lat="59.3692630716" lon="34.6222661901"><ele>181.96</ele><time>2026-08-22T18:59:58Z</time></trkpt><trkpt lat="59.3692570366" lon="34.6222891565"><ele>183.59</ele><time>2026-08-22T19:00:23Z</time></trkpt><trkpt lat="59.3692400213" lon="34.6222968679"><ele>183.50</ele><time>2026-08-22T19:01:07Z</time></trkpt><trkpt lat="59.3692106847" lon="34.6223127935"><ele>183.51</ele><time>2026-08-22T19:01:48Z</time></trkpt><trkpt lat="59.3692246825" lon="34.6222867258"><ele>185.06</ele><time>2026-08-22T19:02:33Z</time></trkpt><trkpt lat="59.3693041429" lon="34.6221438982"><ele>184.94</ele><time>2026-08-22T19:02:52Z</time></trkpt><trkpt lat="59.3694301229" lon="34.6219138987"><ele>185.32</ele><time>2026-08-22T19:03:09Z</time></trkpt><trkpt lat="59.3694882933" lon="34.6216929518"><ele>185.62</ele><time>2026-08-22T19:03:23Z</time></trkpt><trkpt lat="59.3695215695" lon="34.6213804744"><ele>186.34</ele><time>2026-08-22T19:03:38Z</time></trkpt><trkpt lat="59.3695583660" lon="34.6210207231"><ele>186.51</ele><time>2026-08-22T19:03:55Z</time></trkpt><trkpt lat="59.3695669994" lon="34.6207497362"><ele>186.62</ele><time>2026-08-22T19:04:11Z</time></trkpt><trkpt lat="59.3695439491" lon="34.6204684395"><ele>186.42</ele><time>2026-08-22T19:04:26Z</time></trkpt><trkpt lat="59.3695295323" lon="34.6203371789"><ele>182.52</ele><time>2026-08-22T19:04:37Z</time></trkpt><trkpt lat="59.3695295323" lon="34.6203351673"><ele>188.38</ele><time>2026-08-22T19:04:38Z</time></trkpt><trkpt lat="59.3695314601" lon="34.6203295514"><ele>186.40</ele><time>2026-08-22T19:04:41Z</time></trkpt><trkpt lat="59.3695410993" lon="34.6203270368"><ele>186.94</ele><time>2026-08-22T19:04:46Z</time></trkpt><trkpt lat="59.3695789855" lon="34.6203092672"><ele>188.45</ele><time>2026-08-22T19:04:57Z</time></trkpt><trkpt lat="59.3695715256" lon="34.6202298906"><ele>186.09</ele><time>2026-08-22T19:05:28Z</time></trkpt><trkpt lat="59.3695792370" lon="34.6200750768"><ele>186.37</ele><time>2026-08-22T19:05:39Z</time></trkpt><trkpt lat="59.3695999403" lon="34.6200178284"><ele>186.16</ele><time>2026-08-22T19:05:43Z</time></trkpt><trkpt lat="59.3696141895" lon="34.6199876536"><ele>186.34</ele><time>2026-08-22T19:05:45Z</time></trkpt><trkpt lat="59.3697748706" lon="34.6197771840"><ele>186.30</ele><time>2026-08-22T19:06:04Z</time></trkpt><trkpt lat="59.3697909638" lon="34.6197535470"><ele>186.20</ele><time>2026-08-22T19:06:06Z</time></trkpt><trkpt lat="59.3698379863" lon="34.6196857374"><ele>185.89</ele><time>2026-08-22T19:06:25Z</time></trkpt><trkpt lat="59.3698321190" lon="34.6196953766"><ele>185.12</ele><time>2026-08-22T19:07:20Z</time></trkpt><trkpt lat="59.3698319513" lon="34.6196937840"><ele>182.03</ele><time>2026-08-22T19:07:53Z</time></trkpt><trkpt lat="59.3698315322" lon="34.6196930297"><ele>185.54</ele><time>2026-08-22T19:07:54Z</time></trkpt><trkpt lat="59.3698313646" lon="34.6196925268"><ele>184.42</ele><time>2026-08-22T19:07:58Z</time></trkpt><trkpt lat="59.3698315322" lon="34.6196924429"><ele>185.66</ele><time>2026-08-22T19:08:00Z</time></trkpt><trkpt lat="59.3698299397" lon="34.6196542215"><ele>185.09</ele><time>2026-08-22T19:08:09Z</time></trkpt><trkpt lat="59.3698265869" lon="34.6196227893"><ele>184.10</ele><time>2026-08-22T19:08:11Z</time></trkpt><trkpt lat="59.3698112480" lon="34.6195713244"><ele>184.19</ele><time>2026-08-22T19:08:14Z</time></trkpt><trkpt lat="59.3696659897" lon="34.6193537302"><ele>183.91</ele><time>2026-08-22T19:08:35Z</time></trkpt><trkpt lat="59.3696358986" lon="34.6191981621"><ele>184.28</ele><time>2026-08-22T19:08:46Z</time></trkpt><trkpt lat="59.3696314562" lon="34.6191647183"><ele>184.29</ele><time>2026-08-22T19:08:48Z</time></trkpt><trkpt lat="59.3696272653" lon="34.6190418396"><ele>184.41</ele><time>2026-08-22T19:08:55Z</time></trkpt><trkpt lat="59.3695274368" lon="34.6187605429"><ele>183.90</ele><time>2026-08-22T19:09:14Z</time></trkpt><trkpt lat="59.3694596272" lon="34.6185809188"><ele>184.16</ele><time>2026-08-22T19:09:30Z</time></trkpt><trkpt lat="59.3694340624" lon="34.6184706967"><ele>183.92</ele><time>2026-08-22T19:09:46Z</time></trkpt><trkpt lat="59.3694267701" lon="34.6184827667"><ele>183.50</ele><time>2026-08-22T19:09:51Z</time></trkpt><trkpt lat="59.3694324698" lon="34.6184729598"><ele>183.14</ele><time>2026-08-22T19:10:30Z</time></trkpt><trkpt lat="59.3694544304" lon="34.6184295416"><ele>183.90</ele><time>2026-08-22T19:10:59Z</time></trkpt><trkpt lat="59.3694566935" lon="34.6184262726"><ele>183.85</ele><time>2026-08-22T19:11:00Z</time></trkpt><trkpt lat="59.3694717810" lon="34.6183833573"><ele>183.91</ele><time>2026-08-22T19:11:03Z</time></trkpt><trkpt lat="59.3694969267" lon="34.6180387773"><ele>183.92</ele><time>2026-08-22T19:11:21Z</time></trkpt><trkpt lat="59.3695214856" lon="34.6179535333"><ele>184.37</ele><time>2026-08-22T19:11:27Z</time></trkpt><trkpt lat="59.3695741240" lon="34.6178329177"><ele>184.39</ele><time>2026-08-22T19:11:37Z</time></trkpt><trkpt lat="59.3695825897" lon="34.6175161656"><ele>184.19</ele><time>2026-08-22T19:11:57Z</time></trkpt><trkpt lat="59.3695993535" lon="34.6171514690"><ele>183.80</ele><time>2026-08-22T19:12:19Z</time></trkpt><trkpt lat="59.3696072325" lon="34.6171009261"><ele>184.52</ele><time>2026-08-22T19:12:42Z</time></trkpt><trkpt lat="59.3696081545" lon="34.6170903649"><ele>185.01</ele><time>2026-08-22T19:13:34Z</time></trkpt><trkpt lat="59.3696109205" lon="34.6170809772"><ele>183.83</ele><time>2026-08-22T19:14:15Z</time></trkpt><trkpt lat="59.3695766386" lon="34.6171011776"><ele>182.80</ele><time>2026-08-22T19:14:53Z</time></trkpt><trkpt lat="59.3695484754" lon="34.6170919575"><ele>183.15</ele><time>2026-08-22T19:14:56Z</time></trkpt><trkpt lat="59.3693614751" lon="34.6171932947"><ele>181.64</ele><time>2026-08-22T19:15:19Z</time></trkpt><trkpt lat="59.3692331482" lon="34.6172987390"><ele>182.76</ele><time>2026-08-22T19:15:38Z</time></trkpt><trkpt lat="59.3690891471" lon="34.6172780357"><ele>183.01</ele><time>2026-08-22T19:15:58Z</time></trkpt><trkpt lat="59.3689831998" lon="34.6171129961"><ele>183.25</ele><time>2026-08-22T19:16:18Z</time></trkpt><trkpt lat="59.3688903283" lon="34.6168950666"><ele>182.92</ele><time>2026-08-22T19:16:37Z</time></trkpt><trkpt lat="59.3688497599" lon="34.6167890355"><ele>182.89</ele><time>2026-08-22T19:16:48Z</time></trkpt><trkpt lat="59.3687948585" lon="34.6166328806"><ele>183.18</ele><time>2026-08-22T19:17:07Z</time></trkpt><trkpt lat="59.3687934335" lon="34.6166365687"><ele>180.09</ele><time>2026-08-22T19:17:34Z</time></trkpt><trkpt lat="59.3687937688" lon="34.6166362334"><ele>183.75</ele><time>2026-08-22T19:17:35Z</time></trkpt><trkpt lat="59.3687060941" lon="34.6165525820"><ele>182.58</ele><time>2026-08-22T19:18:05Z</time></trkpt><trkpt lat="59.3686993886" lon="34.6165465470"><ele>182.61</ele><time>2026-08-22T19:18:06Z</time></trkpt><trkpt lat="59.3686653581" lon="34.6165073197"><ele>183.28</ele><time>2026-08-22T19:18:26Z</time></trkpt><trkpt lat="59.3685725704" lon="34.6163816750"><ele>183.24</ele><time>2026-08-22T19:18:46Z</time></trkpt><trkpt lat="59.3685432337" lon="34.6163787413"><ele>183.19</ele><time>2026-08-22T19:18:49Z</time></trkpt><trkpt lat="59.3683611788" lon="34.6164341457"><ele>183.24</ele><time>2026-08-22T19:19:08Z</time></trkpt><trkpt lat="59.3682481907" lon="34.6164428629"><ele>182.84</ele><time>2026-08-22T19:19:25Z</time></trkpt><trkpt lat="59.3681133259" lon="34.6163603850"><ele>181.98</ele><time>2026-08-22T19:19:43Z</time></trkpt><trkpt lat="59.3680302612" lon="34.6162254363"><ele>181.60</ele><time>2026-08-22T19:20:02Z</time></trkpt><trkpt lat="59.3680228852" lon="34.6161453892"><ele>182.58</ele><time>2026-08-22T19:20:27Z</time></trkpt><trkpt lat="59.3680216279" lon="34.6161509212"><ele>182.36</ele><time>2026-08-22T19:21:16Z</time></trkpt><trkpt lat="59.3680112343" lon="34.6161616500"><ele>182.28</ele><time>2026-08-22T19:21:18Z</time></trkpt><trkpt lat="59.3678597733" lon="34.6161325648"><ele>181.63</ele><time>2026-08-22T19:21:37Z</time></trkpt><trkpt lat="59.3678287603" lon="34.6161487419"><ele>181.55</ele><time>2026-08-22T19:21:41Z</time></trkpt><trkpt lat="59.3677394930" lon="34.6161925793"><ele>182.20</ele><time>2026-08-22T19:21:52Z</time></trkpt><trkpt lat="59.3675664905" lon="34.6161961835"><ele>181.70</ele><time>2026-08-22T19:22:11Z</time></trkpt><trkpt lat="59.3674140237" lon="34.6162871271"><ele>182.12</ele><time>2026-08-22T19:22:28Z</time></trkpt><trkpt lat="59.3672518339" lon="34.6163557749"><ele>181.73</ele><time>2026-08-22T19:22:47Z</time></trkpt><trkpt lat="59.3671489879" lon="34.6162004583"><ele>182.78</ele><time>2026-08-22T19:23:03Z</time></trkpt><trkpt lat="59.3670952599" lon="34.6161253564"><ele>181.58</ele><time>2026-08-22T19:23:22Z</time></trkpt><trkpt lat="59.3670884706" lon="34.6161129512"><ele>182.44</ele><time>2026-08-22T19:24:03Z</time></trkpt><trkpt lat="59.3670866266" lon="34.6161248535"><ele>182.25</ele><time>2026-08-22T19:24:21Z</time></trkpt><trkpt lat="59.3670726288" lon="34.6160332393"><ele>182.07</ele><time>2026-08-22T19:24:27Z</time></trkpt><trkpt lat="59.3670563679" lon="34.6159835346"><ele>181.93</ele><time>2026-08-22T19:24:30Z</time></trkpt><trkpt lat="59.3669858761" lon="34.6157993842"><ele>181.59</ele><time>2026-08-22T19:24:43Z</time></trkpt><trkpt lat="59.3668821920" lon="34.6155210212"><ele>181.22</ele><time>2026-08-22T19:25:03Z</time></trkpt><trkpt lat="59.3668458983" lon="34.6153568197"><ele>181.53</ele><time>2026-08-22T19:25:19Z</time></trkpt><trkpt lat="59.3667763285" lon="34.6151344478"><ele>181.03</ele><time>2026-08-22T19:25:37Z</time></trkpt><trkpt lat="59.3667106982" lon="34.6150048636"><ele>180.88</ele><time>2026-08-22T19:25:56Z</time></trkpt><trkpt lat="59.3667097762" lon="34.6149978228"><ele>180.67</ele><time>2026-08-22T19:25:58Z</time></trkpt><trkpt lat="59.3666422181" lon="34.6147353854"><ele>180.31</ele><time>2026-08-22T19:26:17Z</time></trkpt><trkpt lat="59.3666141387" lon="34.6146670729"><ele>180.23</ele><time>2026-08-22T19:26:22Z</time></trkpt><trkpt lat="59.3665947765" lon="34.6146042924"><ele>179.12</ele><time>2026-08-22T19:26:26Z</time></trkpt><trkpt lat="59.3665887415" lon="34.6145706810"><ele>181.64</ele><time>2026-08-22T19:26:28Z</time></trkpt><trkpt lat="59.3665856402" lon="34.6145548392"><ele>180.82</ele><time>2026-08-22T19:26:29Z</time></trkpt><trkpt lat="59.3665769231" lon="34.6145298611"><ele>179.84</ele><time>2026-08-22T19:26:31Z</time></trkpt><trkpt lat="59.3665458262" lon="34.6143994387"><ele>179.82</ele><time>2026-08-22T19:26:40Z</time></trkpt><trkpt lat="59.3664964568" lon="34.6141457185"><ele>179.24</ele><time>2026-08-22T19:26:57Z</time></trkpt><trkpt lat="59.3664896674" lon="34.6141495742"><ele>179.00</ele><time>2026-08-22T19:27:32Z</time></trkpt><trkpt lat="59.3664879911" lon="34.6141433716"><ele>174.64</ele><time>2026-08-22T19:27:42Z</time></trkpt><trkpt lat="59.3664877396" lon="34.6141430363"><ele>179.91</ele><time>2026-08-22T19:27:43Z</time></trkpt><trkpt lat="59.3664819561" lon="34.6141409408"><ele>174.53</ele><time>2026-08-22T19:28:18Z</time></trkpt><trkpt lat="59.3664818723" lon="34.6141407732"><ele>179.05</ele><time>2026-08-22T19:28:19Z</time></trkpt><trkpt lat="59.3664328381" lon="34.6140673477"><ele>178.41</ele><time>2026-08-22T19:28:56Z</time></trkpt><trkpt lat="59.3664214388" lon="34.6140406933"><ele>177.39</ele><time>2026-08-22T19:28:58Z</time></trkpt><trkpt lat="59.3663923535" lon="34.6139567904"><ele>177.44</ele><time>2026-08-22T19:29:04Z</time></trkpt><trkpt lat="59.3663271423" lon="34.6138465684"><ele>177.34</ele><time>2026-08-22T19:29:14Z</time></trkpt><trkpt lat="59.3662984762" lon="34.6137456503"><ele>177.17</ele><time>2026-08-22T19:29:20Z</time></trkpt><trkpt lat="59.3662224524" lon="34.6135179978"><ele>177.15</ele><time>2026-08-22T19:29:37Z</time></trkpt><trkpt lat="59.3662049342" lon="34.6134894993"><ele>176.93</ele><time>2026-08-22T19:29:41Z</time></trkpt><trkpt lat="59.3661453389" lon="34.6134272218"><ele>177.32</ele><time>2026-08-22T19:29:48Z</time></trkpt><trkpt lat="59.3660370447" lon="34.6132128965"><ele>177.15</ele><time>2026-08-22T19:30:07Z</time></trkpt><trkpt lat="59.3660148326" lon="34.6131582465"><ele>177.38</ele><time>2026-08-22T19:30:13Z</time></trkpt><trkpt lat="59.3660078757" lon="34.6131238807"><ele>177.52</ele><time>2026-08-22T19:30:15Z</time></trkpt><trkpt lat="59.3659879267" lon="34.6130263992"><ele>177.48</ele><time>2026-08-22T19:30:21Z</time></trkpt><trkpt lat="59.3659419939" lon="34.6128920373"><ele>178.15</ele><time>2026-08-22T19:30:39Z</time></trkpt><trkpt lat="59.3659396470" lon="34.6128902771"><ele>177.56</ele><time>2026-08-22T19:31:11Z</time></trkpt><trkpt lat="59.3659439217" lon="34.6128199529"><ele>176.55</ele><time>2026-08-22T19:32:07Z</time></trkpt><trkpt lat="59.3659446761" lon="34.6128198691"><ele>176.38</ele><time>2026-08-22T19:32:08Z</time></trkpt><trkpt lat="59.3659492861" lon="34.6128160972"><ele>177.33</ele><time>2026-08-22T19:32:43Z</time></trkpt><trkpt lat="59.3659560755" lon="34.6128157619"><ele>177.95</ele><time>2026-08-22T19:33:13Z</time></trkpt><trkpt lat="59.3659463525" lon="34.6128212940"><ele>178.37</ele><time>2026-08-22T19:33:37Z</time></trkpt><trkpt lat="59.3659442570" lon="34.6128266584"><ele>178.48</ele><time>2026-08-22T19:34:27Z</time></trkpt><trkpt lat="59.3659412395" lon="34.6128144208"><ele>178.88</ele><time>2026-08-22T19:35:04Z</time></trkpt><trkpt lat="59.3659659661" lon="34.6128184441"><ele>178.89</ele><time>2026-08-22T19:35:23Z</time></trkpt><trkpt lat="59.3659513816" lon="34.6128044464"><ele>170.99</ele><time>2026-08-22T19:35:53Z</time></trkpt><trkpt lat="59.3659506273" lon="34.6128053684"><ele>184.09</ele><time>2026-08-22T19:35:54Z</time></trkpt><trkpt lat="59.3659503758" lon="34.6128061228"><ele>180.80</ele><time>2026-08-22T19:35:55Z</time></trkpt><trkpt lat="59.3659481965" lon="34.6128014289"><ele>180.44</ele><time>2026-08-22T19:37:02Z</time></trkpt><trkpt lat="59.3660373800" lon="34.6128162649"><ele>179.60</ele><time>2026-08-22T19:37:37Z</time></trkpt><trkpt lat="59.3660961371" lon="34.6127848327"><ele>179.86</ele><time>2026-08-22T19:38:00Z</time></trkpt><trkpt lat="59.3661339395" lon="34.6127619501"><ele>179.87</ele><time>2026-08-22T19:38:23Z</time></trkpt><trkpt lat="59.3662190996" lon="34.6128231380"><ele>181.12</ele><time>2026-08-22T19:38:48Z</time></trkpt><trkpt lat="59.3663303275" lon="34.6128487866"><ele>181.51</ele><time>2026-08-22T19:39:06Z</time></trkpt><trkpt lat="59.3663609214" lon="34.6128750220"><ele>181.25</ele><time>2026-08-22T19:39:32Z</time></trkpt><trkpt lat="59.3663819600" lon="34.6128709987"><ele>181.25</ele><time>2026-08-22T19:40:02Z</time></trkpt><trkpt lat="59.3664932717" lon="34.6129451785"><ele>180.97</ele><time>2026-08-22T19:40:23Z</time></trkpt><trkpt lat="59.3665775936" lon="34.6130991541"><ele>180.79</ele><time>2026-08-22T19:40:43Z</time></trkpt><trkpt lat="59.3666256219" lon="34.6132067777"><ele>180.83</ele><time>2026-08-22T19:41:04Z</time></trkpt><trkpt lat="59.3666598201" lon="34.6132233739"><ele>181.68</ele><time>2026-08-22T19:41:14Z</time></trkpt><trkpt lat="59.3666595686" lon="34.6132337674"><ele>177.96</ele><time>2026-08-22T19:41:36Z</time></trkpt><trkpt lat="59.3666636758" lon="34.6132372878"><ele>179.46</ele><time>2026-08-22T19:41:37Z</time></trkpt><trkpt lat="59.3666876480" lon="34.6132540517"><ele>181.01</ele><time>2026-08-22T19:41:39Z</time></trkpt><trkpt lat="59.3667896558" lon="34.6132658701"><ele>180.63</ele><time>2026-08-22T19:41:58Z</time></trkpt><trkpt lat="59.3669451401" lon="34.6132439934"><ele>180.94</ele><time>2026-08-22T19:42:14Z</time></trkpt><trkpt lat="59.3670282047" lon="34.6132307500"><ele>181.15</ele><time>2026-08-22T19:42:28Z</time></trkpt><trkpt lat="59.3670329824" lon="34.6132714860"><ele>181.19</ele><time>2026-08-22T19:43:03Z</time></trkpt><trkpt lat="59.3670255225" lon="34.6132660378"><ele>182.96</ele><time>2026-08-22T19:43:22Z</time></trkpt><trkpt lat="59.3670372572" lon="34.6133143175"><ele>181.13</ele><time>2026-08-22T19:43:44Z</time></trkpt><trkpt lat="59.3669975270" lon="34.6131615993"><ele>181.73</ele><time>2026-08-22T19:44:00Z</time></trkpt><trkpt lat="59.3669524323" lon="34.6129749343"><ele>182.14</ele><time>2026-08-22T19:44:13Z</time></trkpt><trkpt lat="59.3669122830" lon="34.6128406562"><ele>182.35</ele><time>2026-08-22T19:44:32Z</time></trkpt><trkpt lat="59.3668546993" lon="34.6126645524"><ele>182.32</ele><time>2026-08-22T19:44:46Z</time></trkpt><trkpt lat="59.3667526916" lon="34.6127053723"><ele>182.79</ele><time>2026-08-22T19:45:07Z</time></trkpt><trkpt lat="59.3666593172" lon="34.6126623731"><ele>183.30</ele><time>2026-08-22T19:45:25Z</time></trkpt><trkpt lat="59.3665615004" lon="34.6124517359"><ele>183.42</ele><time>2026-08-22T19:45:42Z</time></trkpt><trkpt lat="59.3664476741" lon="34.6123919729"><ele>183.82</ele><time>2026-08-22T19:46:02Z</time></trkpt><trkpt lat="59.3663507793" lon="34.6122552641"><ele>180.60</ele><time>2026-08-22T19:46:19Z</time></trkpt><trkpt lat="59.3663440738" lon="34.6122523304"><ele>184.26</ele><time>2026-08-22T19:46:20Z</time></trkpt><trkpt lat="59.3663239572" lon="34.6120529249"><ele>182.29</ele><time>2026-08-22T19:46:43Z</time></trkpt><trkpt lat="59.3662750069" lon="34.6118516754"><ele>181.20</ele><time>2026-08-22T19:46:58Z</time></trkpt><trkpt lat="59.3662739173" lon="34.6118237637"><ele>181.92</ele><time>2026-08-22T19:47:25Z</time></trkpt><trkpt lat="59.3662393838" lon="34.6118737198"><ele>180.92</ele><time>2026-08-22T19:47:30Z</time></trkpt><trkpt lat="59.3661774416" lon="34.6119390987"><ele>182.22</ele><time>2026-08-22T19:47:38Z</time></trkpt><trkpt lat="59.3661392201" lon="34.6120281983"><ele>181.46</ele><time>2026-08-22T19:47:44Z</time></trkpt><trkpt lat="59.3660963047" lon="34.6121078264"><ele>182.43</ele><time>2026-08-22T19:47:52Z</time></trkpt><trkpt lat="59.3660776969" lon="34.6121410187"><ele>181.42</ele><time>2026-08-22T19:47:58Z</time></trkpt><trkpt lat="59.3660571612" lon="34.6121796593"><ele>180.86</ele><time>2026-08-22T19:48:01Z</time></trkpt><trkpt lat="59.3659878429" lon="34.6124265902"><ele>180.42</ele><time>2026-08-22T19:48:21Z</time></trkpt><trkpt lat="59.3659944646" lon="34.6124406718"><ele>180.89</ele><time>2026-08-22T19:48:45Z</time></trkpt><trkpt lat="59.3660239689" lon="34.6124775521"><ele>179.95</ele><time>2026-08-22T19:49:12Z</time></trkpt><trkpt lat="59.3660160899" lon="34.6124949865"><ele>179.30</ele><time>2026-08-22T19:49:22Z</time></trkpt><trkpt lat="59.3659791257" lon="34.6125973295"><ele>178.71</ele><time>2026-08-22T19:49:28Z</time></trkpt><trkpt lat="59.3659579195" lon="34.6126422565"><ele>178.83</ele><time>2026-08-22T19:49:31Z</time></trkpt><trkpt lat="59.3659416586" lon="34.6128244791"><ele>179.10</ele><time>2026-08-22T19:49:48Z</time></trkpt><trkpt lat="59.3659347855" lon="34.6128429193"><ele>179.44</ele><time>2026-08-22T19:50:03Z</time></trkpt><trkpt lat="59.3658618629" lon="34.6128651313"><ele>179.18</ele><time>2026-08-22T19:50:19Z</time></trkpt><trkpt lat="59.3658406567" lon="34.6128736809"><ele>178.78</ele><time>2026-08-22T19:50:38Z</time></trkpt><trkpt lat="59.3658207916" lon="34.6128856670"><ele>178.13</ele><time>2026-08-22T19:51:03Z</time></trkpt><trkpt lat="59.3657713383" lon="34.6128817275"><ele>177.78</ele><time>2026-08-22T19:51:23Z</time></trkpt><trkpt lat="59.3657987472" lon="34.6129709948"><ele>178.45</ele><time>2026-08-22T19:51:40Z</time></trkpt><trkpt lat="59.3658003397" lon="34.6129705757"><ele>178.59</ele><time>2026-08-22T19:51:52Z</time></trkpt><trkpt lat="59.3658364657" lon="34.6129007544"><ele>178.86</ele><time>2026-08-22T19:52:10Z</time></trkpt><trkpt lat="59.3658292573" lon="34.6127047855"><ele>178.67</ele><time>2026-08-22T19:52:25Z</time></trkpt><trkpt lat="59.3657348771" lon="34.6125144325"><ele>178.17</ele><time>2026-08-22T19:52:44Z</time></trkpt><trkpt lat="59.3656380661" lon="34.6124995966"><ele>178.20</ele><time>2026-08-22T19:52:57Z</time></trkpt><trkpt lat="59.3656076398" lon="34.6125226468"><ele>178.60</ele><time>2026-08-22T19:53:01Z</time></trkpt><trkpt lat="59.3655609526" lon="34.6125672385"><ele>178.87</ele><time>2026-08-22T19:53:22Z</time></trkpt><trkpt lat="59.3655467872" lon="34.6126110759"><ele>178.73</ele><time>2026-08-22T19:53:40Z</time></trkpt><trkpt lat="59.3655364774" lon="34.6126067173"><ele>179.41</ele><time>2026-08-22T19:54:15Z</time></trkpt><trkpt lat="59.3654815760" lon="34.6126354672"><ele>178.77</ele><time>2026-08-22T19:54:34Z</time></trkpt><trkpt lat="59.3654061388" lon="34.6126552485"><ele>179.10</ele><time>2026-08-22T19:54:50Z</time></trkpt><trkpt lat="59.3653327972" lon="34.6126322821"><ele>179.47</ele><time>2026-08-22T19:55:09Z</time></trkpt><trkpt lat="59.3653017841" lon="34.6127082221"><ele>179.48</ele><time>2026-08-22T19:55:27Z</time></trkpt><trkpt lat="59.3651756365" lon="34.6127741039"><ele>178.88</ele><time>2026-08-22T19:55:46Z</time></trkpt><trkpt lat="59.3651614711" lon="34.6127800550"><ele>178.89</ele><time>2026-08-22T19:55:47Z</time></trkpt><trkpt lat="59.3650770653" lon="34.6128476970"><ele>178.61</ele><time>2026-08-22T19:55:57Z</time></trkpt><trkpt lat="59.3650173862" lon="34.6128163487"><ele>178.61</ele><time>2026-08-22T19:56:10Z</time></trkpt><trkpt lat="59.3649503309" lon="34.6127784625"><ele>178.81</ele><time>2026-08-22T19:56:27Z</time></trkpt><trkpt lat="59.3648142926" lon="34.6126496326"><ele>178.67</ele><time>2026-08-22T19:56:43Z</time></trkpt><trkpt lat="59.3646888994" lon="34.6127193701"><ele>178.63</ele><time>2026-08-22T19:56:57Z</time></trkpt><trkpt lat="59.3646122888" lon="34.6127736848"><ele>177.75</ele><time>2026-08-22T19:57:06Z</time></trkpt><trkpt lat="59.3645818625" lon="34.6127903648"><ele>178.27</ele><time>2026-08-22T19:57:09Z</time></trkpt><trkpt lat="59.3645273801" lon="34.6128065418"><ele>177.98</ele><time>2026-08-22T19:57:15Z</time></trkpt><trkpt lat="59.3645093590" lon="34.6128284186"><ele>178.43</ele><time>2026-08-22T19:57:32Z</time></trkpt><trkpt lat="59.3645073473" lon="34.6128184441"><ele>177.18</ele><time>2026-08-22T19:58:20Z</time></trkpt><trkpt lat="59.3645073473" lon="34.6128184441"><ele>177.18</ele><time>2026-08-22T19:58:21Z</time></trkpt><trkpt lat="59.3645064253" lon="34.6128324419"><ele>178.93</ele><time>2026-08-22T19:59:07Z</time></trkpt><trkpt lat="59.3644897453" lon="34.6128632873"><ele>179.52</ele><time>2026-08-22T19:59:58Z</time></trkpt><trkpt lat="59.3645446468" lon="34.6127722599"><ele>179.67</ele><time>2026-08-22T20:00:24Z</time></trkpt><trkpt lat="59.3647132069" lon="34.6126487106"><ele>180.57</ele><time>2026-08-22T20:00:43Z</time></trkpt><trkpt lat="59.3647994567" lon="34.6126522310"><ele>180.52</ele><time>2026-08-22T20:00:56Z</time></trkpt><trkpt lat="59.3648723792" lon="34.6126362216"><ele>180.81</ele><time>2026-08-22T20:01:04Z</time></trkpt><trkpt lat="59.3650035560" lon="34.6127526462"><ele>180.92</ele><time>2026-08-22T20:01:21Z</time></trkpt><trkpt lat="59.3650682643" lon="34.6127755288"><ele>181.36</ele><time>2026-08-22T20:01:28Z</time></trkpt><trkpt lat="59.3651981838" lon="34.6127261594"><ele>181.51</ele><time>2026-08-22T20:01:42Z</time></trkpt><trkpt lat="59.3652585335" lon="34.6126781311"><ele>181.66</ele><time>2026-08-22T20:01:54Z</time></trkpt><trkpt lat="59.3653932307" lon="34.6126176976"><ele>181.34</ele><time>2026-08-22T20:02:08Z</time></trkpt><trkpt lat="59.3654950708" lon="34.6125874389"><ele>181.75</ele><time>2026-08-22T20:02:21Z</time></trkpt><trkpt lat="59.3655316997" lon="34.6125593595"><ele>182.11</ele><time>2026-08-22T20:02:25Z</time></trkpt><trkpt lat="59.3655940611" lon="34.6125064697"><ele>181.87</ele><time>2026-08-22T20:02:33Z</time></trkpt><trkpt lat="59.3656225596" lon="34.6124712657"><ele>181.74</ele><time>2026-08-22T20:02:37Z</time></trkpt><trkpt lat="59.3657249864" lon="34.6123240795"><ele>181.79</ele><time>2026-08-22T20:02:55Z</time></trkpt><trkpt lat="59.3657639623" lon="34.6122833434"><ele>178.55</ele><time>2026-08-22T20:03:11Z</time></trkpt><trkpt lat="59.3657669798" lon="34.6122849360"><ele>183.70</ele><time>2026-08-22T20:03:13Z</time></trkpt><trkpt lat="59.3657673988" lon="34.6122849360"><ele>182.56</ele><time>2026-08-22T20:03:14Z</time></trkpt><trkpt lat="59.3657710869" lon="34.6122822538"><ele>183.40</ele><time>2026-08-22T20:03:20Z</time></trkpt><trkpt lat="59.3657845818" lon="34.6123905480"><ele>182.04</ele><time>2026-08-22T20:03:43Z</time></trkpt><trkpt lat="59.3658524752" lon="34.6124600340"><ele>181.85</ele><time>2026-08-22T20:03:57Z</time></trkpt><trkpt lat="59.3659402337" lon="34.6124984231"><ele>181.80</ele><time>2026-08-22T20:04:11Z</time></trkpt><trkpt lat="59.3660329375" lon="34.6125358902"><ele>182.08</ele><time>2026-08-22T20:04:29Z</time></trkpt><trkpt lat="59.3660368770" lon="34.6125111636"><ele>181.79</ele><time>2026-08-22T20:05:05Z</time></trkpt><trkpt lat="59.3660563231" lon="34.6124703437"><ele>181.61</ele><time>2026-08-22T20:05:08Z</time></trkpt><trkpt lat="59.3661305867" lon="34.6123733651"><ele>181.63</ele><time>2026-08-22T20:05:17Z</time></trkpt><trkpt lat="59.3661924452" lon="34.6120996960"><ele>181.32</ele><time>2026-08-22T20:05:33Z</time></trkpt><trkpt lat="59.3662950397" lon="34.6118337382"><ele>181.32</ele><time>2026-08-22T20:05:52Z</time></trkpt><trkpt lat="59.3663196824" lon="34.6117338259"><ele>181.18</ele><time>2026-08-22T20:05:59Z</time></trkpt><trkpt lat="59.3664247915" lon="34.6114752442"><ele>181.31</ele><time>2026-08-22T20:06:19Z</time></trkpt><trkpt lat="59.3665156513" lon="34.6112996433"><ele>181.54</ele><time>2026-08-22T20:06:36Z</time></trkpt><trkpt lat="59.3665367737" lon="34.6112617571"><ele>182.30</ele><time>2026-08-22T20:06:55Z</time></trkpt><trkpt lat="59.3665852211" lon="34.6111966297"><ele>181.95</ele><time>2026-08-22T20:07:31Z</time></trkpt><trkpt lat="59.3666695431" lon="34.6109480225"><ele>182.38</ele><time>2026-08-22T20:07:51Z</time></trkpt><trkpt lat="59.3666944373" lon="34.6106913686"><ele>182.07</ele><time>2026-08-22T20:08:11Z</time></trkpt><trkpt lat="59.3667199183" lon="34.6106167696"><ele>182.23</ele><time>2026-08-22T20:08:19Z</time></trkpt><trkpt lat="59.3667592295" lon="34.6104862634"><ele>182.58</ele><time>2026-08-22T20:08:28Z</time></trkpt><trkpt lat="59.3667947687" lon="34.6102089901"><ele>182.68</ele><time>2026-08-22T20:08:48Z</time></trkpt><trkpt lat="59.3668802641" lon="34.6100788191"><ele>182.56</ele><time>2026-08-22T20:09:05Z</time></trkpt><trkpt lat="59.3669233471" lon="34.6099986881"><ele>181.30</ele><time>2026-08-22T20:09:13Z</time></trkpt><trkpt lat="59.3669808470" lon="34.6097957622"><ele>181.95</ele><time>2026-08-22T20:09:29Z</time></trkpt><trkpt lat="59.3670893926" lon="34.6096895635"><ele>181.94</ele><time>2026-08-22T20:09:49Z</time></trkpt><trkpt lat="59.3670996185" lon="34.6097040642"><ele>181.18</ele><time>2026-08-22T20:10:26Z</time></trkpt><trkpt lat="59.3671154603" lon="34.6097111888"><ele>180.86</ele><time>2026-08-22T20:11:15Z</time></trkpt><trkpt lat="59.3672369979" lon="34.6097183973"><ele>180.30</ele><time>2026-08-22T20:11:27Z</time></trkpt><trkpt lat="59.3674141914" lon="34.6098162979"><ele>180.81</ele><time>2026-08-22T20:11:48Z</time></trkpt><trkpt lat="59.3674775586" lon="34.6098302957"><ele>180.52</ele><time>2026-08-22T20:12:02Z</time></trkpt><trkpt lat="59.3675730284" lon="34.6097439621"><ele>179.38</ele><time>2026-08-22T20:12:18Z</time></trkpt><trkpt lat="59.3676918000" lon="34.6097109374"><ele>180.32</ele><time>2026-08-22T20:12:35Z</time></trkpt><trkpt lat="59.3678071350" lon="34.6095876396"><ele>180.20</ele><time>2026-08-22T20:12:53Z</time></trkpt><trkpt lat="59.3678952288" lon="34.6094689518"><ele>180.48</ele><time>2026-08-22T20:13:08Z</time></trkpt><trkpt lat="59.3680506293" lon="34.6093104500"><ele>180.22</ele><time>2026-08-22T20:13:30Z</time></trkpt><trkpt lat="59.3681190256" lon="34.6092471667"><ele>180.64</ele><time>2026-08-22T20:13:48Z</time></trkpt><trkpt lat="59.3681247253" lon="34.6092480887"><ele>180.97</ele><time>2026-08-22T20:14:19Z</time></trkpt><trkpt lat="59.3681129906" lon="34.6092702169"><ele>180.54</ele><time>2026-08-22T20:14:30Z</time></trkpt><trkpt lat="59.3680893537" lon="34.6092529502"><ele>181.51</ele><time>2026-08-22T20:14:53Z</time></trkpt><trkpt lat="59.3681067880" lon="34.6092694625"><ele>182.03</ele><time>2026-08-22T20:15:30Z</time></trkpt><trkpt lat="59.3681157567" lon="34.6092575602"><ele>181.69</ele><time>2026-08-22T20:16:06Z</time></trkpt><trkpt lat="59.3680997472" lon="34.6092411317"><ele>182.32</ele><time>2026-08-22T20:16:52Z</time></trkpt><trkpt lat="59.3680876773" lon="34.6092433948"><ele>181.89</ele><time>2026-08-22T20:17:53Z</time></trkpt><trkpt lat="59.3681150861" lon="34.6092505194"><ele>183.02</ele><time>2026-08-22T20:18:33Z</time></trkpt><trkpt lat="59.3682689779" lon="34.6092039999"><ele>182.18</ele><time>2026-08-22T20:18:47Z</time></trkpt><trkpt lat="59.3684205227" lon="34.6092660259"><ele>182.51</ele><time>2026-08-22T20:19:04Z</time></trkpt><trkpt lat="59.3685079459" lon="34.6093243640"><ele>182.01</ele><time>2026-08-22T20:19:19Z</time></trkpt><trkpt lat="59.3685982190" lon="34.6092415508"><ele>182.32</ele><time>2026-08-22T20:19:32Z</time></trkpt><trkpt lat="59.3687264621" lon="34.6092662774"><ele>181.67</ele><time>2026-08-22T20:19:47Z</time></trkpt><trkpt lat="59.3688587286" lon="34.6092895791"><ele>183.85</ele><time>2026-08-22T20:20:02Z</time></trkpt><trkpt lat="59.3688874785" lon="34.6092849690"><ele>182.40</ele><time>2026-08-22T20:20:05Z</time></trkpt><trkpt lat="59.3688831199" lon="34.6092328336"><ele>182.34</ele><time>2026-08-22T20:20:29Z</time></trkpt><trkpt lat="59.3689201679" lon="34.6092618350"><ele>183.02</ele><time>2026-08-22T20:20:55Z</time></trkpt><trkpt lat="59.3689272925" lon="34.6092674509"><ele>182.99</ele><time>2026-08-22T20:20:56Z</time></trkpt><trkpt lat="59.3690416217" lon="34.6093317401"><ele>182.94</ele><time>2026-08-22T20:21:10Z</time></trkpt><trkpt lat="59.3691338226" lon="34.6093095280"><ele>183.21</ele><time>2026-08-22T20:21:27Z</time></trkpt><trkpt lat="59.3692035601" lon="34.6092833765"><ele>183.14</ele><time>2026-08-22T20:21:35Z</time></trkpt><trkpt lat="59.3692880496" lon="34.6091796923"><ele>182.79</ele><time>2026-08-22T20:21:49Z</time></trkpt><trkpt lat="59.3693971820" lon="34.6092850529"><ele>182.60</ele><time>2026-08-22T20:22:05Z</time></trkpt><trkpt lat="59.3694502395" lon="34.6092959493"><ele>182.32</ele><time>2026-08-22T20:22:21Z</time></trkpt><trkpt lat="59.3694638181" lon="34.6093049180"><ele>181.80</ele><time>2026-08-22T20:22:37Z</time></trkpt><trkpt lat="59.3694829289" lon="34.6093549579"><ele>181.47</ele><time>2026-08-22T20:22:40Z</time></trkpt><trkpt lat="59.3695257604" lon="34.6094241925"><ele>181.33</ele><time>2026-08-22T20:22:45Z</time></trkpt><trkpt lat="59.3696165364" lon="34.6095030662"><ele>182.07</ele><time>2026-08-22T20:23:06Z</time></trkpt><trkpt lat="59.3696313724" lon="34.6094697900"><ele>180.57</ele><time>2026-08-22T20:23:39Z</time></trkpt><trkpt lat="59.3696446996" lon="34.6094560437"><ele>181.58</ele><time>2026-08-22T20:24:39Z</time></trkpt><trkpt lat="59.3696289416" lon="34.6095484961"><ele>181.57</ele><time>2026-08-22T20:25:02Z</time></trkpt><trkpt lat="59.3696395867" lon="34.6095372643"><ele>182.56</ele><time>2026-08-22T20:25:55Z</time></trkpt><trkpt lat="59.3696383294" lon="34.6095333248"><ele>178.39</ele><time>2026-08-22T20:26:04Z</time></trkpt><trkpt lat="59.3696383294" lon="34.6095334925"><ele>181.93</ele><time>2026-08-22T20:26:05Z</time></trkpt><trkpt lat="59.3696275167" lon="34.6094876435"><ele>182.49</ele><time>2026-08-22T20:26:50Z</time></trkpt><trkpt lat="59.3696387485" lon="34.6095789224"><ele>182.39</ele><time>2026-08-22T20:27:30Z</time></trkpt><trkpt lat="59.3696504831" lon="34.6096291300"><ele>182.61</ele><time>2026-08-22T20:27:33Z</time></trkpt><trkpt lat="59.3697148561" lon="34.6097958460"><ele>182.35</ele><time>2026-08-22T20:27:44Z</time></trkpt><trkpt lat="59.3697571848" lon="34.6099173836"><ele>182.87</ele><time>2026-08-22T20:27:52Z</time></trkpt><trkpt lat="59.3697967473" lon="34.6100152843"><ele>182.86</ele><time>2026-08-22T20:27:59Z</time></trkpt><trkpt lat="59.3699238170" lon="34.6102968324"><ele>183.01</ele><time>2026-08-22T20:28:21Z</time></trkpt><trkpt lat="59.3699478731" lon="34.6103465371"><ele>183.19</ele><time>2026-08-22T20:28:25Z</time></trkpt><trkpt lat="59.3699859269" lon="34.6104468685"><ele>183.05</ele><time>2026-08-22T20:28:32Z</time></trkpt><trkpt lat="59.3700168561" lon="34.6105251554"><ele>183.13</ele><time>2026-08-22T20:28:52Z</time></trkpt><trkpt lat="59.3700915389" lon="34.6107587591"><ele>182.04</ele><time>2026-08-22T20:29:10Z</time></trkpt><trkpt lat="59.3700919580" lon="34.6107764449"><ele>182.02</ele><time>2026-08-22T20:29:11Z</time></trkpt><trkpt lat="59.3700930476" lon="34.6107943822"><ele>181.89</ele><time>2026-08-22T20:29:12Z</time></trkpt><trkpt lat="59.3701577559" lon="34.6110312548"><ele>182.29</ele><time>2026-08-22T20:29:31Z</time></trkpt><trkpt lat="59.3702635355" lon="34.6112155728"><ele>182.25</ele><time>2026-08-22T20:29:50Z</time></trkpt><trkpt lat="59.3702558242" lon="34.6112300735"><ele>181.78</ele><time>2026-08-22T20:30:14Z</time></trkpt><trkpt lat="59.3702613562" lon="34.6112451609"><ele>181.08</ele><time>2026-08-22T20:30:35Z</time></trkpt><trkpt lat="59.3702741805" lon="34.6113506891"><ele>181.27</ele><time>2026-08-22T20:30:42Z</time></trkpt><trkpt lat="59.3702896871" lon="34.6116088517"><ele>181.76</ele><time>2026-08-22T20:30:57Z</time></trkpt><trkpt lat="59.3702882621" lon="34.6118276194"><ele>181.07</ele><time>2026-08-22T20:31:12Z</time></trkpt><trkpt lat="59.3703643698" lon="34.6121011209"><ele>181.13</ele><time>2026-08-22T20:31:30Z</time></trkpt><trkpt lat="59.3704120629" lon="34.6121882927"><ele>180.94</ele><time>2026-08-22T20:31:38Z</time></trkpt><trkpt lat="59.3704699818" lon="34.6122388355"><ele>181.25</ele><time>2026-08-22T20:31:45Z</time></trkpt><trkpt lat="59.3705763482" lon="34.6124182921"><ele>181.18</ele><time>2026-08-22T20:32:00Z</time></trkpt><trkpt lat="59.3706425652" lon="34.6125364769"><ele>181.14</ele><time>2026-08-22T20:32:10Z</time></trkpt><trkpt lat="59.3706869893" lon="34.6126084775"><ele>181.21</ele><time>2026-08-22T20:32:16Z</time></trkpt><trkpt lat="59.3707427289" lon="34.6127785463"><ele>180.69</ele><time>2026-08-22T20:32:27Z</time></trkpt><trkpt lat="59.3707609177" lon="34.6128187794"><ele>180.59</ele><time>2026-08-22T20:32:30Z</time></trkpt><trkpt lat="59.3707734905" lon="34.6128944680"><ele>181.34</ele><time>2026-08-22T20:32:48Z</time></trkpt><trkpt lat="59.3707750831" lon="34.6128973179"><ele>182.54</ele><time>2026-08-22T20:33:24Z</time></trkpt><trkpt lat="59.3707776815" lon="34.6129149199"><ele>181.08</ele><time>2026-08-22T20:33:49Z</time></trkpt><trkpt lat="59.3708130531" lon="34.6130198613"><ele>180.94</ele><time>2026-08-22T20:33:56Z</time></trkpt><trkpt lat="59.3708690442" lon="34.6131435782"><ele>180.97</ele><time>2026-08-22T20:34:05Z</time></trkpt><trkpt lat="59.3708933517" lon="34.6131618507"><ele>180.70</ele><time>2026-08-22T20:34:08Z</time></trkpt><trkpt lat="59.3709905818" lon="34.6132620983"><ele>180.97</ele><time>2026-08-22T20:34:19Z</time></trkpt><trkpt lat="59.3710283842" lon="34.6132844780"><ele>181.35</ele><time>2026-08-22T20:34:23Z</time></trkpt><trkpt lat="59.3711831979" lon="34.6132916864"><ele>181.94</ele><time>2026-08-22T20:34:42Z</time></trkpt><trkpt lat="59.3711925857" lon="34.6133168321"><ele>181.15</ele><time>2026-08-22T20:34:57Z</time></trkpt><trkpt lat="59.3712222576" lon="34.6134955343"><ele>181.74</ele><time>2026-08-22T20:35:16Z</time></trkpt><trkpt lat="59.3712312263" lon="34.6135014854"><ele>181.44</ele><time>2026-08-22T20:35:23Z</time></trkpt><trkpt lat="59.3712430447" lon="34.6135675348"><ele>181.60</ele><time>2026-08-22T20:35:45Z</time></trkpt><trkpt lat="59.3712773267" lon="34.6138265356"><ele>181.81</ele><time>2026-08-22T20:36:01Z</time></trkpt><trkpt lat="59.3713296298" lon="34.6140113566"><ele>182.08</ele><time>2026-08-22T20:36:17Z</time></trkpt><trkpt lat="59.3713006284" lon="34.6140951756"><ele>181.52</ele><time>2026-08-22T20:36:46Z</time></trkpt><trkpt lat="59.3711615726" lon="34.6141578723"><ele>182.32</ele><time>2026-08-22T20:37:03Z</time></trkpt><trkpt lat="59.3711303920" lon="34.6141527593"><ele>182.36</ele><time>2026-08-22T20:37:35Z</time></trkpt><trkpt lat="59.3711325713" lon="34.6141449641"><ele>179.33</ele><time>2026-08-22T20:37:39Z</time></trkpt><trkpt lat="59.3711330742" lon="34.6141404379"><ele>182.35</ele><time>2026-08-22T20:37:40Z</time></trkpt><trkpt lat="59.3711347505" lon="34.6141321398"><ele>184.24</ele><time>2026-08-22T20:37:42Z</time></trkpt><trkpt lat="59.3711514305" lon="34.6141192317"><ele>182.64</ele><time>2026-08-22T20:37:59Z</time></trkpt><trkpt lat="59.3711416237" lon="34.6141105983"><ele>183.14</ele><time>2026-08-22T20:38:36Z</time></trkpt><trkpt lat="59.3711671885" lon="34.6141203213"><ele>182.87</ele><time>2026-08-22T20:38:57Z</time></trkpt><trkpt lat="59.3711693678" lon="34.6141168848"><ele>182.84</ele><time>2026-08-22T20:39:06Z</time></trkpt><trkpt lat="59.3711855449" lon="34.6140581276"><ele>183.00</ele><time>2026-08-22T20:39:09Z</time></trkpt><trkpt lat="59.3712227605" lon="34.6139383502"><ele>182.72</ele><time>2026-08-22T20:39:15Z</time></trkpt><trkpt lat="59.3713038974" lon="34.6136751585"><ele>182.68</ele><time>2026-08-22T20:39:31Z</time></trkpt><trkpt lat="59.3713094294" lon="34.6136230230"><ele>182.57</ele><time>2026-08-22T20:39:34Z</time></trkpt><trkpt lat="59.3713537697" lon="34.6135282237"><ele>182.91</ele><time>2026-08-22T20:39:41Z</time></trkpt><trkpt lat="59.3713630736" lon="34.6134292334"><ele>182.89</ele><time>2026-08-22T20:39:47Z</time></trkpt><trkpt lat="59.3713853694" lon="34.6132793650"><ele>183.33</ele><time>2026-08-22T20:39:56Z</time></trkpt><trkpt lat="59.3713967688" lon="34.6132288221"><ele>183.12</ele><time>2026-08-22T20:39:59Z</time></trkpt><trkpt lat="59.3714442942" lon="34.6130925324"><ele>183.02</ele><time>2026-08-22T20:40:08Z</time></trkpt><trkpt lat="59.3715116847" lon="34.6129996609"><ele>183.62</ele><time>2026-08-22T20:40:17Z</time></trkpt><trkpt lat="59.3715928216" lon="34.6128480323"><ele>183.85</ele><time>2026-08-22T20:40:29Z</time></trkpt><trkpt lat="59.3717362359" lon="34.6127217170"><ele>183.44</ele><time>2026-08-22T20:40:50Z</time></trkpt><trkpt lat="59.3717437796" lon="34.6127298474"><ele>183.47</ele><time>2026-08-22T20:41:29Z</time></trkpt><trkpt lat="59.3717834260" lon="34.6127352957"><ele>183.80</ele><time>2026-08-22T20:42:01Z</time></trkpt><trkpt lat="59.3718558457" lon="34.6127597708"><ele>183.74</ele><time>2026-08-22T20:42:09Z</time></trkpt><trkpt lat="59.3720228970" lon="34.6127364691"><ele>184.90</ele><time>2026-08-22T20:42:26Z</time></trkpt><trkpt lat="59.3720894493" lon="34.6127674822"><ele>183.99</ele><time>2026-08-22T20:42:33Z</time></trkpt><trkpt lat="59.3722440954" lon="34.6128076315"><ele>183.85</ele><time>2026-08-22T20:42:50Z</time></trkpt><trkpt lat="59.3723414931" lon="34.6128546540"><ele>183.78</ele><time>2026-08-22T20:43:00Z</time></trkpt><trkpt lat="59.3723865878" lon="34.6128316876"><ele>183.62</ele><time>2026-08-22T20:43:05Z</time></trkpt><trkpt lat="59.3724452611" lon="34.6128279995"><ele>183.47</ele><time>2026-08-22T20:43:18Z</time></trkpt><trkpt lat="59.3725712411" lon="34.6128190309"><ele>183.59</ele><time>2026-08-22T20:43:33Z</time></trkpt><trkpt lat="59.3726369552" lon="34.6127378941"><ele>182.99</ele><time>2026-08-22T20:43:43Z</time></trkpt><trkpt lat="59.3727379572" lon="34.6125303581"><ele>183.51</ele><time>2026-08-22T20:44:00Z</time></trkpt><trkpt lat="59.3727972172" lon="34.6124447789"><ele>183.83</ele><time>2026-08-22T20:44:18Z</time></trkpt><trkpt lat="59.3727905955" lon="34.6124340501"><ele>183.55</ele><time>2026-08-22T20:44:55Z</time></trkpt><trkpt lat="59.3728351872" lon="34.6123985946"><ele>183.03</ele><time>2026-08-22T20:45:00Z</time></trkpt><trkpt lat="59.3729755841" lon="34.6123216487"><ele>184.32</ele><time>2026-08-22T20:45:16Z</time></trkpt><trkpt lat="59.3730233610" lon="34.6123507340"><ele>184.01</ele><time>2026-08-22T20:45:21Z</time></trkpt><trkpt lat="59.3730371911" lon="34.6123543382"><ele>183.74</ele><time>2026-08-22T20:45:23Z</time></trkpt><trkpt lat="59.3731201719" lon="34.6122883726"><ele>183.60</ele><time>2026-08-22T20:45:32Z</time></trkpt><trkpt lat="59.3731567170" lon="34.6122573595"><ele>183.49</ele><time>2026-08-22T20:45:36Z</time></trkpt><trkpt lat="59.3732770812" lon="34.6121424437"><ele>183.79</ele><time>2026-08-22T20:45:56Z</time></trkpt><trkpt lat="59.3733752333" lon="34.6119837742"><ele>183.52</ele><time>2026-08-22T20:46:17Z</time></trkpt><trkpt lat="59.3734162208" lon="34.6119198203"><ele>182.59</ele><time>2026-08-22T20:46:43Z</time></trkpt><trkpt lat="59.3734078389" lon="34.6119225863"><ele>181.13</ele><time>2026-08-22T20:47:19Z</time></trkpt><trkpt lat="59.3734071683" lon="34.6119230893"><ele>182.82</ele><time>2026-08-22T20:47:26Z</time></trkpt><trkpt lat="59.3733993731" lon="34.6119219996"><ele>183.44</ele><time>2026-08-22T20:47:50Z</time></trkpt><trkpt lat="59.3733905721" lon="34.6119342372"><ele>179.97</ele><time>2026-08-22T20:48:11Z</time></trkpt><trkpt lat="59.3733904883" lon="34.6119350754"><ele>184.54</ele><time>2026-08-22T20:48:12Z</time></trkpt><trkpt lat="59.3733903207" lon="34.6119351592"><ele>184.55</ele><time>2026-08-22T20:48:13Z</time></trkpt><trkpt lat="59.3733925000" lon="34.6119335666"><ele>182.73</ele><time>2026-08-22T20:48:22Z</time></trkpt><trkpt lat="59.3734048214" lon="34.6119376738"><ele>182.59</ele><time>2026-08-22T20:49:10Z</time></trkpt><trkpt lat="59.3734075874" lon="34.6119279508"><ele>184.42</ele><time>2026-08-22T20:50:06Z</time></trkpt><trkpt lat="59.3734197412" lon="34.6119653340"><ele>183.51</ele><time>2026-08-22T20:50:53Z</time></trkpt><trkpt lat="59.3735090923" lon="34.6122478880"><ele>183.86</ele><time>2026-08-22T20:51:11Z</time></trkpt><trkpt lat="59.3735258561" lon="34.6123006940"><ele>183.58</ele><time>2026-08-22T20:51:15Z</time></trkpt><trkpt lat="59.3736138660" lon="34.6124003548"><ele>183.91</ele><time>2026-08-22T20:51:25Z</time></trkpt><trkpt lat="59.3736252654" lon="34.6124340501"><ele>184.19</ele><time>2026-08-22T20:51:27Z</time></trkpt><trkpt lat="59.3736520875" lon="34.6124891192"><ele>184.20</ele><time>2026-08-22T20:51:31Z</time></trkpt><trkpt lat="59.3736645766" lon="34.6125212219"><ele>184.00</ele><time>2026-08-22T20:51:33Z</time></trkpt><trkpt lat="59.3736883812" lon="34.6125702560"><ele>183.91</ele><time>2026-08-22T20:51:36Z</time></trkpt><trkpt lat="59.3737697694" lon="34.6127711702"><ele>184.10</ele><time>2026-08-22T20:51:53Z</time></trkpt><trkpt lat="59.3738567736" lon="34.6128767822"><ele>181.99</ele><time>2026-08-22T20:52:07Z</time></trkpt><trkpt lat="59.3738870323" lon="34.6129151713"><ele>183.37</ele><time>2026-08-22T20:52:15Z</time></trkpt><trkpt lat="59.3739071488" lon="34.6129515488"><ele>183.71</ele><time>2026-08-22T20:52:18Z</time></trkpt><trkpt lat="59.3739171233" lon="34.6132043470"><ele>184.18</ele><time>2026-08-22T20:52:34Z</time></trkpt><trkpt lat="59.3739334680" lon="34.6132992301"><ele>183.77</ele><time>2026-08-22T20:52:40Z</time></trkpt><trkpt lat="59.3740324583" lon="34.6134127211"><ele>183.52</ele><time>2026-08-22T20:52:58Z</time></trkpt><trkpt lat="59.3740428519" lon="34.6133751702"><ele>183.28</ele><time>2026-08-22T20:53:20Z</time></trkpt><trkpt lat="59.3740485515" lon="34.6134048421"><ele>183.62</ele><time>2026-08-22T20:54:03Z</time></trkpt><trkpt lat="59.3740558438" lon="34.6133922692"><ele>183.17</ele><time>2026-08-22T20:54:56Z</time></trkpt><trkpt lat="59.3740696739" lon="34.6133963764"><ele>183.11</ele><time>2026-08-22T20:55:06Z</time></trkpt><trkpt lat="59.3740891200" lon="34.6133877430"><ele>183.25</ele><time>2026-08-22T20:55:08Z</time></trkpt><trkpt lat="59.3742246553" lon="34.6133206878"><ele>183.24</ele><time>2026-08-22T20:55:26Z</time></trkpt><trkpt lat="59.3743733503" lon="34.6134355199"><ele>183.20</ele><time>2026-08-22T20:55:45Z</time></trkpt><trkpt lat="59.3743906170" lon="34.6134358551"><ele>183.21</ele><time>2026-08-22T20:55:47Z</time></trkpt><trkpt lat="59.3745104782" lon="34.6134634316"><ele>183.02</ele><time>2026-08-22T20:56:06Z</time></trkpt><trkpt lat="59.3745389767" lon="34.6134947799"><ele>182.97</ele><time>2026-08-22T20:56:12Z</time></trkpt><trkpt lat="59.3745978177" lon="34.6136130486"><ele>182.75</ele><time>2026-08-22T20:56:24Z</time></trkpt><trkpt lat="59.3746379670" lon="34.6136045828"><ele>181.45</ele><time>2026-08-22T20:56:31Z</time></trkpt><trkpt lat="59.3747084588" lon="34.6136318240"><ele>183.81</ele><time>2026-08-22T20:56:49Z</time></trkpt><trkpt lat="59.3747144938" lon="34.6136280522"><ele>183.89</ele><time>2026-08-22T20:56:50Z</time></trkpt><trkpt lat="59.3747420702" lon="34.6136312373"><ele>182.34</ele><time>2026-08-22T20:57:31Z</time></trkpt><trkpt lat="59.3747283239" lon="34.6136299800"><ele>182.91</ele><time>2026-08-22T20:58:34Z</time></trkpt><trkpt lat="59.3748236261" lon="34.6136570536"><ele>183.66</ele><time>2026-08-22T20:58:52Z</time></trkpt><trkpt lat="59.3749296572" lon="34.6136471629"><ele>183.27</ele><time>2026-08-22T20:59:06Z</time></trkpt><trkpt lat="59.3749829661" lon="34.6136793494"><ele>183.21</ele><time>2026-08-22T20:59:31Z</time></trkpt><trkpt lat="59.3749868218" lon="34.6137563791"><ele>183.40</ele><time>2026-08-22T20:59:49Z</time></trkpt><trkpt lat="59.3750148173" lon="34.6137825307"><ele>183.71</ele><time>2026-08-22T21:00:09Z</time></trkpt><trkpt lat="59.3750096206" lon="34.6138908248"><ele>183.41</ele><time>2026-08-22T21:00:31Z</time></trkpt><trkpt lat="59.3749913480" lon="34.6141208243"><ele>182.95</ele><time>2026-08-22T21:00:44Z</time></trkpt><trkpt lat="59.3749806192" lon="34.6142487321"><ele>182.57</ele><time>2026-08-22T21:00:55Z</time></trkpt><trkpt lat="59.3749111332" lon="34.6144537535"><ele>182.22</ele><time>2026-08-22T21:01:14Z</time></trkpt><trkpt lat="59.3748501968" lon="34.6146253310"><ele>183.32</ele><time>2026-08-22T21:01:27Z</time></trkpt><trkpt lat="59.3747977261" lon="34.6147822402"><ele>178.38</ele><time>2026-08-22T21:01:40Z</time></trkpt><trkpt lat="59.3747970555" lon="34.6147825755"><ele>185.45</ele><time>2026-08-22T21:01:41Z</time></trkpt><trkpt lat="59.3747968879" lon="34.6147826593"><ele>183.64</ele><time>2026-08-22T21:01:42Z</time></trkpt><trkpt lat="59.3747668806" lon="34.6147787198"><ele>182.39</ele><time>2026-08-22T21:01:57Z</time></trkpt><trkpt lat="59.3747333530" lon="34.6148855891"><ele>182.47</ele><time>2026-08-22T21:02:05Z</time></trkpt><trkpt lat="59.3746979814" lon="34.6150508802"><ele>182.12</ele><time>2026-08-22T21:02:15Z</time></trkpt><trkpt lat="59.3746422417" lon="34.6154774353"><ele>183.29</ele><time>2026-08-22T21:02:38Z</time></trkpt><trkpt lat="59.3746154197" lon="34.6156919282"><ele>182.84</ele><time>2026-08-22T21:02:54Z</time></trkpt><trkpt lat="59.3746108934" lon="34.6157455724"><ele>182.84</ele><time>2026-08-22T21:02:57Z</time></trkpt><trkpt lat="59.3745365459" lon="34.6160849556"><ele>182.86</ele><time>2026-08-22T21:03:16Z</time></trkpt><trkpt lat="59.3745244760" lon="34.6162202395"><ele>184.58</ele><time>2026-08-22T21:03:24Z</time></trkpt><trkpt lat="59.3745158426" lon="34.6163293719"><ele>182.87</ele><time>2026-08-22T21:03:31Z</time></trkpt><trkpt lat="59.3745051976" lon="34.6163828485"><ele>182.45</ele><time>2026-08-22T21:03:48Z</time></trkpt><trkpt lat="59.3744970672" lon="34.6163670905"><ele>182.02</ele><time>2026-08-22T21:04:27Z</time></trkpt><trkpt lat="59.3744944688" lon="34.6163687669"><ele>181.77</ele><time>2026-08-22T21:04:31Z</time></trkpt><trkpt lat="59.3744941335" lon="34.6163711976"><ele>183.08</ele><time>2026-08-22T21:04:34Z</time></trkpt><trkpt lat="59.3744868413" lon="34.6163700242"><ele>182.01</ele><time>2026-08-22T21:05:26Z</time></trkpt><trkpt lat="59.3744949717" lon="34.6163651627"><ele>182.63</ele><time>2026-08-22T21:06:41Z</time></trkpt><trkpt lat="59.3744857516" lon="34.6163799986"><ele>182.86</ele><time>2026-08-22T21:07:44Z</time></trkpt><trkpt lat="59.3744669762" lon="34.6163886320"><ele>182.88</ele><time>2026-08-22T21:07:46Z</time></trkpt><trkpt lat="59.3742623739" lon="34.6165017877"><ele>182.25</ele><time>2026-08-22T21:08:07Z</time></trkpt><trkpt lat="59.3740756251" lon="34.6166183800"><ele>181.82</ele><time>2026-08-22T21:08:27Z</time></trkpt><trkpt lat="59.3740422651" lon="34.6166377421"><ele>181.89</ele><time>2026-08-22T21:08:31Z</time></trkpt><trkpt lat="59.3738607969" lon="34.6168747824"><ele>181.30</ele><time>2026-08-22T21:08:53Z</time></trkpt><trkpt lat="59.3736986909" lon="34.6170988306"><ele>182.16</ele><time>2026-08-22T21:09:14Z</time></trkpt><trkpt lat="59.3736566976" lon="34.6171378903"><ele>181.76</ele><time>2026-08-22T21:09:19Z</time></trkpt><trkpt lat="59.3735854514" lon="34.6172853280"><ele>182.20</ele><time>2026-08-22T21:09:40Z</time></trkpt><trkpt lat="59.3735745549" lon="34.6172732580"><ele>181.94</ele><time>2026-08-22T21:10:10Z</time></trkpt><trkpt lat="59.3735634908" lon="34.6172785386"><ele>182.39</ele><time>2026-08-22T21:10:37Z</time></trkpt><trkpt lat="59.3735452183" lon="34.6172880940"><ele>182.22</ele><time>2026-08-22T21:10:39Z</time></trkpt><trkpt lat="59.3733637501" lon="34.6174416505"><ele>181.89</ele><time>2026-08-22T21:11:00Z</time></trkpt><trkpt lat="59.3733670190" lon="34.6174790338"><ele>182.46</ele><time>2026-08-22T21:11:26Z</time></trkpt><trkpt lat="59.3733460642" lon="34.6174967196"><ele>182.77</ele><time>2026-08-22T21:11:57Z</time></trkpt><trkpt lat="59.3732967786" lon="34.6176110487"><ele>178.73</ele><time>2026-08-22T21:12:06Z</time></trkpt><trkpt lat="59.3732907437" lon="34.6176249627"><ele>182.92</ele><time>2026-08-22T21:12:07Z</time></trkpt><trkpt lat="59.3732782546" lon="34.6176530421"><ele>181.76</ele><time>2026-08-22T21:12:11Z</time></trkpt><trkpt lat="59.3732871395" lon="34.6176728234"><ele>181.58</ele><time>2026-08-22T21:12:14Z</time></trkpt><trkpt lat="59.3733247742" lon="34.6177844703"><ele>181.58</ele><time>2026-08-22T21:12:21Z</time></trkpt><trkpt lat="59.3734296318" lon="34.6178923454"><ele>181.68</ele><time>2026-08-22T21:12:34Z</time></trkpt><trkpt lat="59.3734686915" lon="34.6179843787"><ele>181.87</ele><time>2026-08-22T21:12:40Z</time></trkpt><trkpt lat="59.3734916579" lon="34.6180168167"><ele>181.88</ele><time>2026-08-22T21:12:43Z</time></trkpt><trkpt lat="59.3736590445" lon="34.6182446368"><ele>181.59</ele><time>2026-08-22T21:13:05Z</time></trkpt><trkpt lat="59.3737308774" lon="34.6183297969"><ele>181.69</ele><time>2026-08-22T21:13:14Z</time></trkpt><trkpt lat="59.3737574480" lon="34.6183516737"><ele>181.78</ele><time>2026-08-22T21:13:17Z</time></trkpt><trkpt lat="59.3737890478" lon="34.6183940861"><ele>181.69</ele><time>2026-08-22T21:13:21Z</time></trkpt><trkpt lat="59.3738021236" lon="34.6184413601"><ele>181.47</ele><time>2026-08-22T21:13:24Z</time></trkpt><trkpt lat="59.3738016207" lon="34.6186573617"><ele>181.43</ele><time>2026-08-22T21:13:35Z</time></trkpt><trkpt lat="59.3738627248" lon="34.6188261732"><ele>181.58</ele><time>2026-08-22T21:13:56Z</time></trkpt><trkpt lat="59.3738638982" lon="34.6188198868"><ele>179.76</ele><time>2026-08-22T21:14:12Z</time></trkpt><trkpt lat="59.3738635629" lon="34.6188210603"><ele>181.66</ele><time>2026-08-22T21:14:18Z</time></trkpt><trkpt lat="59.3738630600" lon="34.6188240778"><ele>181.25</ele><time>2026-08-22T21:14:36Z</time></trkpt><trkpt lat="59.3738907203" lon="34.6188458707"><ele>181.19</ele><time>2026-08-22T21:15:00Z</time></trkpt><trkpt lat="59.3739158660" lon="34.6189101599"><ele>181.37</ele><time>2026-08-22T21:15:05Z</time></trkpt><trkpt lat="59.3739454541" lon="34.6190069709"><ele>181.32</ele><time>2026-08-22T21:15:11Z</time></trkpt><trkpt lat="59.3740794808" lon="34.6193285845"><ele>181.05</ele><time>2026-08-22T21:15:34Z</time></trkpt><trkpt lat="59.3740436900" lon="34.6194709931"><ele>180.83</ele><time>2026-08-22T21:15:51Z</time></trkpt><trkpt lat="59.3740399182" lon="34.6194975637"><ele>180.97</ele><time>2026-08-22T21:16:29Z</time></trkpt><trkpt lat="59.3740428519" lon="34.6194795426"><ele>180.05</ele><time>2026-08-22T21:17:07Z</time></trkpt><trkpt lat="59.3740411755" lon="34.6195133217"><ele>180.17</ele><time>2026-08-22T21:17:46Z</time></trkpt><trkpt lat="59.3740415946" lon="34.6195194405"><ele>179.76</ele><time>2026-08-22T21:18:41Z</time></trkpt><trkpt lat="59.3740144372" lon="34.6195479389"><ele>180.76</ele><time>2026-08-22T21:19:25Z</time></trkpt><trkpt lat="59.3739814963" lon="34.6195607632"><ele>180.71</ele><time>2026-08-22T21:19:29Z</time></trkpt><trkpt lat="59.3738968391" lon="34.6195516270"><ele>180.05</ele><time>2026-08-22T21:19:46Z</time></trkpt><trkpt lat="59.3737872876" lon="34.6196859889"><ele>180.94</ele><time>2026-08-22T21:20:08Z</time></trkpt><trkpt lat="59.3737044744" lon="34.6198930219"><ele>180.92</ele><time>2026-08-22T21:20:25Z</time></trkpt><trkpt lat="59.3736201525" lon="34.6201008931"><ele>180.83</ele><time>2026-08-22T21:20:40Z</time></trkpt><trkpt lat="59.3736077473" lon="34.6201262902"><ele>180.91</ele><time>2026-08-22T21:20:43Z</time></trkpt><trkpt lat="59.3735266943" lon="34.6202649269"><ele>180.33</ele><time>2026-08-22T21:20:59Z</time></trkpt><trkpt lat="59.3734528497" lon="34.6203221753"><ele>180.96</ele><time>2026-08-22T21:21:15Z</time></trkpt><trkpt lat="59.3733013887" lon="34.6204185672"><ele>180.39</ele><time>2026-08-22T21:21:33Z</time></trkpt><trkpt lat="59.3732668553" lon="34.6204855386"><ele>180.76</ele><time>2026-08-22T21:21:57Z</time></trkpt><trkpt lat="59.3732279632" lon="34.6204506699"><ele>180.74</ele><time>2026-08-22T21:22:26Z</time></trkpt><trkpt lat="59.3731725588" lon="34.6206672583"><ele>180.48</ele><time>2026-08-22T21:22:45Z</time></trkpt><trkpt lat="59.3730921764" lon="34.6208445355"><ele>180.28</ele><time>2026-08-22T21:23:01Z</time></trkpt><trkpt lat="59.3730351795" lon="34.6209554281"><ele>180.79</ele><time>2026-08-22T21:23:16Z</time></trkpt><trkpt lat="59.3730173260" lon="34.6209907997"><ele>181.16</ele><time>2026-08-22T21:23:27Z</time></trkpt><trkpt lat="59.3729617540" lon="34.6211572643"><ele>181.08</ele><time>2026-08-22T21:23:45Z</time></trkpt><trkpt lat="59.3729218561" lon="34.6212397423"><ele>181.55</ele><time>2026-08-22T21:23:58Z</time></trkpt><trkpt lat="59.3727926910" lon="34.6211984195"><ele>180.62</ele><time>2026-08-22T21:24:28Z</time></trkpt><trkpt lat="59.3727222830" lon="34.6212237328"><ele>180.51</ele><time>2026-08-22T21:24:34Z</time></trkpt><trkpt lat="59.3726220354" lon="34.6211727709"><ele>179.93</ele><time>2026-08-22T21:24:47Z</time></trkpt><trkpt lat="59.3726079538" lon="34.6211915463"><ele>179.83</ele><time>2026-08-22T21:24:51Z</time></trkpt><trkpt lat="59.3724849913" lon="34.6212982479"><ele>180.18</ele><time>2026-08-22T21:25:07Z</time></trkpt><trkpt lat="59.3724600971" lon="34.6213322785"><ele>176.22</ele><time>2026-08-22T21:25:22Z</time></trkpt><trkpt lat="59.3724596780" lon="34.6213317756"><ele>181.52</ele><time>2026-08-22T21:25:23Z</time></trkpt><trkpt lat="59.3724586722" lon="34.6213319432"><ele>181.52</ele><time>2026-08-22T21:25:24Z</time></trkpt><trkpt lat="59.3724154215" lon="34.6212251578"><ele>179.92</ele><time>2026-08-22T21:25:59Z</time></trkpt><trkpt lat="59.3723051995" lon="34.6212160215"><ele>180.91</ele><time>2026-08-22T21:26:17Z</time></trkpt><trkpt lat="59.3722902797" lon="34.6211956535"><ele>181.02</ele><time>2026-08-22T21:26:23Z</time></trkpt><trkpt lat="59.3722140882" lon="34.6213502996"><ele>181.58</ele><time>2026-08-22T21:26:37Z</time></trkpt><trkpt lat="59.3721001782" lon="34.6214236412"><ele>181.88</ele><time>2026-08-22T21:26:59Z</time></trkpt><trkpt lat="59.3718810752" lon="34.6212462801"><ele>182.05</ele><time>2026-08-22T21:27:20Z</time></trkpt><trkpt lat="59.3717586994" lon="34.6211693343"><ele>181.67</ele><time>2026-08-22T21:27:37Z</time></trkpt><trkpt lat="59.3716297857" lon="34.6211208869"><ele>181.99</ele><time>2026-08-22T21:27:50Z</time></trkpt><trkpt lat="59.3715926539" lon="34.6211176179"><ele>182.73</ele><time>2026-08-22T21:28:22Z</time></trkpt><trkpt lat="59.3715926539" lon="34.6211792249"><ele>181.83</ele><time>2026-08-22T21:28:45Z</time></trkpt><trkpt lat="59.3716197275" lon="34.6212201286"><ele>182.43</ele><time>2026-08-22T21:29:14Z</time></trkpt><trkpt lat="59.3715945818" lon="34.6210812405"><ele>182.61</ele><time>2026-08-22T21:29:37Z</time></trkpt><trkpt lat="59.3715965934" lon="34.6211297717"><ele>181.61</ele><time>2026-08-22T21:30:01Z</time></trkpt><trkpt lat="59.3715795781" lon="34.6211328730"><ele>181.28</ele><time>2026-08-22T21:30:53Z</time></trkpt><trkpt lat="59.3715695199" lon="34.6211171988"><ele>181.19</ele><time>2026-08-22T21:31:54Z</time></trkpt><trkpt lat="59.3715673406" lon="34.6211183723"><ele>180.91</ele><time>2026-08-22T21:33:08Z</time></trkpt><trkpt lat="59.3715605512" lon="34.6211156901"><ele>180.38</ele><time>2026-08-22T21:34:18Z</time></trkpt><trkpt lat="59.3715620600" lon="34.6211183723"><ele>176.69</ele><time>2026-08-22T21:34:56Z</time></trkpt><trkpt lat="59.3715625629" lon="34.6211196296"><ele>179.79</ele><time>2026-08-22T21:34:58Z</time></trkpt><trkpt lat="59.3715667538" lon="34.6211379860"><ele>180.90</ele><time>2026-08-22T21:35:33Z</time></trkpt><trkpt lat="59.3715621438" lon="34.6211423445"><ele>181.57</ele><time>2026-08-22T21:35:49Z</time></trkpt><trkpt lat="59.3715811707" lon="34.6211363934"><ele>182.35</ele><time>2026-08-22T21:35:51Z</time></trkpt><trkpt lat="59.3715782370" lon="34.6211021952"><ele>181.26</ele><time>2026-08-22T21:36:50Z</time></trkpt><trkpt lat="59.3715753872" lon="34.6211113315"><ele>181.12</ele><time>2026-08-22T21:37:32Z</time></trkpt><trkpt lat="59.3715717830" lon="34.6211070567"><ele>181.81</ele><time>2026-08-22T21:38:37Z</time></trkpt><trkpt lat="59.3715655804" lon="34.6210834198"><ele>181.37</ele><time>2026-08-22T21:39:30Z</time></trkpt><trkpt lat="59.3715607189" lon="34.6210808214"><ele>181.83</ele><time>2026-08-22T21:40:43Z</time></trkpt><trkpt lat="59.3715684302" lon="34.6210828330"><ele>181.87</ele><time>2026-08-22T21:41:36Z</time></trkpt><trkpt lat="59.3715768959" lon="34.6210982557"><ele>182.38</ele><time>2026-08-22T21:42:18Z</time></trkpt><trkpt lat="59.3715584558" lon="34.6210983396"><ele>182.79</ele><time>2026-08-22T21:43:10Z</time></trkpt><trkpt lat="59.3715646584" lon="34.6210876945"><ele>181.98</ele><time>2026-08-22T21:44:22Z</time></trkpt><trkpt lat="59.3715640716" lon="34.6211069729"><ele>180.58</ele><time>2026-08-22T21:45:24Z</time></trkpt><trkpt lat="59.3715472240" lon="34.6211509779"><ele>181.45</ele><time>2026-08-22T21:46:00Z</time></trkpt><trkpt lat="59.3715638202" lon="34.6211317834"><ele>182.20</ele><time>2026-08-22T21:46:36Z</time></trkpt><trkpt lat="59.3715783209" lon="34.6211239882"><ele>180.34</ele><time>2026-08-22T21:47:06Z</time></trkpt><trkpt lat="59.3715790752" lon="34.6211336274"><ele>180.89</ele><time>2026-08-22T21:47:12Z</time></trkpt><trkpt lat="59.3715981860" lon="34.6211349685"><ele>181.58</ele><time>2026-08-22T21:47:53Z</time></trkpt><trkpt lat="59.3716104236" lon="34.6211139299"><ele>181.71</ele><time>2026-08-22T21:48:30Z</time></trkpt><trkpt lat="59.3716159556" lon="34.6211000998"><ele>182.25</ele><time>2026-08-22T21:49:13Z</time></trkpt><trkpt lat="59.3716485612" lon="34.6210261714"><ele>181.92</ele><time>2026-08-22T21:49:21Z</time></trkpt><trkpt lat="59.3716851901" lon="34.6209900454"><ele>182.14</ele><time>2026-08-22T21:49:34Z</time></trkpt><trkpt lat="59.3717234954" lon="34.6207814198"><ele>181.94</ele><time>2026-08-22T21:49:48Z</time></trkpt><trkpt lat="59.3718105834" lon="34.6206072439"><ele>181.66</ele><time>2026-08-22T21:50:03Z</time></trkpt><trkpt lat="59.3718883675" lon="34.6203746460"><ele>180.87</ele><time>2026-08-22T21:50:19Z</time></trkpt><trkpt lat="59.3719302770" lon="34.6201678645"><ele>180.60</ele><time>2026-08-22T21:50:37Z</time></trkpt><trkpt lat="59.3719761260" lon="34.6200143918"><ele>180.41</ele><time>2026-08-22T21:50:54Z</time></trkpt><trkpt lat="59.3720336258" lon="34.6197600849"><ele>180.53</ele><time>2026-08-22T21:51:09Z</time></trkpt><trkpt lat="59.3720824923" lon="34.6196609270"><ele>180.70</ele><time>2026-08-22T21:51:21Z</time></trkpt><trkpt lat="59.3721407466" lon="34.6194032673"><ele>181.42</ele><time>2026-08-22T21:51:39Z</time></trkpt><trkpt lat="59.3721915409" lon="34.6191716753"><ele>181.82</ele><time>2026-08-22T21:51:56Z</time></trkpt><trkpt lat="59.3721880205" lon="34.6191363875"><ele>180.90</ele><time>2026-08-22T21:52:22Z</time></trkpt><trkpt lat="59.3721930496" lon="34.6191208810"><ele>175.65</ele><time>2026-08-22T21:52:31Z</time></trkpt><trkpt lat="59.3721945584" lon="34.6191167738"><ele>179.77</ele><time>2026-08-22T21:52:32Z</time></trkpt><trkpt lat="59.3721957318" lon="34.6191158518"><ele>185.06</ele><time>2026-08-22T21:52:33Z</time></trkpt><trkpt lat="59.3721983302" lon="34.6191112418"><ele>182.80</ele><time>2026-08-22T21:52:34Z</time></trkpt><trkpt lat="59.3722249847" lon="34.6191027761"><ele>178.88</ele><time>2026-08-22T21:52:47Z</time></trkpt><trkpt lat="59.3722244818" lon="34.6191004291"><ele>186.03</ele><time>2026-08-22T21:52:48Z</time></trkpt><trkpt lat="59.3722237274" lon="34.6191002615"><ele>181.75</ele><time>2026-08-22T21:52:50Z</time></trkpt><trkpt lat="59.3722148426" lon="34.6190893650"><ele>180.20</ele><time>2026-08-22T21:52:58Z</time></trkpt><trkpt lat="59.3722424190" lon="34.6188220661"><ele>182.14</ele><time>2026-08-22T21:53:16Z</time></trkpt><trkpt lat="59.3722997513" lon="34.6185943298"><ele>182.64</ele><time>2026-08-22T21:53:32Z</time></trkpt><trkpt lat="59.3722888548" lon="34.6184113529"><ele>183.48</ele><time>2026-08-22T21:53:49Z</time></trkpt><trkpt lat="59.3723051995" lon="34.6183130331"><ele>183.38</ele><time>2026-08-22T21:54:01Z</time></trkpt><trkpt lat="59.3723184429" lon="34.6183002926"><ele>178.24</ele><time>2026-08-22T21:54:06Z</time></trkpt><trkpt lat="59.3723192811" lon="34.6182972752"><ele>185.76</ele><time>2026-08-22T21:54:07Z</time></trkpt><trkpt lat="59.3723203707" lon="34.6182936709"><ele>184.78</ele><time>2026-08-22T21:54:08Z</time></trkpt><trkpt lat="59.3723243941" lon="34.6182754822"><ele>183.64</ele><time>2026-08-22T21:54:10Z</time></trkpt><trkpt lat="59.3723885994" lon="34.6182283759"><ele>183.18</ele><time>2026-08-22T21:54:49Z</time></trkpt><trkpt lat="59.3723572511" lon="34.6181943454"><ele>182.63</ele><time>2026-08-22T21:55:39Z</time></trkpt><trkpt lat="59.3723896891" lon="34.6182387695"><ele>182.60</ele><time>2026-08-22T21:56:03Z</time></trkpt><trkpt lat="59.3724798784" lon="34.6183200739"><ele>182.15</ele><time>2026-08-22T21:56:18Z</time></trkpt><trkpt lat="59.3725043535" lon="34.6183179785"><ele>181.68</ele><time>2026-08-22T21:56:21Z</time></trkpt><trkpt lat="59.3726096302" lon="34.6182889771"><ele>180.93</ele><time>2026-08-22T21:56:38Z</time></trkpt><trkpt lat="59.3727164995" lon="34.6183530986"><ele>181.69</ele><time>2026-08-22T21:56:56Z</time></trkpt><trkpt lat="59.3728306610" lon="34.6184274461"><ele>181.38</ele><time>2026-08-22T21:57:12Z</time></trkpt><trkpt lat="59.3729357701" lon="34.6183327306"><ele>181.06</ele><time>2026-08-22T21:57:27Z</time></trkpt><trkpt lat="59.3730114587" lon="34.6182633284"><ele>181.49</ele><time>2026-08-22T21:57:39Z</time></trkpt><trkpt lat="59.3731202558" lon="34.6182924975"><ele>181.72</ele><time>2026-08-22T21:57:57Z</time></trkpt><trkpt lat="59.3732165638" lon="34.6182923298"><ele>181.57</ele><time>2026-08-22T21:58:13Z</time></trkpt><trkpt lat="59.3733043224" lon="34.6183521766"><ele>181.71</ele><time>2026-08-22T21:58:26Z</time></trkpt><trkpt lat="59.3733090162" lon="34.6183671802"><ele>181.57</ele><time>2026-08-22T21:58:46Z</time></trkpt><trkpt lat="59.3733035680" lon="34.6183116920"><ele>180.83</ele><time>2026-08-22T21:59:26Z</time></trkpt><trkpt lat="59.3733698688" lon="34.6184447967"><ele>181.37</ele><time>2026-08-22T21:59:50Z</time></trkpt><trkpt lat="59.3735105172" lon="34.6185843553"><ele>181.18</ele><time>2026-08-22T22:00:07Z</time></trkpt><trkpt lat="59.3736105971" lon="34.6185126901"><ele>180.70</ele><time>2026-08-22T22:00:21Z</time></trkpt><trkpt lat="59.3737151194" lon="34.6184934955"><ele>181.13</ele><time>2026-08-22T22:00:33Z</time></trkpt><trkpt lat="59.3737407681" lon="34.6185241733"><ele>181.17</ele><time>2026-08-22T22:00:36Z</time></trkpt><trkpt lat="59.3738090806" lon="34.6185738780"><ele>182.01</ele><time>2026-08-22T22:00:55Z</time></trkpt><trkpt lat="59.3738402613" lon="34.6186012868"><ele>181.21</ele><time>2026-08-22T22:00:59Z</time></trkpt><trkpt lat="59.3740375713" lon="34.6187232435"><ele>181.23</ele><time>2026-08-22T22:01:20Z</time></trkpt><trkpt lat="59.3741831649" lon="34.6188462898"><ele>182.01</ele><time>2026-08-22T22:01:40Z</time></trkpt><trkpt lat="59.3742021918" lon="34.6188555937"><ele>181.72</ele><time>2026-08-22T22:02:05Z</time></trkpt><trkpt lat="59.3742132559" lon="34.6188555937"><ele>180.98</ele><time>2026-08-22T22:02:29Z</time></trkpt><trkpt lat="59.3742409162" lon="34.6188742854"><ele>181.01</ele><time>2026-08-22T22:02:32Z</time></trkpt><trkpt lat="59.3744404893" lon="34.6189707611"><ele>181.51</ele><time>2026-08-22T22:02:52Z</time></trkpt><trkpt lat="59.3746026792" lon="34.6190491319"><ele>181.49</ele><time>2026-08-22T22:03:09Z</time></trkpt><trkpt lat="59.3748012464" lon="34.6191514749"><ele>180.87</ele><time>2026-08-22T22:03:29Z</time></trkpt><trkpt lat="59.3750091176" lon="34.6192424186"><ele>180.21</ele><time>2026-08-22T22:03:50Z</time></trkpt><trkpt lat="59.3751842994" lon="34.6193710808"><ele>179.52</ele><time>2026-08-22T22:04:09Z</time></trkpt><trkpt lat="59.3753108662" lon="34.6194593422"><ele>178.12</ele><time>2026-08-22T22:04:25Z</time></trkpt><trkpt lat="59.3753122911" lon="34.6194796264"><ele>179.50</ele><time>2026-08-22T22:05:03Z</time></trkpt><trkpt lat="59.3753403705" lon="34.6194515470"><ele>179.86</ele><time>2026-08-22T22:05:30Z</time></trkpt><trkpt lat="59.3753847945" lon="34.6194147505"><ele>179.63</ele><time>2026-08-22T22:05:50Z</time></trkpt><trkpt lat="59.3754047435" lon="34.6194406506"><ele>179.53</ele><time>2026-08-22T22:05:59Z</time></trkpt><trkpt lat="59.3755261973" lon="34.6194414888"><ele>179.71</ele><time>2026-08-22T22:06:11Z</time></trkpt><trkpt lat="59.3756724615" lon="34.6192486212"><ele>179.41</ele><time>2026-08-22T22:06:31Z</time></trkpt><trkpt lat="59.3757485691" lon="34.6191405784"><ele>179.51</ele><time>2026-08-22T22:06:43Z</time></trkpt><trkpt lat="59.3757961784" lon="34.6191120800"><ele>179.41</ele><time>2026-08-22T22:06:48Z</time></trkpt><trkpt lat="59.3758792430" lon="34.6190742776"><ele>179.30</ele><time>2026-08-22T22:06:57Z</time></trkpt><trkpt lat="59.3759089988" lon="34.6190713439"><ele>179.29</ele><time>2026-08-22T22:07:00Z</time></trkpt><trkpt lat="59.3759770598" lon="34.6190417558"><ele>180.06</ele><time>2026-08-22T22:07:10Z</time></trkpt><trkpt lat="59.3759693485" lon="34.6190378163"><ele>176.84</ele><time>2026-08-22T22:07:33Z</time></trkpt><trkpt lat="59.3759690970" lon="34.6190381516"><ele>181.06</ele><time>2026-08-22T22:07:34Z</time></trkpt><trkpt lat="59.3759765569" lon="34.6190422587"><ele>180.23</ele><time>2026-08-22T22:08:28Z</time></trkpt><trkpt lat="59.3759825919" lon="34.6190426778"><ele>179.85</ele><time>2026-08-22T22:09:28Z</time></trkpt><trkpt lat="59.3760208972" lon="34.6190904547"><ele>180.00</ele><time>2026-08-22T22:09:33Z</time></trkpt><trkpt lat="59.3761052191" lon="34.6192584280"><ele>180.48</ele><time>2026-08-22T22:09:51Z</time></trkpt><trkpt lat="59.3761068955" lon="34.6192754433"><ele>180.34</ele><time>2026-08-22T22:09:52Z</time></trkpt><trkpt lat="59.3761155289" lon="34.6194120683"><ele>180.43</ele><time>2026-08-22T22:10:12Z</time></trkpt><trkpt lat="59.3761073984" lon="34.6194560733"><ele>180.15</ele><time>2026-08-22T22:10:30Z</time></trkpt><trkpt lat="59.3761311192" lon="34.6193977352"><ele>180.21</ele><time>2026-08-22T22:11:00Z</time></trkpt><trkpt lat="59.3761440273" lon="34.6193987411"><ele>178.62</ele><time>2026-08-22T22:11:41Z</time></trkpt><trkpt lat="59.3761453684" lon="34.6193991601"><ele>180.64</ele><time>2026-08-22T22:11:46Z</time></trkpt><trkpt lat="59.3761740346" lon="34.6194091346"><ele>180.17</ele><time>2026-08-22T22:12:04Z</time></trkpt><trkpt lat="59.3762257509" lon="34.6194421593"><ele>180.42</ele><time>2026-08-22T22:12:19Z</time></trkpt><trkpt lat="59.3762928899" lon="34.6195115615"><ele>181.74</ele><time>2026-08-22T22:12:36Z</time></trkpt><trkpt lat="59.3763894495" lon="34.6196423192"><ele>182.38</ele><time>2026-08-22T22:12:53Z</time></trkpt><trkpt lat="59.3764614500" lon="34.6197806206"><ele>182.10</ele><time>2026-08-22T22:13:21Z</time></trkpt><trkpt lat="59.3765930459" lon="34.6199286450"><ele>182.65</ele><time>2026-08-22T22:13:39Z</time></trkpt><trkpt lat="59.3767056987" lon="34.6200877335"><ele>182.53</ele><time>2026-08-22T22:13:56Z</time></trkpt><trkpt lat="59.3768109754" lon="34.6202649269"><ele>183.56</ele><time>2026-08-22T22:14:14Z</time></trkpt><trkpt lat="59.3768891785" lon="34.6204014681"><ele>183.88</ele><time>2026-08-22T22:14:32Z</time></trkpt><trkpt lat="59.3769934494" lon="34.6203656774"><ele>184.45</ele><time>2026-08-22T22:14:54Z</time></trkpt><trkpt lat="59.3769886717" lon="34.6203664318"><ele>185.31</ele><time>2026-08-22T22:15:04Z</time></trkpt><trkpt lat="59.3770047650" lon="34.6204506699"><ele>183.90</ele><time>2026-08-22T22:15:24Z</time></trkpt><trkpt lat="59.3771163281" lon="34.6205238439"><ele>183.37</ele><time>2026-08-22T22:15:37Z</time></trkpt><trkpt lat="59.3772066850" lon="34.6205925755"><ele>183.57</ele><time>2026-08-22T22:15:51Z</time></trkpt><trkpt lat="59.3773714732" lon="34.6205951739"><ele>182.30</ele><time>2026-08-22T22:16:11Z</time></trkpt><trkpt lat="59.3775252812" lon="34.6207883768"><ele>182.10</ele><time>2026-08-22T22:16:28Z</time></trkpt><trkpt lat="59.3775467388" lon="34.6208609641"><ele>180.83</ele><time>2026-08-22T22:16:49Z</time></trkpt><trkpt lat="59.3776685279" lon="34.6210432705"><ele>182.29</ele><time>2026-08-22T22:17:07Z</time></trkpt><trkpt lat="59.3777929991" lon="34.6212417539"><ele>182.38</ele><time>2026-08-22T22:17:24Z</time></trkpt><trkpt lat="59.3779054843" lon="34.6213536523"><ele>179.37</ele><time>2026-08-22T22:17:40Z</time></trkpt><trkpt lat="59.3780332245" lon="34.6215585899"><ele>179.72</ele><time>2026-08-22T22:17:58Z</time></trkpt><trkpt lat="59.3781608809" lon="34.6217547264"><ele>179.28</ele><time>2026-08-22T22:18:13Z</time></trkpt><trkpt lat="59.3782395869" lon="34.6218453348"><ele>180.27</ele><time>2026-08-22T22:18:31Z</time></trkpt><trkpt lat="59.3782848492" lon="34.6218247991"><ele>181.93</ele><time>2026-08-22T22:18:40Z</time></trkpt><trkpt lat="59.3783312850" lon="34.6218261402"><ele>180.71</ele><time>2026-08-22T22:19:05Z</time></trkpt><trkpt lat="59.3783422653" lon="34.6218447480"><ele>181.93</ele><time>2026-08-22T22:19:11Z</time></trkpt><trkpt lat="59.3783428520" lon="34.6218157467"><ele>180.95</ele><time>2026-08-22T22:20:12Z</time></trkpt><trkpt lat="59.3783531617" lon="34.6218629368"><ele>180.62</ele><time>2026-08-22T22:21:10Z</time></trkpt><trkpt lat="59.3783569336" lon="34.6219243761"><ele>181.08</ele><time>2026-08-22T22:22:04Z</time></trkpt><trkpt lat="59.3783452827" lon="34.6218918543"><ele>180.66</ele><time>2026-08-22T22:23:08Z</time></trkpt><trkpt lat="59.3783320393" lon="34.6218224522"><ele>181.41</ele><time>2026-08-22T22:23:35Z</time></trkpt><trkpt lat="59.3783153594" lon="34.6217949595"><ele>180.62</ele><time>2026-08-22T22:24:20Z</time></trkpt><trkpt lat="59.3783923890" lon="34.6217545588"><ele>180.61</ele><time>2026-08-22T22:25:05Z</time></trkpt><trkpt lat="59.3784433510" lon="34.6219032537"><ele>179.93</ele><time>2026-08-22T22:25:39Z</time></trkpt><trkpt lat="59.3785079755" lon="34.6219541319"><ele>179.14</ele><time>2026-08-22T22:25:56Z</time></trkpt><trkpt lat="59.3785804790" lon="34.6220659465"><ele>179.72</ele><time>2026-08-22T22:26:14Z</time></trkpt><trkpt lat="59.3786927126" lon="34.6221649367"><ele>180.03</ele><time>2026-08-22T22:26:29Z</time></trkpt><trkpt lat="59.3787925411" lon="34.6224337444"><ele>179.72</ele><time>2026-08-22T22:26:46Z</time></trkpt><trkpt lat="59.3789284956" lon="34.6227644943"><ele>178.68</ele><time>2026-08-22T22:27:08Z</time></trkpt><trkpt lat="59.3789461814" lon="34.6228987724"><ele>178.74</ele><time>2026-08-22T22:27:21Z</time></trkpt><trkpt lat="59.3789431639" lon="34.6230472997"><ele>178.82</ele><time>2026-08-22T22:27:40Z</time></trkpt><trkpt lat="59.3789567426" lon="34.6230944898"><ele>178.87</ele><time>2026-08-22T22:27:44Z</time></trkpt><trkpt lat="59.3789247237" lon="34.6231281850"><ele>178.81</ele><time>2026-08-22T22:28:03Z</time></trkpt><trkpt lat="59.3789269868" lon="34.6231588628"><ele>179.11</ele><time>2026-08-22T22:28:52Z</time></trkpt><trkpt lat="59.3789439183" lon="34.6231296938"><ele>179.16</ele><time>2026-08-22T22:29:36Z</time></trkpt><trkpt lat="59.3789644539" lon="34.6231170371"><ele>178.12</ele><time>2026-08-22T22:30:34Z</time></trkpt><trkpt lat="59.3789502047" lon="34.6231006086"><ele>178.90</ele><time>2026-08-22T22:31:19Z</time></trkpt><trkpt lat="59.3790559843" lon="34.6232045442"><ele>179.30</ele><time>2026-08-22T22:31:39Z</time></trkpt><trkpt lat="59.3791347742" lon="34.6232430171"><ele>178.96</ele><time>2026-08-22T22:31:54Z</time></trkpt><trkpt lat="59.3791616801" lon="34.6234226413"><ele>179.33</ele><time>2026-08-22T22:32:07Z</time></trkpt><trkpt lat="59.3792228680" lon="34.6236503776"><ele>179.44</ele><time>2026-08-22T22:32:22Z</time></trkpt><trkpt lat="59.3792860676" lon="34.6238457598"><ele>179.18</ele><time>2026-08-22T22:32:37Z</time></trkpt><trkpt lat="59.3793154880" lon="34.6240568999"><ele>179.01</ele><time>2026-08-22T22:32:54Z</time></trkpt><trkpt lat="59.3793579843" lon="34.6243123803"><ele>178.91</ele><time>2026-08-22T22:33:10Z</time></trkpt><trkpt lat="59.3793623429" lon="34.6243836265"><ele>179.04</ele><time>2026-08-22T22:33:23Z</time></trkpt><trkpt lat="59.3793640193" lon="34.6245102771"><ele>178.98</ele><time>2026-08-22T22:33:31Z</time></trkpt><trkpt lat="59.3794013187" lon="34.6245784219"><ele>178.91</ele><time>2026-08-22T22:33:38Z</time></trkpt><trkpt lat="59.3793506920" lon="34.6248337347"><ele>178.97</ele><time>2026-08-22T22:33:52Z</time></trkpt><trkpt lat="59.3793316651" lon="34.6250242554"><ele>179.04</ele><time>2026-08-22T22:34:09Z</time></trkpt><trkpt lat="59.3793276418" lon="34.6250187233"><ele>178.83</ele><time>2026-08-22T22:34:50Z</time></trkpt><trkpt lat="59.3793308269" lon="34.6250077430"><ele>178.37</ele><time>2026-08-22T22:34:58Z</time></trkpt><trkpt lat="59.3793257978" lon="34.6250208188"><ele>179.30</ele><time>2026-08-22T22:35:19Z</time></trkpt><trkpt lat="59.3792834692" lon="34.6250779834"><ele>179.23</ele><time>2026-08-22T22:35:24Z</time></trkpt><trkpt lat="59.3792653643" lon="34.6251332201"><ele>179.05</ele><time>2026-08-22T22:35:27Z</time></trkpt><trkpt lat="59.3792475946" lon="34.6252335515"><ele>179.13</ele><time>2026-08-22T22:35:33Z</time></trkpt><trkpt lat="59.3792186771" lon="34.6253777202"><ele>179.41</ele><time>2026-08-22T22:35:42Z</time></trkpt><trkpt lat="59.3792170845" lon="34.6254423447"><ele>179.47</ele><time>2026-08-22T22:35:46Z</time></trkpt><trkpt lat="59.3792197667" lon="34.6255985834"><ele>179.67</ele><time>2026-08-22T22:35:54Z</time></trkpt><trkpt lat="59.3792261370" lon="34.6257104818"><ele>179.44</ele><time>2026-08-22T22:36:00Z</time></trkpt><trkpt lat="59.3792471755" lon="34.6260975581"><ele>179.11</ele><time>2026-08-22T22:36:24Z</time></trkpt><trkpt lat="59.3792553898" lon="34.6263548825"><ele>179.23</ele><time>2026-08-22T22:36:41Z</time></trkpt><trkpt lat="59.3792245444" lon="34.6265168209"><ele>179.29</ele><time>2026-08-22T22:36:57Z</time></trkpt><trkpt lat="59.3792273942" lon="34.6266930923"><ele>180.88</ele><time>2026-08-22T22:37:08Z</time></trkpt><trkpt lat="59.3791929446" lon="34.6268820204"><ele>181.45</ele><time>2026-08-22T22:37:28Z</time></trkpt><trkpt lat="59.3791419826" lon="34.6270266920"><ele>182.25</ele><time>2026-08-22T22:37:51Z</time></trkpt><trkpt lat="59.3790828902" lon="34.6271293703"><ele>181.62</ele><time>2026-08-22T22:38:13Z</time></trkpt><trkpt lat="59.3790715747" lon="34.6271215752"><ele>181.80</ele><time>2026-08-22T22:38:47Z</time></trkpt><trkpt lat="59.3790630251" lon="34.6271221619"><ele>180.67</ele><time>2026-08-22T22:39:04Z</time></trkpt><trkpt lat="59.3790628575" lon="34.6271009557"><ele>181.93</ele><time>2026-08-22T22:39:43Z</time></trkpt><trkpt lat="59.3790531345" lon="34.6271371655"><ele>181.67</ele><time>2026-08-22T22:40:27Z</time></trkpt><trkpt lat="59.3790880032" lon="34.6271705255"><ele>182.07</ele><time>2026-08-22T22:41:08Z</time></trkpt><trkpt lat="59.3791440781" lon="34.6272127703"><ele>181.98</ele><time>2026-08-22T22:41:25Z</time></trkpt><trkpt lat="59.3792136479" lon="34.6273452882"><ele>181.43</ele><time>2026-08-22T22:41:40Z</time></trkpt><trkpt lat="59.3792937789" lon="34.6274826676"><ele>181.25</ele><time>2026-08-22T22:41:59Z</time></trkpt><trkpt lat="59.3794278894" lon="34.6276742779"><ele>180.35</ele><time>2026-08-22T22:42:16Z</time></trkpt><trkpt lat="59.3795131333" lon="34.6277426742"><ele>179.93</ele><time>2026-08-22T22:42:30Z</time></trkpt><trkpt lat="59.3796200864" lon="34.6278355457"><ele>179.07</ele><time>2026-08-22T22:42:45Z</time></trkpt><trkpt lat="59.3796717189" lon="34.6277782973"><ele>179.34</ele><time>2026-08-22T22:43:04Z</time></trkpt><trkpt lat="59.3797782529" lon="34.6277686581"><ele>179.46</ele><time>2026-08-22T22:43:17Z</time></trkpt><trkpt lat="59.3798574619" lon="34.6278269961"><ele>179.22</ele><time>2026-08-22T22:43:35Z</time></trkpt><trkpt lat="59.3799612299" lon="34.6279014274"><ele>180.35</ele><time>2026-08-22T22:43:54Z</time></trkpt><trkpt lat="59.3800084200" lon="34.6279089712"><ele>179.14</ele><time>2026-08-22T22:43:59Z</time></trkpt><trkpt lat="59.3801011238" lon="34.6279740985"><ele>181.00</ele><time>2026-08-22T22:44:16Z</time></trkpt><trkpt lat="59.3801827636" lon="34.6279253997"><ele>180.31</ele><time>2026-08-22T22:44:33Z</time></trkpt><trkpt lat="59.3802186381" lon="34.6279991604"><ele>181.84</ele><time>2026-08-22T22:45:02Z</time></trkpt><trkpt lat="59.3802227452" lon="34.6279988252"><ele>182.42</ele><time>2026-08-22T22:45:16Z</time></trkpt><trkpt lat="59.3802571949" lon="34.6280050278"><ele>181.32</ele><time>2026-08-22T22:45:47Z</time></trkpt><trkpt lat="59.3803886231" lon="34.6281189378"><ele>181.41</ele><time>2026-08-22T22:46:04Z</time></trkpt><trkpt lat="59.3804509845" lon="34.6281656250"><ele>181.17</ele><time>2026-08-22T22:46:16Z</time></trkpt><trkpt lat="59.3805408385" lon="34.6282782778"><ele>180.49</ele><time>2026-08-22T22:46:33Z</time></trkpt><trkpt lat="59.3806177843" lon="34.6284024976"><ele>180.17</ele><time>2026-08-22T22:46:47Z</time></trkpt><trkpt lat="59.3806857616" lon="34.6284999792"><ele>179.89</ele><time>2026-08-22T22:47:03Z</time></trkpt><trkpt lat="59.3807932176" lon="34.6286454890"><ele>179.73</ele><time>2026-08-22T22:47:20Z</time></trkpt><trkpt lat="59.3808725942" lon="34.6287248656"><ele>179.50</ele><time>2026-08-22T22:47:30Z</time></trkpt><trkpt lat="59.3808724266" lon="34.6288574673"><ele>176.14</ele><time>2026-08-22T22:47:42Z</time></trkpt><trkpt lat="59.3808741868" lon="34.6288620774"><ele>181.23</ele><time>2026-08-22T22:47:43Z</time></trkpt><trkpt lat="59.3808927946" lon="34.6288957726"><ele>178.84</ele><time>2026-08-22T22:48:03Z</time></trkpt><trkpt lat="59.3808919564" lon="34.6288885642"><ele>168.57</ele><time>2026-08-22T22:48:14Z</time></trkpt><trkpt lat="59.3808926269" lon="34.6288887318"><ele>170.34</ele><time>2026-08-22T22:48:15Z</time></trkpt><trkpt lat="59.3808929622" lon="34.6288892347"><ele>185.13</ele><time>2026-08-22T22:48:16Z</time></trkpt><trkpt lat="59.3808930460" lon="34.6288894862"><ele>177.63</ele><time>2026-08-22T22:48:17Z</time></trkpt><trkpt lat="59.3808929622" lon="34.6288900729"><ele>180.74</ele><time>2026-08-22T22:48:18Z</time></trkpt><trkpt lat="59.3808926269" lon="34.6288912464"><ele>185.58</ele><time>2026-08-22T22:48:19Z</time></trkpt><trkpt lat="59.3808918726" lon="34.6288927551"><ele>182.58</ele><time>2026-08-22T22:48:20Z</time></trkpt><trkpt lat="59.3808899447" lon="34.6288952697"><ele>179.17</ele><time>2026-08-22T22:48:22Z</time></trkpt><trkpt lat="59.3808998354" lon="34.6289326530"><ele>178.79</ele><time>2026-08-22T22:49:15Z</time></trkpt><trkpt lat="59.3809542339" lon="34.6290874667"><ele>179.20</ele><time>2026-08-22T22:49:29Z</time></trkpt><trkpt lat="59.3809604365" lon="34.6291226707"><ele>179.23</ele><time>2026-08-22T22:49:32Z</time></trkpt><trkpt lat="59.3809880968" lon="34.6292003710"><ele>179.36</ele><time>2026-08-22T22:49:39Z</time></trkpt><trkpt lat="59.3809939642" lon="34.6294743754"><ele>179.10</ele><time>2026-08-22T22:49:54Z</time></trkpt><trkpt lat="59.3809995800" lon="34.6295041312"><ele>179.27</ele><time>2026-08-22T22:49:56Z</time></trkpt><trkpt lat="59.3809979875" lon="34.6295743715"><ele>179.41</ele><time>2026-08-22T22:50:00Z</time></trkpt><trkpt lat="59.3810562417" lon="34.6297405846"><ele>179.43</ele><time>2026-08-22T22:50:18Z</time></trkpt><trkpt lat="59.3810786214" lon="34.6298304386"><ele>178.40</ele><time>2026-08-22T22:50:44Z</time></trkpt><trkpt lat="59.3810969777" lon="34.6298313607"><ele>179.09</ele><time>2026-08-22T22:51:01Z</time></trkpt><trkpt lat="59.3811384682" lon="34.6298701689"><ele>179.12</ele><time>2026-08-22T22:51:35Z</time></trkpt><trkpt lat="59.3812230416" lon="34.6299501322"><ele>179.27</ele><time>2026-08-22T22:51:50Z</time></trkpt><trkpt lat="59.3813109677" lon="34.6300220490"><ele>178.43</ele><time>2026-08-22T22:52:03Z</time></trkpt><trkpt lat="59.3813480996" lon="34.6300793812"><ele>178.65</ele><time>2026-08-22T22:52:18Z</time></trkpt><trkpt lat="59.3813484348" lon="34.6300771181"><ele>178.68</ele><time>2026-08-22T22:52:20Z</time></trkpt><trkpt lat="59.3814784382" lon="34.6301772818"><ele>178.73</ele><time>2026-08-22T22:52:39Z</time></trkpt><trkpt lat="59.3815141451" lon="34.6302608494"><ele>178.69</ele><time>2026-08-22T22:53:00Z</time></trkpt><trkpt lat="59.3815578986" lon="34.6302706562"><ele>178.38</ele><time>2026-08-22T22:53:40Z</time></trkpt><trkpt lat="59.3816147279" lon="34.6302987356"><ele>178.61</ele><time>2026-08-22T22:53:54Z</time></trkpt><trkpt lat="59.3817083538" lon="34.6302327700"><ele>178.96</ele><time>2026-08-22T22:54:15Z</time></trkpt><trkpt lat="59.3817737326" lon="34.6303305868"><ele>178.86</ele><time>2026-08-22T22:54:29Z</time></trkpt><trkpt lat="59.3818760756" lon="34.6304340195"><ele>178.82</ele><time>2026-08-22T22:54:48Z</time></trkpt><trkpt lat="59.3820092641" lon="34.6305854805"><ele>178.31</ele><time>2026-08-22T22:55:07Z</time></trkpt><trkpt lat="59.3820882216" lon="34.6307568904"><ele>178.66</ele><time>2026-08-22T22:55:26Z</time></trkpt><trkpt lat="59.3821435422" lon="34.6308991313"><ele>178.95</ele><time>2026-08-22T22:55:43Z</time></trkpt><trkpt lat="59.3822244275" lon="34.6310202498"><ele>178.62</ele><time>2026-08-22T22:55:59Z</time></trkpt><trkpt lat="59.3823042233" lon="34.6311301365"><ele>178.13</ele><time>2026-08-22T22:56:26Z</time></trkpt><trkpt lat="59.3823060673" lon="34.6311290469"><ele>179.34</ele><time>2026-08-22T22:56:29Z</time></trkpt><trkpt lat="59.3823520839" lon="34.6312051546"><ele>178.57</ele><time>2026-08-22T22:56:46Z</time></trkpt><trkpt lat="59.3823459651" lon="34.6312789991"><ele>178.98</ele><time>2026-08-22T22:57:27Z</time></trkpt><trkpt lat="59.3823677581" lon="34.6312822681"><ele>179.19</ele><time>2026-08-22T22:58:11Z</time></trkpt><trkpt lat="59.3823530897" lon="34.6313172206"><ele>178.56</ele><time>2026-08-22T22:58:51Z</time></trkpt><trkpt lat="59.3823782355" lon="34.6314396802"><ele>178.48</ele><time>2026-08-22T22:59:08Z</time></trkpt><trkpt lat="59.3824318796" lon="34.6314355731"><ele>179.04</ele><time>2026-08-22T22:59:24Z</time></trkpt><trkpt lat="59.3825315405" lon="34.6315854415"><ele>179.57</ele><time>2026-08-22T22:59:57Z</time></trkpt><trkpt lat="59.3825929798" lon="34.6316160355"><ele>179.62</ele><time>2026-08-22T23:00:28Z</time></trkpt><trkpt lat="59.3826541677" lon="34.6316919755"><ele>179.55</ele><time>2026-08-22T23:00:43Z</time></trkpt><trkpt lat="59.3826699257" lon="34.6318649780"><ele>179.14</ele><time>2026-08-22T23:01:05Z</time></trkpt><trkpt lat="59.3826810736" lon="34.6318791434"><ele>180.53</ele><time>2026-08-22T23:01:08Z</time></trkpt><trkpt lat="59.3826849293" lon="34.6318914648"><ele>177.41</ele><time>2026-08-22T23:01:14Z</time></trkpt><trkpt lat="59.3826869410" lon="34.6318933927"><ele>180.69</ele><time>2026-08-22T23:01:16Z</time></trkpt><trkpt lat="59.3827913795" lon="34.6320200432"><ele>179.94</ele><time>2026-08-22T23:01:36Z</time></trkpt><trkpt lat="59.3828012701" lon="34.6322175208"><ele>179.92</ele><time>2026-08-22T23:01:57Z</time></trkpt><trkpt lat="59.3828423414" lon="34.6325374581"><ele>180.39</ele><time>2026-08-22T23:02:17Z</time></trkpt><trkpt lat="59.3828689959" lon="34.6327328403"><ele>180.90</ele><time>2026-08-22T23:02:32Z</time></trkpt><trkpt lat="59.3829069659" lon="34.6329813637"><ele>181.27</ele><time>2026-08-22T23:02:50Z</time></trkpt><trkpt lat="59.3829622865" lon="34.6331893187"><ele>181.03</ele><time>2026-08-22T23:03:06Z</time></trkpt><trkpt lat="59.3829766195" lon="34.6332466509"><ele>181.03</ele><time>2026-08-22T23:03:24Z</time></trkpt><trkpt lat="59.3829969876" lon="34.6332257800"><ele>181.71</ele><time>2026-08-22T23:04:04Z</time></trkpt><trkpt lat="59.3829950597" lon="34.6332245227"><ele>181.50</ele><time>2026-08-22T23:04:18Z</time></trkpt><trkpt lat="59.3830604386" lon="34.6332667675"><ele>181.31</ele><time>2026-08-22T23:04:37Z</time></trkpt><trkpt lat="59.3831077963" lon="34.6333774924"><ele>180.48</ele><time>2026-08-22T23:04:56Z</time></trkpt><trkpt lat="59.3831082992" lon="34.6335855313"><ele>180.11</ele><time>2026-08-22T23:05:11Z</time></trkpt><trkpt lat="59.3831290863" lon="34.6337736212"><ele>179.80</ele><time>2026-08-22T23:05:26Z</time></trkpt><trkpt lat="59.3831203692" lon="34.6339420974"><ele>179.71</ele><time>2026-08-22T23:05:42Z</time></trkpt><trkpt lat="59.3831655476" lon="34.6340514813"><ele>179.34</ele><time>2026-08-22T23:05:59Z</time></trkpt><trkpt lat="59.3831725884" lon="34.6340738609"><ele>179.50</ele><time>2026-08-22T23:06:01Z</time></trkpt><trkpt lat="59.3831801321" lon="34.6343084704"><ele>178.98</ele><time>2026-08-22T23:06:19Z</time></trkpt><trkpt lat="59.3831866700" lon="34.6346211992"><ele>179.19</ele><time>2026-08-22T23:06:36Z</time></trkpt><trkpt lat="59.3831750192" lon="34.6347661223"><ele>179.20</ele><time>2026-08-22T23:06:48Z</time></trkpt><trkpt lat="59.3832094688" lon="34.6348337643"><ele>179.00</ele><time>2026-08-22T23:07:09Z</time></trkpt><trkpt lat="59.3832645379" lon="34.6347320918"><ele>178.73</ele><time>2026-08-22T23:07:31Z</time></trkpt><trkpt lat="59.3833463453" lon="34.6348628495"><ele>178.71</ele><time>2026-08-22T23:07:47Z</time></trkpt><trkpt lat="59.3834430724" lon="34.6348711476"><ele>178.47</ele><time>2026-08-22T23:08:07Z</time></trkpt><trkpt lat="59.3835419789" lon="34.6349290665"><ele>178.38</ele><time>2026-08-22T23:08:23Z</time></trkpt><trkpt lat="59.3835263886" lon="34.6349906735"><ele>178.51</ele><time>2026-08-22T23:08:41Z</time></trkpt><trkpt lat="59.3835287355" lon="34.6349960379"><ele>175.41</ele><time>2026-08-22T23:08:56Z</time></trkpt><trkpt lat="59.3835289869" lon="34.6349954512"><ele>175.42</ele><time>2026-08-22T23:08:57Z</time></trkpt><trkpt lat="59.3835294899" lon="34.6349952836"><ele>181.10</ele><time>2026-08-22T23:08:58Z</time></trkpt><trkpt lat="59.3835297413" lon="34.6349957865"><ele>177.78</ele><time>2026-08-22T23:09:03Z</time></trkpt><trkpt lat="59.3835035898" lon="34.6350429766"><ele>178.50</ele><time>2026-08-22T23:09:55Z</time></trkpt><trkpt lat="59.3835047632" lon="34.6350463293"><ele>173.27</ele><time>2026-08-22T23:10:03Z</time></trkpt><trkpt lat="59.3835062720" lon="34.6350472514"><ele>176.99</ele><time>2026-08-22T23:10:04Z</time></trkpt><trkpt lat="59.3835070264" lon="34.6350493468"><ele>180.08</ele><time>2026-08-22T23:10:05Z</time></trkpt><trkpt lat="59.3835076969" lon="34.6350513585"><ele>179.39</ele><time>2026-08-22T23:10:06Z</time></trkpt><trkpt lat="59.3835005723" lon="34.6350529511"><ele>177.20</ele><time>2026-08-22T23:10:38Z</time></trkpt><trkpt lat="59.3835180905" lon="34.6350698825"><ele>176.71</ele><time>2026-08-22T23:11:56Z</time></trkpt><trkpt lat="59.3835264724" lon="34.6350580640"><ele>177.10</ele><time>2026-08-22T23:14:05Z</time></trkpt><trkpt lat="59.3835270591" lon="34.6350486763"><ele>177.00</ele><time>2026-08-22T23:15:59Z</time></trkpt><trkpt lat="59.3835168332" lon="34.6350528672"><ele>177.70</ele><time>2026-08-22T23:17:13Z</time></trkpt><trkpt lat="59.3835190963" lon="34.6350553818"><ele>177.38</ele><time>2026-08-22T23:17:46Z</time></trkpt><trkpt lat="59.3835287355" lon="34.6350563876"><ele>177.37</ele><time>2026-08-22T23:18:20Z</time></trkpt><trkpt lat="59.3835229520" lon="34.6350374445"><ele>176.89</ele><time>2026-08-22T23:18:58Z</time></trkpt><trkpt lat="59.3835298251" lon="34.6350514423"><ele>176.66</ele><time>2026-08-22T23:20:23Z</time></trkpt><trkpt lat="59.3835666217" lon="34.6350912564"><ele>176.53</ele><time>2026-08-22T23:20:52Z</time></trkpt><trkpt lat="59.3836640194" lon="34.6350718942"><ele>176.69</ele><time>2026-08-22T23:21:04Z</time></trkpt><trkpt lat="59.3838069309" lon="34.6350379474"><ele>176.95</ele><time>2026-08-22T23:21:22Z</time></trkpt><trkpt lat="59.3839725573" lon="34.6349337604"><ele>176.80</ele><time>2026-08-22T23:21:44Z</time></trkpt><trkpt lat="59.3840789236" lon="34.6348879114"><ele>176.84</ele><time>2026-08-22T23:22:01Z</time></trkpt><trkpt lat="59.3840926699" lon="34.6348888334"><ele>176.64</ele><time>2026-08-22T23:22:07Z</time></trkpt><trkpt lat="59.3841911573" lon="34.6347968839"><ele>176.66</ele><time>2026-08-22T23:22:23Z</time></trkpt><trkpt lat="59.3842930812" lon="34.6346825548"><ele>176.43</ele><time>2026-08-22T23:22:40Z</time></trkpt><trkpt lat="59.3844030518" lon="34.6347098798"><ele>176.21</ele><time>2026-08-22T23:22:54Z</time></trkpt><trkpt lat="59.3845582847" lon="34.6346371248"><ele>176.12</ele><time>2026-08-22T23:23:11Z</time></trkpt><trkpt lat="59.3845627271" lon="34.6345228795"><ele>176.09</ele><time>2026-08-22T23:23:32Z</time></trkpt><trkpt lat="59.3845594581" lon="34.6345099714"><ele>176.59</ele><time>2026-08-22T23:23:54Z</time></trkpt><trkpt lat="59.3845612183" lon="34.6345100552"><ele>173.15</ele><time>2026-08-22T23:23:57Z</time></trkpt><trkpt lat="59.3845614698" lon="34.6345099714"><ele>176.83</ele><time>2026-08-22T23:23:58Z</time></trkpt><trkpt lat="59.3845615536" lon="34.6345097199"><ele>176.83</ele><time>2026-08-22T23:23:59Z</time></trkpt><trkpt lat="59.3846322969" lon="34.6343901940"><ele>175.71</ele><time>2026-08-22T23:24:23Z</time></trkpt><trkpt lat="59.3847060576" lon="34.6342285909"><ele>175.88</ele><time>2026-08-22T23:24:36Z</time></trkpt><trkpt lat="59.3847485539" lon="34.6341776289"><ele>176.08</ele><time>2026-08-22T23:24:42Z</time></trkpt><trkpt lat="59.3848325405" lon="34.6339257527"><ele>176.20</ele><time>2026-08-22T23:25:01Z</time></trkpt><trkpt lat="59.3849010207" lon="34.6338738687"><ele>176.15</ele><time>2026-08-22T23:25:15Z</time></trkpt><trkpt lat="59.3849530723" lon="34.6337299515"><ele>176.56</ele><time>2026-08-22T23:25:33Z</time></trkpt><trkpt lat="59.3849667348" lon="34.6335122734"><ele>175.81</ele><time>2026-08-22T23:25:48Z</time></trkpt><trkpt lat="59.3850036990" lon="34.6331977844"><ele>176.08</ele><time>2026-08-22T23:26:08Z</time></trkpt><trkpt lat="59.3850144278" lon="34.6330339182"><ele>176.05</ele><time>2026-08-22T23:26:25Z</time></trkpt><trkpt lat="59.3849728536" lon="34.6329064295"><ele>175.34</ele><time>2026-08-22T23:26:42Z</time></trkpt><trkpt lat="59.3849320337" lon="34.6328091994"><ele>175.49</ele><time>2026-08-22T23:26:59Z</time></trkpt><trkpt lat="59.3849195447" lon="34.6327878255"><ele>176.15</ele><time>2026-08-22T23:27:28Z</time></trkpt><trkpt lat="59.3849417567" lon="34.6325978916"><ele>176.44</ele><time>2026-08-22T23:28:00Z</time></trkpt><trkpt lat="59.3850579299" lon="34.6324067004"><ele>176.93</ele><time>2026-08-22T23:28:18Z</time></trkpt><trkpt lat="59.3852245621" lon="34.6323412377"><ele>177.43</ele><time>2026-08-22T23:28:40Z</time></trkpt><trkpt lat="59.3853934575" lon="34.6322689857"><ele>177.87</ele><time>2026-08-22T23:29:03Z</time></trkpt><trkpt lat="59.3854579981" lon="34.6322436724"><ele>177.54</ele><time>2026-08-22T23:29:11Z</time></trkpt><trkpt lat="59.3855251372" lon="34.6321829874"><ele>177.09</ele><time>2026-08-22T23:29:28Z</time></trkpt><trkpt lat="59.3855626881" lon="34.6321019344"><ele>177.25</ele><time>2026-08-22T23:29:42Z</time></trkpt><trkpt lat="59.3856304977" lon="34.6319846716"><ele>176.76</ele><time>2026-08-22T23:29:58Z</time></trkpt><trkpt lat="59.3856345210" lon="34.6319100726"><ele>176.87</ele><time>2026-08-22T23:30:19Z</time></trkpt><trkpt lat="59.3856619298" lon="34.6318604518"><ele>176.79</ele><time>2026-08-22T23:30:35Z</time></trkpt><trkpt lat="59.3857693858" lon="34.6316933166"><ele>177.19</ele><time>2026-08-22T23:30:52Z</time></trkpt><trkpt lat="59.3857846409" lon="34.6316882875"><ele>176.57</ele><time>2026-08-22T23:30:54Z</time></trkpt><trkpt lat="59.3858118821" lon="34.6316849347"><ele>177.53</ele><time>2026-08-22T23:31:15Z</time></trkpt><trkpt lat="59.3858290650" lon="34.6318048798"><ele>177.43</ele><time>2026-08-22T23:31:39Z</time></trkpt><trkpt lat="59.3858181685" lon="34.6318029519"><ele>177.25</ele><time>2026-08-22T23:32:27Z</time></trkpt><trkpt lat="59.3858143967" lon="34.6317710169"><ele>177.26</ele><time>2026-08-22T23:32:50Z</time></trkpt><trkpt lat="59.3858110439" lon="34.6317540854"><ele>177.05</ele><time>2026-08-22T23:33:47Z</time></trkpt><trkpt lat="59.3858199287" lon="34.6317638922"><ele>176.93</ele><time>2026-08-22T23:34:29Z</time></trkpt><trkpt lat="59.3858220242" lon="34.6317794826"><ele>177.01</ele><time>2026-08-22T23:34:31Z</time></trkpt><trkpt lat="59.3858487625" lon="34.6318912972"><ele>176.86</ele><time>2026-08-22T23:34:38Z</time></trkpt><trkpt lat="59.3859291449" lon="34.6322404873"><ele>176.80</ele><time>2026-08-22T23:34:59Z</time></trkpt><trkpt lat="59.3859946914" lon="34.6324583329"><ele>177.17</ele><time>2026-08-22T23:35:13Z</time></trkpt><trkpt lat="59.3860417977" lon="34.6325332671"><ele>176.33</ele><time>2026-08-22T23:35:20Z</time></trkpt><trkpt lat="59.3861535285" lon="34.6328450739"><ele>176.54</ele><time>2026-08-22T23:35:42Z</time></trkpt><trkpt lat="59.3862291332" lon="34.6330435574"><ele>175.95</ele><time>2026-08-22T23:36:03Z</time></trkpt><trkpt lat="59.3862549495" lon="34.6330394503"><ele>176.67</ele><time>2026-08-22T23:36:24Z</time></trkpt><trkpt lat="59.3862770777" lon="34.6331280470"><ele>175.82</ele><time>2026-08-22T23:36:51Z</time></trkpt><trkpt lat="59.3863539398" lon="34.6335151233"><ele>176.40</ele><time>2026-08-22T23:37:14Z</time></trkpt><trkpt lat="59.3864283711" lon="34.6338569373"><ele>176.25</ele><time>2026-08-22T23:37:35Z</time></trkpt><trkpt lat="59.3864729628" lon="34.6341633797"><ele>176.02</ele><time>2026-08-22T23:37:54Z</time></trkpt><trkpt lat="59.3865137827" lon="34.6344574168"><ele>176.00</ele><time>2026-08-22T23:38:12Z</time></trkpt><trkpt lat="59.3865702767" lon="34.6347768512"><ele>176.11</ele><time>2026-08-22T23:38:32Z</time></trkpt><trkpt lat="59.3866164610" lon="34.6350623388"><ele>176.27</ele><time>2026-08-22T23:38:50Z</time></trkpt><trkpt lat="59.3866563588" lon="34.6354113612"><ele>176.02</ele><time>2026-08-22T23:39:12Z</time></trkpt><trkpt lat="59.3866706919" lon="34.6357124392"><ele>176.36</ele><time>2026-08-22T23:39:30Z</time></trkpt><trkpt lat="59.3866777327" lon="34.6357394289"><ele>175.88</ele><time>2026-08-22T23:39:43Z</time></trkpt><trkpt lat="59.3866826780" lon="34.6358533390"><ele>175.31</ele><time>2026-08-22T23:40:03Z</time></trkpt><trkpt lat="59.3867077399" lon="34.6358182188"><ele>175.72</ele><time>2026-08-22T23:40:32Z</time></trkpt><trkpt lat="59.3867380824" lon="34.6357630659"><ele>175.70</ele><time>2026-08-22T23:40:38Z</time></trkpt><trkpt lat="59.3867701851" lon="34.6357220784"><ele>175.68</ele><time>2026-08-22T23:40:42Z</time></trkpt><trkpt lat="59.3868595362" lon="34.6357874572"><ele>175.49</ele><time>2026-08-22T23:40:54Z</time></trkpt><trkpt lat="59.3869449478" lon="34.6358637325"><ele>175.22</ele><time>2026-08-22T23:41:12Z</time></trkpt><trkpt lat="59.3869678304" lon="34.6358650737"><ele>176.06</ele><time>2026-08-22T23:41:36Z</time></trkpt><trkpt lat="59.3871317804" lon="34.6360131819"><ele>175.52</ele><time>2026-08-22T23:41:55Z</time></trkpt><trkpt lat="59.3872486241" lon="34.6362273395"><ele>175.33</ele><time>2026-08-22T23:42:15Z</time></trkpt><trkpt lat="59.3872967362" lon="34.6362731885"><ele>175.81</ele><time>2026-08-22T23:42:34Z</time></trkpt><trkpt lat="59.3872589339" lon="34.6362945624"><ele>173.25</ele><time>2026-08-22T23:43:11Z</time></trkpt><trkpt lat="59.3872541562" lon="34.6363619529"><ele>175.74</ele><time>2026-08-22T23:43:16Z</time></trkpt><trkpt lat="59.3872500490" lon="34.6364660561"><ele>175.01</ele><time>2026-08-22T23:43:37Z</time></trkpt><trkpt lat="59.3873047829" lon="34.6363348793"><ele>173.46</ele><time>2026-08-22T23:43:55Z</time></trkpt><trkpt lat="59.3873060402" lon="34.6363341250"><ele>173.46</ele><time>2026-08-22T23:43:57Z</time></trkpt><trkpt lat="59.3873081356" lon="34.6363102365"><ele>175.19</ele><time>2026-08-22T23:44:00Z</time></trkpt><trkpt lat="59.3873174395" lon="34.6362057980"><ele>175.19</ele><time>2026-08-22T23:44:06Z</time></trkpt><trkpt lat="59.3874221295" lon="34.6361293551"><ele>173.61</ele><time>2026-08-22T23:44:24Z</time></trkpt><trkpt lat="59.3874288350" lon="34.6361368988"><ele>175.12</ele><time>2026-08-22T23:44:32Z</time></trkpt><trkpt lat="59.3874658830" lon="34.6362263337"><ele>174.62</ele><time>2026-08-22T23:44:52Z</time></trkpt><trkpt lat="59.3874735944" lon="34.6362543292"><ele>174.49</ele><time>2026-08-22T23:44:54Z</time></trkpt><trkpt lat="59.3875453435" lon="34.6363720950"><ele>174.40</ele><time>2026-08-22T23:45:16Z</time></trkpt><trkpt lat="59.3876193557" lon="34.6364103165"><ele>174.44</ele><time>2026-08-22T23:45:39Z</time></trkpt><trkpt lat="59.3876386341" lon="34.6363813989"><ele>174.04</ele><time>2026-08-22T23:45:49Z</time></trkpt><trkpt lat="59.3876372930" lon="34.6363107394"><ele>173.68</ele><time>2026-08-22T23:45:53Z</time></trkpt><trkpt lat="59.3876926973" lon="34.6362213884"><ele>173.94</ele><time>2026-08-22T23:46:09Z</time></trkpt><trkpt lat="59.3876906857" lon="34.6361147705"><ele>173.96</ele><time>2026-08-22T23:46:24Z</time></trkpt><trkpt lat="59.3877130654" lon="34.6361823287"><ele>174.37</ele><time>2026-08-22T23:46:33Z</time></trkpt><trkpt lat="59.3877502810" lon="34.6362290997"><ele>174.21</ele><time>2026-08-22T23:46:52Z</time></trkpt><trkpt lat="59.3877932802" lon="34.6362119168"><ele>174.31</ele><time>2026-08-22T23:47:09Z</time></trkpt><trkpt lat="59.3878482655" lon="34.6362106595"><ele>174.36</ele><time>2026-08-22T23:47:17Z</time></trkpt><trkpt lat="59.3878748361" lon="34.6361528244"><ele>174.75</ele><time>2026-08-22T23:47:35Z</time></trkpt><trkpt lat="59.3879057653" lon="34.6361454483"><ele>174.39</ele><time>2026-08-22T23:47:50Z</time></trkpt><trkpt lat="59.3879506923" lon="34.6362087317"><ele>174.39</ele><time>2026-08-22T23:48:05Z</time></trkpt><trkpt lat="59.3880454917" lon="34.6361790597"><ele>174.04</ele><time>2026-08-22T23:48:29Z</time></trkpt><trkpt lat="59.3881456554" lon="34.6361766290"><ele>174.29</ele><time>2026-08-22T23:48:42Z</time></trkpt><trkpt lat="59.3882349227" lon="34.6362561733"><ele>174.24</ele><time>2026-08-22T23:49:02Z</time></trkpt><trkpt lat="59.3882398680" lon="34.6362625435"><ele>173.35</ele><time>2026-08-22T23:49:36Z</time></trkpt><trkpt lat="59.3882502615" lon="34.6362897847"><ele>174.05</ele><time>2026-08-22T23:49:58Z</time></trkpt><trkpt lat="59.3882632535" lon="34.6363682393"><ele>174.21</ele><time>2026-08-22T23:50:18Z</time></trkpt><trkpt lat="59.3883639202" lon="34.6364530642"><ele>171.69</ele><time>2026-08-22T23:50:39Z</time></trkpt><trkpt lat="59.3883648422" lon="34.6364545729"><ele>175.76</ele><time>2026-08-22T23:50:40Z</time></trkpt><trkpt lat="59.3884124514" lon="34.6365725901"><ele>174.54</ele><time>2026-08-22T23:51:03Z</time></trkpt><trkpt lat="59.3884609826" lon="34.6366489492"><ele>174.81</ele><time>2026-08-22T23:51:19Z</time></trkpt><trkpt lat="59.3884746451" lon="34.6366732568"><ele>174.80</ele><time>2026-08-22T23:51:21Z</time></trkpt><trkpt lat="59.3886294588" lon="34.6367717441"><ele>174.76</ele><time>2026-08-22T23:51:43Z</time></trkpt><trkpt lat="59.3886700273" lon="34.6367860772"><ele>174.60</ele><time>2026-08-22T23:52:09Z</time></trkpt><trkpt lat="59.3886877969" lon="34.6367900167"><ele>174.75</ele><time>2026-08-22T23:52:34Z</time></trkpt><trkpt lat="59.3887442909" lon="34.6370086167"><ele>174.60</ele><time>2026-08-22T23:52:51Z</time></trkpt><trkpt lat="59.3888279423" lon="34.6372907516"><ele>174.17</ele><time>2026-08-22T23:53:11Z</time></trkpt><trkpt lat="59.3888804968" lon="34.6374979522"><ele>174.38</ele><time>2026-08-22T23:53:28Z</time></trkpt><trkpt lat="59.3889096659" lon="34.6375942603"><ele>174.48</ele><time>2026-08-22T23:53:46Z</time></trkpt><trkpt lat="59.3889397569" lon="34.6376317274"><ele>174.12</ele><time>2026-08-22T23:53:50Z</time></trkpt><trkpt lat="59.3890469614" lon="34.6377397701"><ele>174.14</ele><time>2026-08-22T23:54:03Z</time></trkpt><trkpt lat="59.3891048804" lon="34.6377850324"><ele>174.42</ele><time>2026-08-22T23:54:10Z</time></trkpt><trkpt lat="59.3892720994" lon="34.6379050612"><ele>173.73</ele><time>2026-08-22T23:54:30Z</time></trkpt><trkpt lat="59.3893431779" lon="34.6379210707"><ele>173.60</ele><time>2026-08-22T23:54:47Z</time></trkpt><trkpt lat="59.3893689942" lon="34.6379062347"><ele>173.91</ele><time>2026-08-22T23:54:55Z</time></trkpt><trkpt lat="59.3895058706" lon="34.6379456297"><ele>174.23</ele><time>2026-08-22T23:55:16Z</time></trkpt><trkpt lat="59.3895636220" lon="34.6379827615"><ele>173.96</ele><time>2026-08-22T23:55:27Z</time></trkpt><trkpt lat="59.3896082975" lon="34.6380200610"><ele>173.73</ele><time>2026-08-22T23:55:32Z</time></trkpt><trkpt lat="59.3896806333" lon="34.6380755492"><ele>173.68</ele><time>2026-08-22T23:55:43Z</time></trkpt><trkpt lat="59.3897481915" lon="34.6379736252"><ele>173.71</ele><time>2026-08-22T23:55:59Z</time></trkpt><trkpt lat="59.3898157496" lon="34.6379497368"><ele>173.70</ele><time>2026-08-22T23:56:18Z</time></trkpt><trkpt lat="59.3898569886" lon="34.6379066538"><ele>174.46</ele><time>2026-08-22T23:56:37Z</time></trkpt><trkpt lat="59.3898991495" lon="34.6378814243"><ele>175.40</ele><time>2026-08-22T23:56:59Z</time></trkpt><trkpt lat="59.3899454176" lon="34.6378597151"><ele>174.93</ele><time>2026-08-22T23:57:27Z</time></trkpt><trkpt lat="59.3900457490" lon="34.6378802508"><ele>175.34</ele><time>2026-08-22T23:57:44Z</time></trkpt><trkpt lat="59.3901658617" lon="34.6378520876"><ele>175.79</ele><time>2026-08-22T23:58:00Z</time></trkpt><trkpt lat="59.3902770896" lon="34.6379454620"><ele>175.89</ele><time>2026-08-22T23:58:19Z</time></trkpt><trkpt lat="59.3903819472" lon="34.6381739527"><ele>176.24</ele><time>2026-08-22T23:58:38Z</time></trkpt><trkpt lat="59.3904879782" lon="34.6382607892"><ele>176.85</ele><time>2026-08-22T23:58:57Z</time></trkpt><trkpt lat="59.3906388525" lon="34.6383683290"><ele>177.06</ele><time>2026-08-22T23:59:30Z</time></trkpt><trkpt lat="59.3907121103" lon="34.6384062152"><ele>176.21</ele><time>2026-08-22T23:59:47Z</time></trkpt><trkpt lat="59.3907915708" lon="34.6385047864"><ele>177.18</ele><time>2026-08-23T00:00:04Z</time></trkpt><trkpt lat="59.3908771500" lon="34.6386844944"><ele>177.06</ele><time>2026-08-23T00:00:20Z</time></trkpt><trkpt lat="59.3909362424" lon="34.6387744322"><ele>177.11</ele><time>2026-08-23T00:00:35Z</time></trkpt><trkpt lat="59.3909614719" lon="34.6388347819"><ele>177.55</ele><time>2026-08-23T00:00:49Z</time></trkpt><trkpt lat="59.3910348136" lon="34.6388645377"><ele>178.00</ele><time>2026-08-23T00:01:00Z</time></trkpt><trkpt lat="59.3910493981" lon="34.6388531383"><ele>177.95</ele><time>2026-08-23T00:01:02Z</time></trkpt><trkpt lat="59.3911712710" lon="34.6388324350"><ele>178.45</ele><time>2026-08-23T00:01:21Z</time></trkpt><trkpt lat="59.3912618794" lon="34.6389644500"><ele>178.47</ele><time>2026-08-23T00:01:55Z</time></trkpt><trkpt lat="59.3913590256" lon="34.6390785277"><ele>178.20</ele><time>2026-08-23T00:02:11Z</time></trkpt><trkpt lat="59.3913570978" lon="34.6391079482"><ele>176.97</ele><time>2026-08-23T00:02:25Z</time></trkpt><trkpt lat="59.3913527392" lon="34.6391147375"><ele>178.68</ele><time>2026-08-23T00:02:27Z</time></trkpt><trkpt lat="59.3913297728" lon="34.6390806232"><ele>177.23</ele><time>2026-08-23T00:03:14Z</time></trkpt><trkpt lat="59.3913285993" lon="34.6390786953"><ele>177.58</ele><time>2026-08-23T00:04:27Z</time></trkpt><trkpt lat="59.3913547508" lon="34.6390812937"><ele>177.98</ele><time>2026-08-23T00:05:52Z</time></trkpt><trkpt lat="59.3913548347" lon="34.6390836406"><ele>179.07</ele><time>2026-08-23T00:06:37Z</time></trkpt><trkpt lat="59.3913533259" lon="34.6390650328"><ele>178.09</ele><time>2026-08-23T00:07:34Z</time></trkpt><trkpt lat="59.3913380709" lon="34.6390564833"><ele>178.43</ele><time>2026-08-23T00:08:15Z</time></trkpt><trkpt lat="59.3913307786" lon="34.6390598360"><ele>178.43</ele><time>2026-08-23T00:09:00Z</time></trkpt><trkpt lat="59.3913414236" lon="34.6391304955"><ele>178.58</ele><time>2026-08-23T00:09:51Z</time></trkpt><trkpt lat="59.3913440220" lon="34.6391457506"><ele>178.62</ele><time>2026-08-23T00:10:27Z</time></trkpt><trkpt lat="59.3913566787" lon="34.6391348541"><ele>179.80</ele><time>2026-08-23T00:10:53Z</time></trkpt><trkpt lat="59.3913733587" lon="34.6391231194"><ele>178.80</ele><time>2026-08-23T00:11:18Z</time></trkpt><trkpt lat="59.3915207963" lon="34.6393263806"><ele>177.96</ele><time>2026-08-23T00:11:54Z</time></trkpt><trkpt lat="59.3916544877" lon="34.6394865587"><ele>178.47</ele><time>2026-08-23T00:12:11Z</time></trkpt><trkpt lat="59.3917719182" lon="34.6395837888"><ele>178.59</ele><time>2026-08-23T00:12:25Z</time></trkpt><trkpt lat="59.3917806353" lon="34.6395866387"><ele>178.49</ele><time>2026-08-23T00:12:26Z</time></trkpt><trkpt lat="59.3918367941" lon="34.6397144627"><ele>178.78</ele><time>2026-08-23T00:12:44Z</time></trkpt><trkpt lat="59.3919864949" lon="34.6398459747"><ele>178.97</ele><time>2026-08-23T00:13:00Z</time></trkpt><trkpt lat="59.3920975551" lon="34.6400914807"><ele>179.89</ele><time>2026-08-23T00:13:17Z</time></trkpt><trkpt lat="59.3921154924" lon="34.6401338931"><ele>180.31</ele><time>2026-08-23T00:13:20Z</time></trkpt><trkpt lat="59.3922004849" lon="34.6403784771"><ele>180.72</ele><time>2026-08-23T00:13:37Z</time></trkpt><trkpt lat="59.3922620919" lon="34.6404748689"><ele>180.91</ele><time>2026-08-23T00:13:44Z</time></trkpt><trkpt lat="59.3924197555" lon="34.6405857615"><ele>180.68</ele><time>2026-08-23T00:14:03Z</time></trkpt><trkpt lat="59.3925492559" lon="34.6407162677"><ele>180.61</ele><time>2026-08-23T00:14:20Z</time></trkpt><trkpt lat="59.3926820252" lon="34.6408907790"><ele>180.55</ele><time>2026-08-23T00:14:36Z</time></trkpt><trkpt lat="59.3928715400" lon="34.6411589999"><ele>181.35</ele><time>2026-08-23T00:14:58Z</time></trkpt><trkpt lat="59.3930049799" lon="34.6413611714"><ele>182.32</ele><time>2026-08-23T00:15:14Z</time></trkpt><trkpt lat="59.3932112586" lon="34.6415968705"><ele>181.67</ele><time>2026-08-23T00:15:34Z</time></trkpt><trkpt lat="59.3934227340" lon="34.6417581383"><ele>181.17</ele><time>2026-08-23T00:15:53Z</time></trkpt><trkpt lat="59.3935279269" lon="34.6419729665"><ele>181.00</ele><time>2026-08-23T00:16:10Z</time></trkpt><trkpt lat="59.3936390709" lon="34.6419893950"><ele>180.81</ele><time>2026-08-23T00:16:27Z</time></trkpt><trkpt lat="59.3937428389" lon="34.6420830209"><ele>180.81</ele><time>2026-08-23T00:16:41Z</time></trkpt><trkpt lat="59.3937616982" lon="34.6421086695"><ele>180.82</ele><time>2026-08-23T00:16:43Z</time></trkpt><trkpt lat="59.3939262349" lon="34.6422375832"><ele>180.06</ele><time>2026-08-23T00:17:00Z</time></trkpt><trkpt lat="59.3941435777" lon="34.6425485518"><ele>181.17</ele><time>2026-08-23T00:17:18Z</time></trkpt><trkpt lat="59.3943093717" lon="34.6428828221"><ele>180.46</ele><time>2026-08-23T00:17:35Z</time></trkpt><trkpt lat="59.3943593279" lon="34.6431106422"><ele>180.24</ele><time>2026-08-23T00:17:45Z</time></trkpt><trkpt lat="59.3943812884" lon="34.6434576530"><ele>181.28</ele><time>2026-08-23T00:18:02Z</time></trkpt><trkpt lat="59.3943305779" lon="34.6437252872"><ele>181.65</ele><time>2026-08-23T00:18:19Z</time></trkpt><trkpt lat="59.3942675460" lon="34.6440669335"><ele>181.42</ele><time>2026-08-23T00:18:37Z</time></trkpt><trkpt lat="59.3941424880" lon="34.6442767326"><ele>181.74</ele><time>2026-08-23T00:18:53Z</time></trkpt><trkpt lat="59.3941083737" lon="34.6443527564"><ele>181.95</ele><time>2026-08-23T00:18:59Z</time></trkpt><trkpt lat="59.3940104730" lon="34.6446137689"><ele>181.64</ele><time>2026-08-23T00:19:17Z</time></trkpt><trkpt lat="59.3939329404" lon="34.6448262502"><ele>181.34</ele><time>2026-08-23T00:19:32Z</time></trkpt><trkpt lat="59.3939267378" lon="34.6448505577"><ele>181.36</ele><time>2026-08-23T00:19:33Z</time></trkpt><trkpt lat="59.3939060345" lon="34.6448974963"><ele>181.36</ele><time>2026-08-23T00:19:36Z</time></trkpt><trkpt lat="59.3938136660" lon="34.6450702474"><ele>181.45</ele><time>2026-08-23T00:19:51Z</time></trkpt><trkpt lat="59.3937602732" lon="34.6450964827"><ele>181.58</ele><time>2026-08-23T00:20:09Z</time></trkpt><trkpt lat="59.3936941400" lon="34.6453702357"><ele>181.55</ele><time>2026-08-23T00:20:24Z</time></trkpt><trkpt lat="59.3936598580" lon="34.6455338504"><ele>181.76</ele><time>2026-08-23T00:20:33Z</time></trkpt><trkpt lat="59.3936202955" lon="34.6458766703"><ele>182.21</ele><time>2026-08-23T00:20:52Z</time></trkpt><trkpt lat="59.3935550842" lon="34.6462136228"><ele>182.59</ele><time>2026-08-23T00:21:10Z</time></trkpt><trkpt lat="59.3934925552" lon="34.6465224959"><ele>183.72</ele><time>2026-08-23T00:21:28Z</time></trkpt><trkpt lat="59.3934588600" lon="34.6468520723"><ele>183.94</ele><time>2026-08-23T00:21:46Z</time></trkpt><trkpt lat="59.3934667390" lon="34.6471353807"><ele>183.72</ele><time>2026-08-23T00:22:01Z</time></trkpt><trkpt lat="59.3935090676" lon="34.6474599279"><ele>183.30</ele><time>2026-08-23T00:22:17Z</time></trkpt><trkpt lat="59.3935197964" lon="34.6476621833"><ele>183.12</ele><time>2026-08-23T00:22:26Z</time></trkpt><trkpt lat="59.3935272563" lon="34.6480514389"><ele>182.83</ele><time>2026-08-23T00:22:44Z</time></trkpt><trkpt lat="59.3935291842" lon="34.6482884791"><ele>182.75</ele><time>2026-08-23T00:22:55Z</time></trkpt><trkpt lat="59.3935837504" lon="34.6485082526"><ele>182.72</ele><time>2026-08-23T00:23:09Z</time></trkpt><trkpt lat="59.3936703354" lon="34.6487844363"><ele>182.35</ele><time>2026-08-23T00:23:25Z</time></trkpt><trkpt lat="59.3937546574" lon="34.6490159445"><ele>182.17</ele><time>2026-08-23T00:23:42Z</time></trkpt><trkpt lat="59.3937948905" lon="34.6490452811"><ele>182.30</ele><time>2026-08-23T00:23:49Z</time></trkpt><trkpt lat="59.3938340340" lon="34.6492021903"><ele>182.60</ele><time>2026-08-23T00:24:06Z</time></trkpt><trkpt lat="59.3938516360" lon="34.6492991690"><ele>182.49</ele><time>2026-08-23T00:24:11Z</time></trkpt><trkpt lat="59.3939672224" lon="34.6495654620"><ele>182.25</ele><time>2026-08-23T00:24:27Z</time></trkpt><trkpt lat="59.3940864969" lon="34.6498548891"><ele>181.70</ele><time>2026-08-23T00:24:46Z</time></trkpt><trkpt lat="59.3941044342" lon="34.6498994809"><ele>181.48</ele><time>2026-08-23T00:24:49Z</time></trkpt><trkpt lat="59.3941400573" lon="34.6499767620"><ele>181.94</ele><time>2026-08-23T00:24:53Z</time></trkpt><trkpt lat="59.3941750936" lon="34.6500444878"><ele>181.60</ele><time>2026-08-23T00:24:57Z</time></trkpt><trkpt lat="59.3942106329" lon="34.6501041669"><ele>181.80</ele><time>2026-08-23T00:25:02Z</time></trkpt><trkpt lat="59.3942247983" lon="34.6501349285"><ele>180.44</ele><time>2026-08-23T00:25:04Z</time></trkpt><trkpt lat="59.3942678813" lon="34.6502358466"><ele>182.19</ele><time>2026-08-23T00:25:10Z</time></trkpt><trkpt lat="59.3944030814" lon="34.6504222602"><ele>182.17</ele><time>2026-08-23T00:25:25Z</time></trkpt><trkpt lat="59.3944209348" lon="34.6504592244"><ele>182.02</ele><time>2026-08-23T00:25:27Z</time></trkpt><trkpt lat="59.3945253734" lon="34.6506650839"><ele>182.27</ele><time>2026-08-23T00:25:42Z</time></trkpt><trkpt lat="59.3945521954" lon="34.6506994497"><ele>182.43</ele><time>2026-08-23T00:25:45Z</time></trkpt><trkpt lat="59.3946865574" lon="34.6509302873"><ele>182.80</ele><time>2026-08-23T00:26:02Z</time></trkpt><trkpt lat="59.3948136270" lon="34.6511235740"><ele>183.24</ele><time>2026-08-23T00:26:18Z</time></trkpt><trkpt lat="59.3948365934" lon="34.6511547547"><ele>183.33</ele><time>2026-08-23T00:26:21Z</time></trkpt><trkpt lat="59.3949805945" lon="34.6513589378"><ele>182.48</ele><time>2026-08-23T00:26:38Z</time></trkpt><trkpt lat="59.3951274455" lon="34.6515545715"><ele>182.04</ele><time>2026-08-23T00:26:54Z</time></trkpt><trkpt lat="59.3952499889" lon="34.6517557371"><ele>181.94</ele><time>2026-08-23T00:27:13Z</time></trkpt><trkpt lat="59.3952882942" lon="34.6518288273"><ele>181.86</ele><time>2026-08-23T00:27:19Z</time></trkpt><trkpt lat="59.3953991868" lon="34.6519544721"><ele>181.92</ele><time>2026-08-23T00:27:32Z</time></trkpt><trkpt lat="59.3954878673" lon="34.6521228645"><ele>182.18</ele><time>2026-08-23T00:27:48Z</time></trkpt><trkpt lat="59.3955760449" lon="34.6522145625"><ele>182.79</ele><time>2026-08-23T00:28:01Z</time></trkpt><trkpt lat="59.3956401665" lon="34.6523200907"><ele>183.03</ele><time>2026-08-23T00:28:16Z</time></trkpt><trkpt lat="59.3957335409" lon="34.6525670215"><ele>182.56</ele><time>2026-08-23T00:28:31Z</time></trkpt><trkpt lat="59.3958415836" lon="34.6528233401"><ele>182.20</ele><time>2026-08-23T00:28:50Z</time></trkpt><trkpt lat="59.3959310185" lon="34.6530522499"><ele>181.12</ele><time>2026-08-23T00:29:05Z</time></trkpt><trkpt lat="59.3960092217" lon="34.6532397531"><ele>180.74</ele><time>2026-08-23T00:29:23Z</time></trkpt><trkpt lat="59.3960742652" lon="34.6534554195"><ele>181.05</ele><time>2026-08-23T00:29:39Z</time></trkpt><trkpt lat="59.3960948847" lon="34.6535098180"><ele>181.06</ele><time>2026-08-23T00:29:43Z</time></trkpt><trkpt lat="59.3961934559" lon="34.6537979878"><ele>181.07</ele><time>2026-08-23T00:29:59Z</time></trkpt><trkpt lat="59.3962781131" lon="34.6539482754"><ele>181.16</ele><time>2026-08-23T00:30:15Z</time></trkpt><trkpt lat="59.3963782769" lon="34.6542222798"><ele>181.95</ele><time>2026-08-23T00:30:34Z</time></trkpt><trkpt lat="59.3964272272" lon="34.6542964596"><ele>181.96</ele><time>2026-08-23T00:30:39Z</time></trkpt><trkpt lat="59.3964394648" lon="34.6543709747"><ele>182.23</ele><time>2026-08-23T00:30:43Z</time></trkpt><trkpt lat="59.3965276424" lon="34.6545419656"><ele>183.01</ele><time>2026-08-23T00:30:55Z</time></trkpt><trkpt lat="59.3965439871" lon="34.6545667760"><ele>182.96</ele><time>2026-08-23T00:30:57Z</time></trkpt><trkpt lat="59.3965876568" lon="34.6546346694"><ele>183.03</ele><time>2026-08-23T00:31:04Z</time></trkpt><trkpt lat="59.3966508564" lon="34.6547271218"><ele>182.75</ele><time>2026-08-23T00:31:11Z</time></trkpt><trkpt lat="59.3966840487" lon="34.6547790896"><ele>182.62</ele><time>2026-08-23T00:31:15Z</time></trkpt><trkpt lat="59.3967491761" lon="34.6548901498"><ele>182.53</ele><time>2026-08-23T00:31:23Z</time></trkpt><trkpt lat="59.3968193326" lon="34.6549942531"><ele>182.52</ele><time>2026-08-23T00:31:30Z</time></trkpt><trkpt lat="59.3968448974" lon="34.6550396830"><ele>182.46</ele><time>2026-08-23T00:31:34Z</time></trkpt><trkpt lat="59.3968756590" lon="34.6550978534"><ele>182.48</ele><time>2026-08-23T00:31:39Z</time></trkpt><trkpt lat="59.3969826959" lon="34.6551718656"><ele>181.67</ele><time>2026-08-23T00:31:52Z</time></trkpt><trkpt lat="59.3970263656" lon="34.6552006993"><ele>181.16</ele><time>2026-08-23T00:31:58Z</time></trkpt><trkpt lat="59.3971121963" lon="34.6552147809"><ele>181.04</ele><time>2026-08-23T00:32:07Z</time></trkpt><trkpt lat="59.3971606437" lon="34.6552090812"><ele>180.87</ele><time>2026-08-23T00:32:12Z</time></trkpt><trkpt lat="59.3972734641" lon="34.6552853566"><ele>180.95</ele><time>2026-08-23T00:32:25Z</time></trkpt><trkpt lat="59.3973249290" lon="34.6553528309"><ele>180.97</ele><time>2026-08-23T00:32:30Z</time></trkpt><trkpt lat="59.3973426986" lon="34.6553854365"><ele>181.02</ele><time>2026-08-23T00:32:32Z</time></trkpt><trkpt lat="59.3974471372" lon="34.6556164417"><ele>181.14</ele><time>2026-08-23T00:32:48Z</time></trkpt><trkpt lat="59.3975404277" lon="34.6557977423"><ele>180.63</ele><time>2026-08-23T00:33:02Z</time></trkpt><trkpt lat="59.3976067286" lon="34.6559282485"><ele>180.50</ele><time>2026-08-23T00:33:16Z</time></trkpt><trkpt lat="59.3975826725" lon="34.6560292505"><ele>181.08</ele><time>2026-08-23T00:33:31Z</time></trkpt><trkpt lat="59.3975875340" lon="34.6561146621"><ele>180.83</ele><time>2026-08-23T00:33:39Z</time></trkpt><trkpt lat="59.3975822534" lon="34.6561628580"><ele>180.96</ele><time>2026-08-23T00:33:43Z</time></trkpt><trkpt lat="59.3976593670" lon="34.6563673764"><ele>180.93</ele><time>2026-08-23T00:33:58Z</time></trkpt><trkpt lat="59.3977142684" lon="34.6565928496"><ele>181.86</ele><time>2026-08-23T00:34:10Z</time></trkpt><trkpt lat="59.3977208901" lon="34.6567815263"><ele>182.07</ele><time>2026-08-23T00:34:19Z</time></trkpt><trkpt lat="59.3978081457" lon="34.6570504177"><ele>181.53</ele><time>2026-08-23T00:34:36Z</time></trkpt><trkpt lat="59.3978387397" lon="34.6571331471"><ele>181.29</ele><time>2026-08-23T00:34:41Z</time></trkpt><trkpt lat="59.3979083933" lon="34.6574155334"><ele>180.67</ele><time>2026-08-23T00:35:00Z</time></trkpt><trkpt lat="59.3980175257" lon="34.6576031204"><ele>180.30</ele><time>2026-08-23T00:35:17Z</time></trkpt><trkpt lat="59.3981191982" lon="34.6577564254"><ele>180.26</ele><time>2026-08-23T00:35:34Z</time></trkpt><trkpt lat="59.3981627841" lon="34.6577874385"><ele>180.24</ele><time>2026-08-23T00:35:38Z</time></trkpt><trkpt lat="59.3982938770" lon="34.6578515600"><ele>180.52</ele><time>2026-08-23T00:35:52Z</time></trkpt><trkpt lat="59.3983944599" lon="34.6579555795"><ele>180.30</ele><time>2026-08-23T00:36:01Z</time></trkpt><trkpt lat="59.3984315917" lon="34.6579959802"><ele>180.14</ele><time>2026-08-23T00:36:05Z</time></trkpt><trkpt lat="59.3985593319" lon="34.6580728423"><ele>179.95</ele><time>2026-08-23T00:36:16Z</time></trkpt><trkpt lat="59.3986168317" lon="34.6581370477"><ele>180.14</ele><time>2026-08-23T00:36:21Z</time></trkpt><trkpt lat="59.3987242039" lon="34.6582947113"><ele>180.31</ele><time>2026-08-23T00:36:38Z</time></trkpt><trkpt lat="59.3987413868" lon="34.6584005747"><ele>180.64</ele><time>2026-08-23T00:36:46Z</time></trkpt><trkpt lat="59.3988531176" lon="34.6586459968"><ele>180.38</ele><time>2026-08-23T00:37:02Z</time></trkpt><trkpt lat="59.3988607451" lon="34.6586575639"><ele>180.27</ele><time>2026-08-23T00:37:03Z</time></trkpt><trkpt lat="59.3988645170" lon="34.6589522716"><ele>180.09</ele><time>2026-08-23T00:37:20Z</time></trkpt><trkpt lat="59.3988720607" lon="34.6592313889"><ele>180.49</ele><time>2026-08-23T00:37:36Z</time></trkpt><trkpt lat="59.3988622539" lon="34.6594660822"><ele>180.54</ele><time>2026-08-23T00:37:46Z</time></trkpt><trkpt lat="59.3988528661" lon="34.6595976781"><ele>180.25</ele><time>2026-08-23T00:37:52Z</time></trkpt><trkpt lat="59.3989009783" lon="34.6599315293"><ele>180.30</ele><time>2026-08-23T00:38:10Z</time></trkpt><trkpt lat="59.3989462405" lon="34.6600572579"><ele>180.45</ele><time>2026-08-23T00:38:22Z</time></trkpt><trkpt lat="59.3990876433" lon="34.6600963175"><ele>180.65</ele><time>2026-08-23T00:38:38Z</time></trkpt><trkpt lat="59.3992471509" lon="34.6601826511"><ele>180.52</ele><time>2026-08-23T00:38:55Z</time></trkpt><trkpt lat="59.3993781600" lon="34.6602724213"><ele>180.72</ele><time>2026-08-23T00:39:10Z</time></trkpt><trkpt lat="59.3995388411" lon="34.6604950447"><ele>181.00</ele><time>2026-08-23T00:39:28Z</time></trkpt><trkpt lat="59.3996858597" lon="34.6606829669"><ele>181.23</ele><time>2026-08-23T00:39:44Z</time></trkpt><trkpt lat="59.3997866940" lon="34.6607876569"><ele>181.28</ele><time>2026-08-23T00:39:54Z</time></trkpt><trkpt lat="59.3999298569" lon="34.6609870624"><ele>181.30</ele><time>2026-08-23T00:40:10Z</time></trkpt><trkpt lat="59.4000510592" lon="34.6611094382"><ele>180.79</ele><time>2026-08-23T00:40:24Z</time></trkpt><trkpt lat="59.4001725968" lon="34.6612713765"><ele>180.52</ele><time>2026-08-23T00:40:38Z</time></trkpt><trkpt lat="59.4002018496" lon="34.6613115259"><ele>180.50</ele><time>2026-08-23T00:40:42Z</time></trkpt><trkpt lat="59.4002329465" lon="34.6615542658"><ele>180.04</ele><time>2026-08-23T00:41:01Z</time></trkpt><trkpt lat="59.4003140833" lon="34.6616775636"><ele>180.01</ele><time>2026-08-23T00:41:16Z</time></trkpt><trkpt lat="59.4004707411" lon="34.6619973332"><ele>180.07</ele><time>2026-08-23T00:41:32Z</time></trkpt><trkpt lat="59.4005174283" lon="34.6621330362"><ele>180.09</ele><time>2026-08-23T00:41:41Z</time></trkpt><trkpt lat="59.4005198590" lon="34.6622567531"><ele>179.90</ele><time>2026-08-23T00:41:52Z</time></trkpt><trkpt lat="59.4006191846" lon="34.6624898538"><ele>179.78</ele><time>2026-08-23T00:42:09Z</time></trkpt><trkpt lat="59.4006398879" lon="34.6625834797"><ele>179.72</ele><time>2026-08-23T00:42:15Z</time></trkpt><trkpt lat="59.4006623514" lon="34.6626830567"><ele>179.63</ele><time>2026-08-23T00:42:21Z</time></trkpt><trkpt lat="59.4007190969" lon="34.6628955379"><ele>179.41</ele><time>2026-08-23T00:42:36Z</time></trkpt><trkpt lat="59.4007214438" lon="34.6629136428"><ele>179.53</ele><time>2026-08-23T00:42:37Z</time></trkpt><trkpt lat="59.4007450808" lon="34.6629933547"><ele>179.41</ele><time>2026-08-23T00:42:41Z</time></trkpt><trkpt lat="59.4007541332" lon="34.6630528662"><ele>179.43</ele><time>2026-08-23T00:42:44Z</time></trkpt><trkpt lat="59.4007540494" lon="34.6631616633"><ele>179.42</ele><time>2026-08-23T00:42:49Z</time></trkpt><trkpt lat="59.4007425662" lon="34.6635234263"><ele>179.60</ele><time>2026-08-23T00:43:08Z</time></trkpt><trkpt lat="59.4006770197" lon="34.6637302078"><ele>180.39</ele><time>2026-08-23T00:43:24Z</time></trkpt><trkpt lat="59.4006541371" lon="34.6638338082"><ele>180.59</ele><time>2026-08-23T00:43:29Z</time></trkpt><trkpt lat="59.4005363714" lon="34.6640933957"><ele>181.40</ele><time>2026-08-23T00:43:47Z</time></trkpt><trkpt lat="59.4005293306" lon="34.6641220618"><ele>181.46</ele><time>2026-08-23T00:43:48Z</time></trkpt><trkpt lat="59.4005019218" lon="34.6642807312"><ele>181.90</ele><time>2026-08-23T00:43:59Z</time></trkpt><trkpt lat="59.4004945457" lon="34.6643288434"><ele>181.81</ele><time>2026-08-23T00:44:02Z</time></trkpt><trkpt lat="59.4004884269" lon="34.6643775422"><ele>181.81</ele><time>2026-08-23T00:44:05Z</time></trkpt><trkpt lat="59.4005011674" lon="34.6644873451"><ele>181.86</ele><time>2026-08-23T00:44:11Z</time></trkpt><trkpt lat="59.4005084597" lon="34.6646977309"><ele>181.47</ele><time>2026-08-23T00:44:29Z</time></trkpt><trkpt lat="59.4006254710" lon="34.6650137287"><ele>181.69</ele><time>2026-08-23T00:44:47Z</time></trkpt><trkpt lat="59.4007328432" lon="34.6652494278"><ele>181.66</ele><time>2026-08-23T00:45:05Z</time></trkpt><trkpt lat="59.4007430691" lon="34.6653219312"><ele>181.41</ele><time>2026-08-23T00:45:09Z</time></trkpt><trkpt lat="59.4008420594" lon="34.6655577980"><ele>181.81</ele><time>2026-08-23T00:45:26Z</time></trkpt><trkpt lat="59.4008542970" lon="34.6655987855"><ele>181.66</ele><time>2026-08-23T00:45:28Z</time></trkpt><trkpt lat="59.4008919317" lon="34.6657135338"><ele>181.41</ele><time>2026-08-23T00:45:35Z</time></trkpt><trkpt lat="59.4009247888" lon="34.6658008732"><ele>181.22</ele><time>2026-08-23T00:45:41Z</time></trkpt><trkpt lat="59.4009585679" lon="34.6658945829"><ele>181.25</ele><time>2026-08-23T00:45:46Z</time></trkpt><trkpt lat="59.4010418840" lon="34.6662362292"><ele>180.89</ele><time>2026-08-23T00:46:03Z</time></trkpt><trkpt lat="59.4010576420" lon="34.6663459484"><ele>180.63</ele><time>2026-08-23T00:46:09Z</time></trkpt><trkpt lat="59.4010939356" lon="34.6665232256"><ele>181.17</ele><time>2026-08-23T00:46:20Z</time></trkpt><trkpt lat="59.4011176564" lon="34.6666321903"><ele>181.10</ele><time>2026-08-23T00:46:27Z</time></trkpt><trkpt lat="59.4011276308" lon="34.6666682325"><ele>181.08</ele><time>2026-08-23T00:46:29Z</time></trkpt><trkpt lat="59.4011878967" lon="34.6669810452"><ele>180.24</ele><time>2026-08-23T00:46:47Z</time></trkpt><trkpt lat="59.4011903275" lon="34.6669973899"><ele>180.03</ele><time>2026-08-23T00:46:48Z</time></trkpt><trkpt lat="59.4012254477" lon="34.6671132278"><ele>180.15</ele><time>2026-08-23T00:46:56Z</time></trkpt><trkpt lat="59.4012351707" lon="34.6671676263"><ele>180.24</ele><time>2026-08-23T00:46:59Z</time></trkpt><trkpt lat="59.4012257829" lon="34.6672656946"><ele>180.21</ele><time>2026-08-23T00:47:04Z</time></trkpt><trkpt lat="59.4012530241" lon="34.6673484240"><ele>180.29</ele><time>2026-08-23T00:47:09Z</time></trkpt><trkpt lat="59.4012711290" lon="34.6674004756"><ele>180.48</ele><time>2026-08-23T00:47:12Z</time></trkpt><trkpt lat="59.4013468176" lon="34.6676832810"><ele>180.19</ele><time>2026-08-23T00:47:29Z</time></trkpt><trkpt lat="59.4013784174" lon="34.6677969396"><ele>180.72</ele><time>2026-08-23T00:47:34Z</time></trkpt><trkpt lat="59.4014449697" lon="34.6679860353"><ele>180.72</ele><time>2026-08-23T00:47:45Z</time></trkpt><trkpt lat="59.4014621526" lon="34.6680206526"><ele>180.71</ele><time>2026-08-23T00:47:47Z</time></trkpt><trkpt lat="59.4015060738" lon="34.6681372449"><ele>179.50</ele><time>2026-08-23T00:48:00Z</time></trkpt><trkpt lat="59.4015056547" lon="34.6681417711"><ele>180.40</ele><time>2026-08-23T00:48:03Z</time></trkpt><trkpt lat="59.4014762342" lon="34.6681347303"><ele>180.42</ele><time>2026-08-23T00:48:23Z</time></trkpt><trkpt lat="59.4014874659" lon="34.6681498177"><ele>179.34</ele><time>2026-08-23T00:49:05Z</time></trkpt><trkpt lat="59.4014784973" lon="34.6681500692"><ele>179.37</ele><time>2026-08-23T00:49:20Z</time></trkpt><trkpt lat="59.4014461432" lon="34.6681767236"><ele>179.33</ele><time>2026-08-23T00:50:14Z</time></trkpt><trkpt lat="59.4014517590" lon="34.6681488957"><ele>178.68</ele><time>2026-08-23T00:51:44Z</time></trkpt><trkpt lat="59.4014514238" lon="34.6681377478"><ele>178.25</ele><time>2026-08-23T00:52:56Z</time></trkpt><trkpt lat="59.4014675170" lon="34.6681292821"><ele>178.38</ele><time>2026-08-23T00:54:28Z</time></trkpt><trkpt lat="59.4014958479" lon="34.6681555174"><ele>179.52</ele><time>2026-08-23T00:55:51Z</time></trkpt><trkpt lat="59.4015274476" lon="34.6681322996"><ele>179.64</ele><time>2026-08-23T00:56:18Z</time></trkpt><trkpt lat="59.4015623163" lon="34.6681631450"><ele>179.38</ele><time>2026-08-23T00:56:22Z</time></trkpt><trkpt lat="59.4016921520" lon="34.6683963295"><ele>178.31</ele><time>2026-08-23T00:56:39Z</time></trkpt><trkpt lat="59.4017936569" lon="34.6684946492"><ele>177.75</ele><time>2026-08-23T00:56:49Z</time></trkpt><trkpt lat="59.4018060621" lon="34.6685148496"><ele>177.75</ele><time>2026-08-23T00:56:51Z</time></trkpt><trkpt lat="59.4018900488" lon="34.6685716789"><ele>177.24</ele><time>2026-08-23T00:56:59Z</time></trkpt><trkpt lat="59.4019683357" lon="34.6686677355"><ele>177.22</ele><time>2026-08-23T00:57:09Z</time></trkpt><trkpt lat="59.4020412583" lon="34.6687231399"><ele>177.16</ele><time>2026-08-23T00:57:26Z</time></trkpt><trkpt lat="59.4021115825" lon="34.6687966492"><ele>177.52</ele><time>2026-08-23T00:57:43Z</time></trkpt><trkpt lat="59.4021313637" lon="34.6688250639"><ele>177.58</ele><time>2026-08-23T00:57:46Z</time></trkpt><trkpt lat="59.4022014365" lon="34.6689768601"><ele>177.49</ele><time>2026-08-23T00:57:58Z</time></trkpt><trkpt lat="59.4022422563" lon="34.6690382995"><ele>177.30</ele><time>2026-08-23T00:58:04Z</time></trkpt><trkpt lat="59.4023120776" lon="34.6691938676"><ele>176.59</ele><time>2026-08-23T00:58:18Z</time></trkpt><trkpt lat="59.4023425877" lon="34.6692365315"><ele>176.67</ele><time>2026-08-23T00:58:23Z</time></trkpt><trkpt lat="59.4023545738" lon="34.6692572348"><ele>176.71</ele><time>2026-08-23T00:58:25Z</time></trkpt><trkpt lat="59.4024133310" lon="34.6693040896"><ele>176.48</ele><time>2026-08-23T00:58:32Z</time></trkpt><trkpt lat="59.4025499560" lon="34.6694767568"><ele>176.72</ele><time>2026-08-23T00:58:48Z</time></trkpt><trkpt lat="59.4025896862" lon="34.6695139725"><ele>176.67</ele><time>2026-08-23T00:58:52Z</time></trkpt><trkpt lat="59.4026288297" lon="34.6695423871"><ele>176.70</ele><time>2026-08-23T00:58:55Z</time></trkpt><trkpt lat="59.4027880859" lon="34.6697071753"><ele>176.81</ele><time>2026-08-23T00:59:11Z</time></trkpt><trkpt lat="59.4028087892" lon="34.6697573829"><ele>176.62</ele><time>2026-08-23T00:59:14Z</time></trkpt><trkpt lat="59.4028478488" lon="34.6698522661"><ele>176.44</ele><time>2026-08-23T00:59:20Z</time></trkpt><trkpt lat="59.4028646965" lon="34.6699155495"><ele>176.31</ele><time>2026-08-23T00:59:23Z</time></trkpt><trkpt lat="59.4029504433" lon="34.6701970976"><ele>175.42</ele><time>2026-08-23T00:59:37Z</time></trkpt><trkpt lat="59.4029874913" lon="34.6703821700"><ele>175.35</ele><time>2026-08-23T00:59:49Z</time></trkpt><trkpt lat="59.4030274730" lon="34.6707407478"><ele>175.39</ele><time>2026-08-23T01:00:07Z</time></trkpt><trkpt lat="59.4030458294" lon="34.6709817275"><ele>175.20</ele><time>2026-08-23T01:00:19Z</time></trkpt><trkpt lat="59.4030743279" lon="34.6710143331"><ele>175.07</ele><time>2026-08-23T01:00:22Z</time></trkpt><trkpt lat="59.4030890800" lon="34.6711706556"><ele>175.14</ele><time>2026-08-23T01:00:30Z</time></trkpt><trkpt lat="59.4031007309" lon="34.6714575682"><ele>175.17</ele><time>2026-08-23T01:00:43Z</time></trkpt><trkpt lat="59.4030945282" lon="34.6715269703"><ele>175.33</ele><time>2026-08-23T01:00:46Z</time></trkpt><trkpt lat="59.4031343423" lon="34.6716558840"><ele>175.37</ele><time>2026-08-23T01:00:53Z</time></trkpt><trkpt lat="59.4031598233" lon="34.6717166528"><ele>175.25</ele><time>2026-08-23T01:00:56Z</time></trkpt><trkpt lat="59.4032506831" lon="34.6720163897"><ele>174.57</ele><time>2026-08-23T01:01:12Z</time></trkpt><trkpt lat="59.4033451471" lon="34.6722687688"><ele>173.82</ele><time>2026-08-23T01:01:28Z</time></trkpt><trkpt lat="59.4033563789" lon="34.6722877957"><ele>173.72</ele><time>2026-08-23T01:01:30Z</time></trkpt><trkpt lat="59.4033808541" lon="34.6723177191"><ele>173.68</ele><time>2026-08-23T01:01:33Z</time></trkpt><trkpt lat="59.4033987913" lon="34.6723462176"><ele>173.72</ele><time>2026-08-23T01:01:35Z</time></trkpt><trkpt lat="59.4034908246" lon="34.6725595370"><ele>173.27</ele><time>2026-08-23T01:01:54Z</time></trkpt><trkpt lat="59.4035398588" lon="34.6725926455"><ele>173.30</ele><time>2026-08-23T01:02:11Z</time></trkpt><trkpt lat="59.4035893958" lon="34.6726600360"><ele>173.28</ele><time>2026-08-23T01:02:21Z</time></trkpt><trkpt lat="59.4036962651" lon="34.6727923863"><ele>173.30</ele><time>2026-08-23T01:02:36Z</time></trkpt><trkpt lat="59.4037528429" lon="34.6728647221"><ele>173.19</ele><time>2026-08-23T01:02:44Z</time></trkpt><trkpt lat="59.4037737977" lon="34.6728931367"><ele>173.18</ele><time>2026-08-23T01:02:47Z</time></trkpt><trkpt lat="59.4038350694" lon="34.6729547437"><ele>173.14</ele><time>2026-08-23T01:02:54Z</time></trkpt><trkpt lat="59.4040058926" lon="34.6731074620"><ele>173.20</ele><time>2026-08-23T01:03:14Z</time></trkpt><trkpt lat="59.4041611254" lon="34.6732892655"><ele>173.56</ele><time>2026-08-23T01:03:34Z</time></trkpt><trkpt lat="59.4043449406" lon="34.6735312510"><ele>173.61</ele><time>2026-08-23T01:03:53Z</time></trkpt><trkpt lat="59.4044395722" lon="34.6738029923"><ele>173.26</ele><time>2026-08-23T01:04:11Z</time></trkpt><trkpt lat="59.4045037776" lon="34.6740418766"><ele>173.16</ele><time>2026-08-23T01:04:29Z</time></trkpt><trkpt lat="59.4045153446" lon="34.6740888990"><ele>173.06</ele><time>2026-08-23T01:04:32Z</time></trkpt><trkpt lat="59.4045462739" lon="34.6742936689"><ele>173.06</ele><time>2026-08-23T01:04:43Z</time></trkpt><trkpt lat="59.4045895245" lon="34.6745372470"><ele>173.06</ele><time>2026-08-23T01:04:57Z</time></trkpt><trkpt lat="59.4046761934" lon="34.6749361418"><ele>173.26</ele><time>2026-08-23T01:05:18Z</time></trkpt><trkpt lat="59.4047247246" lon="34.6752855834"><ele>173.30</ele><time>2026-08-23T01:05:39Z</time></trkpt><trkpt lat="59.4047230482" lon="34.6753355395"><ele>173.44</ele><time>2026-08-23T01:05:46Z</time></trkpt><trkpt lat="59.4047608506" lon="34.6754639503"><ele>173.41</ele><time>2026-08-23T01:05:54Z</time></trkpt><trkpt lat="59.4047696516" lon="34.6755157504"><ele>173.31</ele><time>2026-08-23T01:05:57Z</time></trkpt><trkpt lat="59.4047876727" lon="34.6755482722"><ele>173.35</ele><time>2026-08-23T01:06:00Z</time></trkpt><trkpt lat="59.4048644509" lon="34.6758796927"><ele>173.40</ele><time>2026-08-23T01:06:18Z</time></trkpt><trkpt lat="59.4048642833" lon="34.6758910920"><ele>173.44</ele><time>2026-08-23T01:06:19Z</time></trkpt><trkpt lat="59.4049689732" lon="34.6759929322"><ele>173.61</ele><time>2026-08-23T01:06:32Z</time></trkpt><trkpt lat="59.4050833862" lon="34.6761204209"><ele>173.68</ele><time>2026-08-23T01:06:44Z</time></trkpt><trkpt lat="59.4052493479" lon="34.6762574650"><ele>173.68</ele><time>2026-08-23T01:07:00Z</time></trkpt><trkpt lat="59.4053856377" lon="34.6763977781"><ele>173.25</ele><time>2026-08-23T01:07:16Z</time></trkpt><trkpt lat="59.4054165669" lon="34.6764177270"><ele>173.34</ele><time>2026-08-23T01:07:19Z</time></trkpt><trkpt lat="59.4054925907" lon="34.6764099319"><ele>173.12</ele><time>2026-08-23T01:07:36Z</time></trkpt><trkpt lat="59.4055182394" lon="34.6764438786"><ele>173.21</ele><time>2026-08-23T01:07:50Z</time></trkpt><trkpt lat="59.4055327401" lon="34.6764552779"><ele>173.11</ele><time>2026-08-23T01:07:52Z</time></trkpt><trkpt lat="59.4056032319" lon="34.6765141189"><ele>173.14</ele><time>2026-08-23T01:08:03Z</time></trkpt><trkpt lat="59.4056181516" lon="34.6765145380"><ele>173.37</ele><time>2026-08-23T01:08:05Z</time></trkpt><trkpt lat="59.4056393579" lon="34.6765040606"><ele>173.36</ele><time>2026-08-23T01:08:07Z</time></trkpt><trkpt lat="59.4058054872" lon="34.6764914878"><ele>173.00</ele><time>2026-08-23T01:08:21Z</time></trkpt><trkpt lat="59.4059029687" lon="34.6764261927"><ele>172.98</ele><time>2026-08-23T01:08:32Z</time></trkpt><trkpt lat="59.4059809204" lon="34.6763219219"><ele>173.09</ele><time>2026-08-23T01:08:40Z</time></trkpt><trkpt lat="59.4060389232" lon="34.6762989555"><ele>173.20</ele><time>2026-08-23T01:08:44Z</time></trkpt><trkpt lat="59.4060757197" lon="34.6762578841"><ele>173.17</ele><time>2026-08-23T01:08:47Z</time></trkpt><trkpt lat="59.4060929865" lon="34.6762346663"><ele>173.08</ele><time>2026-08-23T01:08:48Z</time></trkpt><trkpt lat="59.4061090797" lon="34.6762108617"><ele>173.26</ele><time>2026-08-23T01:08:49Z</time></trkpt><trkpt lat="59.4061800744" lon="34.6761553735"><ele>173.33</ele><time>2026-08-23T01:08:57Z</time></trkpt><trkpt lat="59.4061886240" lon="34.6761434712"><ele>173.37</ele><time>2026-08-23T01:08:58Z</time></trkpt><trkpt lat="59.4063040428" lon="34.6760070976"><ele>173.56</ele><time>2026-08-23T01:09:12Z</time></trkpt><trkpt lat="59.4064428471" lon="34.6759505197"><ele>173.74</ele><time>2026-08-23T01:09:28Z</time></trkpt><trkpt lat="59.4065922964" lon="34.6759427246"><ele>173.98</ele><time>2026-08-23T01:09:41Z</time></trkpt><trkpt lat="59.4067416620" lon="34.6758419741"><ele>173.82</ele><time>2026-08-23T01:09:55Z</time></trkpt><trkpt lat="59.4067750219" lon="34.6758097876"><ele>173.59</ele><time>2026-08-23T01:10:02Z</time></trkpt><trkpt lat="59.4069342781" lon="34.6759485919"><ele>173.77</ele><time>2026-08-23T01:10:16Z</time></trkpt><trkpt lat="59.4070175942" lon="34.6760094445"><ele>173.50</ele><time>2026-08-23T01:10:30Z</time></trkpt><trkpt lat="59.4071207754" lon="34.6761606541"><ele>174.00</ele><time>2026-08-23T01:10:48Z</time></trkpt><trkpt lat="59.4071767665" lon="34.6762804314"><ele>174.32</ele><time>2026-08-23T01:10:56Z</time></trkpt><trkpt lat="59.4071866572" lon="34.6763791703"><ele>174.44</ele><time>2026-08-23T01:11:01Z</time></trkpt><trkpt lat="59.4072913472" lon="34.6765571181"><ele>174.05</ele><time>2026-08-23T01:11:14Z</time></trkpt><trkpt lat="59.4073026627" lon="34.6766724531"><ele>173.54</ele><time>2026-08-23T01:11:29Z</time></trkpt><trkpt lat="59.4073590729" lon="34.6769302804"><ele>172.97</ele><time>2026-08-23T01:11:46Z</time></trkpt><trkpt lat="59.4073756691" lon="34.6770093217"><ele>173.02</ele><time>2026-08-23T01:11:51Z</time></trkpt><trkpt lat="59.4074136391" lon="34.6773085557"><ele>172.72</ele><time>2026-08-23T01:12:12Z</time></trkpt><trkpt lat="59.4074142259" lon="34.6773387305"><ele>172.84</ele><time>2026-08-23T01:12:14Z</time></trkpt><trkpt lat="59.4074095320" lon="34.6775817219"><ele>172.64</ele><time>2026-08-23T01:12:27Z</time></trkpt><trkpt lat="59.4074076880" lon="34.6777187660"><ele>172.70</ele><time>2026-08-23T01:12:38Z</time></trkpt><trkpt lat="59.4074126333" lon="34.6777650341"><ele>172.83</ele><time>2026-08-23T01:12:40Z</time></trkpt><trkpt lat="59.4074002281" lon="34.6780644357"><ele>173.26</ele><time>2026-08-23T01:12:53Z</time></trkpt><trkpt lat="59.4073934387" lon="34.6780844685"><ele>173.26</ele><time>2026-08-23T01:12:54Z</time></trkpt><trkpt lat="59.4072999805" lon="34.6783818584"><ele>172.99</ele><time>2026-08-23T01:13:08Z</time></trkpt><trkpt lat="59.4072934426" lon="34.6784051601"><ele>172.98</ele><time>2026-08-23T01:13:09Z</time></trkpt><trkpt lat="59.4072032534" lon="34.6785652544"><ele>173.26</ele><time>2026-08-23T01:13:21Z</time></trkpt><trkpt lat="59.4071951229" lon="34.6785796713"><ele>173.20</ele><time>2026-08-23T01:13:22Z</time></trkpt><trkpt lat="59.4071784429" lon="34.6786084212"><ele>173.11</ele><time>2026-08-23T01:13:24Z</time></trkpt><trkpt lat="59.4070621859" lon="34.6787931584"><ele>173.21</ele><time>2026-08-23T01:13:41Z</time></trkpt><trkpt lat="59.4070270658" lon="34.6789614670"><ele>173.17</ele><time>2026-08-23T01:13:53Z</time></trkpt><trkpt lat="59.4070220366" lon="34.6789873671"><ele>173.32</ele><time>2026-08-23T01:13:54Z</time></trkpt><trkpt lat="59.4070172589" lon="34.6790133510"><ele>173.28</ele><time>2026-08-23T01:13:55Z</time></trkpt><trkpt lat="59.4069605973" lon="34.6792987548"><ele>173.41</ele><time>2026-08-23T01:14:11Z</time></trkpt><trkpt lat="59.4069523830" lon="34.6794575080"><ele>173.24</ele><time>2026-08-23T01:14:26Z</time></trkpt><trkpt lat="59.4069482759" lon="34.6796378866"><ele>173.34</ele><time>2026-08-23T01:14:42Z</time></trkpt><trkpt lat="59.4069736730" lon="34.6797331888"><ele>173.66</ele><time>2026-08-23T01:14:49Z</time></trkpt><trkpt lat="59.4070418179" lon="34.6799252182"><ele>174.23</ele><time>2026-08-23T01:15:04Z</time></trkpt><trkpt lat="59.4070840627" lon="34.6801937744"><ele>175.08</ele><time>2026-08-23T01:15:21Z</time></trkpt><trkpt lat="59.4071275648" lon="34.6804402862"><ele>175.42</ele><time>2026-08-23T01:15:38Z</time></trkpt><trkpt lat="59.4071049336" lon="34.6806301363"><ele>175.26</ele><time>2026-08-23T01:15:57Z</time></trkpt><trkpt lat="59.4070847332" lon="34.6808152925"><ele>175.41</ele><time>2026-08-23T01:16:13Z</time></trkpt><trkpt lat="59.4070814643" lon="34.6808464732"><ele>175.46</ele><time>2026-08-23T01:16:15Z</time></trkpt><trkpt lat="59.4070831407" lon="34.6808698587"><ele>175.40</ele><time>2026-08-23T01:16:16Z</time></trkpt><trkpt lat="59.4070905168" lon="34.6809377521"><ele>175.37</ele><time>2026-08-23T01:16:19Z</time></trkpt><trkpt lat="59.4070909359" lon="34.6809602994"><ele>175.51</ele><time>2026-08-23T01:16:20Z</time></trkpt><trkpt lat="59.4070908520" lon="34.6809839364"><ele>175.45</ele><time>2026-08-23T01:16:21Z</time></trkpt><trkpt lat="59.4070933666" lon="34.6810607985"><ele>175.61</ele><time>2026-08-23T01:16:25Z</time></trkpt><trkpt lat="59.4071787782" lon="34.6812906303"><ele>175.61</ele><time>2026-08-23T01:16:40Z</time></trkpt><trkpt lat="59.4072804507" lon="34.6815427579"><ele>175.64</ele><time>2026-08-23T01:16:57Z</time></trkpt><trkpt lat="59.4073392916" lon="34.6816332825"><ele>175.85</ele><time>2026-08-23T01:17:04Z</time></trkpt><trkpt lat="59.4073834643" lon="34.6817203704"><ele>175.91</ele><time>2026-08-23T01:17:11Z</time></trkpt><trkpt lat="59.4075051695" lon="34.6819831431"><ele>175.70</ele><time>2026-08-23T01:17:27Z</time></trkpt><trkpt lat="59.4076302275" lon="34.6822071914"><ele>175.25</ele><time>2026-08-23T01:17:42Z</time></trkpt><trkpt lat="59.4076454826" lon="34.6822417248"><ele>175.18</ele><time>2026-08-23T01:17:45Z</time></trkpt><trkpt lat="59.4076522719" lon="34.6822529566"><ele>175.17</ele><time>2026-08-23T01:17:46Z</time></trkpt><trkpt lat="59.4077684451" lon="34.6823722310"><ele>174.99</ele><time>2026-08-23T01:17:57Z</time></trkpt><trkpt lat="59.4077810179" lon="34.6823847201"><ele>175.05</ele><time>2026-08-23T01:17:58Z</time></trkpt><trkpt lat="59.4077922497" lon="34.6824015677"><ele>175.00</ele><time>2026-08-23T01:17:59Z</time></trkpt><trkpt lat="59.4078681897" lon="34.6825271286"><ele>174.59</ele><time>2026-08-23T01:18:11Z</time></trkpt><trkpt lat="59.4079383463" lon="34.6826686990"><ele>174.17</ele><time>2026-08-23T01:18:27Z</time></trkpt><trkpt lat="59.4079516735" lon="34.6826831996"><ele>174.11</ele><time>2026-08-23T01:18:33Z</time></trkpt><trkpt lat="59.4079790823" lon="34.6827331558"><ele>174.12</ele><time>2026-08-23T01:18:37Z</time></trkpt><trkpt lat="59.4080120232" lon="34.6827808488"><ele>174.01</ele><time>2026-08-23T01:18:42Z</time></trkpt><trkpt lat="59.4080183934" lon="34.6827931702"><ele>174.09</ele><time>2026-08-23T01:18:43Z</time></trkpt><trkpt lat="59.4080326427" lon="34.6828138735"><ele>174.06</ele><time>2026-08-23T01:18:45Z</time></trkpt><trkpt lat="59.4080400188" lon="34.6828263626"><ele>174.20</ele><time>2026-08-23T01:18:46Z</time></trkpt><trkpt lat="59.4080823474" lon="34.6829189826"><ele>173.22</ele><time>2026-08-23T01:18:52Z</time></trkpt><trkpt lat="59.4081449602" lon="34.6830145363"><ele>173.71</ele><time>2026-08-23T01:18:59Z</time></trkpt><trkpt lat="59.4081674237" lon="34.6830481477"><ele>173.60</ele><time>2026-08-23T01:19:02Z</time></trkpt><trkpt lat="59.4082374964" lon="34.6831651591"><ele>173.37</ele><time>2026-08-23T01:19:10Z</time></trkpt><trkpt lat="59.4083785638" lon="34.6833480522"><ele>172.90</ele><time>2026-08-23T01:19:23Z</time></trkpt><trkpt lat="59.4084929768" lon="34.6835175343"><ele>172.63</ele><time>2026-08-23T01:19:35Z</time></trkpt><trkpt lat="59.4085708447" lon="34.6836010180"><ele>172.39</ele><time>2026-08-23T01:19:42Z</time></trkpt><trkpt lat="59.4086335413" lon="34.6837246511"><ele>172.48</ele><time>2026-08-23T01:19:51Z</time></trkpt><trkpt lat="59.4086388219" lon="34.6837417502"><ele>172.45</ele><time>2026-08-23T01:19:52Z</time></trkpt><trkpt lat="59.4087423384" lon="34.6839880943"><ele>172.79</ele><time>2026-08-23T01:20:06Z</time></trkpt><trkpt lat="59.4088898599" lon="34.6843340993"><ele>173.17</ele><time>2026-08-23T01:20:30Z</time></trkpt><trkpt lat="59.4089148380" lon="34.6844161581"><ele>173.40</ele><time>2026-08-23T01:20:34Z</time></trkpt><trkpt lat="59.4089200348" lon="34.6844636835"><ele>173.15</ele><time>2026-08-23T01:20:36Z</time></trkpt><trkpt lat="59.4089243934" lon="34.6844857279"><ele>173.16</ele><time>2026-08-23T01:20:37Z</time></trkpt><trkpt lat="59.4090319332" lon="34.6848172322"><ele>172.97</ele><time>2026-08-23T01:20:55Z</time></trkpt><trkpt lat="59.4090373814" lon="34.6848336607"><ele>172.97</ele><time>2026-08-23T01:20:56Z</time></trkpt><trkpt lat="59.4090640359" lon="34.6848900709"><ele>173.09</ele><time>2026-08-23T01:20:59Z</time></trkpt><trkpt lat="59.4091259781" lon="34.6850413643"><ele>173.01</ele><time>2026-08-23T01:21:09Z</time></trkpt><trkpt lat="59.4091532193" lon="34.6851502452"><ele>173.05</ele><time>2026-08-23T01:21:15Z</time></trkpt><trkpt lat="59.4092493597" lon="34.6854697634"><ele>173.25</ele><time>2026-08-23T01:21:32Z</time></trkpt><trkpt lat="59.4093741663" lon="34.6858015191"><ele>173.12</ele><time>2026-08-23T01:21:50Z</time></trkpt><trkpt lat="59.4094973803" lon="34.6861593425"><ele>172.13</ele><time>2026-08-23T01:22:08Z</time></trkpt><trkpt lat="59.4095239509" lon="34.6862755995"><ele>172.01</ele><time>2026-08-23T01:22:14Z</time></trkpt><trkpt lat="59.4095330872" lon="34.6863388829"><ele>172.00</ele><time>2026-08-23T01:22:18Z</time></trkpt><trkpt lat="59.4095368590" lon="34.6863565687"><ele>172.14</ele><time>2026-08-23T01:22:19Z</time></trkpt><trkpt lat="59.4095402956" lon="34.6863778587"><ele>172.07</ele><time>2026-08-23T01:22:20Z</time></trkpt><trkpt lat="59.4095438998" lon="34.6863987297"><ele>172.21</ele><time>2026-08-23T01:22:21Z</time></trkpt><trkpt lat="59.4095736556" lon="34.6865889989"><ele>172.13</ele><time>2026-08-23T01:22:30Z</time></trkpt><trkpt lat="59.4095821213" lon="34.6869625803"><ele>173.36</ele><time>2026-08-23T01:22:48Z</time></trkpt><trkpt lat="59.4095708895" lon="34.6874045581"><ele>174.09</ele><time>2026-08-23T01:23:08Z</time></trkpt><trkpt lat="59.4095695484" lon="34.6878708433"><ele>174.15</ele><time>2026-08-23T01:23:29Z</time></trkpt><trkpt lat="59.4096095301" lon="34.6883768588"><ele>175.13</ele><time>2026-08-23T01:23:52Z</time></trkpt><trkpt lat="59.4096244499" lon="34.6888392884"><ele>174.70</ele><time>2026-08-23T01:24:12Z</time></trkpt><trkpt lat="59.4094952848" lon="34.6892803442"><ele>173.83</ele><time>2026-08-23T01:24:33Z</time></trkpt><trkpt lat="59.4092963822" lon="34.6897610463"><ele>171.11</ele><time>2026-08-23T01:24:57Z</time></trkpt><trkpt lat="59.4091517944" lon="34.6902061254"><ele>170.83</ele><time>2026-08-23T01:25:19Z</time></trkpt><trkpt lat="59.4090634491" lon="34.6905735880"><ele>171.20</ele><time>2026-08-23T01:25:36Z</time></trkpt><trkpt lat="59.4089714997" lon="34.6910441481"><ele>171.71</ele><time>2026-08-23T01:25:57Z</time></trkpt><trkpt lat="59.4089197833" lon="34.6913927514"><ele>173.28</ele><time>2026-08-23T01:26:14Z</time></trkpt><trkpt lat="59.4089037739" lon="34.6915510856"><ele>174.66</ele><time>2026-08-23T01:26:22Z</time></trkpt><trkpt lat="59.4088795502" lon="34.6916074958"><ele>173.08</ele><time>2026-08-23T01:26:32Z</time></trkpt><trkpt lat="59.4087730162" lon="34.6919229906"><ele>172.88</ele><time>2026-08-23T01:26:49Z</time></trkpt><trkpt lat="59.4086421747" lon="34.6923590172"><ele>171.58</ele><time>2026-08-23T01:27:10Z</time></trkpt><trkpt lat="59.4085421786" lon="34.6927444171"><ele>171.47</ele><time>2026-08-23T01:27:29Z</time></trkpt><trkpt lat="59.4084703457" lon="34.6931864787"><ele>171.96</ele><time>2026-08-23T01:27:49Z</time></trkpt><trkpt lat="59.4083931483" lon="34.6936453879"><ele>171.28</ele><time>2026-08-23T01:28:09Z</time></trkpt><trkpt lat="59.4083081558" lon="34.6941851825"><ele>170.68</ele><time>2026-08-23T01:28:31Z</time></trkpt><trkpt lat="59.4082440343" lon="34.6946364641"><ele>170.35</ele><time>2026-08-23T01:28:50Z</time></trkpt><trkpt lat="59.4081880432" lon="34.6951156575"><ele>170.07</ele><time>2026-08-23T01:29:11Z</time></trkpt><trkpt lat="59.4081559405" lon="34.6955079306"><ele>169.48</ele><time>2026-08-23T01:29:29Z</time></trkpt><trkpt lat="59.4081242569" lon="34.6957849525"><ele>169.60</ele><time>2026-08-23T01:29:44Z</time></trkpt><trkpt lat="59.4081255980" lon="34.6958023869"><ele>168.41</ele><time>2026-08-23T01:29:45Z</time></trkpt><trkpt lat="59.4081231672" lon="34.6958223358"><ele>169.98</ele><time>2026-08-23T01:29:46Z</time></trkpt><trkpt lat="59.4081182219" lon="34.6958420333"><ele>169.91</ele><time>2026-08-23T01:29:47Z</time></trkpt><trkpt lat="59.4080597162" lon="34.6961737890"><ele>169.61</ele><time>2026-08-23T01:30:03Z</time></trkpt><trkpt lat="59.4080037251" lon="34.6965596918"><ele>169.96</ele><time>2026-08-23T01:30:20Z</time></trkpt><trkpt lat="59.4079597201" lon="34.6968170162"><ele>170.39</ele><time>2026-08-23T01:30:32Z</time></trkpt><trkpt lat="59.4079595525" lon="34.6968357917"><ele>170.28</ele><time>2026-08-23T01:30:33Z</time></trkpt><trkpt lat="59.4079429563" lon="34.6969803795"><ele>170.18</ele><time>2026-08-23T01:30:42Z</time></trkpt><trkpt lat="59.4079394359" lon="34.6969997417"><ele>169.98</ele><time>2026-08-23T01:30:43Z</time></trkpt><trkpt lat="59.4078739733" lon="34.6972059365"><ele>170.11</ele><time>2026-08-23T01:30:58Z</time></trkpt><trkpt lat="59.4077166449" lon="34.6973137278"><ele>170.55</ele><time>2026-08-23T01:31:13Z</time></trkpt><trkpt lat="59.4076920860" lon="34.6973532904"><ele>170.66</ele><time>2026-08-23T01:31:16Z</time></trkpt><trkpt lat="59.4076806866" lon="34.6973695513"><ele>170.65</ele><time>2026-08-23T01:31:17Z</time></trkpt><trkpt lat="59.4075527787" lon="34.6976884827"><ele>170.36</ele><time>2026-08-23T01:31:34Z</time></trkpt><trkpt lat="59.4074674509" lon="34.6979517583"><ele>170.51</ele><time>2026-08-23T01:31:49Z</time></trkpt><trkpt lat="59.4074613322" lon="34.6979708690"><ele>170.64</ele><time>2026-08-23T01:31:50Z</time></trkpt><trkpt lat="59.4074554648" lon="34.6979900636"><ele>170.62</ele><time>2026-08-23T01:31:51Z</time></trkpt><trkpt lat="59.4074448198" lon="34.6980233397"><ele>170.54</ele><time>2026-08-23T01:31:53Z</time></trkpt><trkpt lat="59.4073120505" lon="34.6983000264"><ele>171.62</ele><time>2026-08-23T01:32:11Z</time></trkpt><trkpt lat="59.4071808737" lon="34.6986467857"><ele>171.93</ele><time>2026-08-23T01:32:31Z</time></trkpt><trkpt lat="59.4070677180" lon="34.6990181878"><ele>171.60</ele><time>2026-08-23T01:32:50Z</time></trkpt><trkpt lat="59.4069627766" lon="34.6994091198"><ele>170.88</ele><time>2026-08-23T01:33:08Z</time></trkpt><trkpt lat="59.4068640377" lon="34.6998212580"><ele>169.98</ele><time>2026-08-23T01:33:26Z</time></trkpt><trkpt lat="59.4067629520" lon="34.7002561949"><ele>170.05</ele><time>2026-08-23T01:33:45Z</time></trkpt><trkpt lat="59.4066880178" lon="34.7006088216"><ele>169.96</ele><time>2026-08-23T01:34:01Z</time></trkpt><trkpt lat="59.4066039473" lon="34.7010079678"><ele>169.98</ele><time>2026-08-23T01:34:18Z</time></trkpt><trkpt lat="59.4065157697" lon="34.7013931163"><ele>168.94</ele><time>2026-08-23T01:34:34Z</time></trkpt><trkpt lat="59.4065078907" lon="34.7014169209"><ele>169.02</ele><time>2026-08-23T01:34:35Z</time></trkpt><trkpt lat="59.4065013528" lon="34.7014398873"><ele>168.83</ele><time>2026-08-23T01:34:36Z</time></trkpt><trkpt lat="59.4064969942" lon="34.7014637757"><ele>168.74</ele><time>2026-08-23T01:34:37Z</time></trkpt><trkpt lat="59.4064935576" lon="34.7014887538"><ele>168.74</ele><time>2026-08-23T01:34:38Z</time></trkpt><trkpt lat="59.4064911269" lon="34.7015144862"><ele>168.71</ele><time>2026-08-23T01:34:39Z</time></trkpt><trkpt lat="59.4064120855" lon="34.7019417956"><ele>169.08</ele><time>2026-08-23T01:34:58Z</time></trkpt><trkpt lat="59.4062995166" lon="34.7024324723"><ele>169.39</ele><time>2026-08-23T01:35:20Z</time></trkpt><trkpt lat="59.4062103331" lon="34.7029111627"><ele>168.44</ele><time>2026-08-23T01:35:39Z</time></trkpt><trkpt lat="59.4061408471" lon="34.7033956368"><ele>167.53</ele><time>2026-08-23T01:35:59Z</time></trkpt><trkpt lat="59.4060398452" lon="34.7038015723"><ele>166.80</ele><time>2026-08-23T01:36:17Z</time></trkpt><trkpt lat="59.4059805851" lon="34.7040152270"><ele>167.15</ele><time>2026-08-23T01:36:32Z</time></trkpt><trkpt lat="59.4059466384" lon="34.7040714696"><ele>167.13</ele><time>2026-08-23T01:36:39Z</time></trkpt><trkpt lat="59.4059357420" lon="34.7040946875"><ele>167.07</ele><time>2026-08-23T01:36:40Z</time></trkpt><trkpt lat="59.4059245940" lon="34.7041228507"><ele>167.02</ele><time>2026-08-23T01:36:41Z</time></trkpt><trkpt lat="59.4059004541" lon="34.7041905764"><ele>166.96</ele><time>2026-08-23T01:36:44Z</time></trkpt><trkpt lat="59.4058555271" lon="34.7043490782"><ele>166.93</ele><time>2026-08-23T01:36:51Z</time></trkpt><trkpt lat="59.4057929981" lon="34.7045704443"><ele>167.27</ele><time>2026-08-23T01:37:02Z</time></trkpt><trkpt lat="59.4057875499" lon="34.7046044748"><ele>167.45</ele><time>2026-08-23T01:37:04Z</time></trkpt><trkpt lat="59.4057812635" lon="34.7046454623"><ele>167.43</ele><time>2026-08-23T01:37:06Z</time></trkpt><trkpt lat="59.4057756476" lon="34.7046666685"><ele>167.34</ele><time>2026-08-23T01:37:07Z</time></trkpt><trkpt lat="59.4057099335" lon="34.7047985997"><ele>167.53</ele><time>2026-08-23T01:37:18Z</time></trkpt><trkpt lat="59.4056936726" lon="34.7048330493"><ele>167.35</ele><time>2026-08-23T01:37:25Z</time></trkpt><trkpt lat="59.4056938402" lon="34.7048481368"><ele>167.52</ele><time>2026-08-23T01:37:26Z</time></trkpt><trkpt lat="59.4056897331" lon="34.7048664931"><ele>167.44</ele><time>2026-08-23T01:37:27Z</time></trkpt><trkpt lat="59.4056194928" lon="34.7053924575"><ele>167.53</ele><time>2026-08-23T01:37:50Z</time></trkpt><trkpt lat="59.4055836182" lon="34.7058345191"><ele>167.94</ele><time>2026-08-23T01:38:10Z</time></trkpt><trkpt lat="59.4055503421" lon="34.7063337453"><ele>167.64</ele><time>2026-08-23T01:38:31Z</time></trkpt><trkpt lat="59.4054789282" lon="34.7068141960"><ele>167.03</ele><time>2026-08-23T01:38:50Z</time></trkpt><trkpt lat="59.4053645991" lon="34.7071487177"><ele>167.00</ele><time>2026-08-23T01:39:06Z</time></trkpt><trkpt lat="59.4052677881" lon="34.7075383924"><ele>168.03</ele><time>2026-08-23T01:39:25Z</time></trkpt><trkpt lat="59.4052633457" lon="34.7075599339"><ele>168.07</ele><time>2026-08-23T01:39:26Z</time></trkpt><trkpt lat="59.4052592386" lon="34.7075813916"><ele>168.01</ele><time>2026-08-23T01:39:27Z</time></trkpt><trkpt lat="59.4052551314" lon="34.7076045256"><ele>167.90</ele><time>2026-08-23T01:39:28Z</time></trkpt><trkpt lat="59.4052514434" lon="34.7076289169"><ele>168.06</ele><time>2026-08-23T01:39:29Z</time></trkpt><trkpt lat="59.4052477553" lon="34.7076532245"><ele>168.01</ele><time>2026-08-23T01:39:30Z</time></trkpt><trkpt lat="59.4052129705" lon="34.7082219366"><ele>167.93</ele><time>2026-08-23T01:39:53Z</time></trkpt><trkpt lat="59.4051690493" lon="34.7087233420"><ele>166.88</ele><time>2026-08-23T01:40:12Z</time></trkpt><trkpt lat="59.4052431453" lon="34.7090889607"><ele>167.20</ele><time>2026-08-23T01:40:28Z</time></trkpt><trkpt lat="59.4053560495" lon="34.7093294375"><ele>168.54</ele><time>2026-08-23T01:40:42Z</time></trkpt><trkpt lat="59.4053675327" lon="34.7093333770"><ele>168.57</ele><time>2026-08-23T01:40:43Z</time></trkpt><trkpt lat="59.4053785969" lon="34.7093381546"><ele>168.46</ele><time>2026-08-23T01:40:44Z</time></trkpt><trkpt lat="59.4054057542" lon="34.7093586903"><ele>168.42</ele><time>2026-08-23T01:41:07Z</time></trkpt><trkpt lat="59.4054028206" lon="34.7093592770"><ele>166.51</ele><time>2026-08-23T01:41:34Z</time></trkpt><trkpt lat="59.4054052513" lon="34.7093588579"><ele>168.32</ele><time>2026-08-23T01:41:40Z</time></trkpt><trkpt lat="59.4054106995" lon="34.7093603667"><ele>168.08</ele><time>2026-08-23T01:42:49Z</time></trkpt><trkpt lat="59.4054146390" lon="34.7093746997"><ele>167.71</ele><time>2026-08-23T01:43:43Z</time></trkpt></trkseg></trk></gpx>